<?xml version="1.0" encoding="UTF-8" standalone="no" ?>
<gpx xmlns="http://www.topografix.com/GPX/1/1" xmlns:xsi="http://www.w3.org/2001/XMLSchema-instance" xsi:schemaLocation="http://www.topografix.com/GPX/1/1 http://www.topografix.com/GPX/1/1/gpx.xsd" version="1.1" creator="VisuGPX - https://www.visugpx.com">
  <metadata>
    <name>Pointe de la Carmelite (2477m)</name>
  </metadata>
  <trk>
    <name><![CDATA[Trekking_2022-03-06T10_12_25 on AllTrails]]></name>
    <extensions>
      <line xmlns="http://www.topografix.com/GPX/gpx_style/0/2">
        <color>0000FF</color>
        <width>4</width>
      </line>
    </extensions>
    <trkseg>
      <trkpt lat="46.00118" lon="6.54084">
        <ele>1048</ele>
        <time>2022-03-06T09:12:25Z</time>
      </trkpt>
      <trkpt lat="46.00116" lon="6.54085">
        <ele>1048</ele>
        <time>2022-03-06T09:12:27Z</time>
      </trkpt>
      <trkpt lat="46.00114" lon="6.54084">
        <ele>1048</ele>
        <time>2022-03-06T09:12:29Z</time>
      </trkpt>
      <trkpt lat="46.00111" lon="6.54084">
        <ele>1048</ele>
        <time>2022-03-06T09:12:31Z</time>
      </trkpt>
      <trkpt lat="46.00109" lon="6.54083">
        <ele>1047</ele>
        <time>2022-03-06T09:12:33Z</time>
      </trkpt>
      <trkpt lat="46.00106" lon="6.54083">
        <ele>1047</ele>
        <time>2022-03-06T09:12:35Z</time>
      </trkpt>
      <trkpt lat="46.00103" lon="6.54083">
        <ele>1047</ele>
        <time>2022-03-06T09:12:37Z</time>
      </trkpt>
      <trkpt lat="46.00101" lon="6.54083">
        <ele>1047</ele>
        <time>2022-03-06T09:12:39Z</time>
      </trkpt>
      <trkpt lat="46.00098" lon="6.54082">
        <ele>1047</ele>
        <time>2022-03-06T09:12:41Z</time>
      </trkpt>
      <trkpt lat="46.00095" lon="6.54082">
        <ele>1047</ele>
        <time>2022-03-06T09:12:43Z</time>
      </trkpt>
      <trkpt lat="46.00093" lon="6.54082">
        <ele>1047</ele>
        <time>2022-03-06T09:12:45Z</time>
      </trkpt>
      <trkpt lat="46.0009" lon="6.54082">
        <ele>1047</ele>
        <time>2022-03-06T09:12:47Z</time>
      </trkpt>
      <trkpt lat="46.00088" lon="6.54082">
        <ele>1047</ele>
        <time>2022-03-06T09:12:49Z</time>
      </trkpt>
      <trkpt lat="46.00086" lon="6.54082">
        <ele>1047</ele>
        <time>2022-03-06T09:12:51Z</time>
      </trkpt>
      <trkpt lat="46.00084" lon="6.54082">
        <ele>1046</ele>
        <time>2022-03-06T09:12:53Z</time>
      </trkpt>
      <trkpt lat="46.00081" lon="6.54083">
        <ele>1047</ele>
        <time>2022-03-06T09:12:56Z</time>
      </trkpt>
      <trkpt lat="46.00079" lon="6.54083">
        <ele>1047</ele>
        <time>2022-03-06T09:12:58Z</time>
      </trkpt>
      <trkpt lat="46.00077" lon="6.54082">
        <ele>1047</ele>
        <time>2022-03-06T09:13:01Z</time>
      </trkpt>
      <trkpt lat="46.00075" lon="6.54082">
        <ele>1047</ele>
        <time>2022-03-06T09:13:03Z</time>
      </trkpt>
      <trkpt lat="46.00072" lon="6.54083">
        <ele>1048</ele>
        <time>2022-03-06T09:13:05Z</time>
      </trkpt>
      <trkpt lat="46.0007" lon="6.54085">
        <ele>1048</ele>
        <time>2022-03-06T09:13:07Z</time>
      </trkpt>
      <trkpt lat="46.00068" lon="6.54086">
        <ele>1049</ele>
        <time>2022-03-06T09:13:09Z</time>
      </trkpt>
      <trkpt lat="46.00066" lon="6.54088">
        <ele>1049</ele>
        <time>2022-03-06T09:13:11Z</time>
      </trkpt>
      <trkpt lat="46.00063" lon="6.5409">
        <ele>1049</ele>
        <time>2022-03-06T09:13:13Z</time>
      </trkpt>
      <trkpt lat="46.00061" lon="6.54091">
        <ele>1050</ele>
        <time>2022-03-06T09:13:15Z</time>
      </trkpt>
      <trkpt lat="46.00059" lon="6.54092">
        <ele>1050</ele>
        <time>2022-03-06T09:13:17Z</time>
      </trkpt>
      <trkpt lat="46.00057" lon="6.54093">
        <ele>1050</ele>
        <time>2022-03-06T09:13:19Z</time>
      </trkpt>
      <trkpt lat="46.00055" lon="6.54094">
        <ele>1051</ele>
        <time>2022-03-06T09:13:21Z</time>
      </trkpt>
      <trkpt lat="46.00053" lon="6.54096">
        <ele>1051</ele>
        <time>2022-03-06T09:13:23Z</time>
      </trkpt>
      <trkpt lat="46.00051" lon="6.54098">
        <ele>1052</ele>
        <time>2022-03-06T09:13:26Z</time>
      </trkpt>
      <trkpt lat="46.00049" lon="6.54099">
        <ele>1052</ele>
        <time>2022-03-06T09:13:28Z</time>
      </trkpt>
      <trkpt lat="46.00047" lon="6.541">
        <ele>1052</ele>
        <time>2022-03-06T09:13:30Z</time>
      </trkpt>
      <trkpt lat="46.00045" lon="6.54101">
        <ele>1053</ele>
        <time>2022-03-06T09:13:32Z</time>
      </trkpt>
      <trkpt lat="46.00043" lon="6.54102">
        <ele>1053</ele>
        <time>2022-03-06T09:13:34Z</time>
      </trkpt>
      <trkpt lat="46.00041" lon="6.54103">
        <ele>1054</ele>
        <time>2022-03-06T09:13:36Z</time>
      </trkpt>
      <trkpt lat="46.00039" lon="6.54103">
        <ele>1054</ele>
        <time>2022-03-06T09:13:38Z</time>
      </trkpt>
      <trkpt lat="46.00037" lon="6.54104">
        <ele>1054</ele>
        <time>2022-03-06T09:13:40Z</time>
      </trkpt>
      <trkpt lat="46.00035" lon="6.54105">
        <ele>1055</ele>
        <time>2022-03-06T09:13:42Z</time>
      </trkpt>
      <trkpt lat="46.00033" lon="6.54105">
        <ele>1055</ele>
        <time>2022-03-06T09:13:44Z</time>
      </trkpt>
      <trkpt lat="46.00031" lon="6.54106">
        <ele>1055</ele>
        <time>2022-03-06T09:13:46Z</time>
      </trkpt>
      <trkpt lat="46.00029" lon="6.54107">
        <ele>1056</ele>
        <time>2022-03-06T09:13:49Z</time>
      </trkpt>
      <trkpt lat="46.00027" lon="6.54108">
        <ele>1056</ele>
        <time>2022-03-06T09:13:51Z</time>
      </trkpt>
      <trkpt lat="46.00025" lon="6.5411">
        <ele>1056</ele>
        <time>2022-03-06T09:13:52Z</time>
      </trkpt>
      <trkpt lat="46.00023" lon="6.54112">
        <ele>1057</ele>
        <time>2022-03-06T09:13:55Z</time>
      </trkpt>
      <trkpt lat="46.0002" lon="6.54113">
        <ele>1057</ele>
        <time>2022-03-06T09:13:57Z</time>
      </trkpt>
      <trkpt lat="46.00018" lon="6.54115">
        <ele>1057</ele>
        <time>2022-03-06T09:13:59Z</time>
      </trkpt>
      <trkpt lat="46.00016" lon="6.54116">
        <ele>1057</ele>
        <time>2022-03-06T09:14:01Z</time>
      </trkpt>
      <trkpt lat="46.00014" lon="6.54116">
        <ele>1058</ele>
        <time>2022-03-06T09:14:03Z</time>
      </trkpt>
      <trkpt lat="46.00012" lon="6.54117">
        <ele>1058</ele>
        <time>2022-03-06T09:14:05Z</time>
      </trkpt>
      <trkpt lat="46.0001" lon="6.54118">
        <ele>1058</ele>
        <time>2022-03-06T09:14:07Z</time>
      </trkpt>
      <trkpt lat="46.00008" lon="6.54119">
        <ele>1058</ele>
        <time>2022-03-06T09:14:08Z</time>
      </trkpt>
      <trkpt lat="46.00005" lon="6.54121">
        <ele>1059</ele>
        <time>2022-03-06T09:14:11Z</time>
      </trkpt>
      <trkpt lat="46.00003" lon="6.54122">
        <ele>1059</ele>
        <time>2022-03-06T09:14:13Z</time>
      </trkpt>
      <trkpt lat="46.00001" lon="6.54123">
        <ele>1059</ele>
        <time>2022-03-06T09:14:15Z</time>
      </trkpt>
      <trkpt lat="45.99999" lon="6.54124">
        <ele>1059</ele>
        <time>2022-03-06T09:14:17Z</time>
      </trkpt>
      <trkpt lat="45.99997" lon="6.54124">
        <ele>1059</ele>
        <time>2022-03-06T09:14:20Z</time>
      </trkpt>
      <trkpt lat="45.99995" lon="6.54125">
        <ele>1060</ele>
        <time>2022-03-06T09:14:22Z</time>
      </trkpt>
      <trkpt lat="45.99993" lon="6.54126">
        <ele>1060</ele>
        <time>2022-03-06T09:14:24Z</time>
      </trkpt>
      <trkpt lat="45.99991" lon="6.54127">
        <ele>1060</ele>
        <time>2022-03-06T09:14:26Z</time>
      </trkpt>
      <trkpt lat="45.99988" lon="6.54128">
        <ele>1061</ele>
        <time>2022-03-06T09:14:28Z</time>
      </trkpt>
      <trkpt lat="45.99987" lon="6.54129">
        <ele>1061</ele>
        <time>2022-03-06T09:14:30Z</time>
      </trkpt>
      <trkpt lat="45.99984" lon="6.5413">
        <ele>1061</ele>
        <time>2022-03-06T09:14:32Z</time>
      </trkpt>
      <trkpt lat="45.99982" lon="6.5413">
        <ele>1061</ele>
        <time>2022-03-06T09:14:34Z</time>
      </trkpt>
      <trkpt lat="45.9998" lon="6.54131">
        <ele>1062</ele>
        <time>2022-03-06T09:14:36Z</time>
      </trkpt>
      <trkpt lat="45.99978" lon="6.54132">
        <ele>1062</ele>
        <time>2022-03-06T09:14:38Z</time>
      </trkpt>
      <trkpt lat="45.99976" lon="6.54133">
        <ele>1062</ele>
        <time>2022-03-06T09:14:40Z</time>
      </trkpt>
      <trkpt lat="45.99974" lon="6.54133">
        <ele>1062</ele>
        <time>2022-03-06T09:14:41Z</time>
      </trkpt>
      <trkpt lat="45.99972" lon="6.54132">
        <ele>1062</ele>
        <time>2022-03-06T09:14:44Z</time>
      </trkpt>
      <trkpt lat="45.99965" lon="6.5413">
        <ele>1062</ele>
        <time>2022-03-06T09:14:51Z</time>
      </trkpt>
      <trkpt lat="45.99962" lon="6.5413">
        <ele>1062</ele>
        <time>2022-03-06T09:14:53Z</time>
      </trkpt>
      <trkpt lat="45.99957" lon="6.5413">
        <ele>1062</ele>
        <time>2022-03-06T09:14:56Z</time>
      </trkpt>
      <trkpt lat="45.99954" lon="6.5413">
        <ele>1063</ele>
        <time>2022-03-06T09:14:58Z</time>
      </trkpt>
      <trkpt lat="45.99952" lon="6.54129">
        <ele>1063</ele>
        <time>2022-03-06T09:14:59Z</time>
      </trkpt>
      <trkpt lat="45.9995" lon="6.54128">
        <ele>1062</ele>
        <time>2022-03-06T09:15:02Z</time>
      </trkpt>
      <trkpt lat="45.99947" lon="6.54127">
        <ele>1063</ele>
        <time>2022-03-06T09:15:04Z</time>
      </trkpt>
      <trkpt lat="45.99945" lon="6.54125">
        <ele>1063</ele>
        <time>2022-03-06T09:15:06Z</time>
      </trkpt>
      <trkpt lat="45.99943" lon="6.54126">
        <ele>1063</ele>
        <time>2022-03-06T09:15:08Z</time>
      </trkpt>
      <trkpt lat="45.99941" lon="6.54125">
        <ele>1063</ele>
        <time>2022-03-06T09:15:11Z</time>
      </trkpt>
      <trkpt lat="45.99938" lon="6.54125">
        <ele>1063</ele>
        <time>2022-03-06T09:15:14Z</time>
      </trkpt>
      <trkpt lat="45.99928" lon="6.54122">
        <ele>1063</ele>
        <time>2022-03-06T09:15:24Z</time>
      </trkpt>
      <trkpt lat="45.99926" lon="6.54122">
        <ele>1063</ele>
        <time>2022-03-06T09:15:28Z</time>
      </trkpt>
      <trkpt lat="45.99925" lon="6.5412">
        <ele>1063</ele>
        <time>2022-03-06T09:15:32Z</time>
      </trkpt>
      <trkpt lat="45.99914" lon="6.54124">
        <ele>1064</ele>
        <time>2022-03-06T09:15:40Z</time>
      </trkpt>
      <trkpt lat="45.99912" lon="6.54124">
        <ele>1064</ele>
        <time>2022-03-06T09:15:42Z</time>
      </trkpt>
      <trkpt lat="45.9991" lon="6.54123">
        <ele>1064</ele>
        <time>2022-03-06T09:15:45Z</time>
      </trkpt>
      <trkpt lat="45.99908" lon="6.54126">
        <ele>1065</ele>
        <time>2022-03-06T09:15:50Z</time>
      </trkpt>
      <trkpt lat="45.99905" lon="6.54133">
        <ele>1066</ele>
        <time>2022-03-06T09:15:52Z</time>
      </trkpt>
      <trkpt lat="45.99903" lon="6.54133">
        <ele>1066</ele>
        <time>2022-03-06T09:16:02Z</time>
      </trkpt>
      <trkpt lat="45.99902" lon="6.54136">
        <ele>1067</ele>
        <time>2022-03-06T09:16:09Z</time>
      </trkpt>
      <trkpt lat="45.99902" lon="6.54141">
        <ele>1067</ele>
        <time>2022-03-06T09:16:12Z</time>
      </trkpt>
      <trkpt lat="45.99902" lon="6.54144">
        <ele>1068</ele>
        <time>2022-03-06T09:16:18Z</time>
      </trkpt>
      <trkpt lat="45.99899" lon="6.54143">
        <ele>1068</ele>
        <time>2022-03-06T09:16:24Z</time>
      </trkpt>
      <trkpt lat="45.99896" lon="6.54149">
        <ele>1069</ele>
        <time>2022-03-06T09:16:32Z</time>
      </trkpt>
      <trkpt lat="45.99896" lon="6.54146">
        <ele>1069</ele>
        <time>2022-03-06T09:16:44Z</time>
      </trkpt>
      <trkpt lat="45.99898" lon="6.54145">
        <ele>1069</ele>
        <time>2022-03-06T09:16:55Z</time>
      </trkpt>
      <trkpt lat="45.99899" lon="6.54143">
        <ele>1068</ele>
        <time>2022-03-06T09:17:01Z</time>
      </trkpt>
      <trkpt lat="45.99901" lon="6.54145">
        <ele>1068</ele>
        <time>2022-03-06T09:17:07Z</time>
      </trkpt>
      <trkpt lat="45.99902" lon="6.54143">
        <ele>1068</ele>
        <time>2022-03-06T09:17:11Z</time>
      </trkpt>
      <trkpt lat="45.99904" lon="6.54136">
        <ele>1067</ele>
        <time>2022-03-06T09:17:14Z</time>
      </trkpt>
      <trkpt lat="45.99904" lon="6.54132">
        <ele>1066</ele>
        <time>2022-03-06T09:17:16Z</time>
      </trkpt>
      <trkpt lat="45.99909" lon="6.54135">
        <ele>1066</ele>
        <time>2022-03-06T09:17:21Z</time>
      </trkpt>
      <trkpt lat="45.99907" lon="6.54136">
        <ele>1066</ele>
        <time>2022-03-06T09:17:28Z</time>
      </trkpt>
      <trkpt lat="45.99906" lon="6.54133">
        <ele>1066</ele>
        <time>2022-03-06T09:17:31Z</time>
      </trkpt>
      <trkpt lat="45.99906" lon="6.5413">
        <ele>1066</ele>
        <time>2022-03-06T09:17:41Z</time>
      </trkpt>
      <trkpt lat="45.99903" lon="6.5413">
        <ele>1066</ele>
        <time>2022-03-06T09:17:53Z</time>
      </trkpt>
      <trkpt lat="45.99905" lon="6.54129">
        <ele>1066</ele>
        <time>2022-03-06T09:17:58Z</time>
      </trkpt>
      <trkpt lat="45.99907" lon="6.54121">
        <ele>1064</ele>
        <time>2022-03-06T09:18:15Z</time>
      </trkpt>
      <trkpt lat="45.99905" lon="6.54121">
        <ele>1065</ele>
        <time>2022-03-06T09:18:41Z</time>
      </trkpt>
      <trkpt lat="45.99903" lon="6.54122">
        <ele>1065</ele>
        <time>2022-03-06T09:18:56Z</time>
      </trkpt>
      <trkpt lat="45.99903" lon="6.54125">
        <ele>1065</ele>
        <time>2022-03-06T09:19:04Z</time>
      </trkpt>
      <trkpt lat="45.999" lon="6.54125">
        <ele>1066</ele>
        <time>2022-03-06T09:19:07Z</time>
      </trkpt>
      <trkpt lat="45.99898" lon="6.54125">
        <ele>1066</ele>
        <time>2022-03-06T09:19:09Z</time>
      </trkpt>
      <trkpt lat="45.99896" lon="6.54125">
        <ele>1066</ele>
        <time>2022-03-06T09:19:11Z</time>
      </trkpt>
      <trkpt lat="45.99894" lon="6.54125">
        <ele>1067</ele>
        <time>2022-03-06T09:19:13Z</time>
      </trkpt>
      <trkpt lat="45.99892" lon="6.54125">
        <ele>1067</ele>
        <time>2022-03-06T09:19:16Z</time>
      </trkpt>
      <trkpt lat="45.9989" lon="6.54126">
        <ele>1067</ele>
        <time>2022-03-06T09:19:23Z</time>
      </trkpt>
      <trkpt lat="45.99888" lon="6.54125">
        <ele>1068</ele>
        <time>2022-03-06T09:19:26Z</time>
      </trkpt>
      <trkpt lat="45.99886" lon="6.54125">
        <ele>1068</ele>
        <time>2022-03-06T09:19:28Z</time>
      </trkpt>
      <trkpt lat="45.99883" lon="6.54124">
        <ele>1068</ele>
        <time>2022-03-06T09:19:30Z</time>
      </trkpt>
      <trkpt lat="45.99881" lon="6.54123">
        <ele>1068</ele>
        <time>2022-03-06T09:19:33Z</time>
      </trkpt>
      <trkpt lat="45.99879" lon="6.54122">
        <ele>1069</ele>
        <time>2022-03-06T09:19:35Z</time>
      </trkpt>
      <trkpt lat="45.99876" lon="6.54122">
        <ele>1069</ele>
        <time>2022-03-06T09:19:38Z</time>
      </trkpt>
      <trkpt lat="45.99874" lon="6.54122">
        <ele>1070</ele>
        <time>2022-03-06T09:19:41Z</time>
      </trkpt>
      <trkpt lat="45.99871" lon="6.54123">
        <ele>1070</ele>
        <time>2022-03-06T09:19:44Z</time>
      </trkpt>
      <trkpt lat="45.99869" lon="6.54123">
        <ele>1070</ele>
        <time>2022-03-06T09:19:46Z</time>
      </trkpt>
      <trkpt lat="45.99867" lon="6.54123">
        <ele>1071</ele>
        <time>2022-03-06T09:19:48Z</time>
      </trkpt>
      <trkpt lat="45.99864" lon="6.54123">
        <ele>1071</ele>
        <time>2022-03-06T09:19:50Z</time>
      </trkpt>
      <trkpt lat="45.99862" lon="6.54124">
        <ele>1072</ele>
        <time>2022-03-06T09:19:53Z</time>
      </trkpt>
      <trkpt lat="45.99859" lon="6.54124">
        <ele>1072</ele>
        <time>2022-03-06T09:19:56Z</time>
      </trkpt>
      <trkpt lat="45.99857" lon="6.54123">
        <ele>1072</ele>
        <time>2022-03-06T09:19:59Z</time>
      </trkpt>
      <trkpt lat="45.99855" lon="6.54121">
        <ele>1072</ele>
        <time>2022-03-06T09:20:01Z</time>
      </trkpt>
      <trkpt lat="45.99854" lon="6.54119">
        <ele>1072</ele>
        <time>2022-03-06T09:20:04Z</time>
      </trkpt>
      <trkpt lat="45.99854" lon="6.54116">
        <ele>1072</ele>
        <time>2022-03-06T09:20:07Z</time>
      </trkpt>
      <trkpt lat="45.99852" lon="6.54114">
        <ele>1072</ele>
        <time>2022-03-06T09:20:10Z</time>
      </trkpt>
      <trkpt lat="45.9985" lon="6.54112">
        <ele>1072</ele>
        <time>2022-03-06T09:20:14Z</time>
      </trkpt>
      <trkpt lat="45.99848" lon="6.54111">
        <ele>1072</ele>
        <time>2022-03-06T09:20:18Z</time>
      </trkpt>
      <trkpt lat="45.99846" lon="6.54111">
        <ele>1072</ele>
        <time>2022-03-06T09:20:20Z</time>
      </trkpt>
      <trkpt lat="45.99844" lon="6.5411">
        <ele>1072</ele>
        <time>2022-03-06T09:20:22Z</time>
      </trkpt>
      <trkpt lat="45.99842" lon="6.54109">
        <ele>1073</ele>
        <time>2022-03-06T09:20:25Z</time>
      </trkpt>
      <trkpt lat="45.9984" lon="6.54108">
        <ele>1073</ele>
        <time>2022-03-06T09:20:28Z</time>
      </trkpt>
      <trkpt lat="45.99838" lon="6.54107">
        <ele>1073</ele>
        <time>2022-03-06T09:20:31Z</time>
      </trkpt>
      <trkpt lat="45.99836" lon="6.54105">
        <ele>1073</ele>
        <time>2022-03-06T09:20:33Z</time>
      </trkpt>
      <trkpt lat="45.99834" lon="6.54105">
        <ele>1073</ele>
        <time>2022-03-06T09:20:37Z</time>
      </trkpt>
      <trkpt lat="45.99833" lon="6.54105">
        <ele>1073</ele>
        <time>2022-03-06T09:20:39Z</time>
      </trkpt>
      <trkpt lat="45.9983" lon="6.54105">
        <ele>1074</ele>
        <time>2022-03-06T09:20:42Z</time>
      </trkpt>
      <trkpt lat="45.99828" lon="6.54106">
        <ele>1074</ele>
        <time>2022-03-06T09:20:44Z</time>
      </trkpt>
      <trkpt lat="45.99826" lon="6.54107">
        <ele>1074</ele>
        <time>2022-03-06T09:20:46Z</time>
      </trkpt>
      <trkpt lat="45.99824" lon="6.54106">
        <ele>1075</ele>
        <time>2022-03-06T09:20:48Z</time>
      </trkpt>
      <trkpt lat="45.99822" lon="6.54106">
        <ele>1075</ele>
        <time>2022-03-06T09:20:50Z</time>
      </trkpt>
      <trkpt lat="45.99819" lon="6.54105">
        <ele>1075</ele>
        <time>2022-03-06T09:20:52Z</time>
      </trkpt>
      <trkpt lat="45.99817" lon="6.54106">
        <ele>1075</ele>
        <time>2022-03-06T09:20:54Z</time>
      </trkpt>
      <trkpt lat="45.99814" lon="6.54105">
        <ele>1075</ele>
        <time>2022-03-06T09:20:56Z</time>
      </trkpt>
      <trkpt lat="45.99811" lon="6.54106">
        <ele>1076</ele>
        <time>2022-03-06T09:20:58Z</time>
      </trkpt>
      <trkpt lat="45.99809" lon="6.54106">
        <ele>1076</ele>
        <time>2022-03-06T09:21:01Z</time>
      </trkpt>
      <trkpt lat="45.99807" lon="6.54106">
        <ele>1076</ele>
        <time>2022-03-06T09:21:03Z</time>
      </trkpt>
      <trkpt lat="45.99804" lon="6.54106">
        <ele>1076</ele>
        <time>2022-03-06T09:21:05Z</time>
      </trkpt>
      <trkpt lat="45.99801" lon="6.54106">
        <ele>1077</ele>
        <time>2022-03-06T09:21:07Z</time>
      </trkpt>
      <trkpt lat="45.998" lon="6.54106">
        <ele>1077</ele>
        <time>2022-03-06T09:21:09Z</time>
      </trkpt>
      <trkpt lat="45.99797" lon="6.54107">
        <ele>1077</ele>
        <time>2022-03-06T09:21:12Z</time>
      </trkpt>
      <trkpt lat="45.99795" lon="6.54107">
        <ele>1077</ele>
        <time>2022-03-06T09:21:15Z</time>
      </trkpt>
      <trkpt lat="45.99793" lon="6.54107">
        <ele>1077</ele>
        <time>2022-03-06T09:21:17Z</time>
      </trkpt>
      <trkpt lat="45.9979" lon="6.54108">
        <ele>1077</ele>
        <time>2022-03-06T09:21:20Z</time>
      </trkpt>
      <trkpt lat="45.99788" lon="6.54108">
        <ele>1078</ele>
        <time>2022-03-06T09:21:22Z</time>
      </trkpt>
      <trkpt lat="45.99786" lon="6.54107">
        <ele>1077</ele>
        <time>2022-03-06T09:21:24Z</time>
      </trkpt>
      <trkpt lat="45.99784" lon="6.54107">
        <ele>1077</ele>
        <time>2022-03-06T09:21:26Z</time>
      </trkpt>
      <trkpt lat="45.99783" lon="6.54107">
        <ele>1078</ele>
        <time>2022-03-06T09:21:28Z</time>
      </trkpt>
      <trkpt lat="45.9978" lon="6.54108">
        <ele>1078</ele>
        <time>2022-03-06T09:21:30Z</time>
      </trkpt>
      <trkpt lat="45.99779" lon="6.54109">
        <ele>1078</ele>
        <time>2022-03-06T09:21:32Z</time>
      </trkpt>
      <trkpt lat="45.99777" lon="6.54108">
        <ele>1078</ele>
        <time>2022-03-06T09:21:40Z</time>
      </trkpt>
      <trkpt lat="45.99775" lon="6.54105">
        <ele>1078</ele>
        <time>2022-03-06T09:21:44Z</time>
      </trkpt>
      <trkpt lat="45.99773" lon="6.54106">
        <ele>1079</ele>
        <time>2022-03-06T09:21:46Z</time>
      </trkpt>
      <trkpt lat="45.99771" lon="6.54107">
        <ele>1079</ele>
        <time>2022-03-06T09:21:48Z</time>
      </trkpt>
      <trkpt lat="45.99769" lon="6.54106">
        <ele>1080</ele>
        <time>2022-03-06T09:21:51Z</time>
      </trkpt>
      <trkpt lat="45.99767" lon="6.54105">
        <ele>1080</ele>
        <time>2022-03-06T09:21:53Z</time>
      </trkpt>
      <trkpt lat="45.99764" lon="6.54105">
        <ele>1080</ele>
        <time>2022-03-06T09:21:55Z</time>
      </trkpt>
      <trkpt lat="45.99762" lon="6.54104">
        <ele>1081</ele>
        <time>2022-03-06T09:21:57Z</time>
      </trkpt>
      <trkpt lat="45.99759" lon="6.54104">
        <ele>1081</ele>
        <time>2022-03-06T09:22:00Z</time>
      </trkpt>
      <trkpt lat="45.99757" lon="6.54104">
        <ele>1082</ele>
        <time>2022-03-06T09:22:03Z</time>
      </trkpt>
      <trkpt lat="45.99754" lon="6.54103">
        <ele>1082</ele>
        <time>2022-03-06T09:22:05Z</time>
      </trkpt>
      <trkpt lat="45.99751" lon="6.54103">
        <ele>1083</ele>
        <time>2022-03-06T09:22:09Z</time>
      </trkpt>
      <trkpt lat="45.99749" lon="6.54105">
        <ele>1084</ele>
        <time>2022-03-06T09:22:13Z</time>
      </trkpt>
      <trkpt lat="45.99747" lon="6.54106">
        <ele>1084</ele>
        <time>2022-03-06T09:22:15Z</time>
      </trkpt>
      <trkpt lat="45.99745" lon="6.54108">
        <ele>1084</ele>
        <time>2022-03-06T09:22:17Z</time>
      </trkpt>
      <trkpt lat="45.99743" lon="6.5411">
        <ele>1085</ele>
        <time>2022-03-06T09:22:19Z</time>
      </trkpt>
      <trkpt lat="45.99741" lon="6.54112">
        <ele>1085</ele>
        <time>2022-03-06T09:22:21Z</time>
      </trkpt>
      <trkpt lat="45.9974" lon="6.54114">
        <ele>1086</ele>
        <time>2022-03-06T09:22:23Z</time>
      </trkpt>
      <trkpt lat="45.99737" lon="6.54118">
        <ele>1087</ele>
        <time>2022-03-06T09:22:26Z</time>
      </trkpt>
      <trkpt lat="45.99735" lon="6.54122">
        <ele>1088</ele>
        <time>2022-03-06T09:22:28Z</time>
      </trkpt>
      <trkpt lat="45.99733" lon="6.54123">
        <ele>1088</ele>
        <time>2022-03-06T09:22:30Z</time>
      </trkpt>
      <trkpt lat="45.99731" lon="6.54125">
        <ele>1089</ele>
        <time>2022-03-06T09:22:33Z</time>
      </trkpt>
      <trkpt lat="45.99727" lon="6.54126">
        <ele>1089</ele>
        <time>2022-03-06T09:22:37Z</time>
      </trkpt>
      <trkpt lat="45.99725" lon="6.54126">
        <ele>1089</ele>
        <time>2022-03-06T09:22:40Z</time>
      </trkpt>
      <trkpt lat="45.99723" lon="6.54127">
        <ele>1089</ele>
        <time>2022-03-06T09:22:42Z</time>
      </trkpt>
      <trkpt lat="45.99721" lon="6.54127">
        <ele>1089</ele>
        <time>2022-03-06T09:22:44Z</time>
      </trkpt>
      <trkpt lat="45.99711" lon="6.54124">
        <ele>1090</ele>
        <time>2022-03-06T09:22:52Z</time>
      </trkpt>
      <trkpt lat="45.99709" lon="6.54123">
        <ele>1090</ele>
        <time>2022-03-06T09:22:53Z</time>
      </trkpt>
      <trkpt lat="45.99706" lon="6.54124">
        <ele>1090</ele>
        <time>2022-03-06T09:22:56Z</time>
      </trkpt>
      <trkpt lat="45.99704" lon="6.54124">
        <ele>1090</ele>
        <time>2022-03-06T09:22:58Z</time>
      </trkpt>
      <trkpt lat="45.99702" lon="6.54123">
        <ele>1090</ele>
        <time>2022-03-06T09:23:01Z</time>
      </trkpt>
      <trkpt lat="45.99699" lon="6.54123">
        <ele>1090</ele>
        <time>2022-03-06T09:23:04Z</time>
      </trkpt>
      <trkpt lat="45.99694" lon="6.54121">
        <ele>1090</ele>
        <time>2022-03-06T09:23:09Z</time>
      </trkpt>
      <trkpt lat="45.99692" lon="6.54119">
        <ele>1090</ele>
        <time>2022-03-06T09:23:11Z</time>
      </trkpt>
      <trkpt lat="45.9969" lon="6.54118">
        <ele>1090</ele>
        <time>2022-03-06T09:23:13Z</time>
      </trkpt>
      <trkpt lat="45.99687" lon="6.54119">
        <ele>1091</ele>
        <time>2022-03-06T09:23:16Z</time>
      </trkpt>
      <trkpt lat="45.99686" lon="6.5412">
        <ele>1092</ele>
        <time>2022-03-06T09:23:18Z</time>
      </trkpt>
      <trkpt lat="45.99684" lon="6.54121">
        <ele>1092</ele>
        <time>2022-03-06T09:23:20Z</time>
      </trkpt>
      <trkpt lat="45.99682" lon="6.5412">
        <ele>1093</ele>
        <time>2022-03-06T09:23:22Z</time>
      </trkpt>
      <trkpt lat="45.99679" lon="6.54121">
        <ele>1093</ele>
        <time>2022-03-06T09:23:25Z</time>
      </trkpt>
      <trkpt lat="45.99677" lon="6.5412">
        <ele>1094</ele>
        <time>2022-03-06T09:23:28Z</time>
      </trkpt>
      <trkpt lat="45.99676" lon="6.54118">
        <ele>1094</ele>
        <time>2022-03-06T09:23:31Z</time>
      </trkpt>
      <trkpt lat="45.99675" lon="6.54116">
        <ele>1094</ele>
        <time>2022-03-06T09:23:34Z</time>
      </trkpt>
      <trkpt lat="45.99673" lon="6.54115">
        <ele>1094</ele>
        <time>2022-03-06T09:23:36Z</time>
      </trkpt>
      <trkpt lat="45.99671" lon="6.54115">
        <ele>1094</ele>
        <time>2022-03-06T09:23:38Z</time>
      </trkpt>
      <trkpt lat="45.99668" lon="6.54115">
        <ele>1095</ele>
        <time>2022-03-06T09:23:41Z</time>
      </trkpt>
      <trkpt lat="45.99667" lon="6.54115">
        <ele>1095</ele>
        <time>2022-03-06T09:23:42Z</time>
      </trkpt>
      <trkpt lat="45.99665" lon="6.54113">
        <ele>1096</ele>
        <time>2022-03-06T09:23:45Z</time>
      </trkpt>
      <trkpt lat="45.99663" lon="6.54113">
        <ele>1096</ele>
        <time>2022-03-06T09:23:47Z</time>
      </trkpt>
      <trkpt lat="45.99661" lon="6.54112">
        <ele>1097</ele>
        <time>2022-03-06T09:23:49Z</time>
      </trkpt>
      <trkpt lat="45.99657" lon="6.54107">
        <ele>1098</ele>
        <time>2022-03-06T09:23:56Z</time>
      </trkpt>
      <trkpt lat="45.99654" lon="6.54106">
        <ele>1098</ele>
        <time>2022-03-06T09:23:58Z</time>
      </trkpt>
      <trkpt lat="45.99651" lon="6.54105">
        <ele>1099</ele>
        <time>2022-03-06T09:24:01Z</time>
      </trkpt>
      <trkpt lat="45.99649" lon="6.54104">
        <ele>1100</ele>
        <time>2022-03-06T09:24:04Z</time>
      </trkpt>
      <trkpt lat="45.99647" lon="6.54103">
        <ele>1100</ele>
        <time>2022-03-06T09:24:06Z</time>
      </trkpt>
      <trkpt lat="45.99645" lon="6.54102">
        <ele>1101</ele>
        <time>2022-03-06T09:24:10Z</time>
      </trkpt>
      <trkpt lat="45.99643" lon="6.54102">
        <ele>1102</ele>
        <time>2022-03-06T09:24:14Z</time>
      </trkpt>
      <trkpt lat="45.9964" lon="6.54102">
        <ele>1102</ele>
        <time>2022-03-06T09:24:17Z</time>
      </trkpt>
      <trkpt lat="45.99638" lon="6.54101">
        <ele>1103</ele>
        <time>2022-03-06T09:24:20Z</time>
      </trkpt>
      <trkpt lat="45.99636" lon="6.541">
        <ele>1103</ele>
        <time>2022-03-06T09:24:23Z</time>
      </trkpt>
      <trkpt lat="45.99635" lon="6.54099">
        <ele>1103</ele>
        <time>2022-03-06T09:24:26Z</time>
      </trkpt>
      <trkpt lat="45.99633" lon="6.54097">
        <ele>1103</ele>
        <time>2022-03-06T09:24:30Z</time>
      </trkpt>
      <trkpt lat="45.99631" lon="6.54096">
        <ele>1103</ele>
        <time>2022-03-06T09:24:33Z</time>
      </trkpt>
      <trkpt lat="45.99629" lon="6.54092">
        <ele>1102</ele>
        <time>2022-03-06T09:24:36Z</time>
      </trkpt>
      <trkpt lat="45.99629" lon="6.5409">
        <ele>1102</ele>
        <time>2022-03-06T09:24:38Z</time>
      </trkpt>
      <trkpt lat="45.99627" lon="6.54088">
        <ele>1102</ele>
        <time>2022-03-06T09:24:41Z</time>
      </trkpt>
      <trkpt lat="45.99625" lon="6.54086">
        <ele>1101</ele>
        <time>2022-03-06T09:24:44Z</time>
      </trkpt>
      <trkpt lat="45.99624" lon="6.54085">
        <ele>1101</ele>
        <time>2022-03-06T09:24:47Z</time>
      </trkpt>
      <trkpt lat="45.99622" lon="6.54084">
        <ele>1102</ele>
        <time>2022-03-06T09:24:51Z</time>
      </trkpt>
      <trkpt lat="45.9962" lon="6.54083">
        <ele>1102</ele>
        <time>2022-03-06T09:24:53Z</time>
      </trkpt>
      <trkpt lat="45.99618" lon="6.54081">
        <ele>1101</ele>
        <time>2022-03-06T09:24:55Z</time>
      </trkpt>
      <trkpt lat="45.99616" lon="6.5408">
        <ele>1102</ele>
        <time>2022-03-06T09:24:58Z</time>
      </trkpt>
      <trkpt lat="45.99615" lon="6.54078">
        <ele>1102</ele>
        <time>2022-03-06T09:25:00Z</time>
      </trkpt>
      <trkpt lat="45.99613" lon="6.54077">
        <ele>1102</ele>
        <time>2022-03-06T09:25:02Z</time>
      </trkpt>
      <trkpt lat="45.99611" lon="6.54075">
        <ele>1102</ele>
        <time>2022-03-06T09:25:05Z</time>
      </trkpt>
      <trkpt lat="45.99608" lon="6.54074">
        <ele>1102</ele>
        <time>2022-03-06T09:25:08Z</time>
      </trkpt>
      <trkpt lat="45.99607" lon="6.54072">
        <ele>1102</ele>
        <time>2022-03-06T09:25:11Z</time>
      </trkpt>
      <trkpt lat="45.99605" lon="6.5407">
        <ele>1102</ele>
        <time>2022-03-06T09:25:14Z</time>
      </trkpt>
      <trkpt lat="45.99603" lon="6.54069">
        <ele>1102</ele>
        <time>2022-03-06T09:25:16Z</time>
      </trkpt>
      <trkpt lat="45.99601" lon="6.54067">
        <ele>1102</ele>
        <time>2022-03-06T09:25:18Z</time>
      </trkpt>
      <trkpt lat="45.996" lon="6.54065">
        <ele>1103</ele>
        <time>2022-03-06T09:25:21Z</time>
      </trkpt>
      <trkpt lat="45.99597" lon="6.54064">
        <ele>1103</ele>
        <time>2022-03-06T09:25:24Z</time>
      </trkpt>
      <trkpt lat="45.99595" lon="6.54062">
        <ele>1103</ele>
        <time>2022-03-06T09:25:27Z</time>
      </trkpt>
      <trkpt lat="45.99593" lon="6.54062">
        <ele>1104</ele>
        <time>2022-03-06T09:25:29Z</time>
      </trkpt>
      <trkpt lat="45.99591" lon="6.54061">
        <ele>1104</ele>
        <time>2022-03-06T09:25:31Z</time>
      </trkpt>
      <trkpt lat="45.99589" lon="6.5406">
        <ele>1104</ele>
        <time>2022-03-06T09:25:33Z</time>
      </trkpt>
      <trkpt lat="45.99587" lon="6.54059">
        <ele>1104</ele>
        <time>2022-03-06T09:25:35Z</time>
      </trkpt>
      <trkpt lat="45.99585" lon="6.54059">
        <ele>1105</ele>
        <time>2022-03-06T09:25:37Z</time>
      </trkpt>
      <trkpt lat="45.99583" lon="6.54059">
        <ele>1105</ele>
        <time>2022-03-06T09:25:39Z</time>
      </trkpt>
      <trkpt lat="45.99581" lon="6.54059">
        <ele>1105</ele>
        <time>2022-03-06T09:25:41Z</time>
      </trkpt>
      <trkpt lat="45.99578" lon="6.54057">
        <ele>1105</ele>
        <time>2022-03-06T09:25:44Z</time>
      </trkpt>
      <trkpt lat="45.99576" lon="6.54057">
        <ele>1105</ele>
        <time>2022-03-06T09:25:45Z</time>
      </trkpt>
      <trkpt lat="45.99574" lon="6.54056">
        <ele>1106</ele>
        <time>2022-03-06T09:25:48Z</time>
      </trkpt>
      <trkpt lat="45.99572" lon="6.54056">
        <ele>1106</ele>
        <time>2022-03-06T09:25:51Z</time>
      </trkpt>
      <trkpt lat="45.9957" lon="6.54055">
        <ele>1106</ele>
        <time>2022-03-06T09:25:53Z</time>
      </trkpt>
      <trkpt lat="45.99568" lon="6.54055">
        <ele>1106</ele>
        <time>2022-03-06T09:25:55Z</time>
      </trkpt>
      <trkpt lat="45.99566" lon="6.54054">
        <ele>1106</ele>
        <time>2022-03-06T09:25:57Z</time>
      </trkpt>
      <trkpt lat="45.99564" lon="6.54054">
        <ele>1107</ele>
        <time>2022-03-06T09:25:59Z</time>
      </trkpt>
      <trkpt lat="45.99562" lon="6.54054">
        <ele>1107</ele>
        <time>2022-03-06T09:26:02Z</time>
      </trkpt>
      <trkpt lat="45.9956" lon="6.54053">
        <ele>1107</ele>
        <time>2022-03-06T09:26:05Z</time>
      </trkpt>
      <trkpt lat="45.99558" lon="6.54054">
        <ele>1107</ele>
        <time>2022-03-06T09:26:08Z</time>
      </trkpt>
      <trkpt lat="45.99556" lon="6.54054">
        <ele>1108</ele>
        <time>2022-03-06T09:26:10Z</time>
      </trkpt>
      <trkpt lat="45.99553" lon="6.54055">
        <ele>1108</ele>
        <time>2022-03-06T09:26:13Z</time>
      </trkpt>
      <trkpt lat="45.9955" lon="6.54055">
        <ele>1108</ele>
        <time>2022-03-06T09:26:17Z</time>
      </trkpt>
      <trkpt lat="45.99547" lon="6.54054">
        <ele>1108</ele>
        <time>2022-03-06T09:26:19Z</time>
      </trkpt>
      <trkpt lat="45.99543" lon="6.54054">
        <ele>1108</ele>
        <time>2022-03-06T09:26:22Z</time>
      </trkpt>
      <trkpt lat="45.99535" lon="6.54055">
        <ele>1109</ele>
        <time>2022-03-06T09:26:27Z</time>
      </trkpt>
      <trkpt lat="45.99533" lon="6.54054">
        <ele>1109</ele>
        <time>2022-03-06T09:26:29Z</time>
      </trkpt>
      <trkpt lat="45.9953" lon="6.54053">
        <ele>1109</ele>
        <time>2022-03-06T09:26:31Z</time>
      </trkpt>
      <trkpt lat="45.99527" lon="6.54054">
        <ele>1110</ele>
        <time>2022-03-06T09:26:34Z</time>
      </trkpt>
      <trkpt lat="45.99524" lon="6.54054">
        <ele>1110</ele>
        <time>2022-03-06T09:26:36Z</time>
      </trkpt>
      <trkpt lat="45.99522" lon="6.54055">
        <ele>1110</ele>
        <time>2022-03-06T09:26:39Z</time>
      </trkpt>
      <trkpt lat="45.9952" lon="6.54056">
        <ele>1110</ele>
        <time>2022-03-06T09:26:41Z</time>
      </trkpt>
      <trkpt lat="45.99518" lon="6.54057">
        <ele>1110</ele>
        <time>2022-03-06T09:26:43Z</time>
      </trkpt>
      <trkpt lat="45.99515" lon="6.54058">
        <ele>1110</ele>
        <time>2022-03-06T09:26:46Z</time>
      </trkpt>
      <trkpt lat="45.99513" lon="6.54059">
        <ele>1111</ele>
        <time>2022-03-06T09:26:49Z</time>
      </trkpt>
      <trkpt lat="45.99511" lon="6.5406">
        <ele>1111</ele>
        <time>2022-03-06T09:26:51Z</time>
      </trkpt>
      <trkpt lat="45.99509" lon="6.54061">
        <ele>1111</ele>
        <time>2022-03-06T09:26:53Z</time>
      </trkpt>
      <trkpt lat="45.99506" lon="6.54066">
        <ele>1111</ele>
        <time>2022-03-06T09:26:56Z</time>
      </trkpt>
      <trkpt lat="45.99503" lon="6.54066">
        <ele>1111</ele>
        <time>2022-03-06T09:26:59Z</time>
      </trkpt>
      <trkpt lat="45.995" lon="6.54067">
        <ele>1112</ele>
        <time>2022-03-06T09:27:03Z</time>
      </trkpt>
      <trkpt lat="45.99498" lon="6.54067">
        <ele>1112</ele>
        <time>2022-03-06T09:27:05Z</time>
      </trkpt>
      <trkpt lat="45.99495" lon="6.5407">
        <ele>1112</ele>
        <time>2022-03-06T09:27:09Z</time>
      </trkpt>
      <trkpt lat="45.99492" lon="6.5407">
        <ele>1112</ele>
        <time>2022-03-06T09:27:12Z</time>
      </trkpt>
      <trkpt lat="45.9949" lon="6.54069">
        <ele>1112</ele>
        <time>2022-03-06T09:27:14Z</time>
      </trkpt>
      <trkpt lat="45.99488" lon="6.54069">
        <ele>1112</ele>
        <time>2022-03-06T09:27:16Z</time>
      </trkpt>
      <trkpt lat="45.99486" lon="6.5407">
        <ele>1113</ele>
        <time>2022-03-06T09:27:18Z</time>
      </trkpt>
      <trkpt lat="45.99484" lon="6.54068">
        <ele>1113</ele>
        <time>2022-03-06T09:27:21Z</time>
      </trkpt>
      <trkpt lat="45.99482" lon="6.54067">
        <ele>1113</ele>
        <time>2022-03-06T09:27:24Z</time>
      </trkpt>
      <trkpt lat="45.99478" lon="6.54066">
        <ele>1113</ele>
        <time>2022-03-06T09:27:28Z</time>
      </trkpt>
      <trkpt lat="45.99475" lon="6.54066">
        <ele>1113</ele>
        <time>2022-03-06T09:27:31Z</time>
      </trkpt>
      <trkpt lat="45.99473" lon="6.54065">
        <ele>1113</ele>
        <time>2022-03-06T09:27:35Z</time>
      </trkpt>
      <trkpt lat="45.99471" lon="6.54062">
        <ele>1114</ele>
        <time>2022-03-06T09:27:37Z</time>
      </trkpt>
      <trkpt lat="45.9947" lon="6.5406">
        <ele>1114</ele>
        <time>2022-03-06T09:27:40Z</time>
      </trkpt>
      <trkpt lat="45.99468" lon="6.54059">
        <ele>1114</ele>
        <time>2022-03-06T09:27:42Z</time>
      </trkpt>
      <trkpt lat="45.99466" lon="6.54057">
        <ele>1114</ele>
        <time>2022-03-06T09:27:45Z</time>
      </trkpt>
      <trkpt lat="45.99465" lon="6.54054">
        <ele>1115</ele>
        <time>2022-03-06T09:27:48Z</time>
      </trkpt>
      <trkpt lat="45.99464" lon="6.54051">
        <ele>1115</ele>
        <time>2022-03-06T09:27:50Z</time>
      </trkpt>
      <trkpt lat="45.99463" lon="6.54049">
        <ele>1116</ele>
        <time>2022-03-06T09:27:52Z</time>
      </trkpt>
      <trkpt lat="45.99462" lon="6.54047">
        <ele>1116</ele>
        <time>2022-03-06T09:27:55Z</time>
      </trkpt>
      <trkpt lat="45.9946" lon="6.54044">
        <ele>1116</ele>
        <time>2022-03-06T09:27:58Z</time>
      </trkpt>
      <trkpt lat="45.99458" lon="6.54043">
        <ele>1117</ele>
        <time>2022-03-06T09:28:01Z</time>
      </trkpt>
      <trkpt lat="45.99456" lon="6.54042">
        <ele>1117</ele>
        <time>2022-03-06T09:28:03Z</time>
      </trkpt>
      <trkpt lat="45.99453" lon="6.54043">
        <ele>1118</ele>
        <time>2022-03-06T09:28:05Z</time>
      </trkpt>
      <trkpt lat="45.99451" lon="6.54042">
        <ele>1118</ele>
        <time>2022-03-06T09:28:07Z</time>
      </trkpt>
      <trkpt lat="45.9945" lon="6.54042">
        <ele>1118</ele>
        <time>2022-03-06T09:28:10Z</time>
      </trkpt>
      <trkpt lat="45.99448" lon="6.54041">
        <ele>1119</ele>
        <time>2022-03-06T09:28:13Z</time>
      </trkpt>
      <trkpt lat="45.99446" lon="6.54042">
        <ele>1119</ele>
        <time>2022-03-06T09:28:16Z</time>
      </trkpt>
      <trkpt lat="45.99444" lon="6.54041">
        <ele>1119</ele>
        <time>2022-03-06T09:28:19Z</time>
      </trkpt>
      <trkpt lat="45.99442" lon="6.5404">
        <ele>1119</ele>
        <time>2022-03-06T09:28:22Z</time>
      </trkpt>
      <trkpt lat="45.99441" lon="6.54038">
        <ele>1120</ele>
        <time>2022-03-06T09:28:26Z</time>
      </trkpt>
      <trkpt lat="45.99441" lon="6.54034">
        <ele>1120</ele>
        <time>2022-03-06T09:28:29Z</time>
      </trkpt>
      <trkpt lat="45.9944" lon="6.54032">
        <ele>1120</ele>
        <time>2022-03-06T09:28:33Z</time>
      </trkpt>
      <trkpt lat="45.99442" lon="6.54032">
        <ele>1120</ele>
        <time>2022-03-06T09:28:43Z</time>
      </trkpt>
      <trkpt lat="45.99443" lon="6.54031">
        <ele>1120</ele>
        <time>2022-03-06T09:28:49Z</time>
      </trkpt>
      <trkpt lat="45.99445" lon="6.54028">
        <ele>1120</ele>
        <time>2022-03-06T09:28:52Z</time>
      </trkpt>
      <trkpt lat="45.99443" lon="6.54027">
        <ele>1121</ele>
        <time>2022-03-06T09:28:55Z</time>
      </trkpt>
      <trkpt lat="45.99441" lon="6.54028">
        <ele>1121</ele>
        <time>2022-03-06T09:28:58Z</time>
      </trkpt>
      <trkpt lat="45.99439" lon="6.54028">
        <ele>1120</ele>
        <time>2022-03-06T09:29:01Z</time>
      </trkpt>
      <trkpt lat="45.99436" lon="6.54029">
        <ele>1120</ele>
        <time>2022-03-06T09:29:04Z</time>
      </trkpt>
      <trkpt lat="45.99434" lon="6.5403">
        <ele>1120</ele>
        <time>2022-03-06T09:29:06Z</time>
      </trkpt>
      <trkpt lat="45.99432" lon="6.5403">
        <ele>1120</ele>
        <time>2022-03-06T09:29:09Z</time>
      </trkpt>
      <trkpt lat="45.99429" lon="6.54029">
        <ele>1120</ele>
        <time>2022-03-06T09:29:12Z</time>
      </trkpt>
      <trkpt lat="45.99427" lon="6.54027">
        <ele>1121</ele>
        <time>2022-03-06T09:29:15Z</time>
      </trkpt>
      <trkpt lat="45.99425" lon="6.54025">
        <ele>1121</ele>
        <time>2022-03-06T09:29:18Z</time>
      </trkpt>
      <trkpt lat="45.99423" lon="6.54024">
        <ele>1121</ele>
        <time>2022-03-06T09:29:20Z</time>
      </trkpt>
      <trkpt lat="45.99421" lon="6.54023">
        <ele>1121</ele>
        <time>2022-03-06T09:29:23Z</time>
      </trkpt>
      <trkpt lat="45.99423" lon="6.54022">
        <ele>1122</ele>
        <time>2022-03-06T09:29:28Z</time>
      </trkpt>
      <trkpt lat="45.99425" lon="6.54021">
        <ele>1122</ele>
        <time>2022-03-06T09:29:32Z</time>
      </trkpt>
      <trkpt lat="45.99427" lon="6.5402">
        <ele>1122</ele>
        <time>2022-03-06T09:29:35Z</time>
      </trkpt>
      <trkpt lat="45.99429" lon="6.54018">
        <ele>1122</ele>
        <time>2022-03-06T09:29:38Z</time>
      </trkpt>
      <trkpt lat="45.99431" lon="6.54016">
        <ele>1123</ele>
        <time>2022-03-06T09:29:41Z</time>
      </trkpt>
      <trkpt lat="45.99432" lon="6.54014">
        <ele>1123</ele>
        <time>2022-03-06T09:29:44Z</time>
      </trkpt>
      <trkpt lat="45.99432" lon="6.54011">
        <ele>1124</ele>
        <time>2022-03-06T09:29:48Z</time>
      </trkpt>
      <trkpt lat="45.99432" lon="6.54007">
        <ele>1124</ele>
        <time>2022-03-06T09:29:51Z</time>
      </trkpt>
      <trkpt lat="45.99432" lon="6.54004">
        <ele>1125</ele>
        <time>2022-03-06T09:29:54Z</time>
      </trkpt>
      <trkpt lat="45.99431" lon="6.54001">
        <ele>1125</ele>
        <time>2022-03-06T09:29:57Z</time>
      </trkpt>
      <trkpt lat="45.9943" lon="6.53998">
        <ele>1126</ele>
        <time>2022-03-06T09:29:59Z</time>
      </trkpt>
      <trkpt lat="45.99428" lon="6.53995">
        <ele>1127</ele>
        <time>2022-03-06T09:30:01Z</time>
      </trkpt>
      <trkpt lat="45.99426" lon="6.53994">
        <ele>1127</ele>
        <time>2022-03-06T09:30:06Z</time>
      </trkpt>
      <trkpt lat="45.99423" lon="6.53992">
        <ele>1128</ele>
        <time>2022-03-06T09:30:08Z</time>
      </trkpt>
      <trkpt lat="45.99421" lon="6.53991">
        <ele>1129</ele>
        <time>2022-03-06T09:30:09Z</time>
      </trkpt>
      <trkpt lat="45.99419" lon="6.5399">
        <ele>1129</ele>
        <time>2022-03-06T09:30:10Z</time>
      </trkpt>
      <trkpt lat="45.99416" lon="6.53991">
        <ele>1129</ele>
        <time>2022-03-06T09:30:12Z</time>
      </trkpt>
      <trkpt lat="45.99414" lon="6.53992">
        <ele>1129</ele>
        <time>2022-03-06T09:30:15Z</time>
      </trkpt>
      <trkpt lat="45.99412" lon="6.53993">
        <ele>1129</ele>
        <time>2022-03-06T09:30:17Z</time>
      </trkpt>
      <trkpt lat="45.99409" lon="6.53994">
        <ele>1130</ele>
        <time>2022-03-06T09:30:20Z</time>
      </trkpt>
      <trkpt lat="45.99407" lon="6.53993">
        <ele>1130</ele>
        <time>2022-03-06T09:30:22Z</time>
      </trkpt>
      <trkpt lat="45.99405" lon="6.53993">
        <ele>1131</ele>
        <time>2022-03-06T09:30:27Z</time>
      </trkpt>
      <trkpt lat="45.99404" lon="6.53991">
        <ele>1131</ele>
        <time>2022-03-06T09:30:30Z</time>
      </trkpt>
      <trkpt lat="45.99402" lon="6.5399">
        <ele>1132</ele>
        <time>2022-03-06T09:30:32Z</time>
      </trkpt>
      <trkpt lat="45.994" lon="6.53988">
        <ele>1133</ele>
        <time>2022-03-06T09:30:35Z</time>
      </trkpt>
      <trkpt lat="45.99398" lon="6.53986">
        <ele>1134</ele>
        <time>2022-03-06T09:30:38Z</time>
      </trkpt>
      <trkpt lat="45.99397" lon="6.53984">
        <ele>1135</ele>
        <time>2022-03-06T09:30:41Z</time>
      </trkpt>
      <trkpt lat="45.99395" lon="6.53982">
        <ele>1136</ele>
        <time>2022-03-06T09:30:44Z</time>
      </trkpt>
      <trkpt lat="45.99393" lon="6.5398">
        <ele>1138</ele>
        <time>2022-03-06T09:30:46Z</time>
      </trkpt>
      <trkpt lat="45.99391" lon="6.53979">
        <ele>1138</ele>
        <time>2022-03-06T09:30:49Z</time>
      </trkpt>
      <trkpt lat="45.99389" lon="6.53979">
        <ele>1139</ele>
        <time>2022-03-06T09:30:53Z</time>
      </trkpt>
      <trkpt lat="45.99387" lon="6.53979">
        <ele>1140</ele>
        <time>2022-03-06T09:30:58Z</time>
      </trkpt>
      <trkpt lat="45.99384" lon="6.53978">
        <ele>1141</ele>
        <time>2022-03-06T09:31:01Z</time>
      </trkpt>
      <trkpt lat="45.99383" lon="6.53976">
        <ele>1142</ele>
        <time>2022-03-06T09:31:03Z</time>
      </trkpt>
      <trkpt lat="45.99381" lon="6.53973">
        <ele>1143</ele>
        <time>2022-03-06T09:31:05Z</time>
      </trkpt>
      <trkpt lat="45.9938" lon="6.53972">
        <ele>1144</ele>
        <time>2022-03-06T09:31:07Z</time>
      </trkpt>
      <trkpt lat="45.99381" lon="6.53967">
        <ele>1145</ele>
        <time>2022-03-06T09:31:21Z</time>
      </trkpt>
      <trkpt lat="45.99379" lon="6.53964">
        <ele>1146</ele>
        <time>2022-03-06T09:31:23Z</time>
      </trkpt>
      <trkpt lat="45.99372" lon="6.53959">
        <ele>1149</ele>
        <time>2022-03-06T09:31:28Z</time>
      </trkpt>
      <trkpt lat="45.9937" lon="6.53958">
        <ele>1150</ele>
        <time>2022-03-06T09:31:30Z</time>
      </trkpt>
      <trkpt lat="45.99368" lon="6.53959">
        <ele>1150</ele>
        <time>2022-03-06T09:31:33Z</time>
      </trkpt>
      <trkpt lat="45.9937" lon="6.53956">
        <ele>1151</ele>
        <time>2022-03-06T09:31:38Z</time>
      </trkpt>
      <trkpt lat="45.99368" lon="6.53954">
        <ele>1151</ele>
        <time>2022-03-06T09:31:42Z</time>
      </trkpt>
      <trkpt lat="45.99366" lon="6.53953">
        <ele>1152</ele>
        <time>2022-03-06T09:31:45Z</time>
      </trkpt>
      <trkpt lat="45.99364" lon="6.53952">
        <ele>1153</ele>
        <time>2022-03-06T09:31:47Z</time>
      </trkpt>
      <trkpt lat="45.99362" lon="6.53951">
        <ele>1153</ele>
        <time>2022-03-06T09:31:49Z</time>
      </trkpt>
      <trkpt lat="45.99359" lon="6.5395">
        <ele>1154</ele>
        <time>2022-03-06T09:31:51Z</time>
      </trkpt>
      <trkpt lat="45.99357" lon="6.53951">
        <ele>1154</ele>
        <time>2022-03-06T09:31:54Z</time>
      </trkpt>
      <trkpt lat="45.99356" lon="6.53954">
        <ele>1154</ele>
        <time>2022-03-06T09:31:56Z</time>
      </trkpt>
      <trkpt lat="45.99355" lon="6.53957">
        <ele>1154</ele>
        <time>2022-03-06T09:31:58Z</time>
      </trkpt>
      <trkpt lat="45.99354" lon="6.53959">
        <ele>1154</ele>
        <time>2022-03-06T09:32:00Z</time>
      </trkpt>
      <trkpt lat="45.99353" lon="6.53962">
        <ele>1154</ele>
        <time>2022-03-06T09:32:03Z</time>
      </trkpt>
      <trkpt lat="45.99351" lon="6.53963">
        <ele>1154</ele>
        <time>2022-03-06T09:32:05Z</time>
      </trkpt>
      <trkpt lat="45.99349" lon="6.53964">
        <ele>1155</ele>
        <time>2022-03-06T09:32:08Z</time>
      </trkpt>
      <trkpt lat="45.99348" lon="6.53966">
        <ele>1155</ele>
        <time>2022-03-06T09:32:12Z</time>
      </trkpt>
      <trkpt lat="45.99346" lon="6.53967">
        <ele>1155</ele>
        <time>2022-03-06T09:32:18Z</time>
      </trkpt>
      <trkpt lat="45.99345" lon="6.53969">
        <ele>1155</ele>
        <time>2022-03-06T09:32:49Z</time>
      </trkpt>
      <trkpt lat="45.99345" lon="6.53963">
        <ele>1156</ele>
        <time>2022-03-06T09:32:57Z</time>
      </trkpt>
      <trkpt lat="45.99344" lon="6.53965">
        <ele>1156</ele>
        <time>2022-03-06T09:33:03Z</time>
      </trkpt>
      <trkpt lat="45.99345" lon="6.53968">
        <ele>1155</ele>
        <time>2022-03-06T09:33:12Z</time>
      </trkpt>
      <trkpt lat="45.99344" lon="6.53965">
        <ele>1156</ele>
        <time>2022-03-06T09:33:25Z</time>
      </trkpt>
      <trkpt lat="45.99342" lon="6.53963">
        <ele>1157</ele>
        <time>2022-03-06T09:33:31Z</time>
      </trkpt>
      <trkpt lat="45.99336" lon="6.53952">
        <ele>1160</ele>
        <time>2022-03-06T09:33:42Z</time>
      </trkpt>
      <trkpt lat="45.99335" lon="6.53957">
        <ele>1160</ele>
        <time>2022-03-06T09:33:47Z</time>
      </trkpt>
      <trkpt lat="45.99334" lon="6.53959">
        <ele>1160</ele>
        <time>2022-03-06T09:33:49Z</time>
      </trkpt>
      <trkpt lat="45.99332" lon="6.53961">
        <ele>1160</ele>
        <time>2022-03-06T09:33:51Z</time>
      </trkpt>
      <trkpt lat="45.99327" lon="6.53971">
        <ele>1161</ele>
        <time>2022-03-06T09:34:01Z</time>
      </trkpt>
      <trkpt lat="45.99326" lon="6.53974">
        <ele>1161</ele>
        <time>2022-03-06T09:34:06Z</time>
      </trkpt>
      <trkpt lat="45.99325" lon="6.53977">
        <ele>1161</ele>
        <time>2022-03-06T09:34:09Z</time>
      </trkpt>
      <trkpt lat="45.99324" lon="6.5398">
        <ele>1162</ele>
        <time>2022-03-06T09:34:11Z</time>
      </trkpt>
      <trkpt lat="45.99323" lon="6.53984">
        <ele>1162</ele>
        <time>2022-03-06T09:34:13Z</time>
      </trkpt>
      <trkpt lat="45.99321" lon="6.53986">
        <ele>1162</ele>
        <time>2022-03-06T09:34:15Z</time>
      </trkpt>
      <trkpt lat="45.9932" lon="6.53989">
        <ele>1163</ele>
        <time>2022-03-06T09:34:18Z</time>
      </trkpt>
      <trkpt lat="45.99318" lon="6.53991">
        <ele>1163</ele>
        <time>2022-03-06T09:34:21Z</time>
      </trkpt>
      <trkpt lat="45.99317" lon="6.53994">
        <ele>1164</ele>
        <time>2022-03-06T09:34:24Z</time>
      </trkpt>
      <trkpt lat="45.99315" lon="6.53996">
        <ele>1164</ele>
        <time>2022-03-06T09:34:26Z</time>
      </trkpt>
      <trkpt lat="45.99313" lon="6.53999">
        <ele>1165</ele>
        <time>2022-03-06T09:34:29Z</time>
      </trkpt>
      <trkpt lat="45.99311" lon="6.54001">
        <ele>1165</ele>
        <time>2022-03-06T09:34:32Z</time>
      </trkpt>
      <trkpt lat="45.9931" lon="6.54003">
        <ele>1166</ele>
        <time>2022-03-06T09:34:34Z</time>
      </trkpt>
      <trkpt lat="45.99308" lon="6.54005">
        <ele>1167</ele>
        <time>2022-03-06T09:34:37Z</time>
      </trkpt>
      <trkpt lat="45.99307" lon="6.54007">
        <ele>1167</ele>
        <time>2022-03-06T09:34:39Z</time>
      </trkpt>
      <trkpt lat="45.99305" lon="6.54009">
        <ele>1168</ele>
        <time>2022-03-06T09:34:42Z</time>
      </trkpt>
      <trkpt lat="45.99303" lon="6.5401">
        <ele>1168</ele>
        <time>2022-03-06T09:34:45Z</time>
      </trkpt>
      <trkpt lat="45.99302" lon="6.54012">
        <ele>1169</ele>
        <time>2022-03-06T09:34:47Z</time>
      </trkpt>
      <trkpt lat="45.993" lon="6.54014">
        <ele>1170</ele>
        <time>2022-03-06T09:34:50Z</time>
      </trkpt>
      <trkpt lat="45.99298" lon="6.54016">
        <ele>1170</ele>
        <time>2022-03-06T09:34:53Z</time>
      </trkpt>
      <trkpt lat="45.99296" lon="6.54017">
        <ele>1170</ele>
        <time>2022-03-06T09:34:56Z</time>
      </trkpt>
      <trkpt lat="45.99295" lon="6.54019">
        <ele>1171</ele>
        <time>2022-03-06T09:34:58Z</time>
      </trkpt>
      <trkpt lat="45.99289" lon="6.54023">
        <ele>1172</ele>
        <time>2022-03-06T09:35:06Z</time>
      </trkpt>
      <trkpt lat="45.99288" lon="6.54026">
        <ele>1172</ele>
        <time>2022-03-06T09:35:08Z</time>
      </trkpt>
      <trkpt lat="45.99286" lon="6.54028">
        <ele>1172</ele>
        <time>2022-03-06T09:35:10Z</time>
      </trkpt>
      <trkpt lat="45.99284" lon="6.54029">
        <ele>1173</ele>
        <time>2022-03-06T09:35:14Z</time>
      </trkpt>
      <trkpt lat="45.99282" lon="6.5403">
        <ele>1173</ele>
        <time>2022-03-06T09:35:17Z</time>
      </trkpt>
      <trkpt lat="45.99279" lon="6.54031">
        <ele>1174</ele>
        <time>2022-03-06T09:35:22Z</time>
      </trkpt>
      <trkpt lat="45.99274" lon="6.54033">
        <ele>1175</ele>
        <time>2022-03-06T09:35:28Z</time>
      </trkpt>
      <trkpt lat="45.99273" lon="6.54034">
        <ele>1175</ele>
        <time>2022-03-06T09:35:30Z</time>
      </trkpt>
      <trkpt lat="45.99268" lon="6.54022">
        <ele>1179</ele>
        <time>2022-03-06T09:35:41Z</time>
      </trkpt>
      <trkpt lat="45.99263" lon="6.54023">
        <ele>1181</ele>
        <time>2022-03-06T09:35:48Z</time>
      </trkpt>
      <trkpt lat="45.99262" lon="6.54025">
        <ele>1181</ele>
        <time>2022-03-06T09:35:51Z</time>
      </trkpt>
      <trkpt lat="45.99256" lon="6.54036">
        <ele>1181</ele>
        <time>2022-03-06T09:35:58Z</time>
      </trkpt>
      <trkpt lat="45.99253" lon="6.54043">
        <ele>1181</ele>
        <time>2022-03-06T09:36:04Z</time>
      </trkpt>
      <trkpt lat="45.99243" lon="6.54049">
        <ele>1185</ele>
        <time>2022-03-06T09:36:20Z</time>
      </trkpt>
      <trkpt lat="45.99238" lon="6.54061">
        <ele>1186</ele>
        <time>2022-03-06T09:36:24Z</time>
      </trkpt>
      <trkpt lat="45.99231" lon="6.54071">
        <ele>1190</ele>
        <time>2022-03-06T09:36:33Z</time>
      </trkpt>
      <trkpt lat="45.99228" lon="6.54085">
        <ele>1191</ele>
        <time>2022-03-06T09:36:43Z</time>
      </trkpt>
      <trkpt lat="45.99222" lon="6.54096">
        <ele>1193</ele>
        <time>2022-03-06T09:36:57Z</time>
      </trkpt>
      <trkpt lat="45.99215" lon="6.54104">
        <ele>1195</ele>
        <time>2022-03-06T09:37:06Z</time>
      </trkpt>
      <trkpt lat="45.99214" lon="6.54107">
        <ele>1195</ele>
        <time>2022-03-06T09:37:09Z</time>
      </trkpt>
      <trkpt lat="45.99212" lon="6.54108">
        <ele>1195</ele>
        <time>2022-03-06T09:37:12Z</time>
      </trkpt>
      <trkpt lat="45.99209" lon="6.54108">
        <ele>1197</ele>
        <time>2022-03-06T09:37:18Z</time>
      </trkpt>
      <trkpt lat="45.99207" lon="6.54108">
        <ele>1198</ele>
        <time>2022-03-06T09:37:19Z</time>
      </trkpt>
      <trkpt lat="45.99204" lon="6.54109">
        <ele>1199</ele>
        <time>2022-03-06T09:37:21Z</time>
      </trkpt>
      <trkpt lat="45.99203" lon="6.54111">
        <ele>1200</ele>
        <time>2022-03-06T09:37:23Z</time>
      </trkpt>
      <trkpt lat="45.99201" lon="6.54112">
        <ele>1200</ele>
        <time>2022-03-06T09:37:29Z</time>
      </trkpt>
      <trkpt lat="45.99199" lon="6.54114">
        <ele>1201</ele>
        <time>2022-03-06T09:37:31Z</time>
      </trkpt>
      <trkpt lat="45.99198" lon="6.54116">
        <ele>1201</ele>
        <time>2022-03-06T09:37:33Z</time>
      </trkpt>
      <trkpt lat="45.99194" lon="6.54122">
        <ele>1202</ele>
        <time>2022-03-06T09:37:41Z</time>
      </trkpt>
      <trkpt lat="45.99192" lon="6.54121">
        <ele>1203</ele>
        <time>2022-03-06T09:37:45Z</time>
      </trkpt>
      <trkpt lat="45.99183" lon="6.54117">
        <ele>1206</ele>
        <time>2022-03-06T09:37:56Z</time>
      </trkpt>
      <trkpt lat="45.99186" lon="6.54104">
        <ele>1206</ele>
        <time>2022-03-06T09:38:24Z</time>
      </trkpt>
      <trkpt lat="45.99188" lon="6.54116">
        <ele>1205</ele>
        <time>2022-03-06T09:38:34Z</time>
      </trkpt>
      <trkpt lat="45.99182" lon="6.54127">
        <ele>1205</ele>
        <time>2022-03-06T09:38:38Z</time>
      </trkpt>
      <trkpt lat="45.99184" lon="6.5414">
        <ele>1202</ele>
        <time>2022-03-06T09:38:46Z</time>
      </trkpt>
      <trkpt lat="45.99179" lon="6.54126">
        <ele>1206</ele>
        <time>2022-03-06T09:38:51Z</time>
      </trkpt>
      <trkpt lat="45.99172" lon="6.54137">
        <ele>1208</ele>
        <time>2022-03-06T09:39:00Z</time>
      </trkpt>
      <trkpt lat="45.99176" lon="6.54123">
        <ele>1207</ele>
        <time>2022-03-06T09:39:16Z</time>
      </trkpt>
      <trkpt lat="45.9918" lon="6.54136">
        <ele>1204</ele>
        <time>2022-03-06T09:39:26Z</time>
      </trkpt>
      <trkpt lat="45.99172" lon="6.54143">
        <ele>1207</ele>
        <time>2022-03-06T09:40:22Z</time>
      </trkpt>
      <trkpt lat="45.9917" lon="6.54148">
        <ele>1207</ele>
        <time>2022-03-06T09:40:27Z</time>
      </trkpt>
      <trkpt lat="45.99162" lon="6.5416">
        <ele>1211</ele>
        <time>2022-03-06T09:40:40Z</time>
      </trkpt>
      <trkpt lat="45.99165" lon="6.54158">
        <ele>1209</ele>
        <time>2022-03-06T09:40:45Z</time>
      </trkpt>
      <trkpt lat="45.99163" lon="6.54157">
        <ele>1211</ele>
        <time>2022-03-06T09:40:48Z</time>
      </trkpt>
      <trkpt lat="45.99157" lon="6.54168">
        <ele>1214</ele>
        <time>2022-03-06T09:40:56Z</time>
      </trkpt>
      <trkpt lat="45.99157" lon="6.54171">
        <ele>1213</ele>
        <time>2022-03-06T09:41:03Z</time>
      </trkpt>
      <trkpt lat="45.99157" lon="6.54174">
        <ele>1214</ele>
        <time>2022-03-06T09:41:06Z</time>
      </trkpt>
      <trkpt lat="45.99155" lon="6.54177">
        <ele>1215</ele>
        <time>2022-03-06T09:41:09Z</time>
      </trkpt>
      <trkpt lat="45.99157" lon="6.54177">
        <ele>1213</ele>
        <time>2022-03-06T09:41:14Z</time>
      </trkpt>
      <trkpt lat="45.99158" lon="6.5418">
        <ele>1212</ele>
        <time>2022-03-06T09:41:17Z</time>
      </trkpt>
      <trkpt lat="45.99151" lon="6.54189">
        <ele>1218</ele>
        <time>2022-03-06T09:41:32Z</time>
      </trkpt>
      <trkpt lat="45.99151" lon="6.54202">
        <ele>1217</ele>
        <time>2022-03-06T09:41:45Z</time>
      </trkpt>
      <trkpt lat="45.9915" lon="6.54206">
        <ele>1217</ele>
        <time>2022-03-06T09:41:48Z</time>
      </trkpt>
      <trkpt lat="45.99152" lon="6.5421">
        <ele>1214</ele>
        <time>2022-03-06T09:41:52Z</time>
      </trkpt>
      <trkpt lat="45.99152" lon="6.54222">
        <ele>1212</ele>
        <time>2022-03-06T09:42:09Z</time>
      </trkpt>
      <trkpt lat="45.99151" lon="6.54226">
        <ele>1213</ele>
        <time>2022-03-06T09:42:13Z</time>
      </trkpt>
      <trkpt lat="45.9915" lon="6.54232">
        <ele>1213</ele>
        <time>2022-03-06T09:42:18Z</time>
      </trkpt>
      <trkpt lat="45.99147" lon="6.54246">
        <ele>1212</ele>
        <time>2022-03-06T09:42:32Z</time>
      </trkpt>
      <trkpt lat="45.99146" lon="6.54248">
        <ele>1213</ele>
        <time>2022-03-06T09:42:35Z</time>
      </trkpt>
      <trkpt lat="45.99147" lon="6.54255">
        <ele>1212</ele>
        <time>2022-03-06T09:42:42Z</time>
      </trkpt>
      <trkpt lat="45.99142" lon="6.54266">
        <ele>1215</ele>
        <time>2022-03-06T09:42:57Z</time>
      </trkpt>
      <trkpt lat="45.99151" lon="6.54269">
        <ele>1211</ele>
        <time>2022-03-06T09:43:15Z</time>
      </trkpt>
      <trkpt lat="45.99145" lon="6.54278">
        <ele>1214</ele>
        <time>2022-03-06T09:43:34Z</time>
      </trkpt>
      <trkpt lat="45.99136" lon="6.54283">
        <ele>1218</ele>
        <time>2022-03-06T09:43:43Z</time>
      </trkpt>
      <trkpt lat="45.99125" lon="6.54283">
        <ele>1226</ele>
        <time>2022-03-06T09:43:51Z</time>
      </trkpt>
      <trkpt lat="45.9912" lon="6.54297">
        <ele>1226</ele>
        <time>2022-03-06T09:44:05Z</time>
      </trkpt>
      <trkpt lat="45.99113" lon="6.54305">
        <ele>1228</ele>
        <time>2022-03-06T09:44:16Z</time>
      </trkpt>
      <trkpt lat="45.99107" lon="6.54315">
        <ele>1231</ele>
        <time>2022-03-06T09:44:29Z</time>
      </trkpt>
      <trkpt lat="45.99102" lon="6.54328">
        <ele>1232</ele>
        <time>2022-03-06T09:44:48Z</time>
      </trkpt>
      <trkpt lat="45.99102" lon="6.54341">
        <ele>1232</ele>
        <time>2022-03-06T09:45:01Z</time>
      </trkpt>
      <trkpt lat="45.99092" lon="6.54342">
        <ele>1237</ele>
        <time>2022-03-06T09:45:12Z</time>
      </trkpt>
      <trkpt lat="45.99084" lon="6.54348">
        <ele>1242</ele>
        <time>2022-03-06T09:45:23Z</time>
      </trkpt>
      <trkpt lat="45.99077" lon="6.54359">
        <ele>1245</ele>
        <time>2022-03-06T09:45:37Z</time>
      </trkpt>
      <trkpt lat="45.99072" lon="6.54365">
        <ele>1247</ele>
        <time>2022-03-06T09:45:45Z</time>
      </trkpt>
      <trkpt lat="45.99071" lon="6.5437">
        <ele>1247</ele>
        <time>2022-03-06T09:45:58Z</time>
      </trkpt>
      <trkpt lat="45.99067" lon="6.54371">
        <ele>1249</ele>
        <time>2022-03-06T09:46:09Z</time>
      </trkpt>
      <trkpt lat="45.99057" lon="6.5437">
        <ele>1253</ele>
        <time>2022-03-06T09:46:25Z</time>
      </trkpt>
      <trkpt lat="45.99057" lon="6.54373">
        <ele>1254</ele>
        <time>2022-03-06T09:46:28Z</time>
      </trkpt>
      <trkpt lat="45.99049" lon="6.54378">
        <ele>1257</ele>
        <time>2022-03-06T09:46:41Z</time>
      </trkpt>
      <trkpt lat="45.99046" lon="6.5438">
        <ele>1258</ele>
        <time>2022-03-06T09:46:47Z</time>
      </trkpt>
      <trkpt lat="45.99044" lon="6.54381">
        <ele>1259</ele>
        <time>2022-03-06T09:46:50Z</time>
      </trkpt>
      <trkpt lat="45.99035" lon="6.5438">
        <ele>1264</ele>
        <time>2022-03-06T09:47:04Z</time>
      </trkpt>
      <trkpt lat="45.99027" lon="6.54372">
        <ele>1268</ele>
        <time>2022-03-06T09:47:15Z</time>
      </trkpt>
      <trkpt lat="45.9902" lon="6.5438">
        <ele>1270</ele>
        <time>2022-03-06T09:47:25Z</time>
      </trkpt>
      <trkpt lat="45.99012" lon="6.54371">
        <ele>1274</ele>
        <time>2022-03-06T09:47:36Z</time>
      </trkpt>
      <trkpt lat="45.99004" lon="6.54376">
        <ele>1276</ele>
        <time>2022-03-06T09:47:47Z</time>
      </trkpt>
      <trkpt lat="45.98996" lon="6.54378">
        <ele>1279</ele>
        <time>2022-03-06T09:48:02Z</time>
      </trkpt>
      <trkpt lat="45.98995" lon="6.5438">
        <ele>1279</ele>
        <time>2022-03-06T09:48:05Z</time>
      </trkpt>
      <trkpt lat="45.98993" lon="6.54379">
        <ele>1280</ele>
        <time>2022-03-06T09:48:08Z</time>
      </trkpt>
      <trkpt lat="45.98991" lon="6.54381">
        <ele>1280</ele>
        <time>2022-03-06T09:48:11Z</time>
      </trkpt>
      <trkpt lat="45.98984" lon="6.54387">
        <ele>1281</ele>
        <time>2022-03-06T09:48:24Z</time>
      </trkpt>
      <trkpt lat="45.98984" lon="6.54391">
        <ele>1280</ele>
        <time>2022-03-06T09:48:28Z</time>
      </trkpt>
      <trkpt lat="45.98978" lon="6.54401">
        <ele>1281</ele>
        <time>2022-03-06T09:48:40Z</time>
      </trkpt>
      <trkpt lat="45.98977" lon="6.54405">
        <ele>1280</ele>
        <time>2022-03-06T09:48:42Z</time>
      </trkpt>
      <trkpt lat="45.98976" lon="6.54408">
        <ele>1280</ele>
        <time>2022-03-06T09:48:45Z</time>
      </trkpt>
      <trkpt lat="45.98974" lon="6.54409">
        <ele>1281</ele>
        <time>2022-03-06T09:48:47Z</time>
      </trkpt>
      <trkpt lat="45.98972" lon="6.54409">
        <ele>1281</ele>
        <time>2022-03-06T09:48:49Z</time>
      </trkpt>
      <trkpt lat="45.98963" lon="6.54407">
        <ele>1284</ele>
        <time>2022-03-06T09:49:05Z</time>
      </trkpt>
      <trkpt lat="45.98959" lon="6.54407">
        <ele>1285</ele>
        <time>2022-03-06T09:49:10Z</time>
      </trkpt>
      <trkpt lat="45.98957" lon="6.54408">
        <ele>1286</ele>
        <time>2022-03-06T09:49:13Z</time>
      </trkpt>
      <trkpt lat="45.98952" lon="6.54406">
        <ele>1288</ele>
        <time>2022-03-06T09:49:21Z</time>
      </trkpt>
      <trkpt lat="45.9895" lon="6.54404">
        <ele>1289</ele>
        <time>2022-03-06T09:49:26Z</time>
      </trkpt>
      <trkpt lat="45.98941" lon="6.54407">
        <ele>1290</ele>
        <time>2022-03-06T09:49:41Z</time>
      </trkpt>
      <trkpt lat="45.9894" lon="6.54411">
        <ele>1290</ele>
        <time>2022-03-06T09:49:44Z</time>
      </trkpt>
      <trkpt lat="45.98938" lon="6.54409">
        <ele>1290</ele>
        <time>2022-03-06T09:49:49Z</time>
      </trkpt>
      <trkpt lat="45.98929" lon="6.54414">
        <ele>1290</ele>
        <time>2022-03-06T09:50:04Z</time>
      </trkpt>
      <trkpt lat="45.98919" lon="6.54412">
        <ele>1291</ele>
        <time>2022-03-06T09:50:17Z</time>
      </trkpt>
      <trkpt lat="45.9891" lon="6.54414">
        <ele>1292</ele>
        <time>2022-03-06T09:50:24Z</time>
      </trkpt>
      <trkpt lat="45.98901" lon="6.54412">
        <ele>1294</ele>
        <time>2022-03-06T09:50:35Z</time>
      </trkpt>
      <trkpt lat="45.98899" lon="6.54423">
        <ele>1291</ele>
        <time>2022-03-06T09:50:44Z</time>
      </trkpt>
      <trkpt lat="45.98898" lon="6.54425">
        <ele>1291</ele>
        <time>2022-03-06T09:50:46Z</time>
      </trkpt>
      <trkpt lat="45.98896" lon="6.54426">
        <ele>1291</ele>
        <time>2022-03-06T09:50:49Z</time>
      </trkpt>
      <trkpt lat="45.98887" lon="6.54422">
        <ele>1294</ele>
        <time>2022-03-06T09:50:58Z</time>
      </trkpt>
      <trkpt lat="45.98878" lon="6.54424">
        <ele>1295</ele>
        <time>2022-03-06T09:51:20Z</time>
      </trkpt>
      <trkpt lat="45.98874" lon="6.54428">
        <ele>1295</ele>
        <time>2022-03-06T09:51:25Z</time>
      </trkpt>
      <trkpt lat="45.98865" lon="6.54433">
        <ele>1295</ele>
        <time>2022-03-06T09:51:38Z</time>
      </trkpt>
      <trkpt lat="45.98855" lon="6.54434">
        <ele>1296</ele>
        <time>2022-03-06T09:51:50Z</time>
      </trkpt>
      <trkpt lat="45.98852" lon="6.54433">
        <ele>1297</ele>
        <time>2022-03-06T09:51:53Z</time>
      </trkpt>
      <trkpt lat="45.98843" lon="6.5443">
        <ele>1298</ele>
        <time>2022-03-06T09:52:02Z</time>
      </trkpt>
      <trkpt lat="45.98834" lon="6.54426">
        <ele>1299</ele>
        <time>2022-03-06T09:52:12Z</time>
      </trkpt>
      <trkpt lat="45.98825" lon="6.54427">
        <ele>1299</ele>
        <time>2022-03-06T09:52:21Z</time>
      </trkpt>
      <trkpt lat="45.98823" lon="6.5443">
        <ele>1299</ele>
        <time>2022-03-06T09:52:24Z</time>
      </trkpt>
      <trkpt lat="45.98821" lon="6.54431">
        <ele>1299</ele>
        <time>2022-03-06T09:52:27Z</time>
      </trkpt>
      <trkpt lat="45.98819" lon="6.54432">
        <ele>1298</ele>
        <time>2022-03-06T09:52:29Z</time>
      </trkpt>
      <trkpt lat="45.98818" lon="6.54433">
        <ele>1298</ele>
        <time>2022-03-06T09:52:31Z</time>
      </trkpt>
      <trkpt lat="45.98816" lon="6.54435">
        <ele>1297</ele>
        <time>2022-03-06T09:52:33Z</time>
      </trkpt>
      <trkpt lat="45.98808" lon="6.54428">
        <ele>1299</ele>
        <time>2022-03-06T09:52:43Z</time>
      </trkpt>
      <trkpt lat="45.98805" lon="6.54429">
        <ele>1299</ele>
        <time>2022-03-06T09:52:46Z</time>
      </trkpt>
      <trkpt lat="45.98801" lon="6.54428">
        <ele>1299</ele>
        <time>2022-03-06T09:52:52Z</time>
      </trkpt>
      <trkpt lat="45.98795" lon="6.54422">
        <ele>1301</ele>
        <time>2022-03-06T09:52:59Z</time>
      </trkpt>
      <trkpt lat="45.98793" lon="6.54422">
        <ele>1301</ele>
        <time>2022-03-06T09:53:03Z</time>
      </trkpt>
      <trkpt lat="45.98791" lon="6.54423">
        <ele>1301</ele>
        <time>2022-03-06T09:53:05Z</time>
      </trkpt>
      <trkpt lat="45.98789" lon="6.54424">
        <ele>1300</ele>
        <time>2022-03-06T09:53:08Z</time>
      </trkpt>
      <trkpt lat="45.98787" lon="6.54423">
        <ele>1301</ele>
        <time>2022-03-06T09:53:10Z</time>
      </trkpt>
      <trkpt lat="45.98785" lon="6.54423">
        <ele>1301</ele>
        <time>2022-03-06T09:53:12Z</time>
      </trkpt>
      <trkpt lat="45.98782" lon="6.54423">
        <ele>1301</ele>
        <time>2022-03-06T09:53:15Z</time>
      </trkpt>
      <trkpt lat="45.98779" lon="6.54422">
        <ele>1301</ele>
        <time>2022-03-06T09:53:18Z</time>
      </trkpt>
      <trkpt lat="45.98777" lon="6.54421">
        <ele>1301</ele>
        <time>2022-03-06T09:53:21Z</time>
      </trkpt>
      <trkpt lat="45.98771" lon="6.54418">
        <ele>1302</ele>
        <time>2022-03-06T09:53:28Z</time>
      </trkpt>
      <trkpt lat="45.98767" lon="6.54415">
        <ele>1303</ele>
        <time>2022-03-06T09:53:32Z</time>
      </trkpt>
      <trkpt lat="45.98765" lon="6.54415">
        <ele>1303</ele>
        <time>2022-03-06T09:53:35Z</time>
      </trkpt>
      <trkpt lat="45.98762" lon="6.54414">
        <ele>1304</ele>
        <time>2022-03-06T09:53:38Z</time>
      </trkpt>
      <trkpt lat="45.9876" lon="6.54413">
        <ele>1304</ele>
        <time>2022-03-06T09:53:41Z</time>
      </trkpt>
      <trkpt lat="45.98758" lon="6.54413">
        <ele>1305</ele>
        <time>2022-03-06T09:53:44Z</time>
      </trkpt>
      <trkpt lat="45.98757" lon="6.54411">
        <ele>1305</ele>
        <time>2022-03-06T09:53:47Z</time>
      </trkpt>
      <trkpt lat="45.98755" lon="6.54413">
        <ele>1305</ele>
        <time>2022-03-06T09:53:51Z</time>
      </trkpt>
      <trkpt lat="45.98753" lon="6.54411">
        <ele>1305</ele>
        <time>2022-03-06T09:53:56Z</time>
      </trkpt>
      <trkpt lat="45.9875" lon="6.5441">
        <ele>1306</ele>
        <time>2022-03-06T09:53:58Z</time>
      </trkpt>
      <trkpt lat="45.98744" lon="6.54404">
        <ele>1308</ele>
        <time>2022-03-06T09:54:03Z</time>
      </trkpt>
      <trkpt lat="45.98739" lon="6.544">
        <ele>1309</ele>
        <time>2022-03-06T09:54:10Z</time>
      </trkpt>
      <trkpt lat="45.98731" lon="6.54393">
        <ele>1311</ele>
        <time>2022-03-06T09:54:18Z</time>
      </trkpt>
      <trkpt lat="45.98723" lon="6.54388">
        <ele>1313</ele>
        <time>2022-03-06T09:54:26Z</time>
      </trkpt>
      <trkpt lat="45.98721" lon="6.54388">
        <ele>1313</ele>
        <time>2022-03-06T09:54:28Z</time>
      </trkpt>
      <trkpt lat="45.98712" lon="6.54388">
        <ele>1313</ele>
        <time>2022-03-06T09:54:41Z</time>
      </trkpt>
      <trkpt lat="45.98702" lon="6.54389">
        <ele>1312</ele>
        <time>2022-03-06T09:54:51Z</time>
      </trkpt>
      <trkpt lat="45.98693" lon="6.5439">
        <ele>1312</ele>
        <time>2022-03-06T09:55:08Z</time>
      </trkpt>
      <trkpt lat="45.98684" lon="6.54387">
        <ele>1314</ele>
        <time>2022-03-06T09:55:20Z</time>
      </trkpt>
      <trkpt lat="45.98675" lon="6.54382">
        <ele>1316</ele>
        <time>2022-03-06T09:55:29Z</time>
      </trkpt>
      <trkpt lat="45.98666" lon="6.54375">
        <ele>1319</ele>
        <time>2022-03-06T09:55:37Z</time>
      </trkpt>
      <trkpt lat="45.9866" lon="6.54372">
        <ele>1320</ele>
        <time>2022-03-06T09:55:42Z</time>
      </trkpt>
      <trkpt lat="45.98652" lon="6.54367">
        <ele>1322</ele>
        <time>2022-03-06T09:55:52Z</time>
      </trkpt>
      <trkpt lat="45.98649" lon="6.54369">
        <ele>1321</ele>
        <time>2022-03-06T09:55:55Z</time>
      </trkpt>
      <trkpt lat="45.98645" lon="6.54372">
        <ele>1321</ele>
        <time>2022-03-06T09:56:00Z</time>
      </trkpt>
      <trkpt lat="45.98636" lon="6.54376">
        <ele>1320</ele>
        <time>2022-03-06T09:56:12Z</time>
      </trkpt>
      <trkpt lat="45.98627" lon="6.54378">
        <ele>1319</ele>
        <time>2022-03-06T09:56:24Z</time>
      </trkpt>
      <trkpt lat="45.98618" lon="6.54382">
        <ele>1317</ele>
        <time>2022-03-06T09:56:46Z</time>
      </trkpt>
      <trkpt lat="45.98609" lon="6.5438">
        <ele>1317</ele>
        <time>2022-03-06T09:57:00Z</time>
      </trkpt>
      <trkpt lat="45.986" lon="6.54375">
        <ele>1318</ele>
        <time>2022-03-06T09:57:10Z</time>
      </trkpt>
      <trkpt lat="45.98591" lon="6.54373">
        <ele>1318</ele>
        <time>2022-03-06T09:57:20Z</time>
      </trkpt>
      <trkpt lat="45.98582" lon="6.54373">
        <ele>1317</ele>
        <time>2022-03-06T09:57:31Z</time>
      </trkpt>
      <trkpt lat="45.98574" lon="6.54364">
        <ele>1319</ele>
        <time>2022-03-06T09:57:41Z</time>
      </trkpt>
      <trkpt lat="45.98565" lon="6.54363">
        <ele>1319</ele>
        <time>2022-03-06T09:57:52Z</time>
      </trkpt>
      <trkpt lat="45.98556" lon="6.54358">
        <ele>1320</ele>
        <time>2022-03-06T09:58:01Z</time>
      </trkpt>
      <trkpt lat="45.98546" lon="6.54356">
        <ele>1320</ele>
        <time>2022-03-06T09:58:14Z</time>
      </trkpt>
      <trkpt lat="45.98536" lon="6.54357">
        <ele>1319</ele>
        <time>2022-03-06T09:58:26Z</time>
      </trkpt>
      <trkpt lat="45.98527" lon="6.54354">
        <ele>1319</ele>
        <time>2022-03-06T09:58:36Z</time>
      </trkpt>
      <trkpt lat="45.98525" lon="6.54359">
        <ele>1318</ele>
        <time>2022-03-06T09:59:18Z</time>
      </trkpt>
      <trkpt lat="45.98523" lon="6.54346">
        <ele>1319</ele>
        <time>2022-03-06T10:00:26Z</time>
      </trkpt>
      <trkpt lat="45.98524" lon="6.54351">
        <ele>1319</ele>
        <time>2022-03-06T10:00:47Z</time>
      </trkpt>
      <trkpt lat="45.98515" lon="6.54349">
        <ele>1317</ele>
        <time>2022-03-06T10:02:46Z</time>
      </trkpt>
      <trkpt lat="45.98508" lon="6.5434">
        <ele>1317</ele>
        <time>2022-03-06T10:03:00Z</time>
      </trkpt>
      <trkpt lat="45.98503" lon="6.54328">
        <ele>1317</ele>
        <time>2022-03-06T10:03:11Z</time>
      </trkpt>
      <trkpt lat="45.98502" lon="6.54314">
        <ele>1321</ele>
        <time>2022-03-06T10:03:26Z</time>
      </trkpt>
      <trkpt lat="45.98501" lon="6.54301">
        <ele>1325</ele>
        <time>2022-03-06T10:03:39Z</time>
      </trkpt>
      <trkpt lat="45.98497" lon="6.54289">
        <ele>1328</ele>
        <time>2022-03-06T10:03:49Z</time>
      </trkpt>
      <trkpt lat="45.98489" lon="6.5428">
        <ele>1329</ele>
        <time>2022-03-06T10:03:55Z</time>
      </trkpt>
      <trkpt lat="45.98481" lon="6.54274">
        <ele>1329</ele>
        <time>2022-03-06T10:04:00Z</time>
      </trkpt>
      <trkpt lat="45.98473" lon="6.54266">
        <ele>1330</ele>
        <time>2022-03-06T10:04:05Z</time>
      </trkpt>
      <trkpt lat="45.98465" lon="6.54259">
        <ele>1331</ele>
        <time>2022-03-06T10:04:10Z</time>
      </trkpt>
      <trkpt lat="45.98455" lon="6.54262">
        <ele>1328</ele>
        <time>2022-03-06T10:04:38Z</time>
      </trkpt>
      <trkpt lat="45.98447" lon="6.54258">
        <ele>1328</ele>
        <time>2022-03-06T10:04:46Z</time>
      </trkpt>
      <trkpt lat="45.98437" lon="6.5426">
        <ele>1327</ele>
        <time>2022-03-06T10:05:03Z</time>
      </trkpt>
      <trkpt lat="45.98428" lon="6.54262">
        <ele>1326</ele>
        <time>2022-03-06T10:05:12Z</time>
      </trkpt>
      <trkpt lat="45.98418" lon="6.54261">
        <ele>1325</ele>
        <time>2022-03-06T10:05:24Z</time>
      </trkpt>
      <trkpt lat="45.98409" lon="6.5426">
        <ele>1326</ele>
        <time>2022-03-06T10:05:35Z</time>
      </trkpt>
      <trkpt lat="45.984" lon="6.54266">
        <ele>1325</ele>
        <time>2022-03-06T10:05:48Z</time>
      </trkpt>
      <trkpt lat="45.98391" lon="6.54273">
        <ele>1323</ele>
        <time>2022-03-06T10:05:56Z</time>
      </trkpt>
      <trkpt lat="45.98388" lon="6.54287">
        <ele>1321</ele>
        <time>2022-03-06T10:06:05Z</time>
      </trkpt>
      <trkpt lat="45.98378" lon="6.54284">
        <ele>1323</ele>
        <time>2022-03-06T10:06:17Z</time>
      </trkpt>
      <trkpt lat="45.98369" lon="6.54285">
        <ele>1324</ele>
        <time>2022-03-06T10:06:27Z</time>
      </trkpt>
      <trkpt lat="45.9836" lon="6.54285">
        <ele>1325</ele>
        <time>2022-03-06T10:06:38Z</time>
      </trkpt>
      <trkpt lat="45.9835" lon="6.54284">
        <ele>1326</ele>
        <time>2022-03-06T10:06:47Z</time>
      </trkpt>
      <trkpt lat="45.98341" lon="6.54284">
        <ele>1328</ele>
        <time>2022-03-06T10:07:02Z</time>
      </trkpt>
      <trkpt lat="45.98331" lon="6.54282">
        <ele>1329</ele>
        <time>2022-03-06T10:07:12Z</time>
      </trkpt>
      <trkpt lat="45.98322" lon="6.54279">
        <ele>1330</ele>
        <time>2022-03-06T10:07:35Z</time>
      </trkpt>
      <trkpt lat="45.98313" lon="6.54275">
        <ele>1330</ele>
        <time>2022-03-06T10:07:45Z</time>
      </trkpt>
      <trkpt lat="45.98303" lon="6.54272">
        <ele>1331</ele>
        <time>2022-03-06T10:07:55Z</time>
      </trkpt>
      <trkpt lat="45.98294" lon="6.54271">
        <ele>1332</ele>
        <time>2022-03-06T10:08:05Z</time>
      </trkpt>
      <trkpt lat="45.98285" lon="6.54268">
        <ele>1334</ele>
        <time>2022-03-06T10:08:18Z</time>
      </trkpt>
      <trkpt lat="45.98276" lon="6.54263">
        <ele>1336</ele>
        <time>2022-03-06T10:08:28Z</time>
      </trkpt>
      <trkpt lat="45.98267" lon="6.5426">
        <ele>1336</ele>
        <time>2022-03-06T10:08:39Z</time>
      </trkpt>
      <trkpt lat="45.98258" lon="6.54254">
        <ele>1337</ele>
        <time>2022-03-06T10:08:48Z</time>
      </trkpt>
      <trkpt lat="45.9825" lon="6.5425">
        <ele>1337</ele>
        <time>2022-03-06T10:08:58Z</time>
      </trkpt>
      <trkpt lat="45.9824" lon="6.54247">
        <ele>1337</ele>
        <time>2022-03-06T10:09:08Z</time>
      </trkpt>
      <trkpt lat="45.98231" lon="6.54242">
        <ele>1336</ele>
        <time>2022-03-06T10:09:17Z</time>
      </trkpt>
      <trkpt lat="45.98223" lon="6.54234">
        <ele>1336</ele>
        <time>2022-03-06T10:09:25Z</time>
      </trkpt>
      <trkpt lat="45.98213" lon="6.54232">
        <ele>1336</ele>
        <time>2022-03-06T10:09:35Z</time>
      </trkpt>
      <trkpt lat="45.98204" lon="6.54228">
        <ele>1337</ele>
        <time>2022-03-06T10:09:45Z</time>
      </trkpt>
      <trkpt lat="45.98195" lon="6.54225">
        <ele>1338</ele>
        <time>2022-03-06T10:09:55Z</time>
      </trkpt>
      <trkpt lat="45.98186" lon="6.54219">
        <ele>1340</ele>
        <time>2022-03-06T10:10:04Z</time>
      </trkpt>
      <trkpt lat="45.98176" lon="6.54219">
        <ele>1341</ele>
        <time>2022-03-06T10:10:13Z</time>
      </trkpt>
      <trkpt lat="45.98167" lon="6.54215">
        <ele>1342</ele>
        <time>2022-03-06T10:10:22Z</time>
      </trkpt>
      <trkpt lat="45.98157" lon="6.54211">
        <ele>1343</ele>
        <time>2022-03-06T10:10:33Z</time>
      </trkpt>
      <trkpt lat="45.98148" lon="6.54206">
        <ele>1343</ele>
        <time>2022-03-06T10:10:42Z</time>
      </trkpt>
      <trkpt lat="45.98139" lon="6.54202">
        <ele>1343</ele>
        <time>2022-03-06T10:10:52Z</time>
      </trkpt>
      <trkpt lat="45.98131" lon="6.54198">
        <ele>1343</ele>
        <time>2022-03-06T10:11:02Z</time>
      </trkpt>
      <trkpt lat="45.98124" lon="6.54188">
        <ele>1344</ele>
        <time>2022-03-06T10:11:13Z</time>
      </trkpt>
      <trkpt lat="45.98117" lon="6.54179">
        <ele>1345</ele>
        <time>2022-03-06T10:11:23Z</time>
      </trkpt>
      <trkpt lat="45.9811" lon="6.54171">
        <ele>1346</ele>
        <time>2022-03-06T10:11:33Z</time>
      </trkpt>
      <trkpt lat="45.98102" lon="6.54163">
        <ele>1347</ele>
        <time>2022-03-06T10:11:45Z</time>
      </trkpt>
      <trkpt lat="45.98095" lon="6.54155">
        <ele>1349</ele>
        <time>2022-03-06T10:11:54Z</time>
      </trkpt>
      <trkpt lat="45.98086" lon="6.54148">
        <ele>1351</ele>
        <time>2022-03-06T10:12:04Z</time>
      </trkpt>
      <trkpt lat="45.98079" lon="6.54139">
        <ele>1354</ele>
        <time>2022-03-06T10:12:14Z</time>
      </trkpt>
      <trkpt lat="45.98073" lon="6.54127">
        <ele>1358</ele>
        <time>2022-03-06T10:12:23Z</time>
      </trkpt>
      <trkpt lat="45.98067" lon="6.54115">
        <ele>1362</ele>
        <time>2022-03-06T10:12:38Z</time>
      </trkpt>
      <trkpt lat="45.98062" lon="6.54103">
        <ele>1366</ele>
        <time>2022-03-06T10:12:48Z</time>
      </trkpt>
      <trkpt lat="45.98057" lon="6.54092">
        <ele>1371</ele>
        <time>2022-03-06T10:12:58Z</time>
      </trkpt>
      <trkpt lat="45.98048" lon="6.54086">
        <ele>1374</ele>
        <time>2022-03-06T10:13:09Z</time>
      </trkpt>
      <trkpt lat="45.9804" lon="6.5408">
        <ele>1375</ele>
        <time>2022-03-06T10:13:22Z</time>
      </trkpt>
      <trkpt lat="45.98031" lon="6.54082">
        <ele>1374</ele>
        <time>2022-03-06T10:13:38Z</time>
      </trkpt>
      <trkpt lat="45.98023" lon="6.54089">
        <ele>1371</ele>
        <time>2022-03-06T10:13:50Z</time>
      </trkpt>
      <trkpt lat="45.98013" lon="6.54085">
        <ele>1371</ele>
        <time>2022-03-06T10:14:26Z</time>
      </trkpt>
      <trkpt lat="45.98007" lon="6.54084">
        <ele>1371</ele>
        <time>2022-03-06T10:14:43Z</time>
      </trkpt>
      <trkpt lat="45.98006" lon="6.5408">
        <ele>1372</ele>
        <time>2022-03-06T10:14:48Z</time>
      </trkpt>
      <trkpt lat="45.98006" lon="6.54077">
        <ele>1373</ele>
        <time>2022-03-06T10:14:51Z</time>
      </trkpt>
      <trkpt lat="45.98004" lon="6.54076">
        <ele>1373</ele>
        <time>2022-03-06T10:14:54Z</time>
      </trkpt>
      <trkpt lat="45.98002" lon="6.54073">
        <ele>1374</ele>
        <time>2022-03-06T10:14:57Z</time>
      </trkpt>
      <trkpt lat="45.98001" lon="6.54072">
        <ele>1374</ele>
        <time>2022-03-06T10:14:59Z</time>
      </trkpt>
      <trkpt lat="45.97999" lon="6.54071">
        <ele>1374</ele>
        <time>2022-03-06T10:15:01Z</time>
      </trkpt>
      <trkpt lat="45.97997" lon="6.54069">
        <ele>1374</ele>
        <time>2022-03-06T10:15:07Z</time>
      </trkpt>
      <trkpt lat="45.97996" lon="6.54067">
        <ele>1375</ele>
        <time>2022-03-06T10:15:11Z</time>
      </trkpt>
      <trkpt lat="45.97996" lon="6.54064">
        <ele>1375</ele>
        <time>2022-03-06T10:15:14Z</time>
      </trkpt>
      <trkpt lat="45.97998" lon="6.54062">
        <ele>1376</ele>
        <time>2022-03-06T10:15:17Z</time>
      </trkpt>
      <trkpt lat="45.97998" lon="6.54059">
        <ele>1377</ele>
        <time>2022-03-06T10:15:20Z</time>
      </trkpt>
      <trkpt lat="45.97998" lon="6.54055">
        <ele>1378</ele>
        <time>2022-03-06T10:15:22Z</time>
      </trkpt>
      <trkpt lat="45.97996" lon="6.54054">
        <ele>1378</ele>
        <time>2022-03-06T10:15:25Z</time>
      </trkpt>
      <trkpt lat="45.97995" lon="6.54052">
        <ele>1379</ele>
        <time>2022-03-06T10:15:29Z</time>
      </trkpt>
      <trkpt lat="45.97994" lon="6.54049">
        <ele>1380</ele>
        <time>2022-03-06T10:15:32Z</time>
      </trkpt>
      <trkpt lat="45.97985" lon="6.5405">
        <ele>1378</ele>
        <time>2022-03-06T10:15:42Z</time>
      </trkpt>
      <trkpt lat="45.97982" lon="6.5406">
        <ele>1375</ele>
        <time>2022-03-06T10:15:51Z</time>
      </trkpt>
      <trkpt lat="45.9798" lon="6.54059">
        <ele>1375</ele>
        <time>2022-03-06T10:15:54Z</time>
      </trkpt>
      <trkpt lat="45.97977" lon="6.54058">
        <ele>1375</ele>
        <time>2022-03-06T10:15:57Z</time>
      </trkpt>
      <trkpt lat="45.97975" lon="6.54056">
        <ele>1375</ele>
        <time>2022-03-06T10:15:59Z</time>
      </trkpt>
      <trkpt lat="45.97972" lon="6.54055">
        <ele>1375</ele>
        <time>2022-03-06T10:16:01Z</time>
      </trkpt>
      <trkpt lat="45.97971" lon="6.54052">
        <ele>1375</ele>
        <time>2022-03-06T10:16:03Z</time>
      </trkpt>
      <trkpt lat="45.97969" lon="6.5405">
        <ele>1376</ele>
        <time>2022-03-06T10:16:05Z</time>
      </trkpt>
      <trkpt lat="45.97967" lon="6.54049">
        <ele>1376</ele>
        <time>2022-03-06T10:16:07Z</time>
      </trkpt>
      <trkpt lat="45.97962" lon="6.54038">
        <ele>1380</ele>
        <time>2022-03-06T10:16:17Z</time>
      </trkpt>
      <trkpt lat="45.9796" lon="6.54024">
        <ele>1385</ele>
        <time>2022-03-06T10:16:27Z</time>
      </trkpt>
      <trkpt lat="45.9795" lon="6.54022">
        <ele>1385</ele>
        <time>2022-03-06T10:16:41Z</time>
      </trkpt>
      <trkpt lat="45.9794" lon="6.54022">
        <ele>1384</ele>
        <time>2022-03-06T10:16:51Z</time>
      </trkpt>
      <trkpt lat="45.97933" lon="6.5403">
        <ele>1382</ele>
        <time>2022-03-06T10:17:01Z</time>
      </trkpt>
      <trkpt lat="45.97926" lon="6.5404">
        <ele>1380</ele>
        <time>2022-03-06T10:17:11Z</time>
      </trkpt>
      <trkpt lat="45.97924" lon="6.54042">
        <ele>1379</ele>
        <time>2022-03-06T10:17:14Z</time>
      </trkpt>
      <trkpt lat="45.97923" lon="6.54044">
        <ele>1379</ele>
        <time>2022-03-06T10:17:16Z</time>
      </trkpt>
      <trkpt lat="45.97922" lon="6.54046">
        <ele>1379</ele>
        <time>2022-03-06T10:17:18Z</time>
      </trkpt>
      <trkpt lat="45.9792" lon="6.54046">
        <ele>1379</ele>
        <time>2022-03-06T10:17:21Z</time>
      </trkpt>
      <trkpt lat="45.97917" lon="6.54046">
        <ele>1379</ele>
        <time>2022-03-06T10:17:24Z</time>
      </trkpt>
      <trkpt lat="45.97915" lon="6.54046">
        <ele>1379</ele>
        <time>2022-03-06T10:17:26Z</time>
      </trkpt>
      <trkpt lat="45.97913" lon="6.54046">
        <ele>1380</ele>
        <time>2022-03-06T10:17:29Z</time>
      </trkpt>
      <trkpt lat="45.9791" lon="6.54046">
        <ele>1380</ele>
        <time>2022-03-06T10:17:32Z</time>
      </trkpt>
      <trkpt lat="45.97908" lon="6.54045">
        <ele>1380</ele>
        <time>2022-03-06T10:17:35Z</time>
      </trkpt>
      <trkpt lat="45.97906" lon="6.54044">
        <ele>1381</ele>
        <time>2022-03-06T10:17:37Z</time>
      </trkpt>
      <trkpt lat="45.97904" lon="6.54042">
        <ele>1381</ele>
        <time>2022-03-06T10:17:40Z</time>
      </trkpt>
      <trkpt lat="45.97902" lon="6.54039">
        <ele>1382</ele>
        <time>2022-03-06T10:17:46Z</time>
      </trkpt>
      <trkpt lat="45.97901" lon="6.54037">
        <ele>1382</ele>
        <time>2022-03-06T10:17:49Z</time>
      </trkpt>
      <trkpt lat="45.97898" lon="6.54035">
        <ele>1383</ele>
        <time>2022-03-06T10:17:53Z</time>
      </trkpt>
      <trkpt lat="45.97896" lon="6.54034">
        <ele>1383</ele>
        <time>2022-03-06T10:17:56Z</time>
      </trkpt>
      <trkpt lat="45.97895" lon="6.54032">
        <ele>1384</ele>
        <time>2022-03-06T10:17:59Z</time>
      </trkpt>
      <trkpt lat="45.97893" lon="6.5403">
        <ele>1384</ele>
        <time>2022-03-06T10:18:02Z</time>
      </trkpt>
      <trkpt lat="45.97891" lon="6.54028">
        <ele>1384</ele>
        <time>2022-03-06T10:18:05Z</time>
      </trkpt>
      <trkpt lat="45.97889" lon="6.54025">
        <ele>1385</ele>
        <time>2022-03-06T10:18:08Z</time>
      </trkpt>
      <trkpt lat="45.97887" lon="6.54023">
        <ele>1385</ele>
        <time>2022-03-06T10:18:11Z</time>
      </trkpt>
      <trkpt lat="45.97886" lon="6.54021">
        <ele>1385</ele>
        <time>2022-03-06T10:18:14Z</time>
      </trkpt>
      <trkpt lat="45.97885" lon="6.54018">
        <ele>1386</ele>
        <time>2022-03-06T10:18:17Z</time>
      </trkpt>
      <trkpt lat="45.97883" lon="6.54015">
        <ele>1386</ele>
        <time>2022-03-06T10:18:20Z</time>
      </trkpt>
      <trkpt lat="45.97881" lon="6.54012">
        <ele>1387</ele>
        <time>2022-03-06T10:18:24Z</time>
      </trkpt>
      <trkpt lat="45.97879" lon="6.5401">
        <ele>1388</ele>
        <time>2022-03-06T10:18:27Z</time>
      </trkpt>
      <trkpt lat="45.97876" lon="6.54008">
        <ele>1389</ele>
        <time>2022-03-06T10:18:30Z</time>
      </trkpt>
      <trkpt lat="45.97874" lon="6.54007">
        <ele>1389</ele>
        <time>2022-03-06T10:18:33Z</time>
      </trkpt>
      <trkpt lat="45.97871" lon="6.54005">
        <ele>1390</ele>
        <time>2022-03-06T10:18:36Z</time>
      </trkpt>
      <trkpt lat="45.97869" lon="6.54004">
        <ele>1391</ele>
        <time>2022-03-06T10:18:39Z</time>
      </trkpt>
      <trkpt lat="45.97867" lon="6.54003">
        <ele>1391</ele>
        <time>2022-03-06T10:18:41Z</time>
      </trkpt>
      <trkpt lat="45.97865" lon="6.54001">
        <ele>1392</ele>
        <time>2022-03-06T10:18:44Z</time>
      </trkpt>
      <trkpt lat="45.97863" lon="6.54">
        <ele>1393</ele>
        <time>2022-03-06T10:18:46Z</time>
      </trkpt>
      <trkpt lat="45.97861" lon="6.53998">
        <ele>1394</ele>
        <time>2022-03-06T10:18:49Z</time>
      </trkpt>
      <trkpt lat="45.97859" lon="6.53996">
        <ele>1395</ele>
        <time>2022-03-06T10:18:52Z</time>
      </trkpt>
      <trkpt lat="45.97856" lon="6.53995">
        <ele>1396</ele>
        <time>2022-03-06T10:18:55Z</time>
      </trkpt>
      <trkpt lat="45.97854" lon="6.53993">
        <ele>1397</ele>
        <time>2022-03-06T10:18:59Z</time>
      </trkpt>
      <trkpt lat="45.97852" lon="6.53992">
        <ele>1397</ele>
        <time>2022-03-06T10:19:02Z</time>
      </trkpt>
      <trkpt lat="45.97849" lon="6.53991">
        <ele>1398</ele>
        <time>2022-03-06T10:19:05Z</time>
      </trkpt>
      <trkpt lat="45.97847" lon="6.5399">
        <ele>1398</ele>
        <time>2022-03-06T10:19:08Z</time>
      </trkpt>
      <trkpt lat="45.97845" lon="6.53988">
        <ele>1398</ele>
        <time>2022-03-06T10:19:11Z</time>
      </trkpt>
      <trkpt lat="45.97843" lon="6.53987">
        <ele>1399</ele>
        <time>2022-03-06T10:19:16Z</time>
      </trkpt>
      <trkpt lat="45.97841" lon="6.53985">
        <ele>1399</ele>
        <time>2022-03-06T10:19:19Z</time>
      </trkpt>
      <trkpt lat="45.97839" lon="6.53984">
        <ele>1399</ele>
        <time>2022-03-06T10:19:22Z</time>
      </trkpt>
      <trkpt lat="45.97837" lon="6.53981">
        <ele>1400</ele>
        <time>2022-03-06T10:19:25Z</time>
      </trkpt>
      <trkpt lat="45.97836" lon="6.53979">
        <ele>1400</ele>
        <time>2022-03-06T10:19:28Z</time>
      </trkpt>
      <trkpt lat="45.97834" lon="6.53978">
        <ele>1400</ele>
        <time>2022-03-06T10:19:30Z</time>
      </trkpt>
      <trkpt lat="45.97833" lon="6.53976">
        <ele>1400</ele>
        <time>2022-03-06T10:19:32Z</time>
      </trkpt>
      <trkpt lat="45.97831" lon="6.53974">
        <ele>1400</ele>
        <time>2022-03-06T10:19:35Z</time>
      </trkpt>
      <trkpt lat="45.97829" lon="6.53972">
        <ele>1401</ele>
        <time>2022-03-06T10:19:38Z</time>
      </trkpt>
      <trkpt lat="45.97827" lon="6.53971">
        <ele>1401</ele>
        <time>2022-03-06T10:19:40Z</time>
      </trkpt>
      <trkpt lat="45.97826" lon="6.5397">
        <ele>1401</ele>
        <time>2022-03-06T10:19:42Z</time>
      </trkpt>
      <trkpt lat="45.97824" lon="6.53968">
        <ele>1402</ele>
        <time>2022-03-06T10:19:43Z</time>
      </trkpt>
      <trkpt lat="45.97822" lon="6.53966">
        <ele>1402</ele>
        <time>2022-03-06T10:19:47Z</time>
      </trkpt>
      <trkpt lat="45.9782" lon="6.53965">
        <ele>1403</ele>
        <time>2022-03-06T10:19:49Z</time>
      </trkpt>
      <trkpt lat="45.97819" lon="6.53964">
        <ele>1403</ele>
        <time>2022-03-06T10:19:51Z</time>
      </trkpt>
      <trkpt lat="45.97816" lon="6.53962">
        <ele>1403</ele>
        <time>2022-03-06T10:19:54Z</time>
      </trkpt>
      <trkpt lat="45.97814" lon="6.53961">
        <ele>1404</ele>
        <time>2022-03-06T10:19:56Z</time>
      </trkpt>
      <trkpt lat="45.97812" lon="6.53959">
        <ele>1404</ele>
        <time>2022-03-06T10:19:59Z</time>
      </trkpt>
      <trkpt lat="45.97808" lon="6.53955">
        <ele>1405</ele>
        <time>2022-03-06T10:20:04Z</time>
      </trkpt>
      <trkpt lat="45.97806" lon="6.53954">
        <ele>1406</ele>
        <time>2022-03-06T10:20:07Z</time>
      </trkpt>
      <trkpt lat="45.97804" lon="6.53952">
        <ele>1406</ele>
        <time>2022-03-06T10:20:09Z</time>
      </trkpt>
      <trkpt lat="45.97802" lon="6.53951">
        <ele>1406</ele>
        <time>2022-03-06T10:20:12Z</time>
      </trkpt>
      <trkpt lat="45.978" lon="6.53949">
        <ele>1407</ele>
        <time>2022-03-06T10:20:15Z</time>
      </trkpt>
      <trkpt lat="45.97798" lon="6.53947">
        <ele>1407</ele>
        <time>2022-03-06T10:20:17Z</time>
      </trkpt>
      <trkpt lat="45.97796" lon="6.53944">
        <ele>1408</ele>
        <time>2022-03-06T10:20:21Z</time>
      </trkpt>
      <trkpt lat="45.97794" lon="6.53942">
        <ele>1409</ele>
        <time>2022-03-06T10:20:24Z</time>
      </trkpt>
      <trkpt lat="45.97792" lon="6.5394">
        <ele>1409</ele>
        <time>2022-03-06T10:20:27Z</time>
      </trkpt>
      <trkpt lat="45.97789" lon="6.53938">
        <ele>1410</ele>
        <time>2022-03-06T10:20:30Z</time>
      </trkpt>
      <trkpt lat="45.97788" lon="6.53936">
        <ele>1410</ele>
        <time>2022-03-06T10:20:32Z</time>
      </trkpt>
      <trkpt lat="45.97786" lon="6.53935">
        <ele>1411</ele>
        <time>2022-03-06T10:20:34Z</time>
      </trkpt>
      <trkpt lat="45.97784" lon="6.53932">
        <ele>1411</ele>
        <time>2022-03-06T10:20:37Z</time>
      </trkpt>
      <trkpt lat="45.97783" lon="6.5393">
        <ele>1412</ele>
        <time>2022-03-06T10:20:40Z</time>
      </trkpt>
      <trkpt lat="45.97781" lon="6.53927">
        <ele>1413</ele>
        <time>2022-03-06T10:20:43Z</time>
      </trkpt>
      <trkpt lat="45.9778" lon="6.53924">
        <ele>1413</ele>
        <time>2022-03-06T10:20:46Z</time>
      </trkpt>
      <trkpt lat="45.97778" lon="6.53923">
        <ele>1414</ele>
        <time>2022-03-06T10:20:48Z</time>
      </trkpt>
      <trkpt lat="45.97776" lon="6.5392">
        <ele>1414</ele>
        <time>2022-03-06T10:20:50Z</time>
      </trkpt>
      <trkpt lat="45.97775" lon="6.53917">
        <ele>1415</ele>
        <time>2022-03-06T10:20:54Z</time>
      </trkpt>
      <trkpt lat="45.97773" lon="6.53914">
        <ele>1415</ele>
        <time>2022-03-06T10:20:57Z</time>
      </trkpt>
      <trkpt lat="45.97771" lon="6.53912">
        <ele>1414</ele>
        <time>2022-03-06T10:21:00Z</time>
      </trkpt>
      <trkpt lat="45.9777" lon="6.53909">
        <ele>1414</ele>
        <time>2022-03-06T10:21:03Z</time>
      </trkpt>
      <trkpt lat="45.97769" lon="6.53906">
        <ele>1414</ele>
        <time>2022-03-06T10:21:06Z</time>
      </trkpt>
      <trkpt lat="45.97767" lon="6.53903">
        <ele>1414</ele>
        <time>2022-03-06T10:21:09Z</time>
      </trkpt>
      <trkpt lat="45.97765" lon="6.53902">
        <ele>1414</ele>
        <time>2022-03-06T10:21:11Z</time>
      </trkpt>
      <trkpt lat="45.97764" lon="6.539">
        <ele>1413</ele>
        <time>2022-03-06T10:21:13Z</time>
      </trkpt>
      <trkpt lat="45.97762" lon="6.53898">
        <ele>1413</ele>
        <time>2022-03-06T10:21:15Z</time>
      </trkpt>
      <trkpt lat="45.9776" lon="6.53896">
        <ele>1413</ele>
        <time>2022-03-06T10:21:18Z</time>
      </trkpt>
      <trkpt lat="45.97758" lon="6.53893">
        <ele>1413</ele>
        <time>2022-03-06T10:21:21Z</time>
      </trkpt>
      <trkpt lat="45.97757" lon="6.53891">
        <ele>1413</ele>
        <time>2022-03-06T10:21:23Z</time>
      </trkpt>
      <trkpt lat="45.97755" lon="6.53889">
        <ele>1412</ele>
        <time>2022-03-06T10:21:26Z</time>
      </trkpt>
      <trkpt lat="45.97754" lon="6.53888">
        <ele>1412</ele>
        <time>2022-03-06T10:21:28Z</time>
      </trkpt>
      <trkpt lat="45.97751" lon="6.53883">
        <ele>1412</ele>
        <time>2022-03-06T10:21:32Z</time>
      </trkpt>
      <trkpt lat="45.97747" lon="6.53878">
        <ele>1413</ele>
        <time>2022-03-06T10:21:37Z</time>
      </trkpt>
      <trkpt lat="45.97746" lon="6.53875">
        <ele>1413</ele>
        <time>2022-03-06T10:21:39Z</time>
      </trkpt>
      <trkpt lat="45.97744" lon="6.53873">
        <ele>1413</ele>
        <time>2022-03-06T10:21:42Z</time>
      </trkpt>
      <trkpt lat="45.97742" lon="6.53872">
        <ele>1414</ele>
        <time>2022-03-06T10:21:45Z</time>
      </trkpt>
      <trkpt lat="45.9774" lon="6.5387">
        <ele>1414</ele>
        <time>2022-03-06T10:21:47Z</time>
      </trkpt>
      <trkpt lat="45.97738" lon="6.53868">
        <ele>1414</ele>
        <time>2022-03-06T10:21:50Z</time>
      </trkpt>
      <trkpt lat="45.97736" lon="6.53866">
        <ele>1414</ele>
        <time>2022-03-06T10:21:53Z</time>
      </trkpt>
      <trkpt lat="45.97734" lon="6.53865">
        <ele>1414</ele>
        <time>2022-03-06T10:21:56Z</time>
      </trkpt>
      <trkpt lat="45.97732" lon="6.53864">
        <ele>1414</ele>
        <time>2022-03-06T10:21:58Z</time>
      </trkpt>
      <trkpt lat="45.9773" lon="6.53863">
        <ele>1415</ele>
        <time>2022-03-06T10:22:00Z</time>
      </trkpt>
      <trkpt lat="45.97728" lon="6.5386">
        <ele>1415</ele>
        <time>2022-03-06T10:22:03Z</time>
      </trkpt>
      <trkpt lat="45.97726" lon="6.53858">
        <ele>1415</ele>
        <time>2022-03-06T10:22:05Z</time>
      </trkpt>
      <trkpt lat="45.97725" lon="6.53856">
        <ele>1416</ele>
        <time>2022-03-06T10:22:07Z</time>
      </trkpt>
      <trkpt lat="45.97723" lon="6.53854">
        <ele>1416</ele>
        <time>2022-03-06T10:22:09Z</time>
      </trkpt>
      <trkpt lat="45.97722" lon="6.53853">
        <ele>1417</ele>
        <time>2022-03-06T10:22:11Z</time>
      </trkpt>
      <trkpt lat="45.9772" lon="6.53852">
        <ele>1417</ele>
        <time>2022-03-06T10:22:13Z</time>
      </trkpt>
      <trkpt lat="45.97718" lon="6.5385">
        <ele>1417</ele>
        <time>2022-03-06T10:22:15Z</time>
      </trkpt>
      <trkpt lat="45.97716" lon="6.53848">
        <ele>1418</ele>
        <time>2022-03-06T10:22:18Z</time>
      </trkpt>
      <trkpt lat="45.97714" lon="6.53846">
        <ele>1419</ele>
        <time>2022-03-06T10:22:21Z</time>
      </trkpt>
      <trkpt lat="45.9771" lon="6.53841">
        <ele>1420</ele>
        <time>2022-03-06T10:22:26Z</time>
      </trkpt>
      <trkpt lat="45.97708" lon="6.53839">
        <ele>1420</ele>
        <time>2022-03-06T10:22:28Z</time>
      </trkpt>
      <trkpt lat="45.97707" lon="6.53838">
        <ele>1421</ele>
        <time>2022-03-06T10:22:30Z</time>
      </trkpt>
      <trkpt lat="45.97705" lon="6.53836">
        <ele>1421</ele>
        <time>2022-03-06T10:22:32Z</time>
      </trkpt>
      <trkpt lat="45.97703" lon="6.53835">
        <ele>1421</ele>
        <time>2022-03-06T10:22:34Z</time>
      </trkpt>
      <trkpt lat="45.97702" lon="6.53833">
        <ele>1422</ele>
        <time>2022-03-06T10:22:37Z</time>
      </trkpt>
      <trkpt lat="45.977" lon="6.53831">
        <ele>1422</ele>
        <time>2022-03-06T10:22:39Z</time>
      </trkpt>
      <trkpt lat="45.97698" lon="6.5383">
        <ele>1422</ele>
        <time>2022-03-06T10:22:41Z</time>
      </trkpt>
      <trkpt lat="45.97697" lon="6.53828">
        <ele>1423</ele>
        <time>2022-03-06T10:22:43Z</time>
      </trkpt>
      <trkpt lat="45.97695" lon="6.53827">
        <ele>1423</ele>
        <time>2022-03-06T10:22:45Z</time>
      </trkpt>
      <trkpt lat="45.97692" lon="6.53826">
        <ele>1423</ele>
        <time>2022-03-06T10:22:48Z</time>
      </trkpt>
      <trkpt lat="45.9769" lon="6.53825">
        <ele>1424</ele>
        <time>2022-03-06T10:22:50Z</time>
      </trkpt>
      <trkpt lat="45.97688" lon="6.53823">
        <ele>1424</ele>
        <time>2022-03-06T10:22:52Z</time>
      </trkpt>
      <trkpt lat="45.97686" lon="6.53822">
        <ele>1424</ele>
        <time>2022-03-06T10:22:54Z</time>
      </trkpt>
      <trkpt lat="45.97684" lon="6.53822">
        <ele>1424</ele>
        <time>2022-03-06T10:22:56Z</time>
      </trkpt>
      <trkpt lat="45.97682" lon="6.53821">
        <ele>1424</ele>
        <time>2022-03-06T10:22:58Z</time>
      </trkpt>
      <trkpt lat="45.97675" lon="6.53812">
        <ele>1426</ele>
        <time>2022-03-06T10:23:06Z</time>
      </trkpt>
      <trkpt lat="45.97673" lon="6.53812">
        <ele>1426</ele>
        <time>2022-03-06T10:23:09Z</time>
      </trkpt>
      <trkpt lat="45.97671" lon="6.53811">
        <ele>1426</ele>
        <time>2022-03-06T10:23:12Z</time>
      </trkpt>
      <trkpt lat="45.97668" lon="6.5381">
        <ele>1427</ele>
        <time>2022-03-06T10:23:15Z</time>
      </trkpt>
      <trkpt lat="45.97662" lon="6.53807">
        <ele>1427</ele>
        <time>2022-03-06T10:23:22Z</time>
      </trkpt>
      <trkpt lat="45.97659" lon="6.53804">
        <ele>1427</ele>
        <time>2022-03-06T10:24:06Z</time>
      </trkpt>
      <trkpt lat="45.97661" lon="6.5381">
        <ele>1427</ele>
        <time>2022-03-06T10:24:16Z</time>
      </trkpt>
      <trkpt lat="45.97662" lon="6.53808">
        <ele>1427</ele>
        <time>2022-03-06T10:24:28Z</time>
      </trkpt>
      <trkpt lat="45.97661" lon="6.53802">
        <ele>1428</ele>
        <time>2022-03-06T10:24:45Z</time>
      </trkpt>
      <trkpt lat="45.97659" lon="6.53799">
        <ele>1428</ele>
        <time>2022-03-06T10:24:47Z</time>
      </trkpt>
      <trkpt lat="45.97658" lon="6.53797">
        <ele>1428</ele>
        <time>2022-03-06T10:24:49Z</time>
      </trkpt>
      <trkpt lat="45.97656" lon="6.53795">
        <ele>1428</ele>
        <time>2022-03-06T10:24:51Z</time>
      </trkpt>
      <trkpt lat="45.97654" lon="6.53793">
        <ele>1429</ele>
        <time>2022-03-06T10:24:54Z</time>
      </trkpt>
      <trkpt lat="45.97652" lon="6.5379">
        <ele>1429</ele>
        <time>2022-03-06T10:24:56Z</time>
      </trkpt>
      <trkpt lat="45.9765" lon="6.53788">
        <ele>1429</ele>
        <time>2022-03-06T10:24:59Z</time>
      </trkpt>
      <trkpt lat="45.97649" lon="6.53787">
        <ele>1429</ele>
        <time>2022-03-06T10:25:01Z</time>
      </trkpt>
      <trkpt lat="45.97646" lon="6.53785">
        <ele>1429</ele>
        <time>2022-03-06T10:25:04Z</time>
      </trkpt>
      <trkpt lat="45.97638" lon="6.5378">
        <ele>1429</ele>
        <time>2022-03-06T10:25:13Z</time>
      </trkpt>
      <trkpt lat="45.97636" lon="6.53779">
        <ele>1429</ele>
        <time>2022-03-06T10:25:16Z</time>
      </trkpt>
      <trkpt lat="45.97634" lon="6.53778">
        <ele>1429</ele>
        <time>2022-03-06T10:25:18Z</time>
      </trkpt>
      <trkpt lat="45.97631" lon="6.53778">
        <ele>1430</ele>
        <time>2022-03-06T10:25:21Z</time>
      </trkpt>
      <trkpt lat="45.97629" lon="6.53777">
        <ele>1430</ele>
        <time>2022-03-06T10:25:25Z</time>
      </trkpt>
      <trkpt lat="45.97627" lon="6.53776">
        <ele>1430</ele>
        <time>2022-03-06T10:25:28Z</time>
      </trkpt>
      <trkpt lat="45.97625" lon="6.53774">
        <ele>1430</ele>
        <time>2022-03-06T10:25:31Z</time>
      </trkpt>
      <trkpt lat="45.97623" lon="6.53773">
        <ele>1431</ele>
        <time>2022-03-06T10:25:33Z</time>
      </trkpt>
      <trkpt lat="45.97621" lon="6.53771">
        <ele>1431</ele>
        <time>2022-03-06T10:25:35Z</time>
      </trkpt>
      <trkpt lat="45.97619" lon="6.5377">
        <ele>1431</ele>
        <time>2022-03-06T10:25:37Z</time>
      </trkpt>
      <trkpt lat="45.97618" lon="6.53769">
        <ele>1431</ele>
        <time>2022-03-06T10:25:39Z</time>
      </trkpt>
      <trkpt lat="45.97611" lon="6.53765">
        <ele>1432</ele>
        <time>2022-03-06T10:25:46Z</time>
      </trkpt>
      <trkpt lat="45.97609" lon="6.53764">
        <ele>1433</ele>
        <time>2022-03-06T10:25:49Z</time>
      </trkpt>
      <trkpt lat="45.97606" lon="6.53762">
        <ele>1433</ele>
        <time>2022-03-06T10:25:52Z</time>
      </trkpt>
      <trkpt lat="45.97604" lon="6.53761">
        <ele>1434</ele>
        <time>2022-03-06T10:25:55Z</time>
      </trkpt>
      <trkpt lat="45.976" lon="6.53758">
        <ele>1435</ele>
        <time>2022-03-06T10:26:01Z</time>
      </trkpt>
      <trkpt lat="45.97596" lon="6.53755">
        <ele>1435</ele>
        <time>2022-03-06T10:26:06Z</time>
      </trkpt>
      <trkpt lat="45.97594" lon="6.53753">
        <ele>1436</ele>
        <time>2022-03-06T10:26:09Z</time>
      </trkpt>
      <trkpt lat="45.97591" lon="6.53752">
        <ele>1436</ele>
        <time>2022-03-06T10:26:12Z</time>
      </trkpt>
      <trkpt lat="45.97591" lon="6.53749">
        <ele>1437</ele>
        <time>2022-03-06T10:26:17Z</time>
      </trkpt>
      <trkpt lat="45.9759" lon="6.53746">
        <ele>1438</ele>
        <time>2022-03-06T10:26:20Z</time>
      </trkpt>
      <trkpt lat="45.97592" lon="6.53746">
        <ele>1438</ele>
        <time>2022-03-06T10:26:25Z</time>
      </trkpt>
      <trkpt lat="45.97594" lon="6.53744">
        <ele>1438</ele>
        <time>2022-03-06T10:26:31Z</time>
      </trkpt>
      <trkpt lat="45.97588" lon="6.53732">
        <ele>1441</ele>
        <time>2022-03-06T10:26:59Z</time>
      </trkpt>
      <trkpt lat="45.97578" lon="6.53738">
        <ele>1441</ele>
        <time>2022-03-06T10:27:06Z</time>
      </trkpt>
      <trkpt lat="45.9758" lon="6.5374">
        <ele>1440</ele>
        <time>2022-03-06T10:28:08Z</time>
      </trkpt>
      <trkpt lat="45.97578" lon="6.53754">
        <ele>1437</ele>
        <time>2022-03-06T10:28:28Z</time>
      </trkpt>
      <trkpt lat="45.9758" lon="6.5374">
        <ele>1440</ele>
        <time>2022-03-06T10:28:39Z</time>
      </trkpt>
      <trkpt lat="45.97584" lon="6.53753">
        <ele>1437</ele>
        <time>2022-03-06T10:29:05Z</time>
      </trkpt>
      <trkpt lat="45.9758" lon="6.53741">
        <ele>1440</ele>
        <time>2022-03-06T10:29:15Z</time>
      </trkpt>
      <trkpt lat="45.97576" lon="6.53729">
        <ele>1443</ele>
        <time>2022-03-06T10:29:39Z</time>
      </trkpt>
      <trkpt lat="45.97584" lon="6.53735">
        <ele>1441</ele>
        <time>2022-03-06T10:29:45Z</time>
      </trkpt>
      <trkpt lat="45.97585" lon="6.53736">
        <ele>1440</ele>
        <time>2022-03-06T10:29:59Z</time>
      </trkpt>
      <trkpt lat="45.97578" lon="6.53745">
        <ele>1439</ele>
        <time>2022-03-06T10:30:22Z</time>
      </trkpt>
      <trkpt lat="45.9758" lon="6.53743">
        <ele>1440</ele>
        <time>2022-03-06T10:30:29Z</time>
      </trkpt>
      <trkpt lat="45.97579" lon="6.53728">
        <ele>1443</ele>
        <time>2022-03-06T10:30:50Z</time>
      </trkpt>
      <trkpt lat="45.97578" lon="6.53741">
        <ele>1440</ele>
        <time>2022-03-06T10:31:44Z</time>
      </trkpt>
      <trkpt lat="45.97576" lon="6.53736">
        <ele>1442</ele>
        <time>2022-03-06T10:31:59Z</time>
      </trkpt>
      <trkpt lat="45.97578" lon="6.53734">
        <ele>1442</ele>
        <time>2022-03-06T10:32:13Z</time>
      </trkpt>
      <trkpt lat="45.97577" lon="6.53737">
        <ele>1441</ele>
        <time>2022-03-06T10:32:48Z</time>
      </trkpt>
      <trkpt lat="45.97575" lon="6.53738">
        <ele>1441</ele>
        <time>2022-03-06T10:33:03Z</time>
      </trkpt>
      <trkpt lat="45.97565" lon="6.53737">
        <ele>1443</ele>
        <time>2022-03-06T10:33:23Z</time>
      </trkpt>
      <trkpt lat="45.97555" lon="6.53735">
        <ele>1445</ele>
        <time>2022-03-06T10:33:31Z</time>
      </trkpt>
      <trkpt lat="45.97549" lon="6.53736">
        <ele>1445</ele>
        <time>2022-03-06T10:33:37Z</time>
      </trkpt>
      <trkpt lat="45.97546" lon="6.53735">
        <ele>1445</ele>
        <time>2022-03-06T10:33:40Z</time>
      </trkpt>
      <trkpt lat="45.97544" lon="6.53735">
        <ele>1445</ele>
        <time>2022-03-06T10:33:42Z</time>
      </trkpt>
      <trkpt lat="45.97541" lon="6.53734">
        <ele>1445</ele>
        <time>2022-03-06T10:33:44Z</time>
      </trkpt>
      <trkpt lat="45.9754" lon="6.53732">
        <ele>1445</ele>
        <time>2022-03-06T10:33:46Z</time>
      </trkpt>
      <trkpt lat="45.97532" lon="6.53724">
        <ele>1446</ele>
        <time>2022-03-06T10:33:53Z</time>
      </trkpt>
      <trkpt lat="45.97524" lon="6.53716">
        <ele>1446</ele>
        <time>2022-03-06T10:34:08Z</time>
      </trkpt>
      <trkpt lat="45.97519" lon="6.53712">
        <ele>1446</ele>
        <time>2022-03-06T10:34:13Z</time>
      </trkpt>
      <trkpt lat="45.97517" lon="6.5371">
        <ele>1446</ele>
        <time>2022-03-06T10:34:15Z</time>
      </trkpt>
      <trkpt lat="45.97515" lon="6.53708">
        <ele>1446</ele>
        <time>2022-03-06T10:34:18Z</time>
      </trkpt>
      <trkpt lat="45.9751" lon="6.53696">
        <ele>1446</ele>
        <time>2022-03-06T10:34:27Z</time>
      </trkpt>
      <trkpt lat="45.97507" lon="6.53683">
        <ele>1448</ele>
        <time>2022-03-06T10:34:37Z</time>
      </trkpt>
      <trkpt lat="45.97506" lon="6.53671">
        <ele>1450</ele>
        <time>2022-03-06T10:34:47Z</time>
      </trkpt>
      <trkpt lat="45.97505" lon="6.53667">
        <ele>1451</ele>
        <time>2022-03-06T10:34:51Z</time>
      </trkpt>
      <trkpt lat="45.97499" lon="6.53655">
        <ele>1451</ele>
        <time>2022-03-06T10:35:02Z</time>
      </trkpt>
      <trkpt lat="45.97494" lon="6.53652">
        <ele>1451</ele>
        <time>2022-03-06T10:35:08Z</time>
      </trkpt>
      <trkpt lat="45.97492" lon="6.53649">
        <ele>1451</ele>
        <time>2022-03-06T10:35:10Z</time>
      </trkpt>
      <trkpt lat="45.9749" lon="6.53646">
        <ele>1451</ele>
        <time>2022-03-06T10:35:13Z</time>
      </trkpt>
      <trkpt lat="45.97487" lon="6.5364">
        <ele>1452</ele>
        <time>2022-03-06T10:35:21Z</time>
      </trkpt>
      <trkpt lat="45.97487" lon="6.53637">
        <ele>1452</ele>
        <time>2022-03-06T10:35:24Z</time>
      </trkpt>
      <trkpt lat="45.9748" lon="6.53628">
        <ele>1453</ele>
        <time>2022-03-06T10:36:01Z</time>
      </trkpt>
      <trkpt lat="45.97471" lon="6.5363">
        <ele>1451</ele>
        <time>2022-03-06T10:36:09Z</time>
      </trkpt>
      <trkpt lat="45.97465" lon="6.5364">
        <ele>1447</ele>
        <time>2022-03-06T10:36:20Z</time>
      </trkpt>
      <trkpt lat="45.97456" lon="6.53644">
        <ele>1446</ele>
        <time>2022-03-06T10:36:25Z</time>
      </trkpt>
      <trkpt lat="45.97447" lon="6.53648">
        <ele>1444</ele>
        <time>2022-03-06T10:36:31Z</time>
      </trkpt>
      <trkpt lat="45.97438" lon="6.53642">
        <ele>1446</ele>
        <time>2022-03-06T10:36:51Z</time>
      </trkpt>
      <trkpt lat="45.97429" lon="6.53642">
        <ele>1447</ele>
        <time>2022-03-06T10:37:00Z</time>
      </trkpt>
      <trkpt lat="45.97419" lon="6.53648">
        <ele>1447</ele>
        <time>2022-03-06T10:37:05Z</time>
      </trkpt>
      <trkpt lat="45.97409" lon="6.53653">
        <ele>1448</ele>
        <time>2022-03-06T10:37:11Z</time>
      </trkpt>
      <trkpt lat="45.97399" lon="6.53657">
        <ele>1448</ele>
        <time>2022-03-06T10:37:16Z</time>
      </trkpt>
      <trkpt lat="45.97389" lon="6.53661">
        <ele>1449</ele>
        <time>2022-03-06T10:37:20Z</time>
      </trkpt>
      <trkpt lat="45.97381" lon="6.53665">
        <ele>1449</ele>
        <time>2022-03-06T10:37:26Z</time>
      </trkpt>
      <trkpt lat="45.97374" lon="6.53673">
        <ele>1450</ele>
        <time>2022-03-06T10:37:36Z</time>
      </trkpt>
      <trkpt lat="45.97363" lon="6.53676">
        <ele>1452</ele>
        <time>2022-03-06T10:37:43Z</time>
      </trkpt>
      <trkpt lat="45.97373" lon="6.53679">
        <ele>1450</ele>
        <time>2022-03-06T10:37:47Z</time>
      </trkpt>
      <trkpt lat="45.97383" lon="6.53679">
        <ele>1448</ele>
        <time>2022-03-06T10:37:48Z</time>
      </trkpt>
      <trkpt lat="45.97392" lon="6.53673">
        <ele>1446</ele>
        <time>2022-03-06T10:37:55Z</time>
      </trkpt>
      <trkpt lat="45.97382" lon="6.53675">
        <ele>1448</ele>
        <time>2022-03-06T10:38:20Z</time>
      </trkpt>
      <trkpt lat="45.97373" lon="6.5368">
        <ele>1450</ele>
        <time>2022-03-06T10:38:26Z</time>
      </trkpt>
      <trkpt lat="45.97362" lon="6.53681">
        <ele>1453</ele>
        <time>2022-03-06T10:38:30Z</time>
      </trkpt>
      <trkpt lat="45.9735" lon="6.53685">
        <ele>1457</ele>
        <time>2022-03-06T10:38:34Z</time>
      </trkpt>
      <trkpt lat="45.9734" lon="6.53687">
        <ele>1460</ele>
        <time>2022-03-06T10:38:39Z</time>
      </trkpt>
      <trkpt lat="45.9733" lon="6.53685">
        <ele>1463</ele>
        <time>2022-03-06T10:38:45Z</time>
      </trkpt>
      <trkpt lat="45.97322" lon="6.5369">
        <ele>1466</ele>
        <time>2022-03-06T10:38:53Z</time>
      </trkpt>
      <trkpt lat="45.97312" lon="6.53694">
        <ele>1469</ele>
        <time>2022-03-06T10:39:06Z</time>
      </trkpt>
      <trkpt lat="45.97303" lon="6.53695">
        <ele>1472</ele>
        <time>2022-03-06T10:39:24Z</time>
      </trkpt>
      <trkpt lat="45.97291" lon="6.53692">
        <ele>1476</ele>
        <time>2022-03-06T10:39:45Z</time>
      </trkpt>
      <trkpt lat="45.97281" lon="6.53693">
        <ele>1480</ele>
        <time>2022-03-06T10:39:50Z</time>
      </trkpt>
      <trkpt lat="45.97271" lon="6.53694">
        <ele>1482</ele>
        <time>2022-03-06T10:39:55Z</time>
      </trkpt>
      <trkpt lat="45.9726" lon="6.53699">
        <ele>1486</ele>
        <time>2022-03-06T10:40:10Z</time>
      </trkpt>
      <trkpt lat="45.97252" lon="6.53693">
        <ele>1486</ele>
        <time>2022-03-06T10:40:35Z</time>
      </trkpt>
      <trkpt lat="45.97242" lon="6.53696">
        <ele>1489</ele>
        <time>2022-03-06T10:40:41Z</time>
      </trkpt>
      <trkpt lat="45.97231" lon="6.53693">
        <ele>1492</ele>
        <time>2022-03-06T10:41:27Z</time>
      </trkpt>
      <trkpt lat="45.97223" lon="6.537">
        <ele>1496</ele>
        <time>2022-03-06T10:41:33Z</time>
      </trkpt>
      <trkpt lat="45.97215" lon="6.53709">
        <ele>1500</ele>
        <time>2022-03-06T10:41:41Z</time>
      </trkpt>
      <trkpt lat="45.97205" lon="6.53712">
        <ele>1503</ele>
        <time>2022-03-06T10:41:45Z</time>
      </trkpt>
      <trkpt lat="45.97195" lon="6.53714">
        <ele>1506</ele>
        <time>2022-03-06T10:41:49Z</time>
      </trkpt>
      <trkpt lat="45.97185" lon="6.53719">
        <ele>1509</ele>
        <time>2022-03-06T10:41:54Z</time>
      </trkpt>
      <trkpt lat="45.97176" lon="6.5372">
        <ele>1511</ele>
        <time>2022-03-06T10:41:57Z</time>
      </trkpt>
      <trkpt lat="45.97164" lon="6.53722">
        <ele>1515</ele>
        <time>2022-03-06T10:42:02Z</time>
      </trkpt>
      <trkpt lat="45.97174" lon="6.53725">
        <ele>1512</ele>
        <time>2022-03-06T10:42:22Z</time>
      </trkpt>
      <trkpt lat="45.97165" lon="6.53721">
        <ele>1515</ele>
        <time>2022-03-06T10:43:00Z</time>
      </trkpt>
      <trkpt lat="45.97155" lon="6.53726">
        <ele>1520</ele>
        <time>2022-03-06T10:43:08Z</time>
      </trkpt>
      <trkpt lat="45.97149" lon="6.53735">
        <ele>1523</ele>
        <time>2022-03-06T10:43:18Z</time>
      </trkpt>
      <trkpt lat="45.97142" lon="6.53745">
        <ele>1525</ele>
        <time>2022-03-06T10:43:29Z</time>
      </trkpt>
      <trkpt lat="45.9715" lon="6.53739">
        <ele>1522</ele>
        <time>2022-03-06T10:44:09Z</time>
      </trkpt>
      <trkpt lat="45.97144" lon="6.53729">
        <ele>1526</ele>
        <time>2022-03-06T10:44:28Z</time>
      </trkpt>
      <trkpt lat="45.97137" lon="6.53741">
        <ele>1528</ele>
        <time>2022-03-06T10:44:40Z</time>
      </trkpt>
      <trkpt lat="45.97129" lon="6.53748">
        <ele>1530</ele>
        <time>2022-03-06T10:45:01Z</time>
      </trkpt>
      <trkpt lat="45.97125" lon="6.5376">
        <ele>1532</ele>
        <time>2022-03-06T10:45:17Z</time>
      </trkpt>
      <trkpt lat="45.97126" lon="6.53774">
        <ele>1531</ele>
        <time>2022-03-06T10:45:31Z</time>
      </trkpt>
      <trkpt lat="45.97126" lon="6.53789">
        <ele>1531</ele>
        <time>2022-03-06T10:45:44Z</time>
      </trkpt>
      <trkpt lat="45.97131" lon="6.53777">
        <ele>1529</ele>
        <time>2022-03-06T10:46:08Z</time>
      </trkpt>
      <trkpt lat="45.97129" lon="6.53765">
        <ele>1530</ele>
        <time>2022-03-06T10:46:25Z</time>
      </trkpt>
      <trkpt lat="45.97118" lon="6.53764">
        <ele>1534</ele>
        <time>2022-03-06T10:46:43Z</time>
      </trkpt>
      <trkpt lat="45.97112" lon="6.53774">
        <ele>1536</ele>
        <time>2022-03-06T10:46:52Z</time>
      </trkpt>
      <trkpt lat="45.97104" lon="6.53767">
        <ele>1540</ele>
        <time>2022-03-06T10:47:32Z</time>
      </trkpt>
      <trkpt lat="45.97098" lon="6.5378">
        <ele>1541</ele>
        <time>2022-03-06T10:47:48Z</time>
      </trkpt>
      <trkpt lat="45.97094" lon="6.53791">
        <ele>1544</ele>
        <time>2022-03-06T10:47:57Z</time>
      </trkpt>
      <trkpt lat="45.97093" lon="6.53794">
        <ele>1545</ele>
        <time>2022-03-06T10:47:59Z</time>
      </trkpt>
      <trkpt lat="45.97092" lon="6.53797">
        <ele>1546</ele>
        <time>2022-03-06T10:48:03Z</time>
      </trkpt>
      <trkpt lat="45.97091" lon="6.53801">
        <ele>1547</ele>
        <time>2022-03-06T10:48:05Z</time>
      </trkpt>
      <trkpt lat="45.97091" lon="6.53806">
        <ele>1547</ele>
        <time>2022-03-06T10:48:13Z</time>
      </trkpt>
      <trkpt lat="45.97088" lon="6.53819">
        <ele>1551</ele>
        <time>2022-03-06T10:48:27Z</time>
      </trkpt>
      <trkpt lat="45.97089" lon="6.53823">
        <ele>1551</ele>
        <time>2022-03-06T10:48:37Z</time>
      </trkpt>
      <trkpt lat="45.97089" lon="6.53826">
        <ele>1552</ele>
        <time>2022-03-06T10:48:45Z</time>
      </trkpt>
      <trkpt lat="45.97089" lon="6.53829">
        <ele>1552</ele>
        <time>2022-03-06T10:48:49Z</time>
      </trkpt>
      <trkpt lat="45.97089" lon="6.5384">
        <ele>1556</ele>
        <time>2022-03-06T10:49:06Z</time>
      </trkpt>
      <trkpt lat="45.97094" lon="6.53845">
        <ele>1556</ele>
        <time>2022-03-06T10:49:51Z</time>
      </trkpt>
      <trkpt lat="45.97092" lon="6.53846">
        <ele>1557</ele>
        <time>2022-03-06T10:49:53Z</time>
      </trkpt>
      <trkpt lat="45.97089" lon="6.53848">
        <ele>1559</ele>
        <time>2022-03-06T10:49:54Z</time>
      </trkpt>
      <trkpt lat="45.97087" lon="6.53849">
        <ele>1560</ele>
        <time>2022-03-06T10:49:55Z</time>
      </trkpt>
      <trkpt lat="45.97085" lon="6.53852">
        <ele>1562</ele>
        <time>2022-03-06T10:49:57Z</time>
      </trkpt>
      <trkpt lat="45.97083" lon="6.53854">
        <ele>1564</ele>
        <time>2022-03-06T10:49:59Z</time>
      </trkpt>
      <trkpt lat="45.97083" lon="6.53857">
        <ele>1565</ele>
        <time>2022-03-06T10:50:01Z</time>
      </trkpt>
      <trkpt lat="45.97081" lon="6.53865">
        <ele>1569</ele>
        <time>2022-03-06T10:50:13Z</time>
      </trkpt>
      <trkpt lat="45.97082" lon="6.53868">
        <ele>1570</ele>
        <time>2022-03-06T10:50:18Z</time>
      </trkpt>
      <trkpt lat="45.97083" lon="6.53873">
        <ele>1571</ele>
        <time>2022-03-06T10:50:24Z</time>
      </trkpt>
      <trkpt lat="45.97083" lon="6.53877">
        <ele>1572</ele>
        <time>2022-03-06T10:50:28Z</time>
      </trkpt>
      <trkpt lat="45.97083" lon="6.5388">
        <ele>1573</ele>
        <time>2022-03-06T10:50:35Z</time>
      </trkpt>
      <trkpt lat="45.97082" lon="6.53875">
        <ele>1571</ele>
        <time>2022-03-06T10:50:44Z</time>
      </trkpt>
      <trkpt lat="45.97084" lon="6.53875">
        <ele>1571</ele>
        <time>2022-03-06T10:50:47Z</time>
      </trkpt>
      <trkpt lat="45.97082" lon="6.53874">
        <ele>1571</ele>
        <time>2022-03-06T10:50:56Z</time>
      </trkpt>
      <trkpt lat="45.97081" lon="6.53871">
        <ele>1571</ele>
        <time>2022-03-06T10:50:58Z</time>
      </trkpt>
      <trkpt lat="45.9708" lon="6.53874">
        <ele>1572</ele>
        <time>2022-03-06T10:51:08Z</time>
      </trkpt>
      <trkpt lat="45.97078" lon="6.53872">
        <ele>1573</ele>
        <time>2022-03-06T10:51:17Z</time>
      </trkpt>
      <trkpt lat="45.97076" lon="6.53872">
        <ele>1574</ele>
        <time>2022-03-06T10:51:21Z</time>
      </trkpt>
      <trkpt lat="45.97074" lon="6.53873">
        <ele>1575</ele>
        <time>2022-03-06T10:51:24Z</time>
      </trkpt>
      <trkpt lat="45.97074" lon="6.53876">
        <ele>1576</ele>
        <time>2022-03-06T10:51:56Z</time>
      </trkpt>
      <trkpt lat="45.97074" lon="6.53878">
        <ele>1577</ele>
        <time>2022-03-06T10:52:03Z</time>
      </trkpt>
      <trkpt lat="45.97075" lon="6.53881">
        <ele>1577</ele>
        <time>2022-03-06T10:52:08Z</time>
      </trkpt>
      <trkpt lat="45.97076" lon="6.53883">
        <ele>1577</ele>
        <time>2022-03-06T10:52:30Z</time>
      </trkpt>
      <trkpt lat="45.97076" lon="6.53887">
        <ele>1578</ele>
        <time>2022-03-06T10:52:43Z</time>
      </trkpt>
      <trkpt lat="45.97079" lon="6.53892">
        <ele>1578</ele>
        <time>2022-03-06T10:52:52Z</time>
      </trkpt>
      <trkpt lat="45.9708" lon="6.53895">
        <ele>1579</ele>
        <time>2022-03-06T10:52:56Z</time>
      </trkpt>
      <trkpt lat="45.9708" lon="6.53897">
        <ele>1580</ele>
        <time>2022-03-06T10:53:01Z</time>
      </trkpt>
      <trkpt lat="45.97079" lon="6.53905">
        <ele>1583</ele>
        <time>2022-03-06T10:53:14Z</time>
      </trkpt>
      <trkpt lat="45.9708" lon="6.53908">
        <ele>1583</ele>
        <time>2022-03-06T10:53:18Z</time>
      </trkpt>
      <trkpt lat="45.97081" lon="6.5391">
        <ele>1583</ele>
        <time>2022-03-06T10:53:22Z</time>
      </trkpt>
      <trkpt lat="45.97082" lon="6.53912">
        <ele>1584</ele>
        <time>2022-03-06T10:53:25Z</time>
      </trkpt>
      <trkpt lat="45.97084" lon="6.53914">
        <ele>1584</ele>
        <time>2022-03-06T10:53:28Z</time>
      </trkpt>
      <trkpt lat="45.97085" lon="6.53915">
        <ele>1583</ele>
        <time>2022-03-06T10:53:30Z</time>
      </trkpt>
      <trkpt lat="45.97086" lon="6.53918">
        <ele>1584</ele>
        <time>2022-03-06T10:53:34Z</time>
      </trkpt>
      <trkpt lat="45.97085" lon="6.53931">
        <ele>1588</ele>
        <time>2022-03-06T10:53:47Z</time>
      </trkpt>
      <trkpt lat="45.97086" lon="6.53933">
        <ele>1588</ele>
        <time>2022-03-06T10:53:51Z</time>
      </trkpt>
      <trkpt lat="45.97088" lon="6.53942">
        <ele>1591</ele>
        <time>2022-03-06T10:54:08Z</time>
      </trkpt>
      <trkpt lat="45.97089" lon="6.53941">
        <ele>1590</ele>
        <time>2022-03-06T10:54:11Z</time>
      </trkpt>
      <trkpt lat="45.97091" lon="6.53944">
        <ele>1590</ele>
        <time>2022-03-06T10:54:22Z</time>
      </trkpt>
      <trkpt lat="45.97094" lon="6.53933">
        <ele>1586</ele>
        <time>2022-03-06T10:54:46Z</time>
      </trkpt>
      <trkpt lat="45.97095" lon="6.53935">
        <ele>1586</ele>
        <time>2022-03-06T10:55:06Z</time>
      </trkpt>
      <trkpt lat="45.97096" lon="6.53938">
        <ele>1587</ele>
        <time>2022-03-06T10:55:09Z</time>
      </trkpt>
      <trkpt lat="45.97095" lon="6.53941">
        <ele>1588</ele>
        <time>2022-03-06T10:55:47Z</time>
      </trkpt>
      <trkpt lat="45.97093" lon="6.53941">
        <ele>1589</ele>
        <time>2022-03-06T10:56:12Z</time>
      </trkpt>
      <trkpt lat="45.97095" lon="6.5394">
        <ele>1588</ele>
        <time>2022-03-06T10:56:22Z</time>
      </trkpt>
      <trkpt lat="45.97093" lon="6.5394">
        <ele>1588</ele>
        <time>2022-03-06T10:57:27Z</time>
      </trkpt>
      <trkpt lat="45.97092" lon="6.53937">
        <ele>1588</ele>
        <time>2022-03-06T10:57:35Z</time>
      </trkpt>
      <trkpt lat="45.97091" lon="6.53935">
        <ele>1587</ele>
        <time>2022-03-06T10:57:59Z</time>
      </trkpt>
      <trkpt lat="45.97088" lon="6.53936">
        <ele>1589</ele>
        <time>2022-03-06T10:58:03Z</time>
      </trkpt>
      <trkpt lat="45.97086" lon="6.53937">
        <ele>1589</ele>
        <time>2022-03-06T10:58:06Z</time>
      </trkpt>
      <trkpt lat="45.97084" lon="6.53937">
        <ele>1590</ele>
        <time>2022-03-06T10:58:11Z</time>
      </trkpt>
      <trkpt lat="45.97083" lon="6.53936">
        <ele>1590</ele>
        <time>2022-03-06T10:58:15Z</time>
      </trkpt>
      <trkpt lat="45.97081" lon="6.53936">
        <ele>1591</ele>
        <time>2022-03-06T10:58:19Z</time>
      </trkpt>
      <trkpt lat="45.97079" lon="6.53935">
        <ele>1591</ele>
        <time>2022-03-06T10:58:23Z</time>
      </trkpt>
      <trkpt lat="45.97077" lon="6.53934">
        <ele>1591</ele>
        <time>2022-03-06T10:58:27Z</time>
      </trkpt>
      <trkpt lat="45.97075" lon="6.53933">
        <ele>1592</ele>
        <time>2022-03-06T10:58:32Z</time>
      </trkpt>
      <trkpt lat="45.97073" lon="6.53931">
        <ele>1592</ele>
        <time>2022-03-06T10:58:39Z</time>
      </trkpt>
      <trkpt lat="45.97072" lon="6.53932">
        <ele>1592</ele>
        <time>2022-03-06T10:58:44Z</time>
      </trkpt>
      <trkpt lat="45.9707" lon="6.53931">
        <ele>1593</ele>
        <time>2022-03-06T10:58:49Z</time>
      </trkpt>
      <trkpt lat="45.97067" lon="6.53932">
        <ele>1594</ele>
        <time>2022-03-06T10:58:53Z</time>
      </trkpt>
      <trkpt lat="45.97065" lon="6.53931">
        <ele>1594</ele>
        <time>2022-03-06T10:58:57Z</time>
      </trkpt>
      <trkpt lat="45.97063" lon="6.53929">
        <ele>1594</ele>
        <time>2022-03-06T10:59:11Z</time>
      </trkpt>
      <trkpt lat="45.97062" lon="6.53927">
        <ele>1594</ele>
        <time>2022-03-06T10:59:19Z</time>
      </trkpt>
      <trkpt lat="45.9706" lon="6.53926">
        <ele>1595</ele>
        <time>2022-03-06T10:59:25Z</time>
      </trkpt>
      <trkpt lat="45.97059" lon="6.5393">
        <ele>1596</ele>
        <time>2022-03-06T10:59:29Z</time>
      </trkpt>
      <trkpt lat="45.97059" lon="6.53932">
        <ele>1596</ele>
        <time>2022-03-06T10:59:32Z</time>
      </trkpt>
      <trkpt lat="45.9706" lon="6.53935">
        <ele>1597</ele>
        <time>2022-03-06T10:59:35Z</time>
      </trkpt>
      <trkpt lat="45.9706" lon="6.53938">
        <ele>1597</ele>
        <time>2022-03-06T10:59:37Z</time>
      </trkpt>
      <trkpt lat="45.9706" lon="6.53941">
        <ele>1598</ele>
        <time>2022-03-06T10:59:40Z</time>
      </trkpt>
      <trkpt lat="45.97059" lon="6.53943">
        <ele>1599</ele>
        <time>2022-03-06T10:59:44Z</time>
      </trkpt>
      <trkpt lat="45.97058" lon="6.53946">
        <ele>1600</ele>
        <time>2022-03-06T10:59:47Z</time>
      </trkpt>
      <trkpt lat="45.97057" lon="6.53945">
        <ele>1600</ele>
        <time>2022-03-06T10:59:56Z</time>
      </trkpt>
      <trkpt lat="45.97055" lon="6.53944">
        <ele>1601</ele>
        <time>2022-03-06T11:00:00Z</time>
      </trkpt>
      <trkpt lat="45.97053" lon="6.53943">
        <ele>1601</ele>
        <time>2022-03-06T11:00:04Z</time>
      </trkpt>
      <trkpt lat="45.97052" lon="6.5394">
        <ele>1601</ele>
        <time>2022-03-06T11:00:10Z</time>
      </trkpt>
      <trkpt lat="45.97052" lon="6.53937">
        <ele>1600</ele>
        <time>2022-03-06T11:00:19Z</time>
      </trkpt>
      <trkpt lat="45.9705" lon="6.53937">
        <ele>1601</ele>
        <time>2022-03-06T11:00:49Z</time>
      </trkpt>
      <trkpt lat="45.97049" lon="6.53941">
        <ele>1602</ele>
        <time>2022-03-06T11:01:08Z</time>
      </trkpt>
      <trkpt lat="45.97048" lon="6.53944">
        <ele>1603</ele>
        <time>2022-03-06T11:01:20Z</time>
      </trkpt>
      <trkpt lat="45.9705" lon="6.53939">
        <ele>1601</ele>
        <time>2022-03-06T11:01:30Z</time>
      </trkpt>
      <trkpt lat="45.97052" lon="6.53938">
        <ele>1600</ele>
        <time>2022-03-06T11:01:35Z</time>
      </trkpt>
      <trkpt lat="45.97052" lon="6.53941">
        <ele>1601</ele>
        <time>2022-03-06T11:01:41Z</time>
      </trkpt>
      <trkpt lat="45.97053" lon="6.53938">
        <ele>1600</ele>
        <time>2022-03-06T11:01:56Z</time>
      </trkpt>
      <trkpt lat="45.97051" lon="6.5394">
        <ele>1601</ele>
        <time>2022-03-06T11:02:09Z</time>
      </trkpt>
      <trkpt lat="45.97051" lon="6.53937">
        <ele>1600</ele>
        <time>2022-03-06T11:02:24Z</time>
      </trkpt>
      <trkpt lat="45.97052" lon="6.53934">
        <ele>1599</ele>
        <time>2022-03-06T11:02:34Z</time>
      </trkpt>
      <trkpt lat="45.97055" lon="6.53934">
        <ele>1598</ele>
        <time>2022-03-06T11:02:36Z</time>
      </trkpt>
      <trkpt lat="45.97053" lon="6.53936">
        <ele>1599</ele>
        <time>2022-03-06T11:02:40Z</time>
      </trkpt>
      <trkpt lat="45.97051" lon="6.53937">
        <ele>1600</ele>
        <time>2022-03-06T11:02:42Z</time>
      </trkpt>
      <trkpt lat="45.97049" lon="6.53937">
        <ele>1601</ele>
        <time>2022-03-06T11:02:44Z</time>
      </trkpt>
      <trkpt lat="45.97046" lon="6.53937">
        <ele>1602</ele>
        <time>2022-03-06T11:02:48Z</time>
      </trkpt>
      <trkpt lat="45.97044" lon="6.53939">
        <ele>1603</ele>
        <time>2022-03-06T11:02:50Z</time>
      </trkpt>
      <trkpt lat="45.97042" lon="6.53938">
        <ele>1604</ele>
        <time>2022-03-06T11:02:53Z</time>
      </trkpt>
      <trkpt lat="45.97039" lon="6.53938">
        <ele>1605</ele>
        <time>2022-03-06T11:02:56Z</time>
      </trkpt>
      <trkpt lat="45.97037" lon="6.53938">
        <ele>1606</ele>
        <time>2022-03-06T11:03:00Z</time>
      </trkpt>
      <trkpt lat="45.97035" lon="6.53937">
        <ele>1606</ele>
        <time>2022-03-06T11:03:04Z</time>
      </trkpt>
      <trkpt lat="45.97033" lon="6.53935">
        <ele>1606</ele>
        <time>2022-03-06T11:03:07Z</time>
      </trkpt>
      <trkpt lat="45.97032" lon="6.53933">
        <ele>1606</ele>
        <time>2022-03-06T11:03:10Z</time>
      </trkpt>
      <trkpt lat="45.9703" lon="6.53932">
        <ele>1606</ele>
        <time>2022-03-06T11:03:14Z</time>
      </trkpt>
      <trkpt lat="45.97028" lon="6.5393">
        <ele>1606</ele>
        <time>2022-03-06T11:03:17Z</time>
      </trkpt>
      <trkpt lat="45.97027" lon="6.53928">
        <ele>1606</ele>
        <time>2022-03-06T11:03:20Z</time>
      </trkpt>
      <trkpt lat="45.97027" lon="6.53924">
        <ele>1605</ele>
        <time>2022-03-06T11:03:28Z</time>
      </trkpt>
      <trkpt lat="45.97027" lon="6.53921">
        <ele>1604</ele>
        <time>2022-03-06T11:03:50Z</time>
      </trkpt>
      <trkpt lat="45.97026" lon="6.53918">
        <ele>1603</ele>
        <time>2022-03-06T11:03:54Z</time>
      </trkpt>
      <trkpt lat="45.97024" lon="6.53917">
        <ele>1604</ele>
        <time>2022-03-06T11:03:59Z</time>
      </trkpt>
      <trkpt lat="45.97022" lon="6.53916">
        <ele>1604</ele>
        <time>2022-03-06T11:04:03Z</time>
      </trkpt>
      <trkpt lat="45.9702" lon="6.53914">
        <ele>1605</ele>
        <time>2022-03-06T11:04:08Z</time>
      </trkpt>
      <trkpt lat="45.97018" lon="6.53913">
        <ele>1606</ele>
        <time>2022-03-06T11:04:13Z</time>
      </trkpt>
      <trkpt lat="45.97017" lon="6.53911">
        <ele>1606</ele>
        <time>2022-03-06T11:04:18Z</time>
      </trkpt>
      <trkpt lat="45.97015" lon="6.5391">
        <ele>1607</ele>
        <time>2022-03-06T11:04:22Z</time>
      </trkpt>
      <trkpt lat="45.97014" lon="6.53907">
        <ele>1607</ele>
        <time>2022-03-06T11:04:26Z</time>
      </trkpt>
      <trkpt lat="45.97012" lon="6.53905">
        <ele>1607</ele>
        <time>2022-03-06T11:04:30Z</time>
      </trkpt>
      <trkpt lat="45.97011" lon="6.53904">
        <ele>1607</ele>
        <time>2022-03-06T11:04:37Z</time>
      </trkpt>
      <trkpt lat="45.97009" lon="6.53902">
        <ele>1608</ele>
        <time>2022-03-06T11:04:42Z</time>
      </trkpt>
      <trkpt lat="45.97008" lon="6.53899">
        <ele>1608</ele>
        <time>2022-03-06T11:04:46Z</time>
      </trkpt>
      <trkpt lat="45.97006" lon="6.53897">
        <ele>1608</ele>
        <time>2022-03-06T11:04:50Z</time>
      </trkpt>
      <trkpt lat="45.97004" lon="6.53895">
        <ele>1608</ele>
        <time>2022-03-06T11:04:54Z</time>
      </trkpt>
      <trkpt lat="45.97003" lon="6.53893">
        <ele>1608</ele>
        <time>2022-03-06T11:04:58Z</time>
      </trkpt>
      <trkpt lat="45.97001" lon="6.53892">
        <ele>1609</ele>
        <time>2022-03-06T11:05:04Z</time>
      </trkpt>
      <trkpt lat="45.96999" lon="6.53892">
        <ele>1610</ele>
        <time>2022-03-06T11:05:08Z</time>
      </trkpt>
      <trkpt lat="45.96997" lon="6.53891">
        <ele>1610</ele>
        <time>2022-03-06T11:05:13Z</time>
      </trkpt>
      <trkpt lat="45.96995" lon="6.53891">
        <ele>1611</ele>
        <time>2022-03-06T11:05:19Z</time>
      </trkpt>
      <trkpt lat="45.96993" lon="6.5389">
        <ele>1612</ele>
        <time>2022-03-06T11:05:25Z</time>
      </trkpt>
      <trkpt lat="45.96991" lon="6.53889">
        <ele>1613</ele>
        <time>2022-03-06T11:05:28Z</time>
      </trkpt>
      <trkpt lat="45.96989" lon="6.53889">
        <ele>1613</ele>
        <time>2022-03-06T11:05:34Z</time>
      </trkpt>
      <trkpt lat="45.96987" lon="6.53888">
        <ele>1614</ele>
        <time>2022-03-06T11:05:39Z</time>
      </trkpt>
      <trkpt lat="45.96985" lon="6.53887">
        <ele>1615</ele>
        <time>2022-03-06T11:05:42Z</time>
      </trkpt>
      <trkpt lat="45.96983" lon="6.53886">
        <ele>1615</ele>
        <time>2022-03-06T11:05:51Z</time>
      </trkpt>
      <trkpt lat="45.9698" lon="6.53888">
        <ele>1617</ele>
        <time>2022-03-06T11:05:53Z</time>
      </trkpt>
      <trkpt lat="45.96978" lon="6.53888">
        <ele>1618</ele>
        <time>2022-03-06T11:05:56Z</time>
      </trkpt>
      <trkpt lat="45.96974" lon="6.5389">
        <ele>1620</ele>
        <time>2022-03-06T11:06:03Z</time>
      </trkpt>
      <trkpt lat="45.96975" lon="6.53887">
        <ele>1619</ele>
        <time>2022-03-06T11:06:15Z</time>
      </trkpt>
      <trkpt lat="45.96973" lon="6.53887">
        <ele>1620</ele>
        <time>2022-03-06T11:06:27Z</time>
      </trkpt>
      <trkpt lat="45.96971" lon="6.53885">
        <ele>1621</ele>
        <time>2022-03-06T11:06:31Z</time>
      </trkpt>
      <trkpt lat="45.96966" lon="6.53889">
        <ele>1624</ele>
        <time>2022-03-06T11:06:46Z</time>
      </trkpt>
      <trkpt lat="45.96964" lon="6.53891">
        <ele>1626</ele>
        <time>2022-03-06T11:06:48Z</time>
      </trkpt>
      <trkpt lat="45.96962" lon="6.53893">
        <ele>1627</ele>
        <time>2022-03-06T11:06:51Z</time>
      </trkpt>
      <trkpt lat="45.9696" lon="6.53893">
        <ele>1628</ele>
        <time>2022-03-06T11:06:52Z</time>
      </trkpt>
      <trkpt lat="45.96958" lon="6.53892">
        <ele>1629</ele>
        <time>2022-03-06T11:06:55Z</time>
      </trkpt>
      <trkpt lat="45.96956" lon="6.53891">
        <ele>1630</ele>
        <time>2022-03-06T11:06:59Z</time>
      </trkpt>
      <trkpt lat="45.96954" lon="6.5389">
        <ele>1631</ele>
        <time>2022-03-06T11:07:10Z</time>
      </trkpt>
      <trkpt lat="45.96952" lon="6.53891">
        <ele>1632</ele>
        <time>2022-03-06T11:07:15Z</time>
      </trkpt>
      <trkpt lat="45.9695" lon="6.5389">
        <ele>1633</ele>
        <time>2022-03-06T11:07:18Z</time>
      </trkpt>
      <trkpt lat="45.96948" lon="6.53889">
        <ele>1634</ele>
        <time>2022-03-06T11:07:25Z</time>
      </trkpt>
      <trkpt lat="45.96945" lon="6.53884">
        <ele>1634</ele>
        <time>2022-03-06T11:07:35Z</time>
      </trkpt>
      <trkpt lat="45.96948" lon="6.53886">
        <ele>1633</ele>
        <time>2022-03-06T11:07:38Z</time>
      </trkpt>
      <trkpt lat="45.96947" lon="6.53888">
        <ele>1634</ele>
        <time>2022-03-06T11:07:47Z</time>
      </trkpt>
      <trkpt lat="45.96947" lon="6.53885">
        <ele>1633</ele>
        <time>2022-03-06T11:07:55Z</time>
      </trkpt>
      <trkpt lat="45.96946" lon="6.53888">
        <ele>1635</ele>
        <time>2022-03-06T11:08:00Z</time>
      </trkpt>
      <trkpt lat="45.96945" lon="6.53891">
        <ele>1636</ele>
        <time>2022-03-06T11:08:05Z</time>
      </trkpt>
      <trkpt lat="45.96946" lon="6.53894">
        <ele>1637</ele>
        <time>2022-03-06T11:08:08Z</time>
      </trkpt>
      <trkpt lat="45.96946" lon="6.53896">
        <ele>1637</ele>
        <time>2022-03-06T11:08:11Z</time>
      </trkpt>
      <trkpt lat="45.9695" lon="6.53905">
        <ele>1638</ele>
        <time>2022-03-06T11:08:29Z</time>
      </trkpt>
      <trkpt lat="45.96952" lon="6.53908">
        <ele>1638</ele>
        <time>2022-03-06T11:08:35Z</time>
      </trkpt>
      <trkpt lat="45.96953" lon="6.5391">
        <ele>1638</ele>
        <time>2022-03-06T11:08:39Z</time>
      </trkpt>
      <trkpt lat="45.96955" lon="6.53912">
        <ele>1638</ele>
        <time>2022-03-06T11:08:45Z</time>
      </trkpt>
      <trkpt lat="45.96956" lon="6.53914">
        <ele>1638</ele>
        <time>2022-03-06T11:08:51Z</time>
      </trkpt>
      <trkpt lat="45.96957" lon="6.53916">
        <ele>1637</ele>
        <time>2022-03-06T11:08:56Z</time>
      </trkpt>
      <trkpt lat="45.96959" lon="6.53917">
        <ele>1637</ele>
        <time>2022-03-06T11:09:04Z</time>
      </trkpt>
      <trkpt lat="45.96961" lon="6.53918">
        <ele>1636</ele>
        <time>2022-03-06T11:09:08Z</time>
      </trkpt>
      <trkpt lat="45.96963" lon="6.53919">
        <ele>1635</ele>
        <time>2022-03-06T11:09:16Z</time>
      </trkpt>
      <trkpt lat="45.96964" lon="6.53918">
        <ele>1634</ele>
        <time>2022-03-06T11:09:23Z</time>
      </trkpt>
      <trkpt lat="45.96962" lon="6.53919">
        <ele>1636</ele>
        <time>2022-03-06T11:09:26Z</time>
      </trkpt>
      <trkpt lat="45.9696" lon="6.53917">
        <ele>1636</ele>
        <time>2022-03-06T11:09:30Z</time>
      </trkpt>
      <trkpt lat="45.96958" lon="6.53911">
        <ele>1636</ele>
        <time>2022-03-06T11:09:35Z</time>
      </trkpt>
      <trkpt lat="45.96956" lon="6.53912">
        <ele>1637</ele>
        <time>2022-03-06T11:09:38Z</time>
      </trkpt>
      <trkpt lat="45.96954" lon="6.53913">
        <ele>1639</ele>
        <time>2022-03-06T11:09:41Z</time>
      </trkpt>
      <trkpt lat="45.96952" lon="6.53914">
        <ele>1640</ele>
        <time>2022-03-06T11:09:44Z</time>
      </trkpt>
      <trkpt lat="45.96943" lon="6.53909">
        <ele>1643</ele>
        <time>2022-03-06T11:10:06Z</time>
      </trkpt>
      <trkpt lat="45.96939" lon="6.53906">
        <ele>1645</ele>
        <time>2022-03-06T11:10:31Z</time>
      </trkpt>
      <trkpt lat="45.96937" lon="6.53906">
        <ele>1647</ele>
        <time>2022-03-06T11:10:34Z</time>
      </trkpt>
      <trkpt lat="45.96935" lon="6.53904">
        <ele>1647</ele>
        <time>2022-03-06T11:10:37Z</time>
      </trkpt>
      <trkpt lat="45.96933" lon="6.53904">
        <ele>1648</ele>
        <time>2022-03-06T11:10:40Z</time>
      </trkpt>
      <trkpt lat="45.96931" lon="6.53903">
        <ele>1649</ele>
        <time>2022-03-06T11:10:44Z</time>
      </trkpt>
      <trkpt lat="45.9693" lon="6.53901">
        <ele>1650</ele>
        <time>2022-03-06T11:10:47Z</time>
      </trkpt>
      <trkpt lat="45.96928" lon="6.53899">
        <ele>1650</ele>
        <time>2022-03-06T11:10:51Z</time>
      </trkpt>
      <trkpt lat="45.96927" lon="6.53897">
        <ele>1650</ele>
        <time>2022-03-06T11:10:55Z</time>
      </trkpt>
      <trkpt lat="45.96925" lon="6.53895">
        <ele>1650</ele>
        <time>2022-03-06T11:10:58Z</time>
      </trkpt>
      <trkpt lat="45.96924" lon="6.53893">
        <ele>1650</ele>
        <time>2022-03-06T11:11:03Z</time>
      </trkpt>
      <trkpt lat="45.96922" lon="6.53892">
        <ele>1650</ele>
        <time>2022-03-06T11:11:06Z</time>
      </trkpt>
      <trkpt lat="45.96921" lon="6.53889">
        <ele>1650</ele>
        <time>2022-03-06T11:11:10Z</time>
      </trkpt>
      <trkpt lat="45.96919" lon="6.53886">
        <ele>1651</ele>
        <time>2022-03-06T11:11:13Z</time>
      </trkpt>
      <trkpt lat="45.96917" lon="6.53885">
        <ele>1651</ele>
        <time>2022-03-06T11:11:17Z</time>
      </trkpt>
      <trkpt lat="45.96916" lon="6.53882">
        <ele>1652</ele>
        <time>2022-03-06T11:11:20Z</time>
      </trkpt>
      <trkpt lat="45.96914" lon="6.5388">
        <ele>1653</ele>
        <time>2022-03-06T11:11:23Z</time>
      </trkpt>
      <trkpt lat="45.96913" lon="6.53878">
        <ele>1653</ele>
        <time>2022-03-06T11:11:26Z</time>
      </trkpt>
      <trkpt lat="45.96911" lon="6.53877">
        <ele>1654</ele>
        <time>2022-03-06T11:11:31Z</time>
      </trkpt>
      <trkpt lat="45.96909" lon="6.53876">
        <ele>1655</ele>
        <time>2022-03-06T11:11:36Z</time>
      </trkpt>
      <trkpt lat="45.96907" lon="6.53875">
        <ele>1656</ele>
        <time>2022-03-06T11:11:38Z</time>
      </trkpt>
      <trkpt lat="45.96903" lon="6.53869">
        <ele>1657</ele>
        <time>2022-03-06T11:11:40Z</time>
      </trkpt>
      <trkpt lat="45.96903" lon="6.53879">
        <ele>1658</ele>
        <time>2022-03-06T11:11:45Z</time>
      </trkpt>
      <trkpt lat="45.96903" lon="6.53882">
        <ele>1659</ele>
        <time>2022-03-06T11:11:48Z</time>
      </trkpt>
      <trkpt lat="45.96904" lon="6.53885">
        <ele>1659</ele>
        <time>2022-03-06T11:11:51Z</time>
      </trkpt>
      <trkpt lat="45.96904" lon="6.53889">
        <ele>1660</ele>
        <time>2022-03-06T11:11:54Z</time>
      </trkpt>
      <trkpt lat="45.96904" lon="6.53892">
        <ele>1661</ele>
        <time>2022-03-06T11:11:57Z</time>
      </trkpt>
      <trkpt lat="45.96904" lon="6.53894">
        <ele>1662</ele>
        <time>2022-03-06T11:12:02Z</time>
      </trkpt>
      <trkpt lat="45.96902" lon="6.53893">
        <ele>1662</ele>
        <time>2022-03-06T11:12:21Z</time>
      </trkpt>
      <trkpt lat="45.96901" lon="6.53891">
        <ele>1662</ele>
        <time>2022-03-06T11:12:25Z</time>
      </trkpt>
      <trkpt lat="45.969" lon="6.53889">
        <ele>1662</ele>
        <time>2022-03-06T11:12:29Z</time>
      </trkpt>
      <trkpt lat="45.96899" lon="6.53885">
        <ele>1662</ele>
        <time>2022-03-06T11:12:32Z</time>
      </trkpt>
      <trkpt lat="45.96898" lon="6.53879">
        <ele>1661</ele>
        <time>2022-03-06T11:12:37Z</time>
      </trkpt>
      <trkpt lat="45.96897" lon="6.53877">
        <ele>1661</ele>
        <time>2022-03-06T11:12:41Z</time>
      </trkpt>
      <trkpt lat="45.96896" lon="6.53878">
        <ele>1662</ele>
        <time>2022-03-06T11:12:46Z</time>
      </trkpt>
      <trkpt lat="45.96894" lon="6.53877">
        <ele>1663</ele>
        <time>2022-03-06T11:12:49Z</time>
      </trkpt>
      <trkpt lat="45.96892" lon="6.53876">
        <ele>1664</ele>
        <time>2022-03-06T11:12:53Z</time>
      </trkpt>
      <trkpt lat="45.9689" lon="6.53874">
        <ele>1665</ele>
        <time>2022-03-06T11:12:57Z</time>
      </trkpt>
      <trkpt lat="45.96888" lon="6.53874">
        <ele>1666</ele>
        <time>2022-03-06T11:13:00Z</time>
      </trkpt>
      <trkpt lat="45.96886" lon="6.53873">
        <ele>1667</ele>
        <time>2022-03-06T11:13:02Z</time>
      </trkpt>
      <trkpt lat="45.96884" lon="6.53871">
        <ele>1667</ele>
        <time>2022-03-06T11:13:05Z</time>
      </trkpt>
      <trkpt lat="45.96882" lon="6.53871">
        <ele>1668</ele>
        <time>2022-03-06T11:13:09Z</time>
      </trkpt>
      <trkpt lat="45.9688" lon="6.5387">
        <ele>1669</ele>
        <time>2022-03-06T11:13:12Z</time>
      </trkpt>
      <trkpt lat="45.96878" lon="6.53868">
        <ele>1670</ele>
        <time>2022-03-06T11:13:15Z</time>
      </trkpt>
      <trkpt lat="45.96876" lon="6.53869">
        <ele>1671</ele>
        <time>2022-03-06T11:13:21Z</time>
      </trkpt>
      <trkpt lat="45.96874" lon="6.5387">
        <ele>1672</ele>
        <time>2022-03-06T11:13:26Z</time>
      </trkpt>
      <trkpt lat="45.96872" lon="6.53869">
        <ele>1673</ele>
        <time>2022-03-06T11:13:30Z</time>
      </trkpt>
      <trkpt lat="45.9687" lon="6.53869">
        <ele>1674</ele>
        <time>2022-03-06T11:13:33Z</time>
      </trkpt>
      <trkpt lat="45.96868" lon="6.53868">
        <ele>1675</ele>
        <time>2022-03-06T11:13:36Z</time>
      </trkpt>
      <trkpt lat="45.96866" lon="6.53868">
        <ele>1676</ele>
        <time>2022-03-06T11:13:40Z</time>
      </trkpt>
      <trkpt lat="45.96864" lon="6.53868">
        <ele>1677</ele>
        <time>2022-03-06T11:13:45Z</time>
      </trkpt>
      <trkpt lat="45.96862" lon="6.53868">
        <ele>1678</ele>
        <time>2022-03-06T11:13:48Z</time>
      </trkpt>
      <trkpt lat="45.9686" lon="6.53867">
        <ele>1679</ele>
        <time>2022-03-06T11:13:52Z</time>
      </trkpt>
      <trkpt lat="45.96858" lon="6.53868">
        <ele>1680</ele>
        <time>2022-03-06T11:13:57Z</time>
      </trkpt>
      <trkpt lat="45.96856" lon="6.53869">
        <ele>1681</ele>
        <time>2022-03-06T11:14:04Z</time>
      </trkpt>
      <trkpt lat="45.96857" lon="6.53867">
        <ele>1680</ele>
        <time>2022-03-06T11:14:11Z</time>
      </trkpt>
      <trkpt lat="45.96855" lon="6.53866">
        <ele>1680</ele>
        <time>2022-03-06T11:14:24Z</time>
      </trkpt>
      <trkpt lat="45.96852" lon="6.53866">
        <ele>1681</ele>
        <time>2022-03-06T11:14:30Z</time>
      </trkpt>
      <trkpt lat="45.9685" lon="6.53866">
        <ele>1682</ele>
        <time>2022-03-06T11:14:32Z</time>
      </trkpt>
      <trkpt lat="45.96848" lon="6.53866">
        <ele>1683</ele>
        <time>2022-03-06T11:14:36Z</time>
      </trkpt>
      <trkpt lat="45.96846" lon="6.53867">
        <ele>1683</ele>
        <time>2022-03-06T11:14:41Z</time>
      </trkpt>
      <trkpt lat="45.96845" lon="6.53866">
        <ele>1684</ele>
        <time>2022-03-06T11:14:44Z</time>
      </trkpt>
      <trkpt lat="45.96843" lon="6.53866">
        <ele>1685</ele>
        <time>2022-03-06T11:14:47Z</time>
      </trkpt>
      <trkpt lat="45.96841" lon="6.53867">
        <ele>1685</ele>
        <time>2022-03-06T11:14:50Z</time>
      </trkpt>
      <trkpt lat="45.96839" lon="6.5387">
        <ele>1686</ele>
        <time>2022-03-06T11:14:53Z</time>
      </trkpt>
      <trkpt lat="45.96839" lon="6.53873">
        <ele>1687</ele>
        <time>2022-03-06T11:14:56Z</time>
      </trkpt>
      <trkpt lat="45.96839" lon="6.53877">
        <ele>1687</ele>
        <time>2022-03-06T11:15:40Z</time>
      </trkpt>
      <trkpt lat="45.96839" lon="6.5388">
        <ele>1687</ele>
        <time>2022-03-06T11:15:43Z</time>
      </trkpt>
      <trkpt lat="45.9684" lon="6.53883">
        <ele>1687</ele>
        <time>2022-03-06T11:15:46Z</time>
      </trkpt>
      <trkpt lat="45.9684" lon="6.53887">
        <ele>1688</ele>
        <time>2022-03-06T11:15:49Z</time>
      </trkpt>
      <trkpt lat="45.96842" lon="6.5389">
        <ele>1688</ele>
        <time>2022-03-06T11:15:54Z</time>
      </trkpt>
      <trkpt lat="45.96845" lon="6.53898">
        <ele>1688</ele>
        <time>2022-03-06T11:16:08Z</time>
      </trkpt>
      <trkpt lat="45.96846" lon="6.539">
        <ele>1688</ele>
        <time>2022-03-06T11:16:12Z</time>
      </trkpt>
      <trkpt lat="45.96847" lon="6.53902">
        <ele>1688</ele>
        <time>2022-03-06T11:16:16Z</time>
      </trkpt>
      <trkpt lat="45.96849" lon="6.53904">
        <ele>1688</ele>
        <time>2022-03-06T11:16:21Z</time>
      </trkpt>
      <trkpt lat="45.96851" lon="6.53906">
        <ele>1688</ele>
        <time>2022-03-06T11:16:24Z</time>
      </trkpt>
      <trkpt lat="45.96852" lon="6.53908">
        <ele>1688</ele>
        <time>2022-03-06T11:16:26Z</time>
      </trkpt>
      <trkpt lat="45.96853" lon="6.5391">
        <ele>1688</ele>
        <time>2022-03-06T11:16:31Z</time>
      </trkpt>
      <trkpt lat="45.96854" lon="6.53913">
        <ele>1689</ele>
        <time>2022-03-06T11:16:37Z</time>
      </trkpt>
      <trkpt lat="45.96856" lon="6.53915">
        <ele>1688</ele>
        <time>2022-03-06T11:16:41Z</time>
      </trkpt>
      <trkpt lat="45.96857" lon="6.53918">
        <ele>1689</ele>
        <time>2022-03-06T11:16:45Z</time>
      </trkpt>
      <trkpt lat="45.96857" lon="6.53921">
        <ele>1689</ele>
        <time>2022-03-06T11:16:49Z</time>
      </trkpt>
      <trkpt lat="45.96857" lon="6.53923">
        <ele>1690</ele>
        <time>2022-03-06T11:16:53Z</time>
      </trkpt>
      <trkpt lat="45.96858" lon="6.53926">
        <ele>1690</ele>
        <time>2022-03-06T11:16:56Z</time>
      </trkpt>
      <trkpt lat="45.96859" lon="6.53928">
        <ele>1690</ele>
        <time>2022-03-06T11:16:59Z</time>
      </trkpt>
      <trkpt lat="45.96861" lon="6.53931">
        <ele>1690</ele>
        <time>2022-03-06T11:17:04Z</time>
      </trkpt>
      <trkpt lat="45.96862" lon="6.53933">
        <ele>1690</ele>
        <time>2022-03-06T11:17:08Z</time>
      </trkpt>
      <trkpt lat="45.96862" lon="6.53937">
        <ele>1691</ele>
        <time>2022-03-06T11:17:12Z</time>
      </trkpt>
      <trkpt lat="45.9686" lon="6.53937">
        <ele>1691</ele>
        <time>2022-03-06T11:17:28Z</time>
      </trkpt>
      <trkpt lat="45.96858" lon="6.53936">
        <ele>1692</ele>
        <time>2022-03-06T11:17:31Z</time>
      </trkpt>
      <trkpt lat="45.96856" lon="6.53935">
        <ele>1693</ele>
        <time>2022-03-06T11:17:36Z</time>
      </trkpt>
      <trkpt lat="45.96854" lon="6.53933">
        <ele>1693</ele>
        <time>2022-03-06T11:17:41Z</time>
      </trkpt>
      <trkpt lat="45.96852" lon="6.53934">
        <ele>1694</ele>
        <time>2022-03-06T11:17:45Z</time>
      </trkpt>
      <trkpt lat="45.9685" lon="6.53934">
        <ele>1694</ele>
        <time>2022-03-06T11:17:51Z</time>
      </trkpt>
      <trkpt lat="45.96848" lon="6.53932">
        <ele>1694</ele>
        <time>2022-03-06T11:17:55Z</time>
      </trkpt>
      <trkpt lat="45.96846" lon="6.53933">
        <ele>1695</ele>
        <time>2022-03-06T11:17:59Z</time>
      </trkpt>
      <trkpt lat="45.96844" lon="6.53932">
        <ele>1696</ele>
        <time>2022-03-06T11:18:02Z</time>
      </trkpt>
      <trkpt lat="45.96842" lon="6.53934">
        <ele>1697</ele>
        <time>2022-03-06T11:18:04Z</time>
      </trkpt>
      <trkpt lat="45.96842" lon="6.53936">
        <ele>1697</ele>
        <time>2022-03-06T11:18:12Z</time>
      </trkpt>
      <trkpt lat="45.96843" lon="6.53939">
        <ele>1698</ele>
        <time>2022-03-06T11:18:16Z</time>
      </trkpt>
      <trkpt lat="45.96844" lon="6.53941">
        <ele>1698</ele>
        <time>2022-03-06T11:18:19Z</time>
      </trkpt>
      <trkpt lat="45.96845" lon="6.53943">
        <ele>1698</ele>
        <time>2022-03-06T11:18:24Z</time>
      </trkpt>
      <trkpt lat="45.96845" lon="6.53946">
        <ele>1699</ele>
        <time>2022-03-06T11:18:27Z</time>
      </trkpt>
      <trkpt lat="45.96845" lon="6.53952">
        <ele>1701</ele>
        <time>2022-03-06T11:18:34Z</time>
      </trkpt>
      <trkpt lat="45.96843" lon="6.5395">
        <ele>1701</ele>
        <time>2022-03-06T11:18:40Z</time>
      </trkpt>
      <trkpt lat="45.96841" lon="6.5395">
        <ele>1702</ele>
        <time>2022-03-06T11:18:44Z</time>
      </trkpt>
      <trkpt lat="45.96839" lon="6.53949">
        <ele>1702</ele>
        <time>2022-03-06T11:18:48Z</time>
      </trkpt>
      <trkpt lat="45.96835" lon="6.5395">
        <ele>1704</ele>
        <time>2022-03-06T11:18:56Z</time>
      </trkpt>
      <trkpt lat="45.96833" lon="6.53951">
        <ele>1705</ele>
        <time>2022-03-06T11:18:59Z</time>
      </trkpt>
      <trkpt lat="45.96831" lon="6.53951">
        <ele>1705</ele>
        <time>2022-03-06T11:19:03Z</time>
      </trkpt>
      <trkpt lat="45.96829" lon="6.53951">
        <ele>1706</ele>
        <time>2022-03-06T11:19:08Z</time>
      </trkpt>
      <trkpt lat="45.96829" lon="6.53954">
        <ele>1707</ele>
        <time>2022-03-06T11:19:21Z</time>
      </trkpt>
      <trkpt lat="45.9683" lon="6.53956">
        <ele>1707</ele>
        <time>2022-03-06T11:19:25Z</time>
      </trkpt>
      <trkpt lat="45.96832" lon="6.53958">
        <ele>1707</ele>
        <time>2022-03-06T11:19:29Z</time>
      </trkpt>
      <trkpt lat="45.96833" lon="6.5396">
        <ele>1708</ele>
        <time>2022-03-06T11:19:33Z</time>
      </trkpt>
      <trkpt lat="45.96832" lon="6.53963">
        <ele>1709</ele>
        <time>2022-03-06T11:19:37Z</time>
      </trkpt>
      <trkpt lat="45.9683" lon="6.53962">
        <ele>1709</ele>
        <time>2022-03-06T11:19:54Z</time>
      </trkpt>
      <trkpt lat="45.96828" lon="6.53962">
        <ele>1710</ele>
        <time>2022-03-06T11:19:58Z</time>
      </trkpt>
      <trkpt lat="45.96826" lon="6.53962">
        <ele>1710</ele>
        <time>2022-03-06T11:20:02Z</time>
      </trkpt>
      <trkpt lat="45.96824" lon="6.53962">
        <ele>1711</ele>
        <time>2022-03-06T11:20:06Z</time>
      </trkpt>
      <trkpt lat="45.96824" lon="6.53965">
        <ele>1712</ele>
        <time>2022-03-06T11:20:19Z</time>
      </trkpt>
      <trkpt lat="45.96825" lon="6.53968">
        <ele>1713</ele>
        <time>2022-03-06T11:20:23Z</time>
      </trkpt>
      <trkpt lat="45.96826" lon="6.5397">
        <ele>1713</ele>
        <time>2022-03-06T11:20:27Z</time>
      </trkpt>
      <trkpt lat="45.96824" lon="6.53971">
        <ele>1714</ele>
        <time>2022-03-06T11:20:34Z</time>
      </trkpt>
      <trkpt lat="45.96822" lon="6.53971">
        <ele>1715</ele>
        <time>2022-03-06T11:20:40Z</time>
      </trkpt>
      <trkpt lat="45.9682" lon="6.5397">
        <ele>1715</ele>
        <time>2022-03-06T11:20:48Z</time>
      </trkpt>
      <trkpt lat="45.96818" lon="6.5397">
        <ele>1716</ele>
        <time>2022-03-06T11:20:52Z</time>
      </trkpt>
      <trkpt lat="45.96816" lon="6.53969">
        <ele>1716</ele>
        <time>2022-03-06T11:20:56Z</time>
      </trkpt>
      <trkpt lat="45.96814" lon="6.53968">
        <ele>1717</ele>
        <time>2022-03-06T11:21:00Z</time>
      </trkpt>
      <trkpt lat="45.96814" lon="6.53972">
        <ele>1717</ele>
        <time>2022-03-06T11:21:11Z</time>
      </trkpt>
      <trkpt lat="45.96815" lon="6.53975">
        <ele>1718</ele>
        <time>2022-03-06T11:21:15Z</time>
      </trkpt>
      <trkpt lat="45.96816" lon="6.53977">
        <ele>1719</ele>
        <time>2022-03-06T11:21:17Z</time>
      </trkpt>
      <trkpt lat="45.96815" lon="6.5398">
        <ele>1721</ele>
        <time>2022-03-06T11:21:28Z</time>
      </trkpt>
      <trkpt lat="45.96814" lon="6.53983">
        <ele>1722</ele>
        <time>2022-03-06T11:21:32Z</time>
      </trkpt>
      <trkpt lat="45.96813" lon="6.53985">
        <ele>1724</ele>
        <time>2022-03-06T11:21:36Z</time>
      </trkpt>
      <trkpt lat="45.96812" lon="6.53988">
        <ele>1725</ele>
        <time>2022-03-06T11:21:40Z</time>
      </trkpt>
      <trkpt lat="45.9681" lon="6.5399">
        <ele>1727</ele>
        <time>2022-03-06T11:21:43Z</time>
      </trkpt>
      <trkpt lat="45.96809" lon="6.53992">
        <ele>1728</ele>
        <time>2022-03-06T11:21:47Z</time>
      </trkpt>
      <trkpt lat="45.96808" lon="6.53994">
        <ele>1729</ele>
        <time>2022-03-06T11:21:52Z</time>
      </trkpt>
      <trkpt lat="45.96807" lon="6.53997">
        <ele>1731</ele>
        <time>2022-03-06T11:21:55Z</time>
      </trkpt>
      <trkpt lat="45.96806" lon="6.53999">
        <ele>1732</ele>
        <time>2022-03-06T11:21:57Z</time>
      </trkpt>
      <trkpt lat="45.96806" lon="6.54002">
        <ele>1733</ele>
        <time>2022-03-06T11:22:01Z</time>
      </trkpt>
      <trkpt lat="45.96806" lon="6.54005">
        <ele>1734</ele>
        <time>2022-03-06T11:22:05Z</time>
      </trkpt>
      <trkpt lat="45.96807" lon="6.54007">
        <ele>1735</ele>
        <time>2022-03-06T11:22:10Z</time>
      </trkpt>
      <trkpt lat="45.96808" lon="6.5401">
        <ele>1735</ele>
        <time>2022-03-06T11:22:13Z</time>
      </trkpt>
      <trkpt lat="45.9681" lon="6.54011">
        <ele>1735</ele>
        <time>2022-03-06T11:22:16Z</time>
      </trkpt>
      <trkpt lat="45.96809" lon="6.54013">
        <ele>1736</ele>
        <time>2022-03-06T11:22:28Z</time>
      </trkpt>
      <trkpt lat="45.96807" lon="6.54013">
        <ele>1737</ele>
        <time>2022-03-06T11:22:31Z</time>
      </trkpt>
      <trkpt lat="45.96805" lon="6.54013">
        <ele>1737</ele>
        <time>2022-03-06T11:22:35Z</time>
      </trkpt>
      <trkpt lat="45.96803" lon="6.54014">
        <ele>1738</ele>
        <time>2022-03-06T11:22:39Z</time>
      </trkpt>
      <trkpt lat="45.968" lon="6.54014">
        <ele>1739</ele>
        <time>2022-03-06T11:22:45Z</time>
      </trkpt>
      <trkpt lat="45.96798" lon="6.54014">
        <ele>1740</ele>
        <time>2022-03-06T11:22:48Z</time>
      </trkpt>
      <trkpt lat="45.96797" lon="6.54016">
        <ele>1741</ele>
        <time>2022-03-06T11:22:52Z</time>
      </trkpt>
      <trkpt lat="45.96798" lon="6.54019">
        <ele>1742</ele>
        <time>2022-03-06T11:22:58Z</time>
      </trkpt>
      <trkpt lat="45.96799" lon="6.54023">
        <ele>1743</ele>
        <time>2022-03-06T11:23:03Z</time>
      </trkpt>
      <trkpt lat="45.968" lon="6.54025">
        <ele>1743</ele>
        <time>2022-03-06T11:23:06Z</time>
      </trkpt>
      <trkpt lat="45.968" lon="6.54028">
        <ele>1744</ele>
        <time>2022-03-06T11:23:09Z</time>
      </trkpt>
      <trkpt lat="45.96799" lon="6.54029">
        <ele>1745</ele>
        <time>2022-03-06T11:23:21Z</time>
      </trkpt>
      <trkpt lat="45.96797" lon="6.54028">
        <ele>1745</ele>
        <time>2022-03-06T11:23:23Z</time>
      </trkpt>
      <trkpt lat="45.96795" lon="6.54029">
        <ele>1746</ele>
        <time>2022-03-06T11:23:26Z</time>
      </trkpt>
      <trkpt lat="45.96793" lon="6.5403">
        <ele>1747</ele>
        <time>2022-03-06T11:23:29Z</time>
      </trkpt>
      <trkpt lat="45.96794" lon="6.54033">
        <ele>1747</ele>
        <time>2022-03-06T11:23:36Z</time>
      </trkpt>
      <trkpt lat="45.96794" lon="6.54037">
        <ele>1748</ele>
        <time>2022-03-06T11:23:39Z</time>
      </trkpt>
      <trkpt lat="45.96795" lon="6.5404">
        <ele>1748</ele>
        <time>2022-03-06T11:23:43Z</time>
      </trkpt>
      <trkpt lat="45.96794" lon="6.54043">
        <ele>1749</ele>
        <time>2022-03-06T11:23:46Z</time>
      </trkpt>
      <trkpt lat="45.96795" lon="6.54045">
        <ele>1750</ele>
        <time>2022-03-06T11:23:49Z</time>
      </trkpt>
      <trkpt lat="45.96795" lon="6.54049">
        <ele>1750</ele>
        <time>2022-03-06T11:23:53Z</time>
      </trkpt>
      <trkpt lat="45.96796" lon="6.54052">
        <ele>1751</ele>
        <time>2022-03-06T11:23:57Z</time>
      </trkpt>
      <trkpt lat="45.96798" lon="6.54054">
        <ele>1751</ele>
        <time>2022-03-06T11:24:02Z</time>
      </trkpt>
      <trkpt lat="45.96798" lon="6.54057">
        <ele>1752</ele>
        <time>2022-03-06T11:24:07Z</time>
      </trkpt>
      <trkpt lat="45.96799" lon="6.5406">
        <ele>1752</ele>
        <time>2022-03-06T11:24:11Z</time>
      </trkpt>
      <trkpt lat="45.968" lon="6.54061">
        <ele>1752</ele>
        <time>2022-03-06T11:24:15Z</time>
      </trkpt>
      <trkpt lat="45.96802" lon="6.54062">
        <ele>1752</ele>
        <time>2022-03-06T11:24:28Z</time>
      </trkpt>
      <trkpt lat="45.96804" lon="6.54064">
        <ele>1752</ele>
        <time>2022-03-06T11:24:37Z</time>
      </trkpt>
      <trkpt lat="45.96804" lon="6.54061">
        <ele>1751</ele>
        <time>2022-03-06T11:24:51Z</time>
      </trkpt>
      <trkpt lat="45.96802" lon="6.54063">
        <ele>1752</ele>
        <time>2022-03-06T11:24:59Z</time>
      </trkpt>
      <trkpt lat="45.96805" lon="6.54062">
        <ele>1751</ele>
        <time>2022-03-06T11:25:41Z</time>
      </trkpt>
      <trkpt lat="45.96807" lon="6.54061">
        <ele>1750</ele>
        <time>2022-03-06T11:25:44Z</time>
      </trkpt>
      <trkpt lat="45.96808" lon="6.54059">
        <ele>1749</ele>
        <time>2022-03-06T11:25:47Z</time>
      </trkpt>
      <trkpt lat="45.96806" lon="6.54059">
        <ele>1750</ele>
        <time>2022-03-06T11:26:56Z</time>
      </trkpt>
      <trkpt lat="45.96805" lon="6.54061">
        <ele>1751</ele>
        <time>2022-03-06T11:27:00Z</time>
      </trkpt>
      <trkpt lat="45.96803" lon="6.54061">
        <ele>1751</ele>
        <time>2022-03-06T11:27:33Z</time>
      </trkpt>
      <trkpt lat="45.96805" lon="6.54061">
        <ele>1751</ele>
        <time>2022-03-06T11:30:28Z</time>
      </trkpt>
      <trkpt lat="45.96804" lon="6.54064">
        <ele>1752</ele>
        <time>2022-03-06T11:33:32Z</time>
      </trkpt>
      <trkpt lat="45.96805" lon="6.54062">
        <ele>1751</ele>
        <time>2022-03-06T11:35:03Z</time>
      </trkpt>
      <trkpt lat="45.96807" lon="6.54063">
        <ele>1751</ele>
        <time>2022-03-06T11:35:34Z</time>
      </trkpt>
      <trkpt lat="45.96808" lon="6.54065">
        <ele>1751</ele>
        <time>2022-03-06T11:35:49Z</time>
      </trkpt>
      <trkpt lat="45.9681" lon="6.54066">
        <ele>1750</ele>
        <time>2022-03-06T11:36:19Z</time>
      </trkpt>
      <trkpt lat="45.96808" lon="6.54064">
        <ele>1751</ele>
        <time>2022-03-06T11:36:31Z</time>
      </trkpt>
      <trkpt lat="45.96806" lon="6.54064">
        <ele>1751</ele>
        <time>2022-03-06T11:36:35Z</time>
      </trkpt>
      <trkpt lat="45.96804" lon="6.54065">
        <ele>1752</ele>
        <time>2022-03-06T11:36:43Z</time>
      </trkpt>
      <trkpt lat="45.96802" lon="6.54063">
        <ele>1752</ele>
        <time>2022-03-06T11:36:50Z</time>
      </trkpt>
      <trkpt lat="45.96801" lon="6.54065">
        <ele>1753</ele>
        <time>2022-03-06T11:37:39Z</time>
      </trkpt>
      <trkpt lat="45.96799" lon="6.54068">
        <ele>1754</ele>
        <time>2022-03-06T11:37:42Z</time>
      </trkpt>
      <trkpt lat="45.96797" lon="6.5407">
        <ele>1755</ele>
        <time>2022-03-06T11:37:45Z</time>
      </trkpt>
      <trkpt lat="45.96796" lon="6.54073">
        <ele>1756</ele>
        <time>2022-03-06T11:37:48Z</time>
      </trkpt>
      <trkpt lat="45.96794" lon="6.54074">
        <ele>1757</ele>
        <time>2022-03-06T11:37:51Z</time>
      </trkpt>
      <trkpt lat="45.96793" lon="6.54076">
        <ele>1757</ele>
        <time>2022-03-06T11:37:54Z</time>
      </trkpt>
      <trkpt lat="45.96791" lon="6.54077">
        <ele>1758</ele>
        <time>2022-03-06T11:37:57Z</time>
      </trkpt>
      <trkpt lat="45.96789" lon="6.54078">
        <ele>1759</ele>
        <time>2022-03-06T11:38:00Z</time>
      </trkpt>
      <trkpt lat="45.96787" lon="6.54078">
        <ele>1760</ele>
        <time>2022-03-06T11:38:06Z</time>
      </trkpt>
      <trkpt lat="45.96785" lon="6.54079">
        <ele>1760</ele>
        <time>2022-03-06T11:38:20Z</time>
      </trkpt>
      <trkpt lat="45.96783" lon="6.54079">
        <ele>1761</ele>
        <time>2022-03-06T11:38:23Z</time>
      </trkpt>
      <trkpt lat="45.96782" lon="6.5408">
        <ele>1762</ele>
        <time>2022-03-06T11:38:26Z</time>
      </trkpt>
      <trkpt lat="45.9678" lon="6.5408">
        <ele>1762</ele>
        <time>2022-03-06T11:38:29Z</time>
      </trkpt>
      <trkpt lat="45.96778" lon="6.54081">
        <ele>1763</ele>
        <time>2022-03-06T11:38:32Z</time>
      </trkpt>
      <trkpt lat="45.96775" lon="6.54082">
        <ele>1764</ele>
        <time>2022-03-06T11:38:36Z</time>
      </trkpt>
      <trkpt lat="45.96773" lon="6.54082">
        <ele>1764</ele>
        <time>2022-03-06T11:38:39Z</time>
      </trkpt>
      <trkpt lat="45.96771" lon="6.54082">
        <ele>1765</ele>
        <time>2022-03-06T11:38:43Z</time>
      </trkpt>
      <trkpt lat="45.96769" lon="6.54082">
        <ele>1766</ele>
        <time>2022-03-06T11:38:46Z</time>
      </trkpt>
      <trkpt lat="45.96767" lon="6.54082">
        <ele>1766</ele>
        <time>2022-03-06T11:38:50Z</time>
      </trkpt>
      <trkpt lat="45.96764" lon="6.54082">
        <ele>1767</ele>
        <time>2022-03-06T11:38:54Z</time>
      </trkpt>
      <trkpt lat="45.96762" lon="6.54083">
        <ele>1768</ele>
        <time>2022-03-06T11:38:57Z</time>
      </trkpt>
      <trkpt lat="45.9676" lon="6.54083">
        <ele>1768</ele>
        <time>2022-03-06T11:39:14Z</time>
      </trkpt>
      <trkpt lat="45.96758" lon="6.54083">
        <ele>1769</ele>
        <time>2022-03-06T11:39:17Z</time>
      </trkpt>
      <trkpt lat="45.96756" lon="6.54083">
        <ele>1770</ele>
        <time>2022-03-06T11:39:19Z</time>
      </trkpt>
      <trkpt lat="45.96753" lon="6.54082">
        <ele>1770</ele>
        <time>2022-03-06T11:39:23Z</time>
      </trkpt>
      <trkpt lat="45.96751" lon="6.54082">
        <ele>1771</ele>
        <time>2022-03-06T11:39:26Z</time>
      </trkpt>
      <trkpt lat="45.96749" lon="6.54081">
        <ele>1771</ele>
        <time>2022-03-06T11:39:29Z</time>
      </trkpt>
      <trkpt lat="45.96747" lon="6.54081">
        <ele>1771</ele>
        <time>2022-03-06T11:39:32Z</time>
      </trkpt>
      <trkpt lat="45.96746" lon="6.5408">
        <ele>1772</ele>
        <time>2022-03-06T11:39:34Z</time>
      </trkpt>
      <trkpt lat="45.96744" lon="6.54079">
        <ele>1772</ele>
        <time>2022-03-06T11:39:37Z</time>
      </trkpt>
      <trkpt lat="45.96742" lon="6.5408">
        <ele>1773</ele>
        <time>2022-03-06T11:39:41Z</time>
      </trkpt>
      <trkpt lat="45.96742" lon="6.54083">
        <ele>1774</ele>
        <time>2022-03-06T11:39:45Z</time>
      </trkpt>
      <trkpt lat="45.96741" lon="6.54086">
        <ele>1775</ele>
        <time>2022-03-06T11:39:48Z</time>
      </trkpt>
      <trkpt lat="45.96741" lon="6.54089">
        <ele>1776</ele>
        <time>2022-03-06T11:39:52Z</time>
      </trkpt>
      <trkpt lat="45.9674" lon="6.54091">
        <ele>1777</ele>
        <time>2022-03-06T11:39:55Z</time>
      </trkpt>
      <trkpt lat="45.9674" lon="6.54094">
        <ele>1778</ele>
        <time>2022-03-06T11:39:58Z</time>
      </trkpt>
      <trkpt lat="45.96739" lon="6.54097">
        <ele>1779</ele>
        <time>2022-03-06T11:40:01Z</time>
      </trkpt>
      <trkpt lat="45.96739" lon="6.541">
        <ele>1779</ele>
        <time>2022-03-06T11:40:04Z</time>
      </trkpt>
      <trkpt lat="45.96736" lon="6.541">
        <ele>1780</ele>
        <time>2022-03-06T11:40:11Z</time>
      </trkpt>
      <trkpt lat="45.96735" lon="6.54099">
        <ele>1781</ele>
        <time>2022-03-06T11:40:14Z</time>
      </trkpt>
      <trkpt lat="45.96733" lon="6.54098">
        <ele>1781</ele>
        <time>2022-03-06T11:40:17Z</time>
      </trkpt>
      <trkpt lat="45.96731" lon="6.54097">
        <ele>1781</ele>
        <time>2022-03-06T11:40:21Z</time>
      </trkpt>
      <trkpt lat="45.96729" lon="6.54096">
        <ele>1782</ele>
        <time>2022-03-06T11:40:24Z</time>
      </trkpt>
      <trkpt lat="45.96727" lon="6.54095">
        <ele>1782</ele>
        <time>2022-03-06T11:40:28Z</time>
      </trkpt>
      <trkpt lat="45.96725" lon="6.54094">
        <ele>1782</ele>
        <time>2022-03-06T11:40:31Z</time>
      </trkpt>
      <trkpt lat="45.96724" lon="6.54093">
        <ele>1783</ele>
        <time>2022-03-06T11:40:34Z</time>
      </trkpt>
      <trkpt lat="45.96724" lon="6.54096">
        <ele>1784</ele>
        <time>2022-03-06T11:40:41Z</time>
      </trkpt>
      <trkpt lat="45.96725" lon="6.54099">
        <ele>1784</ele>
        <time>2022-03-06T11:40:43Z</time>
      </trkpt>
      <trkpt lat="45.96725" lon="6.54102">
        <ele>1785</ele>
        <time>2022-03-06T11:40:48Z</time>
      </trkpt>
      <trkpt lat="45.96725" lon="6.54105">
        <ele>1786</ele>
        <time>2022-03-06T11:40:52Z</time>
      </trkpt>
      <trkpt lat="45.96725" lon="6.54108">
        <ele>1786</ele>
        <time>2022-03-06T11:40:57Z</time>
      </trkpt>
      <trkpt lat="45.96726" lon="6.54111">
        <ele>1787</ele>
        <time>2022-03-06T11:41:01Z</time>
      </trkpt>
      <trkpt lat="45.96726" lon="6.54115">
        <ele>1788</ele>
        <time>2022-03-06T11:41:05Z</time>
      </trkpt>
      <trkpt lat="45.96726" lon="6.54117">
        <ele>1789</ele>
        <time>2022-03-06T11:41:09Z</time>
      </trkpt>
      <trkpt lat="45.96726" lon="6.5412">
        <ele>1790</ele>
        <time>2022-03-06T11:41:13Z</time>
      </trkpt>
      <trkpt lat="45.96726" lon="6.54123">
        <ele>1790</ele>
        <time>2022-03-06T11:41:17Z</time>
      </trkpt>
      <trkpt lat="45.96724" lon="6.54121">
        <ele>1790</ele>
        <time>2022-03-06T11:41:25Z</time>
      </trkpt>
      <trkpt lat="45.96722" lon="6.5412">
        <ele>1791</ele>
        <time>2022-03-06T11:41:28Z</time>
      </trkpt>
      <trkpt lat="45.96721" lon="6.54118">
        <ele>1791</ele>
        <time>2022-03-06T11:41:30Z</time>
      </trkpt>
      <trkpt lat="45.96719" lon="6.54118">
        <ele>1791</ele>
        <time>2022-03-06T11:41:34Z</time>
      </trkpt>
      <trkpt lat="45.96717" lon="6.54116">
        <ele>1791</ele>
        <time>2022-03-06T11:41:37Z</time>
      </trkpt>
      <trkpt lat="45.96714" lon="6.54115">
        <ele>1791</ele>
        <time>2022-03-06T11:41:40Z</time>
      </trkpt>
      <trkpt lat="45.96713" lon="6.54114">
        <ele>1791</ele>
        <time>2022-03-06T11:41:44Z</time>
      </trkpt>
      <trkpt lat="45.9671" lon="6.54113">
        <ele>1791</ele>
        <time>2022-03-06T11:41:48Z</time>
      </trkpt>
      <trkpt lat="45.96708" lon="6.54112">
        <ele>1791</ele>
        <time>2022-03-06T11:41:53Z</time>
      </trkpt>
      <trkpt lat="45.96706" lon="6.54112">
        <ele>1792</ele>
        <time>2022-03-06T11:41:58Z</time>
      </trkpt>
      <trkpt lat="45.96704" lon="6.54112">
        <ele>1792</ele>
        <time>2022-03-06T11:42:02Z</time>
      </trkpt>
      <trkpt lat="45.96702" lon="6.54111">
        <ele>1792</ele>
        <time>2022-03-06T11:42:05Z</time>
      </trkpt>
      <trkpt lat="45.96699" lon="6.5411">
        <ele>1792</ele>
        <time>2022-03-06T11:42:08Z</time>
      </trkpt>
      <trkpt lat="45.96697" lon="6.54111">
        <ele>1793</ele>
        <time>2022-03-06T11:42:12Z</time>
      </trkpt>
      <trkpt lat="45.96695" lon="6.54111">
        <ele>1793</ele>
        <time>2022-03-06T11:42:17Z</time>
      </trkpt>
      <trkpt lat="45.96693" lon="6.5411">
        <ele>1794</ele>
        <time>2022-03-06T11:42:20Z</time>
      </trkpt>
      <trkpt lat="45.96692" lon="6.54109">
        <ele>1794</ele>
        <time>2022-03-06T11:42:23Z</time>
      </trkpt>
      <trkpt lat="45.9669" lon="6.54108">
        <ele>1794</ele>
        <time>2022-03-06T11:42:28Z</time>
      </trkpt>
      <trkpt lat="45.96688" lon="6.54108">
        <ele>1795</ele>
        <time>2022-03-06T11:42:32Z</time>
      </trkpt>
      <trkpt lat="45.96685" lon="6.54106">
        <ele>1796</ele>
        <time>2022-03-06T11:42:35Z</time>
      </trkpt>
      <trkpt lat="45.96683" lon="6.54105">
        <ele>1796</ele>
        <time>2022-03-06T11:42:39Z</time>
      </trkpt>
      <trkpt lat="45.96681" lon="6.54104">
        <ele>1796</ele>
        <time>2022-03-06T11:42:42Z</time>
      </trkpt>
      <trkpt lat="45.96679" lon="6.54104">
        <ele>1797</ele>
        <time>2022-03-06T11:42:46Z</time>
      </trkpt>
      <trkpt lat="45.96677" lon="6.54103">
        <ele>1797</ele>
        <time>2022-03-06T11:42:49Z</time>
      </trkpt>
      <trkpt lat="45.96675" lon="6.54102">
        <ele>1798</ele>
        <time>2022-03-06T11:42:54Z</time>
      </trkpt>
      <trkpt lat="45.96673" lon="6.54101">
        <ele>1798</ele>
        <time>2022-03-06T11:42:57Z</time>
      </trkpt>
      <trkpt lat="45.96671" lon="6.541">
        <ele>1799</ele>
        <time>2022-03-06T11:43:01Z</time>
      </trkpt>
      <trkpt lat="45.96669" lon="6.54099">
        <ele>1799</ele>
        <time>2022-03-06T11:43:05Z</time>
      </trkpt>
      <trkpt lat="45.96667" lon="6.54097">
        <ele>1799</ele>
        <time>2022-03-06T11:43:08Z</time>
      </trkpt>
      <trkpt lat="45.96665" lon="6.54097">
        <ele>1800</ele>
        <time>2022-03-06T11:43:11Z</time>
      </trkpt>
      <trkpt lat="45.96663" lon="6.54096">
        <ele>1800</ele>
        <time>2022-03-06T11:43:14Z</time>
      </trkpt>
      <trkpt lat="45.96661" lon="6.54095">
        <ele>1801</ele>
        <time>2022-03-06T11:43:17Z</time>
      </trkpt>
      <trkpt lat="45.96659" lon="6.54094">
        <ele>1802</ele>
        <time>2022-03-06T11:43:21Z</time>
      </trkpt>
      <trkpt lat="45.96656" lon="6.54093">
        <ele>1803</ele>
        <time>2022-03-06T11:43:26Z</time>
      </trkpt>
      <trkpt lat="45.96654" lon="6.54093">
        <ele>1804</ele>
        <time>2022-03-06T11:43:30Z</time>
      </trkpt>
      <trkpt lat="45.96651" lon="6.54093">
        <ele>1805</ele>
        <time>2022-03-06T11:43:35Z</time>
      </trkpt>
      <trkpt lat="45.96649" lon="6.54092">
        <ele>1806</ele>
        <time>2022-03-06T11:43:38Z</time>
      </trkpt>
      <trkpt lat="45.96647" lon="6.54092">
        <ele>1807</ele>
        <time>2022-03-06T11:43:42Z</time>
      </trkpt>
      <trkpt lat="45.96645" lon="6.54092">
        <ele>1808</ele>
        <time>2022-03-06T11:43:47Z</time>
      </trkpt>
      <trkpt lat="45.96643" lon="6.54091">
        <ele>1809</ele>
        <time>2022-03-06T11:43:50Z</time>
      </trkpt>
      <trkpt lat="45.9664" lon="6.54091">
        <ele>1810</ele>
        <time>2022-03-06T11:43:53Z</time>
      </trkpt>
      <trkpt lat="45.96639" lon="6.5409">
        <ele>1811</ele>
        <time>2022-03-06T11:43:55Z</time>
      </trkpt>
      <trkpt lat="45.96637" lon="6.54089">
        <ele>1811</ele>
        <time>2022-03-06T11:43:58Z</time>
      </trkpt>
      <trkpt lat="45.96635" lon="6.5409">
        <ele>1812</ele>
        <time>2022-03-06T11:44:03Z</time>
      </trkpt>
      <trkpt lat="45.96633" lon="6.54088">
        <ele>1812</ele>
        <time>2022-03-06T11:44:05Z</time>
      </trkpt>
      <trkpt lat="45.96631" lon="6.54088">
        <ele>1813</ele>
        <time>2022-03-06T11:44:10Z</time>
      </trkpt>
      <trkpt lat="45.96629" lon="6.54088">
        <ele>1813</ele>
        <time>2022-03-06T11:44:14Z</time>
      </trkpt>
      <trkpt lat="45.96627" lon="6.54087">
        <ele>1814</ele>
        <time>2022-03-06T11:44:19Z</time>
      </trkpt>
      <trkpt lat="45.96625" lon="6.54087">
        <ele>1814</ele>
        <time>2022-03-06T11:44:23Z</time>
      </trkpt>
      <trkpt lat="45.96623" lon="6.54086">
        <ele>1815</ele>
        <time>2022-03-06T11:44:26Z</time>
      </trkpt>
      <trkpt lat="45.9662" lon="6.54085">
        <ele>1815</ele>
        <time>2022-03-06T11:44:29Z</time>
      </trkpt>
      <trkpt lat="45.96618" lon="6.54085">
        <ele>1816</ele>
        <time>2022-03-06T11:44:33Z</time>
      </trkpt>
      <trkpt lat="45.96616" lon="6.54085">
        <ele>1817</ele>
        <time>2022-03-06T11:44:36Z</time>
      </trkpt>
      <trkpt lat="45.96614" lon="6.54085">
        <ele>1817</ele>
        <time>2022-03-06T11:44:40Z</time>
      </trkpt>
      <trkpt lat="45.96612" lon="6.54084">
        <ele>1818</ele>
        <time>2022-03-06T11:44:43Z</time>
      </trkpt>
      <trkpt lat="45.9661" lon="6.54083">
        <ele>1818</ele>
        <time>2022-03-06T11:44:45Z</time>
      </trkpt>
      <trkpt lat="45.96608" lon="6.54083">
        <ele>1818</ele>
        <time>2022-03-06T11:44:50Z</time>
      </trkpt>
      <trkpt lat="45.96606" lon="6.54083">
        <ele>1819</ele>
        <time>2022-03-06T11:44:55Z</time>
      </trkpt>
      <trkpt lat="45.96604" lon="6.54082">
        <ele>1819</ele>
        <time>2022-03-06T11:44:59Z</time>
      </trkpt>
      <trkpt lat="45.96602" lon="6.54081">
        <ele>1820</ele>
        <time>2022-03-06T11:45:03Z</time>
      </trkpt>
      <trkpt lat="45.966" lon="6.54081">
        <ele>1820</ele>
        <time>2022-03-06T11:45:06Z</time>
      </trkpt>
      <trkpt lat="45.96597" lon="6.54081">
        <ele>1821</ele>
        <time>2022-03-06T11:45:10Z</time>
      </trkpt>
      <trkpt lat="45.96595" lon="6.5408">
        <ele>1821</ele>
        <time>2022-03-06T11:45:13Z</time>
      </trkpt>
      <trkpt lat="45.96593" lon="6.54079">
        <ele>1821</ele>
        <time>2022-03-06T11:45:16Z</time>
      </trkpt>
      <trkpt lat="45.96591" lon="6.54078">
        <ele>1822</ele>
        <time>2022-03-06T11:45:19Z</time>
      </trkpt>
      <trkpt lat="45.96589" lon="6.54078">
        <ele>1822</ele>
        <time>2022-03-06T11:45:23Z</time>
      </trkpt>
      <trkpt lat="45.96588" lon="6.54081">
        <ele>1823</ele>
        <time>2022-03-06T11:45:28Z</time>
      </trkpt>
      <trkpt lat="45.9659" lon="6.54084">
        <ele>1823</ele>
        <time>2022-03-06T11:45:30Z</time>
      </trkpt>
      <trkpt lat="45.96591" lon="6.54086">
        <ele>1823</ele>
        <time>2022-03-06T11:45:33Z</time>
      </trkpt>
      <trkpt lat="45.96592" lon="6.54088">
        <ele>1824</ele>
        <time>2022-03-06T11:45:36Z</time>
      </trkpt>
      <trkpt lat="45.96594" lon="6.5409">
        <ele>1824</ele>
        <time>2022-03-06T11:45:39Z</time>
      </trkpt>
      <trkpt lat="45.96595" lon="6.54093">
        <ele>1825</ele>
        <time>2022-03-06T11:45:42Z</time>
      </trkpt>
      <trkpt lat="45.96595" lon="6.54095">
        <ele>1826</ele>
        <time>2022-03-06T11:45:45Z</time>
      </trkpt>
      <trkpt lat="45.96596" lon="6.54098">
        <ele>1826</ele>
        <time>2022-03-06T11:45:48Z</time>
      </trkpt>
      <trkpt lat="45.96598" lon="6.54101">
        <ele>1827</ele>
        <time>2022-03-06T11:45:51Z</time>
      </trkpt>
      <trkpt lat="45.96599" lon="6.54103">
        <ele>1828</ele>
        <time>2022-03-06T11:45:54Z</time>
      </trkpt>
      <trkpt lat="45.966" lon="6.54106">
        <ele>1829</ele>
        <time>2022-03-06T11:45:58Z</time>
      </trkpt>
      <trkpt lat="45.966" lon="6.54109">
        <ele>1830</ele>
        <time>2022-03-06T11:46:01Z</time>
      </trkpt>
      <trkpt lat="45.96601" lon="6.54111">
        <ele>1830</ele>
        <time>2022-03-06T11:46:04Z</time>
      </trkpt>
      <trkpt lat="45.96602" lon="6.54114">
        <ele>1832</ele>
        <time>2022-03-06T11:46:07Z</time>
      </trkpt>
      <trkpt lat="45.96603" lon="6.54116">
        <ele>1832</ele>
        <time>2022-03-06T11:46:11Z</time>
      </trkpt>
      <trkpt lat="45.96604" lon="6.54119">
        <ele>1833</ele>
        <time>2022-03-06T11:46:15Z</time>
      </trkpt>
      <trkpt lat="45.96605" lon="6.54122">
        <ele>1834</ele>
        <time>2022-03-06T11:46:18Z</time>
      </trkpt>
      <trkpt lat="45.96607" lon="6.54124">
        <ele>1835</ele>
        <time>2022-03-06T11:46:23Z</time>
      </trkpt>
      <trkpt lat="45.96607" lon="6.54127">
        <ele>1836</ele>
        <time>2022-03-06T11:46:27Z</time>
      </trkpt>
      <trkpt lat="45.96608" lon="6.54129">
        <ele>1836</ele>
        <time>2022-03-06T11:46:31Z</time>
      </trkpt>
      <trkpt lat="45.96609" lon="6.54132">
        <ele>1838</ele>
        <time>2022-03-06T11:46:37Z</time>
      </trkpt>
      <trkpt lat="45.96608" lon="6.54135">
        <ele>1839</ele>
        <time>2022-03-06T11:46:41Z</time>
      </trkpt>
      <trkpt lat="45.96609" lon="6.54138">
        <ele>1840</ele>
        <time>2022-03-06T11:46:45Z</time>
      </trkpt>
      <trkpt lat="45.96609" lon="6.5414">
        <ele>1841</ele>
        <time>2022-03-06T11:46:48Z</time>
      </trkpt>
      <trkpt lat="45.9661" lon="6.54143">
        <ele>1842</ele>
        <time>2022-03-06T11:46:51Z</time>
      </trkpt>
      <trkpt lat="45.96611" lon="6.54145">
        <ele>1842</ele>
        <time>2022-03-06T11:46:55Z</time>
      </trkpt>
      <trkpt lat="45.96609" lon="6.54146">
        <ele>1843</ele>
        <time>2022-03-06T11:47:05Z</time>
      </trkpt>
      <trkpt lat="45.96607" lon="6.54146">
        <ele>1845</ele>
        <time>2022-03-06T11:47:08Z</time>
      </trkpt>
      <trkpt lat="45.96604" lon="6.54146">
        <ele>1846</ele>
        <time>2022-03-06T11:47:11Z</time>
      </trkpt>
      <trkpt lat="45.96602" lon="6.54145">
        <ele>1846</ele>
        <time>2022-03-06T11:47:15Z</time>
      </trkpt>
      <trkpt lat="45.966" lon="6.54145">
        <ele>1847</ele>
        <time>2022-03-06T11:47:20Z</time>
      </trkpt>
      <trkpt lat="45.96598" lon="6.54144">
        <ele>1847</ele>
        <time>2022-03-06T11:47:23Z</time>
      </trkpt>
      <trkpt lat="45.96596" lon="6.54143">
        <ele>1848</ele>
        <time>2022-03-06T11:47:26Z</time>
      </trkpt>
      <trkpt lat="45.96595" lon="6.54142">
        <ele>1848</ele>
        <time>2022-03-06T11:47:29Z</time>
      </trkpt>
      <trkpt lat="45.96592" lon="6.54141">
        <ele>1849</ele>
        <time>2022-03-06T11:47:33Z</time>
      </trkpt>
      <trkpt lat="45.9659" lon="6.54141">
        <ele>1849</ele>
        <time>2022-03-06T11:47:36Z</time>
      </trkpt>
      <trkpt lat="45.96588" lon="6.5414">
        <ele>1850</ele>
        <time>2022-03-06T11:47:40Z</time>
      </trkpt>
      <trkpt lat="45.96586" lon="6.5414">
        <ele>1851</ele>
        <time>2022-03-06T11:47:43Z</time>
      </trkpt>
      <trkpt lat="45.96584" lon="6.54139">
        <ele>1851</ele>
        <time>2022-03-06T11:47:46Z</time>
      </trkpt>
      <trkpt lat="45.96581" lon="6.54137">
        <ele>1851</ele>
        <time>2022-03-06T11:47:53Z</time>
      </trkpt>
      <trkpt lat="45.9658" lon="6.54136">
        <ele>1851</ele>
        <time>2022-03-06T11:47:56Z</time>
      </trkpt>
      <trkpt lat="45.96578" lon="6.54135">
        <ele>1850</ele>
        <time>2022-03-06T11:47:59Z</time>
      </trkpt>
      <trkpt lat="45.96576" lon="6.54134">
        <ele>1851</ele>
        <time>2022-03-06T11:48:03Z</time>
      </trkpt>
      <trkpt lat="45.96574" lon="6.54133">
        <ele>1850</ele>
        <time>2022-03-06T11:48:07Z</time>
      </trkpt>
      <trkpt lat="45.96572" lon="6.54132">
        <ele>1851</ele>
        <time>2022-03-06T11:48:12Z</time>
      </trkpt>
      <trkpt lat="45.9657" lon="6.5413">
        <ele>1850</ele>
        <time>2022-03-06T11:48:15Z</time>
      </trkpt>
      <trkpt lat="45.9657" lon="6.54134">
        <ele>1852</ele>
        <time>2022-03-06T11:48:20Z</time>
      </trkpt>
      <trkpt lat="45.96571" lon="6.54136">
        <ele>1853</ele>
        <time>2022-03-06T11:48:23Z</time>
      </trkpt>
      <trkpt lat="45.96572" lon="6.54139">
        <ele>1855</ele>
        <time>2022-03-06T11:48:27Z</time>
      </trkpt>
      <trkpt lat="45.96573" lon="6.54142">
        <ele>1856</ele>
        <time>2022-03-06T11:48:30Z</time>
      </trkpt>
      <trkpt lat="45.96574" lon="6.54144">
        <ele>1857</ele>
        <time>2022-03-06T11:48:33Z</time>
      </trkpt>
      <trkpt lat="45.96575" lon="6.54147">
        <ele>1859</ele>
        <time>2022-03-06T11:48:36Z</time>
      </trkpt>
      <trkpt lat="45.96574" lon="6.54149">
        <ele>1860</ele>
        <time>2022-03-06T11:48:46Z</time>
      </trkpt>
      <trkpt lat="45.96572" lon="6.54148">
        <ele>1860</ele>
        <time>2022-03-06T11:48:50Z</time>
      </trkpt>
      <trkpt lat="45.96569" lon="6.54147">
        <ele>1860</ele>
        <time>2022-03-06T11:48:53Z</time>
      </trkpt>
      <trkpt lat="45.96567" lon="6.54146">
        <ele>1861</ele>
        <time>2022-03-06T11:49:04Z</time>
      </trkpt>
      <trkpt lat="45.96565" lon="6.54145">
        <ele>1861</ele>
        <time>2022-03-06T11:49:07Z</time>
      </trkpt>
      <trkpt lat="45.96564" lon="6.54144">
        <ele>1861</ele>
        <time>2022-03-06T11:49:08Z</time>
      </trkpt>
      <trkpt lat="45.96563" lon="6.54147">
        <ele>1862</ele>
        <time>2022-03-06T11:49:14Z</time>
      </trkpt>
      <trkpt lat="45.96564" lon="6.5415">
        <ele>1864</ele>
        <time>2022-03-06T11:49:18Z</time>
      </trkpt>
      <trkpt lat="45.96565" lon="6.54153">
        <ele>1866</ele>
        <time>2022-03-06T11:49:21Z</time>
      </trkpt>
      <trkpt lat="45.96563" lon="6.54154">
        <ele>1867</ele>
        <time>2022-03-06T11:49:28Z</time>
      </trkpt>
      <trkpt lat="45.96561" lon="6.54153">
        <ele>1867</ele>
        <time>2022-03-06T11:49:32Z</time>
      </trkpt>
      <trkpt lat="45.9656" lon="6.54152">
        <ele>1866</ele>
        <time>2022-03-06T11:49:34Z</time>
      </trkpt>
      <trkpt lat="45.96557" lon="6.54151">
        <ele>1867</ele>
        <time>2022-03-06T11:49:38Z</time>
      </trkpt>
      <trkpt lat="45.96555" lon="6.54149">
        <ele>1866</ele>
        <time>2022-03-06T11:49:41Z</time>
      </trkpt>
      <trkpt lat="45.96553" lon="6.54148">
        <ele>1866</ele>
        <time>2022-03-06T11:49:44Z</time>
      </trkpt>
      <trkpt lat="45.96551" lon="6.54147">
        <ele>1866</ele>
        <time>2022-03-06T11:49:47Z</time>
      </trkpt>
      <trkpt lat="45.96549" lon="6.54146">
        <ele>1866</ele>
        <time>2022-03-06T11:49:50Z</time>
      </trkpt>
      <trkpt lat="45.96547" lon="6.54145">
        <ele>1867</ele>
        <time>2022-03-06T11:49:53Z</time>
      </trkpt>
      <trkpt lat="45.96545" lon="6.54145">
        <ele>1867</ele>
        <time>2022-03-06T11:49:57Z</time>
      </trkpt>
      <trkpt lat="45.96543" lon="6.54144">
        <ele>1867</ele>
        <time>2022-03-06T11:50:00Z</time>
      </trkpt>
      <trkpt lat="45.96543" lon="6.54147">
        <ele>1869</ele>
        <time>2022-03-06T11:50:07Z</time>
      </trkpt>
      <trkpt lat="45.96544" lon="6.5415">
        <ele>1870</ele>
        <time>2022-03-06T11:50:11Z</time>
      </trkpt>
      <trkpt lat="45.96544" lon="6.54152">
        <ele>1871</ele>
        <time>2022-03-06T11:50:14Z</time>
      </trkpt>
      <trkpt lat="45.96545" lon="6.54154">
        <ele>1872</ele>
        <time>2022-03-06T11:50:17Z</time>
      </trkpt>
      <trkpt lat="45.96546" lon="6.54157">
        <ele>1873</ele>
        <time>2022-03-06T11:50:20Z</time>
      </trkpt>
      <trkpt lat="45.96547" lon="6.54159">
        <ele>1874</ele>
        <time>2022-03-06T11:50:25Z</time>
      </trkpt>
      <trkpt lat="45.96548" lon="6.54162">
        <ele>1876</ele>
        <time>2022-03-06T11:50:31Z</time>
      </trkpt>
      <trkpt lat="45.96549" lon="6.54165">
        <ele>1877</ele>
        <time>2022-03-06T11:50:34Z</time>
      </trkpt>
      <trkpt lat="45.9655" lon="6.54167">
        <ele>1878</ele>
        <time>2022-03-06T11:50:37Z</time>
      </trkpt>
      <trkpt lat="45.9655" lon="6.5417">
        <ele>1879</ele>
        <time>2022-03-06T11:50:40Z</time>
      </trkpt>
      <trkpt lat="45.96551" lon="6.54173">
        <ele>1880</ele>
        <time>2022-03-06T11:50:44Z</time>
      </trkpt>
      <trkpt lat="45.96552" lon="6.54175">
        <ele>1881</ele>
        <time>2022-03-06T11:50:51Z</time>
      </trkpt>
      <trkpt lat="45.96552" lon="6.54178">
        <ele>1881</ele>
        <time>2022-03-06T11:50:59Z</time>
      </trkpt>
      <trkpt lat="45.96553" lon="6.54181">
        <ele>1882</ele>
        <time>2022-03-06T11:51:02Z</time>
      </trkpt>
      <trkpt lat="45.96551" lon="6.5418">
        <ele>1882</ele>
        <time>2022-03-06T11:51:20Z</time>
      </trkpt>
      <trkpt lat="45.96549" lon="6.5418">
        <ele>1882</ele>
        <time>2022-03-06T11:51:22Z</time>
      </trkpt>
      <trkpt lat="45.96547" lon="6.54178">
        <ele>1882</ele>
        <time>2022-03-06T11:51:26Z</time>
      </trkpt>
      <trkpt lat="45.96545" lon="6.54177">
        <ele>1882</ele>
        <time>2022-03-06T11:51:29Z</time>
      </trkpt>
      <trkpt lat="45.96543" lon="6.54176">
        <ele>1882</ele>
        <time>2022-03-06T11:51:32Z</time>
      </trkpt>
      <trkpt lat="45.9654" lon="6.54174">
        <ele>1881</ele>
        <time>2022-03-06T11:51:35Z</time>
      </trkpt>
      <trkpt lat="45.96538" lon="6.54173">
        <ele>1881</ele>
        <time>2022-03-06T11:51:38Z</time>
      </trkpt>
      <trkpt lat="45.96537" lon="6.54171">
        <ele>1881</ele>
        <time>2022-03-06T11:51:41Z</time>
      </trkpt>
      <trkpt lat="45.96535" lon="6.54171">
        <ele>1881</ele>
        <time>2022-03-06T11:52:19Z</time>
      </trkpt>
      <trkpt lat="45.96533" lon="6.54169">
        <ele>1881</ele>
        <time>2022-03-06T11:52:22Z</time>
      </trkpt>
      <trkpt lat="45.9653" lon="6.54168">
        <ele>1881</ele>
        <time>2022-03-06T11:52:25Z</time>
      </trkpt>
      <trkpt lat="45.96528" lon="6.54167">
        <ele>1880</ele>
        <time>2022-03-06T11:52:29Z</time>
      </trkpt>
      <trkpt lat="45.96526" lon="6.54165">
        <ele>1880</ele>
        <time>2022-03-06T11:52:33Z</time>
      </trkpt>
      <trkpt lat="45.96524" lon="6.54164">
        <ele>1880</ele>
        <time>2022-03-06T11:52:36Z</time>
      </trkpt>
      <trkpt lat="45.96523" lon="6.54162">
        <ele>1880</ele>
        <time>2022-03-06T11:52:41Z</time>
      </trkpt>
      <trkpt lat="45.96521" lon="6.54162">
        <ele>1880</ele>
        <time>2022-03-06T11:52:44Z</time>
      </trkpt>
      <trkpt lat="45.96519" lon="6.54164">
        <ele>1881</ele>
        <time>2022-03-06T11:52:47Z</time>
      </trkpt>
      <trkpt lat="45.96517" lon="6.54165">
        <ele>1882</ele>
        <time>2022-03-06T11:52:50Z</time>
      </trkpt>
      <trkpt lat="45.96516" lon="6.54168">
        <ele>1882</ele>
        <time>2022-03-06T11:52:53Z</time>
      </trkpt>
      <trkpt lat="45.96516" lon="6.54171">
        <ele>1883</ele>
        <time>2022-03-06T11:52:56Z</time>
      </trkpt>
      <trkpt lat="45.96515" lon="6.54173">
        <ele>1884</ele>
        <time>2022-03-06T11:53:00Z</time>
      </trkpt>
      <trkpt lat="45.96513" lon="6.54175">
        <ele>1884</ele>
        <time>2022-03-06T11:53:03Z</time>
      </trkpt>
      <trkpt lat="45.96511" lon="6.54178">
        <ele>1885</ele>
        <time>2022-03-06T11:53:06Z</time>
      </trkpt>
      <trkpt lat="45.9651" lon="6.5418">
        <ele>1886</ele>
        <time>2022-03-06T11:53:09Z</time>
      </trkpt>
      <trkpt lat="45.96509" lon="6.54182">
        <ele>1886</ele>
        <time>2022-03-06T11:53:12Z</time>
      </trkpt>
      <trkpt lat="45.96509" lon="6.54185">
        <ele>1887</ele>
        <time>2022-03-06T11:53:14Z</time>
      </trkpt>
      <trkpt lat="45.96507" lon="6.54188">
        <ele>1887</ele>
        <time>2022-03-06T11:53:19Z</time>
      </trkpt>
      <trkpt lat="45.96506" lon="6.54191">
        <ele>1888</ele>
        <time>2022-03-06T11:53:22Z</time>
      </trkpt>
      <trkpt lat="45.96505" lon="6.54193">
        <ele>1888</ele>
        <time>2022-03-06T11:53:25Z</time>
      </trkpt>
      <trkpt lat="45.96504" lon="6.54196">
        <ele>1889</ele>
        <time>2022-03-06T11:53:29Z</time>
      </trkpt>
      <trkpt lat="45.96503" lon="6.54198">
        <ele>1889</ele>
        <time>2022-03-06T11:53:32Z</time>
      </trkpt>
      <trkpt lat="45.96501" lon="6.54201">
        <ele>1890</ele>
        <time>2022-03-06T11:53:35Z</time>
      </trkpt>
      <trkpt lat="45.96501" lon="6.54203">
        <ele>1891</ele>
        <time>2022-03-06T11:53:39Z</time>
      </trkpt>
      <trkpt lat="45.965" lon="6.54206">
        <ele>1892</ele>
        <time>2022-03-06T11:53:43Z</time>
      </trkpt>
      <trkpt lat="45.96499" lon="6.54209">
        <ele>1893</ele>
        <time>2022-03-06T11:53:46Z</time>
      </trkpt>
      <trkpt lat="45.96498" lon="6.54211">
        <ele>1894</ele>
        <time>2022-03-06T11:53:50Z</time>
      </trkpt>
      <trkpt lat="45.96498" lon="6.54214">
        <ele>1894</ele>
        <time>2022-03-06T11:53:54Z</time>
      </trkpt>
      <trkpt lat="45.96498" lon="6.54217">
        <ele>1895</ele>
        <time>2022-03-06T11:54:00Z</time>
      </trkpt>
      <trkpt lat="45.96499" lon="6.5422">
        <ele>1896</ele>
        <time>2022-03-06T11:54:05Z</time>
      </trkpt>
      <trkpt lat="45.96499" lon="6.54223">
        <ele>1896</ele>
        <time>2022-03-06T11:54:09Z</time>
      </trkpt>
      <trkpt lat="45.96499" lon="6.54226">
        <ele>1897</ele>
        <time>2022-03-06T11:54:13Z</time>
      </trkpt>
      <trkpt lat="45.96499" lon="6.54229">
        <ele>1899</ele>
        <time>2022-03-06T11:54:17Z</time>
      </trkpt>
      <trkpt lat="45.965" lon="6.54231">
        <ele>1900</ele>
        <time>2022-03-06T11:54:21Z</time>
      </trkpt>
      <trkpt lat="45.965" lon="6.54234">
        <ele>1901</ele>
        <time>2022-03-06T11:54:25Z</time>
      </trkpt>
      <trkpt lat="45.96502" lon="6.54237">
        <ele>1902</ele>
        <time>2022-03-06T11:54:30Z</time>
      </trkpt>
      <trkpt lat="45.96503" lon="6.5424">
        <ele>1903</ele>
        <time>2022-03-06T11:54:34Z</time>
      </trkpt>
      <trkpt lat="45.96504" lon="6.54243">
        <ele>1904</ele>
        <time>2022-03-06T11:54:38Z</time>
      </trkpt>
      <trkpt lat="45.96504" lon="6.54246">
        <ele>1905</ele>
        <time>2022-03-06T11:54:42Z</time>
      </trkpt>
      <trkpt lat="45.96504" lon="6.54248">
        <ele>1906</ele>
        <time>2022-03-06T11:54:47Z</time>
      </trkpt>
      <trkpt lat="45.96505" lon="6.54251">
        <ele>1907</ele>
        <time>2022-03-06T11:54:51Z</time>
      </trkpt>
      <trkpt lat="45.96505" lon="6.54254">
        <ele>1908</ele>
        <time>2022-03-06T11:54:54Z</time>
      </trkpt>
      <trkpt lat="45.96505" lon="6.54257">
        <ele>1908</ele>
        <time>2022-03-06T11:54:58Z</time>
      </trkpt>
      <trkpt lat="45.96505" lon="6.5426">
        <ele>1910</ele>
        <time>2022-03-06T11:55:02Z</time>
      </trkpt>
      <trkpt lat="45.96503" lon="6.54262">
        <ele>1911</ele>
        <time>2022-03-06T11:55:10Z</time>
      </trkpt>
      <trkpt lat="45.96501" lon="6.54262">
        <ele>1912</ele>
        <time>2022-03-06T11:55:14Z</time>
      </trkpt>
      <trkpt lat="45.96499" lon="6.54262">
        <ele>1912</ele>
        <time>2022-03-06T11:55:18Z</time>
      </trkpt>
      <trkpt lat="45.96497" lon="6.54261">
        <ele>1912</ele>
        <time>2022-03-06T11:55:24Z</time>
      </trkpt>
      <trkpt lat="45.96495" lon="6.54261">
        <ele>1913</ele>
        <time>2022-03-06T11:55:28Z</time>
      </trkpt>
      <trkpt lat="45.96493" lon="6.54261">
        <ele>1913</ele>
        <time>2022-03-06T11:55:31Z</time>
      </trkpt>
      <trkpt lat="45.96491" lon="6.5426">
        <ele>1914</ele>
        <time>2022-03-06T11:55:34Z</time>
      </trkpt>
      <trkpt lat="45.96488" lon="6.5426">
        <ele>1915</ele>
        <time>2022-03-06T11:55:38Z</time>
      </trkpt>
      <trkpt lat="45.96487" lon="6.54259">
        <ele>1915</ele>
        <time>2022-03-06T11:55:41Z</time>
      </trkpt>
      <trkpt lat="45.96484" lon="6.54258">
        <ele>1915</ele>
        <time>2022-03-06T11:55:44Z</time>
      </trkpt>
      <trkpt lat="45.96483" lon="6.5426">
        <ele>1916</ele>
        <time>2022-03-06T11:55:51Z</time>
      </trkpt>
      <trkpt lat="45.96484" lon="6.54263">
        <ele>1917</ele>
        <time>2022-03-06T11:55:56Z</time>
      </trkpt>
      <trkpt lat="45.96484" lon="6.54266">
        <ele>1918</ele>
        <time>2022-03-06T11:56:01Z</time>
      </trkpt>
      <trkpt lat="45.96482" lon="6.54265">
        <ele>1919</ele>
        <time>2022-03-06T11:56:09Z</time>
      </trkpt>
      <trkpt lat="45.96479" lon="6.54265">
        <ele>1919</ele>
        <time>2022-03-06T11:56:12Z</time>
      </trkpt>
      <trkpt lat="45.96478" lon="6.54263">
        <ele>1919</ele>
        <time>2022-03-06T11:56:16Z</time>
      </trkpt>
      <trkpt lat="45.96475" lon="6.54262">
        <ele>1919</ele>
        <time>2022-03-06T11:56:19Z</time>
      </trkpt>
      <trkpt lat="45.96473" lon="6.54261">
        <ele>1919</ele>
        <time>2022-03-06T11:56:22Z</time>
      </trkpt>
      <trkpt lat="45.96472" lon="6.54263">
        <ele>1921</ele>
        <time>2022-03-06T11:56:26Z</time>
      </trkpt>
      <trkpt lat="45.96471" lon="6.54265">
        <ele>1922</ele>
        <time>2022-03-06T11:56:30Z</time>
      </trkpt>
      <trkpt lat="45.96469" lon="6.54266">
        <ele>1923</ele>
        <time>2022-03-06T11:56:34Z</time>
      </trkpt>
      <trkpt lat="45.96467" lon="6.54265">
        <ele>1925</ele>
        <time>2022-03-06T11:56:37Z</time>
      </trkpt>
      <trkpt lat="45.96465" lon="6.54265">
        <ele>1926</ele>
        <time>2022-03-06T11:56:39Z</time>
      </trkpt>
      <trkpt lat="45.96463" lon="6.54266">
        <ele>1928</ele>
        <time>2022-03-06T11:56:42Z</time>
      </trkpt>
      <trkpt lat="45.96462" lon="6.54269">
        <ele>1929</ele>
        <time>2022-03-06T11:56:46Z</time>
      </trkpt>
      <trkpt lat="45.96462" lon="6.54271">
        <ele>1930</ele>
        <time>2022-03-06T11:56:49Z</time>
      </trkpt>
      <trkpt lat="45.96462" lon="6.54275">
        <ele>1931</ele>
        <time>2022-03-06T11:56:54Z</time>
      </trkpt>
      <trkpt lat="45.96463" lon="6.54278">
        <ele>1931</ele>
        <time>2022-03-06T11:56:56Z</time>
      </trkpt>
      <trkpt lat="45.96461" lon="6.5428">
        <ele>1933</ele>
        <time>2022-03-06T11:57:02Z</time>
      </trkpt>
      <trkpt lat="45.96461" lon="6.54282">
        <ele>1935</ele>
        <time>2022-03-06T11:57:06Z</time>
      </trkpt>
      <trkpt lat="45.96458" lon="6.54284">
        <ele>1937</ele>
        <time>2022-03-06T11:57:10Z</time>
      </trkpt>
      <trkpt lat="45.96457" lon="6.54286">
        <ele>1938</ele>
        <time>2022-03-06T11:57:14Z</time>
      </trkpt>
      <trkpt lat="45.96456" lon="6.54289">
        <ele>1940</ele>
        <time>2022-03-06T11:57:19Z</time>
      </trkpt>
      <trkpt lat="45.96454" lon="6.54291">
        <ele>1942</ele>
        <time>2022-03-06T11:57:23Z</time>
      </trkpt>
      <trkpt lat="45.96453" lon="6.54293">
        <ele>1943</ele>
        <time>2022-03-06T11:57:27Z</time>
      </trkpt>
      <trkpt lat="45.9645" lon="6.54294">
        <ele>1945</ele>
        <time>2022-03-06T11:57:32Z</time>
      </trkpt>
      <trkpt lat="45.96448" lon="6.54293">
        <ele>1945</ele>
        <time>2022-03-06T11:57:35Z</time>
      </trkpt>
      <trkpt lat="45.96447" lon="6.54292">
        <ele>1946</ele>
        <time>2022-03-06T11:57:38Z</time>
      </trkpt>
      <trkpt lat="45.96445" lon="6.5429">
        <ele>1946</ele>
        <time>2022-03-06T11:57:41Z</time>
      </trkpt>
      <trkpt lat="45.96443" lon="6.54289">
        <ele>1946</ele>
        <time>2022-03-06T11:57:44Z</time>
      </trkpt>
      <trkpt lat="45.96441" lon="6.54287">
        <ele>1947</ele>
        <time>2022-03-06T11:57:48Z</time>
      </trkpt>
      <trkpt lat="45.96439" lon="6.54286">
        <ele>1947</ele>
        <time>2022-03-06T11:57:51Z</time>
      </trkpt>
      <trkpt lat="45.96437" lon="6.54285">
        <ele>1948</ele>
        <time>2022-03-06T11:57:56Z</time>
      </trkpt>
      <trkpt lat="45.96435" lon="6.54283">
        <ele>1948</ele>
        <time>2022-03-06T11:57:59Z</time>
      </trkpt>
      <trkpt lat="45.96434" lon="6.54282">
        <ele>1948</ele>
        <time>2022-03-06T11:58:03Z</time>
      </trkpt>
      <trkpt lat="45.96432" lon="6.5428">
        <ele>1949</ele>
        <time>2022-03-06T11:58:06Z</time>
      </trkpt>
      <trkpt lat="45.9643" lon="6.54281">
        <ele>1950</ele>
        <time>2022-03-06T11:58:12Z</time>
      </trkpt>
      <trkpt lat="45.9643" lon="6.54284">
        <ele>1951</ele>
        <time>2022-03-06T11:58:17Z</time>
      </trkpt>
      <trkpt lat="45.9643" lon="6.54288">
        <ele>1951</ele>
        <time>2022-03-06T11:58:21Z</time>
      </trkpt>
      <trkpt lat="45.9643" lon="6.5429">
        <ele>1952</ele>
        <time>2022-03-06T11:58:24Z</time>
      </trkpt>
      <trkpt lat="45.96431" lon="6.54294">
        <ele>1952</ele>
        <time>2022-03-06T11:58:27Z</time>
      </trkpt>
      <trkpt lat="45.96431" lon="6.54297">
        <ele>1952</ele>
        <time>2022-03-06T11:58:31Z</time>
      </trkpt>
      <trkpt lat="45.96432" lon="6.543">
        <ele>1953</ele>
        <time>2022-03-06T11:58:34Z</time>
      </trkpt>
      <trkpt lat="45.96433" lon="6.54302">
        <ele>1953</ele>
        <time>2022-03-06T11:58:38Z</time>
      </trkpt>
      <trkpt lat="45.96433" lon="6.54306">
        <ele>1954</ele>
        <time>2022-03-06T11:58:42Z</time>
      </trkpt>
      <trkpt lat="45.96433" lon="6.54309">
        <ele>1954</ele>
        <time>2022-03-06T11:58:46Z</time>
      </trkpt>
      <trkpt lat="45.96434" lon="6.54311">
        <ele>1955</ele>
        <time>2022-03-06T11:58:49Z</time>
      </trkpt>
      <trkpt lat="45.96435" lon="6.54314">
        <ele>1955</ele>
        <time>2022-03-06T11:58:53Z</time>
      </trkpt>
      <trkpt lat="45.96436" lon="6.54317">
        <ele>1956</ele>
        <time>2022-03-06T11:58:56Z</time>
      </trkpt>
      <trkpt lat="45.96436" lon="6.5432">
        <ele>1957</ele>
        <time>2022-03-06T11:59:02Z</time>
      </trkpt>
      <trkpt lat="45.96436" lon="6.54322">
        <ele>1958</ele>
        <time>2022-03-06T11:59:06Z</time>
      </trkpt>
      <trkpt lat="45.96437" lon="6.54325">
        <ele>1959</ele>
        <time>2022-03-06T11:59:10Z</time>
      </trkpt>
      <trkpt lat="45.96435" lon="6.54323">
        <ele>1958</ele>
        <time>2022-03-06T11:59:19Z</time>
      </trkpt>
      <trkpt lat="45.96433" lon="6.54322">
        <ele>1958</ele>
        <time>2022-03-06T11:59:22Z</time>
      </trkpt>
      <trkpt lat="45.96432" lon="6.54321">
        <ele>1958</ele>
        <time>2022-03-06T11:59:25Z</time>
      </trkpt>
      <trkpt lat="45.9643" lon="6.5432">
        <ele>1957</ele>
        <time>2022-03-06T11:59:28Z</time>
      </trkpt>
      <trkpt lat="45.96427" lon="6.54319">
        <ele>1957</ele>
        <time>2022-03-06T11:59:32Z</time>
      </trkpt>
      <trkpt lat="45.96425" lon="6.54319">
        <ele>1957</ele>
        <time>2022-03-06T11:59:35Z</time>
      </trkpt>
      <trkpt lat="45.96423" lon="6.54318">
        <ele>1957</ele>
        <time>2022-03-06T11:59:38Z</time>
      </trkpt>
      <trkpt lat="45.96421" lon="6.54318">
        <ele>1958</ele>
        <time>2022-03-06T11:59:44Z</time>
      </trkpt>
      <trkpt lat="45.96419" lon="6.54318">
        <ele>1958</ele>
        <time>2022-03-06T11:59:48Z</time>
      </trkpt>
      <trkpt lat="45.96417" lon="6.54316">
        <ele>1958</ele>
        <time>2022-03-06T11:59:53Z</time>
      </trkpt>
      <trkpt lat="45.96415" lon="6.54316">
        <ele>1959</ele>
        <time>2022-03-06T11:59:58Z</time>
      </trkpt>
      <trkpt lat="45.96413" lon="6.54315">
        <ele>1960</ele>
        <time>2022-03-06T12:00:01Z</time>
      </trkpt>
      <trkpt lat="45.9641" lon="6.54314">
        <ele>1961</ele>
        <time>2022-03-06T12:00:17Z</time>
      </trkpt>
      <trkpt lat="45.96408" lon="6.54313">
        <ele>1962</ele>
        <time>2022-03-06T12:00:21Z</time>
      </trkpt>
      <trkpt lat="45.96407" lon="6.54316">
        <ele>1962</ele>
        <time>2022-03-06T12:00:26Z</time>
      </trkpt>
      <trkpt lat="45.96407" lon="6.5432">
        <ele>1963</ele>
        <time>2022-03-06T12:00:29Z</time>
      </trkpt>
      <trkpt lat="45.96407" lon="6.54323">
        <ele>1963</ele>
        <time>2022-03-06T12:00:32Z</time>
      </trkpt>
      <trkpt lat="45.96407" lon="6.54326">
        <ele>1964</ele>
        <time>2022-03-06T12:00:35Z</time>
      </trkpt>
      <trkpt lat="45.96408" lon="6.54328">
        <ele>1964</ele>
        <time>2022-03-06T12:00:38Z</time>
      </trkpt>
      <trkpt lat="45.96408" lon="6.54331">
        <ele>1964</ele>
        <time>2022-03-06T12:00:41Z</time>
      </trkpt>
      <trkpt lat="45.96409" lon="6.54334">
        <ele>1964</ele>
        <time>2022-03-06T12:00:44Z</time>
      </trkpt>
      <trkpt lat="45.9641" lon="6.54337">
        <ele>1965</ele>
        <time>2022-03-06T12:00:47Z</time>
      </trkpt>
      <trkpt lat="45.96411" lon="6.54339">
        <ele>1965</ele>
        <time>2022-03-06T12:00:50Z</time>
      </trkpt>
      <trkpt lat="45.96412" lon="6.54342">
        <ele>1966</ele>
        <time>2022-03-06T12:00:53Z</time>
      </trkpt>
      <trkpt lat="45.96413" lon="6.54345">
        <ele>1967</ele>
        <time>2022-03-06T12:00:57Z</time>
      </trkpt>
      <trkpt lat="45.96414" lon="6.54348">
        <ele>1967</ele>
        <time>2022-03-06T12:01:00Z</time>
      </trkpt>
      <trkpt lat="45.96416" lon="6.5435">
        <ele>1967</ele>
        <time>2022-03-06T12:01:03Z</time>
      </trkpt>
      <trkpt lat="45.96413" lon="6.54349">
        <ele>1968</ele>
        <time>2022-03-06T12:01:13Z</time>
      </trkpt>
      <trkpt lat="45.96411" lon="6.54349">
        <ele>1970</ele>
        <time>2022-03-06T12:01:16Z</time>
      </trkpt>
      <trkpt lat="45.96409" lon="6.54349">
        <ele>1970</ele>
        <time>2022-03-06T12:01:19Z</time>
      </trkpt>
      <trkpt lat="45.96407" lon="6.54349">
        <ele>1972</ele>
        <time>2022-03-06T12:01:23Z</time>
      </trkpt>
      <trkpt lat="45.96405" lon="6.54349">
        <ele>1973</ele>
        <time>2022-03-06T12:01:26Z</time>
      </trkpt>
      <trkpt lat="45.96403" lon="6.54349">
        <ele>1974</ele>
        <time>2022-03-06T12:01:30Z</time>
      </trkpt>
      <trkpt lat="45.964" lon="6.54348">
        <ele>1975</ele>
        <time>2022-03-06T12:01:33Z</time>
      </trkpt>
      <trkpt lat="45.96398" lon="6.54347">
        <ele>1975</ele>
        <time>2022-03-06T12:01:35Z</time>
      </trkpt>
      <trkpt lat="45.96397" lon="6.54346">
        <ele>1976</ele>
        <time>2022-03-06T12:01:39Z</time>
      </trkpt>
      <trkpt lat="45.96395" lon="6.54346">
        <ele>1977</ele>
        <time>2022-03-06T12:01:44Z</time>
      </trkpt>
      <trkpt lat="45.96393" lon="6.54344">
        <ele>1977</ele>
        <time>2022-03-06T12:01:47Z</time>
      </trkpt>
      <trkpt lat="45.96391" lon="6.54342">
        <ele>1978</ele>
        <time>2022-03-06T12:01:51Z</time>
      </trkpt>
      <trkpt lat="45.96389" lon="6.54342">
        <ele>1979</ele>
        <time>2022-03-06T12:01:54Z</time>
      </trkpt>
      <trkpt lat="45.96387" lon="6.5434">
        <ele>1980</ele>
        <time>2022-03-06T12:01:57Z</time>
      </trkpt>
      <trkpt lat="45.96385" lon="6.54338">
        <ele>1980</ele>
        <time>2022-03-06T12:02:04Z</time>
      </trkpt>
      <trkpt lat="45.96383" lon="6.54336">
        <ele>1981</ele>
        <time>2022-03-06T12:02:07Z</time>
      </trkpt>
      <trkpt lat="45.96382" lon="6.54334">
        <ele>1982</ele>
        <time>2022-03-06T12:02:10Z</time>
      </trkpt>
      <trkpt lat="45.96382" lon="6.54337">
        <ele>1983</ele>
        <time>2022-03-06T12:02:15Z</time>
      </trkpt>
      <trkpt lat="45.96383" lon="6.5434">
        <ele>1983</ele>
        <time>2022-03-06T12:02:18Z</time>
      </trkpt>
      <trkpt lat="45.96384" lon="6.54343">
        <ele>1983</ele>
        <time>2022-03-06T12:02:25Z</time>
      </trkpt>
      <trkpt lat="45.96384" lon="6.54346">
        <ele>1984</ele>
        <time>2022-03-06T12:02:28Z</time>
      </trkpt>
      <trkpt lat="45.96383" lon="6.54349">
        <ele>1985</ele>
        <time>2022-03-06T12:02:33Z</time>
      </trkpt>
      <trkpt lat="45.96383" lon="6.54352">
        <ele>1986</ele>
        <time>2022-03-06T12:02:37Z</time>
      </trkpt>
      <trkpt lat="45.96384" lon="6.54355">
        <ele>1987</ele>
        <time>2022-03-06T12:02:40Z</time>
      </trkpt>
      <trkpt lat="45.96385" lon="6.54358">
        <ele>1987</ele>
        <time>2022-03-06T12:02:43Z</time>
      </trkpt>
      <trkpt lat="45.96385" lon="6.5436">
        <ele>1988</ele>
        <time>2022-03-06T12:02:46Z</time>
      </trkpt>
      <trkpt lat="45.96385" lon="6.54364">
        <ele>1989</ele>
        <time>2022-03-06T12:02:50Z</time>
      </trkpt>
      <trkpt lat="45.96386" lon="6.54367">
        <ele>1989</ele>
        <time>2022-03-06T12:02:53Z</time>
      </trkpt>
      <trkpt lat="45.96387" lon="6.5437">
        <ele>1989</ele>
        <time>2022-03-06T12:02:57Z</time>
      </trkpt>
      <trkpt lat="45.96388" lon="6.54372">
        <ele>1989</ele>
        <time>2022-03-06T12:03:00Z</time>
      </trkpt>
      <trkpt lat="45.96389" lon="6.54374">
        <ele>1989</ele>
        <time>2022-03-06T12:03:03Z</time>
      </trkpt>
      <trkpt lat="45.9639" lon="6.54377">
        <ele>1989</ele>
        <time>2022-03-06T12:03:06Z</time>
      </trkpt>
      <trkpt lat="45.96391" lon="6.54379">
        <ele>1989</ele>
        <time>2022-03-06T12:03:08Z</time>
      </trkpt>
      <trkpt lat="45.96392" lon="6.54382">
        <ele>1989</ele>
        <time>2022-03-06T12:03:16Z</time>
      </trkpt>
      <trkpt lat="45.96393" lon="6.54384">
        <ele>1990</ele>
        <time>2022-03-06T12:03:20Z</time>
      </trkpt>
      <trkpt lat="45.96394" lon="6.54387">
        <ele>1990</ele>
        <time>2022-03-06T12:03:24Z</time>
      </trkpt>
      <trkpt lat="45.96395" lon="6.54389">
        <ele>1990</ele>
        <time>2022-03-06T12:03:27Z</time>
      </trkpt>
      <trkpt lat="45.96397" lon="6.54391">
        <ele>1990</ele>
        <time>2022-03-06T12:03:30Z</time>
      </trkpt>
      <trkpt lat="45.96398" lon="6.54393">
        <ele>1990</ele>
        <time>2022-03-06T12:03:34Z</time>
      </trkpt>
      <trkpt lat="45.96396" lon="6.54392">
        <ele>1991</ele>
        <time>2022-03-06T12:03:40Z</time>
      </trkpt>
      <trkpt lat="45.96394" lon="6.54392">
        <ele>1991</ele>
        <time>2022-03-06T12:03:43Z</time>
      </trkpt>
      <trkpt lat="45.96392" lon="6.54392">
        <ele>1992</ele>
        <time>2022-03-06T12:03:47Z</time>
      </trkpt>
      <trkpt lat="45.9639" lon="6.54391">
        <ele>1993</ele>
        <time>2022-03-06T12:03:51Z</time>
      </trkpt>
      <trkpt lat="45.96388" lon="6.54391">
        <ele>1994</ele>
        <time>2022-03-06T12:03:55Z</time>
      </trkpt>
      <trkpt lat="45.96386" lon="6.54391">
        <ele>1995</ele>
        <time>2022-03-06T12:03:59Z</time>
      </trkpt>
      <trkpt lat="45.96384" lon="6.54391">
        <ele>1996</ele>
        <time>2022-03-06T12:04:03Z</time>
      </trkpt>
      <trkpt lat="45.96382" lon="6.5439">
        <ele>1997</ele>
        <time>2022-03-06T12:04:07Z</time>
      </trkpt>
      <trkpt lat="45.9638" lon="6.5439">
        <ele>1998</ele>
        <time>2022-03-06T12:04:10Z</time>
      </trkpt>
      <trkpt lat="45.96378" lon="6.54389">
        <ele>1999</ele>
        <time>2022-03-06T12:04:14Z</time>
      </trkpt>
      <trkpt lat="45.96376" lon="6.54389">
        <ele>2000</ele>
        <time>2022-03-06T12:04:18Z</time>
      </trkpt>
      <trkpt lat="45.96374" lon="6.54388">
        <ele>2001</ele>
        <time>2022-03-06T12:04:22Z</time>
      </trkpt>
      <trkpt lat="45.96372" lon="6.54388">
        <ele>2002</ele>
        <time>2022-03-06T12:04:26Z</time>
      </trkpt>
      <trkpt lat="45.9637" lon="6.54387">
        <ele>2003</ele>
        <time>2022-03-06T12:04:30Z</time>
      </trkpt>
      <trkpt lat="45.96368" lon="6.54386">
        <ele>2004</ele>
        <time>2022-03-06T12:04:35Z</time>
      </trkpt>
      <trkpt lat="45.96366" lon="6.54384">
        <ele>2004</ele>
        <time>2022-03-06T12:04:39Z</time>
      </trkpt>
      <trkpt lat="45.96365" lon="6.54383">
        <ele>2005</ele>
        <time>2022-03-06T12:04:43Z</time>
      </trkpt>
      <trkpt lat="45.96363" lon="6.54381">
        <ele>2006</ele>
        <time>2022-03-06T12:04:47Z</time>
      </trkpt>
      <trkpt lat="45.96362" lon="6.5438">
        <ele>2006</ele>
        <time>2022-03-06T12:04:51Z</time>
      </trkpt>
      <trkpt lat="45.9636" lon="6.54379">
        <ele>2008</ele>
        <time>2022-03-06T12:04:54Z</time>
      </trkpt>
      <trkpt lat="45.96358" lon="6.54377">
        <ele>2009</ele>
        <time>2022-03-06T12:04:57Z</time>
      </trkpt>
      <trkpt lat="45.96356" lon="6.54375">
        <ele>2011</ele>
        <time>2022-03-06T12:05:00Z</time>
      </trkpt>
      <trkpt lat="45.96354" lon="6.54374">
        <ele>2014</ele>
        <time>2022-03-06T12:05:05Z</time>
      </trkpt>
      <trkpt lat="45.96354" lon="6.54377">
        <ele>2014</ele>
        <time>2022-03-06T12:05:09Z</time>
      </trkpt>
      <trkpt lat="45.96355" lon="6.54381">
        <ele>2014</ele>
        <time>2022-03-06T12:05:37Z</time>
      </trkpt>
      <trkpt lat="45.96355" lon="6.54384">
        <ele>2014</ele>
        <time>2022-03-06T12:05:40Z</time>
      </trkpt>
      <trkpt lat="45.96355" lon="6.54386">
        <ele>2014</ele>
        <time>2022-03-06T12:05:42Z</time>
      </trkpt>
      <trkpt lat="45.96355" lon="6.5439">
        <ele>2015</ele>
        <time>2022-03-06T12:05:46Z</time>
      </trkpt>
      <trkpt lat="45.96355" lon="6.54393">
        <ele>2015</ele>
        <time>2022-03-06T12:05:49Z</time>
      </trkpt>
      <trkpt lat="45.96355" lon="6.54396">
        <ele>2016</ele>
        <time>2022-03-06T12:05:52Z</time>
      </trkpt>
      <trkpt lat="45.96355" lon="6.54399">
        <ele>2017</ele>
        <time>2022-03-06T12:05:55Z</time>
      </trkpt>
      <trkpt lat="45.96355" lon="6.54402">
        <ele>2018</ele>
        <time>2022-03-06T12:05:58Z</time>
      </trkpt>
      <trkpt lat="45.96356" lon="6.54405">
        <ele>2018</ele>
        <time>2022-03-06T12:06:05Z</time>
      </trkpt>
      <trkpt lat="45.96356" lon="6.54408">
        <ele>2019</ele>
        <time>2022-03-06T12:06:10Z</time>
      </trkpt>
      <trkpt lat="45.96357" lon="6.54411">
        <ele>2019</ele>
        <time>2022-03-06T12:06:14Z</time>
      </trkpt>
      <trkpt lat="45.96358" lon="6.54414">
        <ele>2019</ele>
        <time>2022-03-06T12:06:19Z</time>
      </trkpt>
      <trkpt lat="45.96358" lon="6.54417">
        <ele>2019</ele>
        <time>2022-03-06T12:06:24Z</time>
      </trkpt>
      <trkpt lat="45.96359" lon="6.5442">
        <ele>2019</ele>
        <time>2022-03-06T12:06:29Z</time>
      </trkpt>
      <trkpt lat="45.9636" lon="6.54423">
        <ele>2019</ele>
        <time>2022-03-06T12:06:33Z</time>
      </trkpt>
      <trkpt lat="45.96361" lon="6.54426">
        <ele>2019</ele>
        <time>2022-03-06T12:06:39Z</time>
      </trkpt>
      <trkpt lat="45.96362" lon="6.54428">
        <ele>2019</ele>
        <time>2022-03-06T12:06:43Z</time>
      </trkpt>
      <trkpt lat="45.96364" lon="6.5443">
        <ele>2019</ele>
        <time>2022-03-06T12:06:48Z</time>
      </trkpt>
      <trkpt lat="45.96366" lon="6.54431">
        <ele>2018</ele>
        <time>2022-03-06T12:06:52Z</time>
      </trkpt>
      <trkpt lat="45.96367" lon="6.54433">
        <ele>2018</ele>
        <time>2022-03-06T12:06:57Z</time>
      </trkpt>
      <trkpt lat="45.96368" lon="6.54436">
        <ele>2019</ele>
        <time>2022-03-06T12:07:02Z</time>
      </trkpt>
      <trkpt lat="45.9637" lon="6.54438">
        <ele>2019</ele>
        <time>2022-03-06T12:07:06Z</time>
      </trkpt>
      <trkpt lat="45.96368" lon="6.54437">
        <ele>2019</ele>
        <time>2022-03-06T12:07:27Z</time>
      </trkpt>
      <trkpt lat="45.96366" lon="6.54438">
        <ele>2020</ele>
        <time>2022-03-06T12:07:36Z</time>
      </trkpt>
      <trkpt lat="45.96364" lon="6.54439">
        <ele>2021</ele>
        <time>2022-03-06T12:07:40Z</time>
      </trkpt>
      <trkpt lat="45.96362" lon="6.54438">
        <ele>2022</ele>
        <time>2022-03-06T12:07:44Z</time>
      </trkpt>
      <trkpt lat="45.9636" lon="6.54438">
        <ele>2023</ele>
        <time>2022-03-06T12:07:49Z</time>
      </trkpt>
      <trkpt lat="45.96358" lon="6.54437">
        <ele>2025</ele>
        <time>2022-03-06T12:07:52Z</time>
      </trkpt>
      <trkpt lat="45.96356" lon="6.54436">
        <ele>2026</ele>
        <time>2022-03-06T12:07:55Z</time>
      </trkpt>
      <trkpt lat="45.96354" lon="6.54435">
        <ele>2027</ele>
        <time>2022-03-06T12:08:00Z</time>
      </trkpt>
      <trkpt lat="45.96356" lon="6.54437">
        <ele>2027</ele>
        <time>2022-03-06T12:08:21Z</time>
      </trkpt>
      <trkpt lat="45.96356" lon="6.54439">
        <ele>2027</ele>
        <time>2022-03-06T12:08:32Z</time>
      </trkpt>
      <trkpt lat="45.96356" lon="6.54442">
        <ele>2028</ele>
        <time>2022-03-06T12:08:36Z</time>
      </trkpt>
      <trkpt lat="45.96356" lon="6.54444">
        <ele>2028</ele>
        <time>2022-03-06T12:08:42Z</time>
      </trkpt>
      <trkpt lat="45.96358" lon="6.54446">
        <ele>2027</ele>
        <time>2022-03-06T12:08:46Z</time>
      </trkpt>
      <trkpt lat="45.9636" lon="6.54448">
        <ele>2026</ele>
        <time>2022-03-06T12:08:51Z</time>
      </trkpt>
      <trkpt lat="45.96361" lon="6.5445">
        <ele>2025</ele>
        <time>2022-03-06T12:08:56Z</time>
      </trkpt>
      <trkpt lat="45.96363" lon="6.54452">
        <ele>2025</ele>
        <time>2022-03-06T12:09:00Z</time>
      </trkpt>
      <trkpt lat="45.96364" lon="6.54453">
        <ele>2025</ele>
        <time>2022-03-06T12:09:04Z</time>
      </trkpt>
      <trkpt lat="45.96363" lon="6.54455">
        <ele>2026</ele>
        <time>2022-03-06T12:09:22Z</time>
      </trkpt>
      <trkpt lat="45.96361" lon="6.54455">
        <ele>2027</ele>
        <time>2022-03-06T12:09:27Z</time>
      </trkpt>
      <trkpt lat="45.96359" lon="6.54456">
        <ele>2029</ele>
        <time>2022-03-06T12:09:32Z</time>
      </trkpt>
      <trkpt lat="45.96357" lon="6.54455">
        <ele>2030</ele>
        <time>2022-03-06T12:09:40Z</time>
      </trkpt>
      <trkpt lat="45.96355" lon="6.54454">
        <ele>2031</ele>
        <time>2022-03-06T12:09:45Z</time>
      </trkpt>
      <trkpt lat="45.96353" lon="6.54454">
        <ele>2033</ele>
        <time>2022-03-06T12:09:50Z</time>
      </trkpt>
      <trkpt lat="45.96351" lon="6.54453">
        <ele>2034</ele>
        <time>2022-03-06T12:09:57Z</time>
      </trkpt>
      <trkpt lat="45.96349" lon="6.54452">
        <ele>2035</ele>
        <time>2022-03-06T12:10:01Z</time>
      </trkpt>
      <trkpt lat="45.96348" lon="6.54449">
        <ele>2035</ele>
        <time>2022-03-06T12:10:11Z</time>
      </trkpt>
      <trkpt lat="45.96349" lon="6.54452">
        <ele>2036</ele>
        <time>2022-03-06T12:10:20Z</time>
      </trkpt>
      <trkpt lat="45.96349" lon="6.54455">
        <ele>2036</ele>
        <time>2022-03-06T12:10:23Z</time>
      </trkpt>
      <trkpt lat="45.96349" lon="6.54458">
        <ele>2036</ele>
        <time>2022-03-06T12:10:28Z</time>
      </trkpt>
      <trkpt lat="45.96351" lon="6.54461">
        <ele>2035</ele>
        <time>2022-03-06T12:10:32Z</time>
      </trkpt>
      <trkpt lat="45.96351" lon="6.54463">
        <ele>2035</ele>
        <time>2022-03-06T12:10:36Z</time>
      </trkpt>
      <trkpt lat="45.96352" lon="6.54465">
        <ele>2035</ele>
        <time>2022-03-06T12:10:40Z</time>
      </trkpt>
      <trkpt lat="45.96353" lon="6.54468">
        <ele>2035</ele>
        <time>2022-03-06T12:10:52Z</time>
      </trkpt>
      <trkpt lat="45.96354" lon="6.5447">
        <ele>2034</ele>
        <time>2022-03-06T12:11:00Z</time>
      </trkpt>
      <trkpt lat="45.96356" lon="6.54472">
        <ele>2033</ele>
        <time>2022-03-06T12:11:06Z</time>
      </trkpt>
      <trkpt lat="45.96358" lon="6.54474">
        <ele>2032</ele>
        <time>2022-03-06T12:11:09Z</time>
      </trkpt>
      <trkpt lat="45.96359" lon="6.54475">
        <ele>2031</ele>
        <time>2022-03-06T12:11:13Z</time>
      </trkpt>
      <trkpt lat="45.96357" lon="6.54475">
        <ele>2033</ele>
        <time>2022-03-06T12:11:32Z</time>
      </trkpt>
      <trkpt lat="45.96355" lon="6.54475">
        <ele>2034</ele>
        <time>2022-03-06T12:11:36Z</time>
      </trkpt>
      <trkpt lat="45.96353" lon="6.54476">
        <ele>2036</ele>
        <time>2022-03-06T12:11:40Z</time>
      </trkpt>
      <trkpt lat="45.96351" lon="6.54476">
        <ele>2037</ele>
        <time>2022-03-06T12:11:45Z</time>
      </trkpt>
      <trkpt lat="45.96349" lon="6.54475">
        <ele>2039</ele>
        <time>2022-03-06T12:11:49Z</time>
      </trkpt>
      <trkpt lat="45.96347" lon="6.54475">
        <ele>2040</ele>
        <time>2022-03-06T12:11:54Z</time>
      </trkpt>
      <trkpt lat="45.96345" lon="6.54475">
        <ele>2042</ele>
        <time>2022-03-06T12:11:58Z</time>
      </trkpt>
      <trkpt lat="45.96343" lon="6.54475">
        <ele>2043</ele>
        <time>2022-03-06T12:12:02Z</time>
      </trkpt>
      <trkpt lat="45.96342" lon="6.54477">
        <ele>2044</ele>
        <time>2022-03-06T12:12:08Z</time>
      </trkpt>
      <trkpt lat="45.96344" lon="6.54479">
        <ele>2043</ele>
        <time>2022-03-06T12:12:13Z</time>
      </trkpt>
      <trkpt lat="45.96345" lon="6.54481">
        <ele>2042</ele>
        <time>2022-03-06T12:12:17Z</time>
      </trkpt>
      <trkpt lat="45.96347" lon="6.54483">
        <ele>2042</ele>
        <time>2022-03-06T12:12:21Z</time>
      </trkpt>
      <trkpt lat="45.96348" lon="6.54485">
        <ele>2041</ele>
        <time>2022-03-06T12:12:24Z</time>
      </trkpt>
      <trkpt lat="45.9635" lon="6.54487">
        <ele>2040</ele>
        <time>2022-03-06T12:12:28Z</time>
      </trkpt>
      <trkpt lat="45.96352" lon="6.54489">
        <ele>2039</ele>
        <time>2022-03-06T12:12:32Z</time>
      </trkpt>
      <trkpt lat="45.96353" lon="6.54491">
        <ele>2039</ele>
        <time>2022-03-06T12:12:35Z</time>
      </trkpt>
      <trkpt lat="45.96354" lon="6.54493">
        <ele>2038</ele>
        <time>2022-03-06T12:12:38Z</time>
      </trkpt>
      <trkpt lat="45.96356" lon="6.54495">
        <ele>2037</ele>
        <time>2022-03-06T12:12:41Z</time>
      </trkpt>
      <trkpt lat="45.96357" lon="6.54497">
        <ele>2036</ele>
        <time>2022-03-06T12:12:45Z</time>
      </trkpt>
      <trkpt lat="45.96359" lon="6.54499">
        <ele>2036</ele>
        <time>2022-03-06T12:12:48Z</time>
      </trkpt>
      <trkpt lat="45.96361" lon="6.54501">
        <ele>2035</ele>
        <time>2022-03-06T12:12:53Z</time>
      </trkpt>
      <trkpt lat="45.96363" lon="6.54503">
        <ele>2035</ele>
        <time>2022-03-06T12:12:57Z</time>
      </trkpt>
      <trkpt lat="45.96364" lon="6.54505">
        <ele>2036</ele>
        <time>2022-03-06T12:13:01Z</time>
      </trkpt>
      <trkpt lat="45.96366" lon="6.54507">
        <ele>2036</ele>
        <time>2022-03-06T12:13:04Z</time>
      </trkpt>
      <trkpt lat="45.96367" lon="6.5451">
        <ele>2037</ele>
        <time>2022-03-06T12:13:08Z</time>
      </trkpt>
      <trkpt lat="45.96368" lon="6.54512">
        <ele>2038</ele>
        <time>2022-03-06T12:13:12Z</time>
      </trkpt>
      <trkpt lat="45.96368" lon="6.54515">
        <ele>2038</ele>
        <time>2022-03-06T12:13:16Z</time>
      </trkpt>
      <trkpt lat="45.96369" lon="6.54517">
        <ele>2039</ele>
        <time>2022-03-06T12:13:20Z</time>
      </trkpt>
      <trkpt lat="45.9637" lon="6.5452">
        <ele>2040</ele>
        <time>2022-03-06T12:13:24Z</time>
      </trkpt>
      <trkpt lat="45.9637" lon="6.54523">
        <ele>2041</ele>
        <time>2022-03-06T12:13:28Z</time>
      </trkpt>
      <trkpt lat="45.9637" lon="6.54526">
        <ele>2042</ele>
        <time>2022-03-06T12:13:32Z</time>
      </trkpt>
      <trkpt lat="45.96371" lon="6.54529">
        <ele>2043</ele>
        <time>2022-03-06T12:13:56Z</time>
      </trkpt>
      <trkpt lat="45.9637" lon="6.54531">
        <ele>2044</ele>
        <time>2022-03-06T12:14:00Z</time>
      </trkpt>
      <trkpt lat="45.96368" lon="6.54534">
        <ele>2045</ele>
        <time>2022-03-06T12:14:03Z</time>
      </trkpt>
      <trkpt lat="45.96367" lon="6.54536">
        <ele>2046</ele>
        <time>2022-03-06T12:14:06Z</time>
      </trkpt>
      <trkpt lat="45.96366" lon="6.54538">
        <ele>2047</ele>
        <time>2022-03-06T12:14:09Z</time>
      </trkpt>
      <trkpt lat="45.96365" lon="6.54541">
        <ele>2048</ele>
        <time>2022-03-06T12:14:13Z</time>
      </trkpt>
      <trkpt lat="45.96363" lon="6.54543">
        <ele>2049</ele>
        <time>2022-03-06T12:14:16Z</time>
      </trkpt>
      <trkpt lat="45.96362" lon="6.54545">
        <ele>2051</ele>
        <time>2022-03-06T12:14:19Z</time>
      </trkpt>
      <trkpt lat="45.96361" lon="6.54547">
        <ele>2052</ele>
        <time>2022-03-06T12:14:22Z</time>
      </trkpt>
      <trkpt lat="45.9636" lon="6.5455">
        <ele>2053</ele>
        <time>2022-03-06T12:14:25Z</time>
      </trkpt>
      <trkpt lat="45.96358" lon="6.54552">
        <ele>2054</ele>
        <time>2022-03-06T12:14:29Z</time>
      </trkpt>
      <trkpt lat="45.96358" lon="6.54555">
        <ele>2055</ele>
        <time>2022-03-06T12:14:32Z</time>
      </trkpt>
      <trkpt lat="45.96357" lon="6.54558">
        <ele>2056</ele>
        <time>2022-03-06T12:14:36Z</time>
      </trkpt>
      <trkpt lat="45.96357" lon="6.54561">
        <ele>2057</ele>
        <time>2022-03-06T12:14:39Z</time>
      </trkpt>
      <trkpt lat="45.96357" lon="6.54563">
        <ele>2057</ele>
        <time>2022-03-06T12:14:42Z</time>
      </trkpt>
      <trkpt lat="45.96357" lon="6.54566">
        <ele>2058</ele>
        <time>2022-03-06T12:14:45Z</time>
      </trkpt>
      <trkpt lat="45.96357" lon="6.54569">
        <ele>2058</ele>
        <time>2022-03-06T12:14:48Z</time>
      </trkpt>
      <trkpt lat="45.96357" lon="6.54572">
        <ele>2059</ele>
        <time>2022-03-06T12:14:51Z</time>
      </trkpt>
      <trkpt lat="45.96357" lon="6.54574">
        <ele>2059</ele>
        <time>2022-03-06T12:14:54Z</time>
      </trkpt>
      <trkpt lat="45.96358" lon="6.54577">
        <ele>2059</ele>
        <time>2022-03-06T12:14:58Z</time>
      </trkpt>
      <trkpt lat="45.96359" lon="6.5458">
        <ele>2060</ele>
        <time>2022-03-06T12:15:01Z</time>
      </trkpt>
      <trkpt lat="45.96361" lon="6.54582">
        <ele>2059</ele>
        <time>2022-03-06T12:15:04Z</time>
      </trkpt>
      <trkpt lat="45.96362" lon="6.54585">
        <ele>2060</ele>
        <time>2022-03-06T12:15:07Z</time>
      </trkpt>
      <trkpt lat="45.96363" lon="6.54588">
        <ele>2060</ele>
        <time>2022-03-06T12:15:11Z</time>
      </trkpt>
      <trkpt lat="45.96364" lon="6.5459">
        <ele>2060</ele>
        <time>2022-03-06T12:15:15Z</time>
      </trkpt>
      <trkpt lat="45.96365" lon="6.54592">
        <ele>2060</ele>
        <time>2022-03-06T12:15:19Z</time>
      </trkpt>
      <trkpt lat="45.96366" lon="6.54595">
        <ele>2060</ele>
        <time>2022-03-06T12:15:24Z</time>
      </trkpt>
      <trkpt lat="45.96365" lon="6.54597">
        <ele>2061</ele>
        <time>2022-03-06T12:16:32Z</time>
      </trkpt>
      <trkpt lat="45.96363" lon="6.54598">
        <ele>2062</ele>
        <time>2022-03-06T12:16:35Z</time>
      </trkpt>
      <trkpt lat="45.96361" lon="6.54599">
        <ele>2062</ele>
        <time>2022-03-06T12:16:39Z</time>
      </trkpt>
      <trkpt lat="45.96359" lon="6.54599">
        <ele>2063</ele>
        <time>2022-03-06T12:16:43Z</time>
      </trkpt>
      <trkpt lat="45.96357" lon="6.54599">
        <ele>2064</ele>
        <time>2022-03-06T12:16:47Z</time>
      </trkpt>
      <trkpt lat="45.96354" lon="6.54599">
        <ele>2065</ele>
        <time>2022-03-06T12:16:51Z</time>
      </trkpt>
      <trkpt lat="45.96352" lon="6.54599">
        <ele>2066</ele>
        <time>2022-03-06T12:16:55Z</time>
      </trkpt>
      <trkpt lat="45.96352" lon="6.54602">
        <ele>2066</ele>
        <time>2022-03-06T12:17:00Z</time>
      </trkpt>
      <trkpt lat="45.96353" lon="6.54604">
        <ele>2066</ele>
        <time>2022-03-06T12:17:03Z</time>
      </trkpt>
      <trkpt lat="45.96354" lon="6.54607">
        <ele>2066</ele>
        <time>2022-03-06T12:17:07Z</time>
      </trkpt>
      <trkpt lat="45.96355" lon="6.5461">
        <ele>2067</ele>
        <time>2022-03-06T12:17:11Z</time>
      </trkpt>
      <trkpt lat="45.96355" lon="6.54613">
        <ele>2067</ele>
        <time>2022-03-06T12:17:14Z</time>
      </trkpt>
      <trkpt lat="45.96356" lon="6.54616">
        <ele>2068</ele>
        <time>2022-03-06T12:17:18Z</time>
      </trkpt>
      <trkpt lat="45.96356" lon="6.54619">
        <ele>2068</ele>
        <time>2022-03-06T12:17:22Z</time>
      </trkpt>
      <trkpt lat="45.96356" lon="6.54622">
        <ele>2069</ele>
        <time>2022-03-06T12:17:26Z</time>
      </trkpt>
      <trkpt lat="45.96356" lon="6.54625">
        <ele>2070</ele>
        <time>2022-03-06T12:17:30Z</time>
      </trkpt>
      <trkpt lat="45.96355" lon="6.54628">
        <ele>2070</ele>
        <time>2022-03-06T12:17:34Z</time>
      </trkpt>
      <trkpt lat="45.96354" lon="6.54631">
        <ele>2071</ele>
        <time>2022-03-06T12:17:38Z</time>
      </trkpt>
      <trkpt lat="45.96354" lon="6.54634">
        <ele>2072</ele>
        <time>2022-03-06T12:18:07Z</time>
      </trkpt>
      <trkpt lat="45.96353" lon="6.54638">
        <ele>2073</ele>
        <time>2022-03-06T12:18:11Z</time>
      </trkpt>
      <trkpt lat="45.96353" lon="6.54641">
        <ele>2074</ele>
        <time>2022-03-06T12:18:14Z</time>
      </trkpt>
      <trkpt lat="45.96352" lon="6.54643">
        <ele>2074</ele>
        <time>2022-03-06T12:18:17Z</time>
      </trkpt>
      <trkpt lat="45.96352" lon="6.54647">
        <ele>2075</ele>
        <time>2022-03-06T12:18:21Z</time>
      </trkpt>
      <trkpt lat="45.96352" lon="6.5465">
        <ele>2076</ele>
        <time>2022-03-06T12:18:24Z</time>
      </trkpt>
      <trkpt lat="45.96352" lon="6.54652">
        <ele>2076</ele>
        <time>2022-03-06T12:18:28Z</time>
      </trkpt>
      <trkpt lat="45.96352" lon="6.54655">
        <ele>2077</ele>
        <time>2022-03-06T12:18:32Z</time>
      </trkpt>
      <trkpt lat="45.96352" lon="6.54658">
        <ele>2078</ele>
        <time>2022-03-06T12:18:36Z</time>
      </trkpt>
      <trkpt lat="45.96352" lon="6.54661">
        <ele>2078</ele>
        <time>2022-03-06T12:18:40Z</time>
      </trkpt>
      <trkpt lat="45.96351" lon="6.54664">
        <ele>2079</ele>
        <time>2022-03-06T12:18:44Z</time>
      </trkpt>
      <trkpt lat="45.9635" lon="6.54667">
        <ele>2080</ele>
        <time>2022-03-06T12:18:48Z</time>
      </trkpt>
      <trkpt lat="45.96349" lon="6.54671">
        <ele>2081</ele>
        <time>2022-03-06T12:18:52Z</time>
      </trkpt>
      <trkpt lat="45.96349" lon="6.54673">
        <ele>2082</ele>
        <time>2022-03-06T12:18:56Z</time>
      </trkpt>
      <trkpt lat="45.96348" lon="6.54676">
        <ele>2083</ele>
        <time>2022-03-06T12:19:00Z</time>
      </trkpt>
      <trkpt lat="45.96347" lon="6.54679">
        <ele>2084</ele>
        <time>2022-03-06T12:19:04Z</time>
      </trkpt>
      <trkpt lat="45.96346" lon="6.54681">
        <ele>2084</ele>
        <time>2022-03-06T12:19:08Z</time>
      </trkpt>
      <trkpt lat="45.96344" lon="6.54683">
        <ele>2085</ele>
        <time>2022-03-06T12:19:13Z</time>
      </trkpt>
      <trkpt lat="45.96342" lon="6.54682">
        <ele>2086</ele>
        <time>2022-03-06T12:19:19Z</time>
      </trkpt>
      <trkpt lat="45.96341" lon="6.5468">
        <ele>2085</ele>
        <time>2022-03-06T12:19:22Z</time>
      </trkpt>
      <trkpt lat="45.96339" lon="6.54678">
        <ele>2085</ele>
        <time>2022-03-06T12:19:25Z</time>
      </trkpt>
      <trkpt lat="45.96338" lon="6.54676">
        <ele>2085</ele>
        <time>2022-03-06T12:19:28Z</time>
      </trkpt>
      <trkpt lat="45.96336" lon="6.54674">
        <ele>2085</ele>
        <time>2022-03-06T12:19:32Z</time>
      </trkpt>
      <trkpt lat="45.96334" lon="6.54673">
        <ele>2085</ele>
        <time>2022-03-06T12:19:35Z</time>
      </trkpt>
      <trkpt lat="45.96333" lon="6.54673">
        <ele>2085</ele>
        <time>2022-03-06T12:19:38Z</time>
      </trkpt>
      <trkpt lat="45.96331" lon="6.54673">
        <ele>2086</ele>
        <time>2022-03-06T12:19:42Z</time>
      </trkpt>
      <trkpt lat="45.96329" lon="6.54676">
        <ele>2087</ele>
        <time>2022-03-06T12:19:46Z</time>
      </trkpt>
      <trkpt lat="45.96328" lon="6.54678">
        <ele>2088</ele>
        <time>2022-03-06T12:19:50Z</time>
      </trkpt>
      <trkpt lat="45.96327" lon="6.54681">
        <ele>2089</ele>
        <time>2022-03-06T12:19:53Z</time>
      </trkpt>
      <trkpt lat="45.96326" lon="6.54683">
        <ele>2090</ele>
        <time>2022-03-06T12:19:57Z</time>
      </trkpt>
      <trkpt lat="45.96324" lon="6.54685">
        <ele>2091</ele>
        <time>2022-03-06T12:20:01Z</time>
      </trkpt>
      <trkpt lat="45.96323" lon="6.54688">
        <ele>2092</ele>
        <time>2022-03-06T12:20:05Z</time>
      </trkpt>
      <trkpt lat="45.96321" lon="6.5469">
        <ele>2093</ele>
        <time>2022-03-06T12:20:09Z</time>
      </trkpt>
      <trkpt lat="45.9632" lon="6.54692">
        <ele>2094</ele>
        <time>2022-03-06T12:20:12Z</time>
      </trkpt>
      <trkpt lat="45.96319" lon="6.54695">
        <ele>2095</ele>
        <time>2022-03-06T12:20:16Z</time>
      </trkpt>
      <trkpt lat="45.96318" lon="6.54697">
        <ele>2096</ele>
        <time>2022-03-06T12:20:20Z</time>
      </trkpt>
      <trkpt lat="45.96317" lon="6.54699">
        <ele>2097</ele>
        <time>2022-03-06T12:20:24Z</time>
      </trkpt>
      <trkpt lat="45.96316" lon="6.54701">
        <ele>2098</ele>
        <time>2022-03-06T12:20:28Z</time>
      </trkpt>
      <trkpt lat="45.96315" lon="6.54704">
        <ele>2099</ele>
        <time>2022-03-06T12:20:32Z</time>
      </trkpt>
      <trkpt lat="45.96314" lon="6.54707">
        <ele>2100</ele>
        <time>2022-03-06T12:20:36Z</time>
      </trkpt>
      <trkpt lat="45.96313" lon="6.54709">
        <ele>2101</ele>
        <time>2022-03-06T12:20:40Z</time>
      </trkpt>
      <trkpt lat="45.96311" lon="6.54707">
        <ele>2101</ele>
        <time>2022-03-06T12:20:50Z</time>
      </trkpt>
      <trkpt lat="45.96309" lon="6.54705">
        <ele>2101</ele>
        <time>2022-03-06T12:20:54Z</time>
      </trkpt>
      <trkpt lat="45.96307" lon="6.54703">
        <ele>2101</ele>
        <time>2022-03-06T12:20:58Z</time>
      </trkpt>
      <trkpt lat="45.96306" lon="6.54701">
        <ele>2101</ele>
        <time>2022-03-06T12:21:02Z</time>
      </trkpt>
      <trkpt lat="45.96305" lon="6.54699">
        <ele>2101</ele>
        <time>2022-03-06T12:21:06Z</time>
      </trkpt>
      <trkpt lat="45.96303" lon="6.54696">
        <ele>2101</ele>
        <time>2022-03-06T12:21:10Z</time>
      </trkpt>
      <trkpt lat="45.96302" lon="6.54697">
        <ele>2102</ele>
        <time>2022-03-06T12:21:15Z</time>
      </trkpt>
      <trkpt lat="45.96301" lon="6.54701">
        <ele>2103</ele>
        <time>2022-03-06T12:21:19Z</time>
      </trkpt>
      <trkpt lat="45.96301" lon="6.54703">
        <ele>2104</ele>
        <time>2022-03-06T12:21:22Z</time>
      </trkpt>
      <trkpt lat="45.96301" lon="6.54706">
        <ele>2105</ele>
        <time>2022-03-06T12:21:26Z</time>
      </trkpt>
      <trkpt lat="45.963" lon="6.54709">
        <ele>2106</ele>
        <time>2022-03-06T12:21:30Z</time>
      </trkpt>
      <trkpt lat="45.963" lon="6.54712">
        <ele>2107</ele>
        <time>2022-03-06T12:21:34Z</time>
      </trkpt>
      <trkpt lat="45.96299" lon="6.54714">
        <ele>2108</ele>
        <time>2022-03-06T12:21:38Z</time>
      </trkpt>
      <trkpt lat="45.96299" lon="6.54717">
        <ele>2109</ele>
        <time>2022-03-06T12:21:42Z</time>
      </trkpt>
      <trkpt lat="45.96299" lon="6.5472">
        <ele>2109</ele>
        <time>2022-03-06T12:21:46Z</time>
      </trkpt>
      <trkpt lat="45.96299" lon="6.54723">
        <ele>2110</ele>
        <time>2022-03-06T12:21:50Z</time>
      </trkpt>
      <trkpt lat="45.963" lon="6.54725">
        <ele>2111</ele>
        <time>2022-03-06T12:21:54Z</time>
      </trkpt>
      <trkpt lat="45.963" lon="6.54728">
        <ele>2111</ele>
        <time>2022-03-06T12:21:59Z</time>
      </trkpt>
      <trkpt lat="45.963" lon="6.54732">
        <ele>2112</ele>
        <time>2022-03-06T12:22:06Z</time>
      </trkpt>
      <trkpt lat="45.963" lon="6.54734">
        <ele>2113</ele>
        <time>2022-03-06T12:22:16Z</time>
      </trkpt>
      <trkpt lat="45.96299" lon="6.54737">
        <ele>2115</ele>
        <time>2022-03-06T12:22:21Z</time>
      </trkpt>
      <trkpt lat="45.96299" lon="6.54741">
        <ele>2116</ele>
        <time>2022-03-06T12:22:25Z</time>
      </trkpt>
      <trkpt lat="45.96298" lon="6.54743">
        <ele>2117</ele>
        <time>2022-03-06T12:22:28Z</time>
      </trkpt>
      <trkpt lat="45.96298" lon="6.54746">
        <ele>2118</ele>
        <time>2022-03-06T12:22:32Z</time>
      </trkpt>
      <trkpt lat="45.96297" lon="6.54749">
        <ele>2120</ele>
        <time>2022-03-06T12:22:36Z</time>
      </trkpt>
      <trkpt lat="45.96297" lon="6.54751">
        <ele>2121</ele>
        <time>2022-03-06T12:22:40Z</time>
      </trkpt>
      <trkpt lat="45.96296" lon="6.54754">
        <ele>2122</ele>
        <time>2022-03-06T12:22:45Z</time>
      </trkpt>
      <trkpt lat="45.96296" lon="6.54757">
        <ele>2123</ele>
        <time>2022-03-06T12:22:49Z</time>
      </trkpt>
      <trkpt lat="45.96294" lon="6.54757">
        <ele>2124</ele>
        <time>2022-03-06T12:22:59Z</time>
      </trkpt>
      <trkpt lat="45.96292" lon="6.54755">
        <ele>2125</ele>
        <time>2022-03-06T12:23:03Z</time>
      </trkpt>
      <trkpt lat="45.9629" lon="6.54753">
        <ele>2125</ele>
        <time>2022-03-06T12:23:07Z</time>
      </trkpt>
      <trkpt lat="45.96288" lon="6.54752">
        <ele>2126</ele>
        <time>2022-03-06T12:23:10Z</time>
      </trkpt>
      <trkpt lat="45.96287" lon="6.54751">
        <ele>2127</ele>
        <time>2022-03-06T12:23:15Z</time>
      </trkpt>
      <trkpt lat="45.96286" lon="6.54753">
        <ele>2129</ele>
        <time>2022-03-06T12:23:21Z</time>
      </trkpt>
      <trkpt lat="45.96285" lon="6.54756">
        <ele>2131</ele>
        <time>2022-03-06T12:23:31Z</time>
      </trkpt>
      <trkpt lat="45.96284" lon="6.54759">
        <ele>2132</ele>
        <time>2022-03-06T12:23:36Z</time>
      </trkpt>
      <trkpt lat="45.96284" lon="6.54762">
        <ele>2134</ele>
        <time>2022-03-06T12:23:40Z</time>
      </trkpt>
      <trkpt lat="45.96283" lon="6.54765">
        <ele>2136</ele>
        <time>2022-03-06T12:23:43Z</time>
      </trkpt>
      <trkpt lat="45.96284" lon="6.54768">
        <ele>2137</ele>
        <time>2022-03-06T12:23:47Z</time>
      </trkpt>
      <trkpt lat="45.96284" lon="6.54771">
        <ele>2138</ele>
        <time>2022-03-06T12:23:51Z</time>
      </trkpt>
      <trkpt lat="45.96284" lon="6.54773">
        <ele>2139</ele>
        <time>2022-03-06T12:23:54Z</time>
      </trkpt>
      <trkpt lat="45.96284" lon="6.54776">
        <ele>2140</ele>
        <time>2022-03-06T12:23:57Z</time>
      </trkpt>
      <trkpt lat="45.96284" lon="6.54779">
        <ele>2141</ele>
        <time>2022-03-06T12:24:01Z</time>
      </trkpt>
      <trkpt lat="45.96284" lon="6.54782">
        <ele>2142</ele>
        <time>2022-03-06T12:24:05Z</time>
      </trkpt>
      <trkpt lat="45.96285" lon="6.54784">
        <ele>2142</ele>
        <time>2022-03-06T12:24:09Z</time>
      </trkpt>
      <trkpt lat="45.96286" lon="6.54787">
        <ele>2142</ele>
        <time>2022-03-06T12:24:13Z</time>
      </trkpt>
      <trkpt lat="45.96285" lon="6.5479">
        <ele>2143</ele>
        <time>2022-03-06T12:24:17Z</time>
      </trkpt>
      <trkpt lat="45.96286" lon="6.54793">
        <ele>2143</ele>
        <time>2022-03-06T12:24:36Z</time>
      </trkpt>
      <trkpt lat="45.96286" lon="6.54796">
        <ele>2143</ele>
        <time>2022-03-06T12:24:41Z</time>
      </trkpt>
      <trkpt lat="45.96286" lon="6.54799">
        <ele>2144</ele>
        <time>2022-03-06T12:24:46Z</time>
      </trkpt>
      <trkpt lat="45.96286" lon="6.54802">
        <ele>2144</ele>
        <time>2022-03-06T12:24:51Z</time>
      </trkpt>
      <trkpt lat="45.96285" lon="6.54804">
        <ele>2146</ele>
        <time>2022-03-06T12:24:58Z</time>
      </trkpt>
      <trkpt lat="45.96285" lon="6.54807">
        <ele>2147</ele>
        <time>2022-03-06T12:25:12Z</time>
      </trkpt>
      <trkpt lat="45.96283" lon="6.54809">
        <ele>2149</ele>
        <time>2022-03-06T12:25:18Z</time>
      </trkpt>
      <trkpt lat="45.96282" lon="6.5481">
        <ele>2151</ele>
        <time>2022-03-06T12:25:43Z</time>
      </trkpt>
      <trkpt lat="45.96281" lon="6.54813">
        <ele>2152</ele>
        <time>2022-03-06T12:25:47Z</time>
      </trkpt>
      <trkpt lat="45.96281" lon="6.54816">
        <ele>2154</ele>
        <time>2022-03-06T12:25:55Z</time>
      </trkpt>
      <trkpt lat="45.96281" lon="6.54819">
        <ele>2155</ele>
        <time>2022-03-06T12:25:58Z</time>
      </trkpt>
      <trkpt lat="45.96281" lon="6.54822">
        <ele>2156</ele>
        <time>2022-03-06T12:26:02Z</time>
      </trkpt>
      <trkpt lat="45.96281" lon="6.54825">
        <ele>2157</ele>
        <time>2022-03-06T12:26:06Z</time>
      </trkpt>
      <trkpt lat="45.96281" lon="6.54828">
        <ele>2159</ele>
        <time>2022-03-06T12:26:10Z</time>
      </trkpt>
      <trkpt lat="45.96281" lon="6.54832">
        <ele>2160</ele>
        <time>2022-03-06T12:26:15Z</time>
      </trkpt>
      <trkpt lat="45.96281" lon="6.54834">
        <ele>2161</ele>
        <time>2022-03-06T12:26:19Z</time>
      </trkpt>
      <trkpt lat="45.96282" lon="6.54837">
        <ele>2161</ele>
        <time>2022-03-06T12:26:24Z</time>
      </trkpt>
      <trkpt lat="45.96282" lon="6.5484">
        <ele>2160</ele>
        <time>2022-03-06T12:26:29Z</time>
      </trkpt>
      <trkpt lat="45.96283" lon="6.54843">
        <ele>2160</ele>
        <time>2022-03-06T12:26:33Z</time>
      </trkpt>
      <trkpt lat="45.96281" lon="6.54842">
        <ele>2161</ele>
        <time>2022-03-06T12:26:48Z</time>
      </trkpt>
      <trkpt lat="45.96279" lon="6.5484">
        <ele>2163</ele>
        <time>2022-03-06T12:26:51Z</time>
      </trkpt>
      <trkpt lat="45.96278" lon="6.54838">
        <ele>2163</ele>
        <time>2022-03-06T12:26:53Z</time>
      </trkpt>
      <trkpt lat="45.96277" lon="6.54836">
        <ele>2164</ele>
        <time>2022-03-06T12:26:56Z</time>
      </trkpt>
      <trkpt lat="45.96275" lon="6.54834">
        <ele>2164</ele>
        <time>2022-03-06T12:27:00Z</time>
      </trkpt>
      <trkpt lat="45.96273" lon="6.54832">
        <ele>2163</ele>
        <time>2022-03-06T12:27:05Z</time>
      </trkpt>
      <trkpt lat="45.96271" lon="6.5483">
        <ele>2163</ele>
        <time>2022-03-06T12:27:10Z</time>
      </trkpt>
      <trkpt lat="45.96272" lon="6.54833">
        <ele>2164</ele>
        <time>2022-03-06T12:27:17Z</time>
      </trkpt>
      <trkpt lat="45.96272" lon="6.54836">
        <ele>2164</ele>
        <time>2022-03-06T12:27:25Z</time>
      </trkpt>
      <trkpt lat="45.96272" lon="6.54839">
        <ele>2165</ele>
        <time>2022-03-06T12:27:28Z</time>
      </trkpt>
      <trkpt lat="45.9627" lon="6.54837">
        <ele>2165</ele>
        <time>2022-03-06T12:27:43Z</time>
      </trkpt>
      <trkpt lat="45.96269" lon="6.54835">
        <ele>2165</ele>
        <time>2022-03-06T12:27:47Z</time>
      </trkpt>
      <trkpt lat="45.96267" lon="6.54833">
        <ele>2164</ele>
        <time>2022-03-06T12:27:53Z</time>
      </trkpt>
      <trkpt lat="45.96265" lon="6.54833">
        <ele>2165</ele>
        <time>2022-03-06T12:28:02Z</time>
      </trkpt>
      <trkpt lat="45.96264" lon="6.54836">
        <ele>2165</ele>
        <time>2022-03-06T12:28:23Z</time>
      </trkpt>
      <trkpt lat="45.96263" lon="6.54839">
        <ele>2166</ele>
        <time>2022-03-06T12:28:27Z</time>
      </trkpt>
      <trkpt lat="45.96262" lon="6.54842">
        <ele>2166</ele>
        <time>2022-03-06T12:28:31Z</time>
      </trkpt>
      <trkpt lat="45.96261" lon="6.54843">
        <ele>2167</ele>
        <time>2022-03-06T12:28:36Z</time>
      </trkpt>
      <trkpt lat="45.96259" lon="6.54841">
        <ele>2167</ele>
        <time>2022-03-06T12:28:40Z</time>
      </trkpt>
      <trkpt lat="45.96257" lon="6.5484">
        <ele>2167</ele>
        <time>2022-03-06T12:28:44Z</time>
      </trkpt>
      <trkpt lat="45.96255" lon="6.54841">
        <ele>2167</ele>
        <time>2022-03-06T12:28:47Z</time>
      </trkpt>
      <trkpt lat="45.96254" lon="6.54843">
        <ele>2168</ele>
        <time>2022-03-06T12:28:55Z</time>
      </trkpt>
      <trkpt lat="45.96253" lon="6.54846">
        <ele>2169</ele>
        <time>2022-03-06T12:28:59Z</time>
      </trkpt>
      <trkpt lat="45.96251" lon="6.54847">
        <ele>2170</ele>
        <time>2022-03-06T12:29:03Z</time>
      </trkpt>
      <trkpt lat="45.9625" lon="6.54849">
        <ele>2171</ele>
        <time>2022-03-06T12:29:07Z</time>
      </trkpt>
      <trkpt lat="45.96249" lon="6.54852">
        <ele>2171</ele>
        <time>2022-03-06T12:29:19Z</time>
      </trkpt>
      <trkpt lat="45.96247" lon="6.54853">
        <ele>2172</ele>
        <time>2022-03-06T12:29:26Z</time>
      </trkpt>
      <trkpt lat="45.96245" lon="6.54854">
        <ele>2172</ele>
        <time>2022-03-06T12:29:33Z</time>
      </trkpt>
      <trkpt lat="45.96243" lon="6.54854">
        <ele>2173</ele>
        <time>2022-03-06T12:29:37Z</time>
      </trkpt>
      <trkpt lat="45.96241" lon="6.54855">
        <ele>2173</ele>
        <time>2022-03-06T12:29:42Z</time>
      </trkpt>
      <trkpt lat="45.96239" lon="6.54854">
        <ele>2173</ele>
        <time>2022-03-06T12:29:46Z</time>
      </trkpt>
      <trkpt lat="45.96237" lon="6.54854">
        <ele>2173</ele>
        <time>2022-03-06T12:29:50Z</time>
      </trkpt>
      <trkpt lat="45.96235" lon="6.54854">
        <ele>2173</ele>
        <time>2022-03-06T12:29:55Z</time>
      </trkpt>
      <trkpt lat="45.96233" lon="6.54855">
        <ele>2174</ele>
        <time>2022-03-06T12:30:03Z</time>
      </trkpt>
      <trkpt lat="45.96231" lon="6.54855">
        <ele>2174</ele>
        <time>2022-03-06T12:30:16Z</time>
      </trkpt>
      <trkpt lat="45.96229" lon="6.54856">
        <ele>2175</ele>
        <time>2022-03-06T12:30:20Z</time>
      </trkpt>
      <trkpt lat="45.96227" lon="6.54856">
        <ele>2175</ele>
        <time>2022-03-06T12:30:25Z</time>
      </trkpt>
      <trkpt lat="45.96225" lon="6.54856">
        <ele>2175</ele>
        <time>2022-03-06T12:30:28Z</time>
      </trkpt>
      <trkpt lat="45.96223" lon="6.54855">
        <ele>2175</ele>
        <time>2022-03-06T12:30:31Z</time>
      </trkpt>
      <trkpt lat="45.96221" lon="6.54855">
        <ele>2175</ele>
        <time>2022-03-06T12:30:34Z</time>
      </trkpt>
      <trkpt lat="45.96219" lon="6.54855">
        <ele>2176</ele>
        <time>2022-03-06T12:30:37Z</time>
      </trkpt>
      <trkpt lat="45.96217" lon="6.54855">
        <ele>2177</ele>
        <time>2022-03-06T12:30:41Z</time>
      </trkpt>
      <trkpt lat="45.96215" lon="6.54855">
        <ele>2178</ele>
        <time>2022-03-06T12:30:44Z</time>
      </trkpt>
      <trkpt lat="45.96213" lon="6.54855">
        <ele>2180</ele>
        <time>2022-03-06T12:30:52Z</time>
      </trkpt>
      <trkpt lat="45.96211" lon="6.54856">
        <ele>2181</ele>
        <time>2022-03-06T12:30:56Z</time>
      </trkpt>
      <trkpt lat="45.96209" lon="6.54856">
        <ele>2182</ele>
        <time>2022-03-06T12:31:00Z</time>
      </trkpt>
      <trkpt lat="45.96207" lon="6.54856">
        <ele>2183</ele>
        <time>2022-03-06T12:31:04Z</time>
      </trkpt>
      <trkpt lat="45.96205" lon="6.54855">
        <ele>2183</ele>
        <time>2022-03-06T12:31:08Z</time>
      </trkpt>
      <trkpt lat="45.96204" lon="6.54853">
        <ele>2183</ele>
        <time>2022-03-06T12:31:11Z</time>
      </trkpt>
      <trkpt lat="45.96202" lon="6.54851">
        <ele>2183</ele>
        <time>2022-03-06T12:31:15Z</time>
      </trkpt>
      <trkpt lat="45.962" lon="6.54849">
        <ele>2183</ele>
        <time>2022-03-06T12:31:19Z</time>
      </trkpt>
      <trkpt lat="45.96198" lon="6.54848">
        <ele>2184</ele>
        <time>2022-03-06T12:31:24Z</time>
      </trkpt>
      <trkpt lat="45.96197" lon="6.54846">
        <ele>2184</ele>
        <time>2022-03-06T12:31:28Z</time>
      </trkpt>
      <trkpt lat="45.96195" lon="6.54845">
        <ele>2184</ele>
        <time>2022-03-06T12:31:31Z</time>
      </trkpt>
      <trkpt lat="45.96193" lon="6.54844">
        <ele>2184</ele>
        <time>2022-03-06T12:31:34Z</time>
      </trkpt>
      <trkpt lat="45.96191" lon="6.54843">
        <ele>2184</ele>
        <time>2022-03-06T12:31:38Z</time>
      </trkpt>
      <trkpt lat="45.9619" lon="6.54841">
        <ele>2184</ele>
        <time>2022-03-06T12:31:41Z</time>
      </trkpt>
      <trkpt lat="45.96188" lon="6.54841">
        <ele>2185</ele>
        <time>2022-03-06T12:31:45Z</time>
      </trkpt>
      <trkpt lat="45.96186" lon="6.5484">
        <ele>2185</ele>
        <time>2022-03-06T12:31:49Z</time>
      </trkpt>
      <trkpt lat="45.96184" lon="6.54839">
        <ele>2185</ele>
        <time>2022-03-06T12:31:53Z</time>
      </trkpt>
      <trkpt lat="45.96182" lon="6.54838">
        <ele>2186</ele>
        <time>2022-03-06T12:31:57Z</time>
      </trkpt>
      <trkpt lat="45.9618" lon="6.54837">
        <ele>2186</ele>
        <time>2022-03-06T12:32:02Z</time>
      </trkpt>
      <trkpt lat="45.96178" lon="6.54836">
        <ele>2187</ele>
        <time>2022-03-06T12:32:06Z</time>
      </trkpt>
      <trkpt lat="45.96176" lon="6.54835">
        <ele>2187</ele>
        <time>2022-03-06T12:32:11Z</time>
      </trkpt>
      <trkpt lat="45.96174" lon="6.54834">
        <ele>2188</ele>
        <time>2022-03-06T12:32:15Z</time>
      </trkpt>
      <trkpt lat="45.96172" lon="6.54833">
        <ele>2188</ele>
        <time>2022-03-06T12:32:19Z</time>
      </trkpt>
      <trkpt lat="45.9617" lon="6.54833">
        <ele>2189</ele>
        <time>2022-03-06T12:32:23Z</time>
      </trkpt>
      <trkpt lat="45.96168" lon="6.54832">
        <ele>2189</ele>
        <time>2022-03-06T12:32:27Z</time>
      </trkpt>
      <trkpt lat="45.96166" lon="6.54831">
        <ele>2190</ele>
        <time>2022-03-06T12:32:31Z</time>
      </trkpt>
      <trkpt lat="45.96164" lon="6.54831">
        <ele>2191</ele>
        <time>2022-03-06T12:32:36Z</time>
      </trkpt>
      <trkpt lat="45.96162" lon="6.5483">
        <ele>2191</ele>
        <time>2022-03-06T12:32:40Z</time>
      </trkpt>
      <trkpt lat="45.9616" lon="6.54829">
        <ele>2192</ele>
        <time>2022-03-06T12:32:44Z</time>
      </trkpt>
      <trkpt lat="45.96158" lon="6.54829">
        <ele>2192</ele>
        <time>2022-03-06T12:32:48Z</time>
      </trkpt>
      <trkpt lat="45.96156" lon="6.54828">
        <ele>2193</ele>
        <time>2022-03-06T12:32:52Z</time>
      </trkpt>
      <trkpt lat="45.96154" lon="6.54827">
        <ele>2193</ele>
        <time>2022-03-06T12:32:56Z</time>
      </trkpt>
      <trkpt lat="45.96152" lon="6.54826">
        <ele>2193</ele>
        <time>2022-03-06T12:33:00Z</time>
      </trkpt>
      <trkpt lat="45.9615" lon="6.54825">
        <ele>2193</ele>
        <time>2022-03-06T12:33:04Z</time>
      </trkpt>
      <trkpt lat="45.96148" lon="6.54823">
        <ele>2194</ele>
        <time>2022-03-06T12:33:08Z</time>
      </trkpt>
      <trkpt lat="45.96147" lon="6.54821">
        <ele>2193</ele>
        <time>2022-03-06T12:33:17Z</time>
      </trkpt>
      <trkpt lat="45.96145" lon="6.5482">
        <ele>2194</ele>
        <time>2022-03-06T12:33:21Z</time>
      </trkpt>
      <trkpt lat="45.96143" lon="6.54818">
        <ele>2194</ele>
        <time>2022-03-06T12:33:26Z</time>
      </trkpt>
      <trkpt lat="45.96141" lon="6.54817">
        <ele>2194</ele>
        <time>2022-03-06T12:33:30Z</time>
      </trkpt>
      <trkpt lat="45.9614" lon="6.54815">
        <ele>2194</ele>
        <time>2022-03-06T12:33:33Z</time>
      </trkpt>
      <trkpt lat="45.96138" lon="6.54814">
        <ele>2194</ele>
        <time>2022-03-06T12:33:37Z</time>
      </trkpt>
      <trkpt lat="45.96136" lon="6.54813">
        <ele>2194</ele>
        <time>2022-03-06T12:33:41Z</time>
      </trkpt>
      <trkpt lat="45.96134" lon="6.54812">
        <ele>2194</ele>
        <time>2022-03-06T12:33:46Z</time>
      </trkpt>
      <trkpt lat="45.96132" lon="6.54812">
        <ele>2195</ele>
        <time>2022-03-06T12:33:51Z</time>
      </trkpt>
      <trkpt lat="45.9613" lon="6.54811">
        <ele>2195</ele>
        <time>2022-03-06T12:33:55Z</time>
      </trkpt>
      <trkpt lat="45.96128" lon="6.54811">
        <ele>2196</ele>
        <time>2022-03-06T12:34:01Z</time>
      </trkpt>
      <trkpt lat="45.96126" lon="6.5481">
        <ele>2196</ele>
        <time>2022-03-06T12:34:07Z</time>
      </trkpt>
      <trkpt lat="45.96124" lon="6.54809">
        <ele>2196</ele>
        <time>2022-03-06T12:34:11Z</time>
      </trkpt>
      <trkpt lat="45.96122" lon="6.54808">
        <ele>2197</ele>
        <time>2022-03-06T12:34:20Z</time>
      </trkpt>
      <trkpt lat="45.96121" lon="6.54807">
        <ele>2197</ele>
        <time>2022-03-06T12:34:22Z</time>
      </trkpt>
      <trkpt lat="45.96119" lon="6.54806">
        <ele>2197</ele>
        <time>2022-03-06T12:34:29Z</time>
      </trkpt>
      <trkpt lat="45.96117" lon="6.54805">
        <ele>2197</ele>
        <time>2022-03-06T12:34:33Z</time>
      </trkpt>
      <trkpt lat="45.96115" lon="6.54804">
        <ele>2198</ele>
        <time>2022-03-06T12:34:36Z</time>
      </trkpt>
      <trkpt lat="45.96113" lon="6.54803">
        <ele>2198</ele>
        <time>2022-03-06T12:34:40Z</time>
      </trkpt>
      <trkpt lat="45.96111" lon="6.54803">
        <ele>2199</ele>
        <time>2022-03-06T12:34:44Z</time>
      </trkpt>
      <trkpt lat="45.9611" lon="6.54804">
        <ele>2200</ele>
        <time>2022-03-06T12:34:48Z</time>
      </trkpt>
      <trkpt lat="45.96109" lon="6.54807">
        <ele>2201</ele>
        <time>2022-03-06T12:34:51Z</time>
      </trkpt>
      <trkpt lat="45.96109" lon="6.5481">
        <ele>2202</ele>
        <time>2022-03-06T12:34:56Z</time>
      </trkpt>
      <trkpt lat="45.96109" lon="6.54813">
        <ele>2203</ele>
        <time>2022-03-06T12:35:00Z</time>
      </trkpt>
      <trkpt lat="45.96109" lon="6.54816">
        <ele>2204</ele>
        <time>2022-03-06T12:35:04Z</time>
      </trkpt>
      <trkpt lat="45.9611" lon="6.54819">
        <ele>2204</ele>
        <time>2022-03-06T12:35:08Z</time>
      </trkpt>
      <trkpt lat="45.9611" lon="6.54821">
        <ele>2205</ele>
        <time>2022-03-06T12:35:12Z</time>
      </trkpt>
      <trkpt lat="45.96111" lon="6.54824">
        <ele>2206</ele>
        <time>2022-03-06T12:35:16Z</time>
      </trkpt>
      <trkpt lat="45.96111" lon="6.54827">
        <ele>2207</ele>
        <time>2022-03-06T12:35:20Z</time>
      </trkpt>
      <trkpt lat="45.96109" lon="6.54829">
        <ele>2208</ele>
        <time>2022-03-06T12:35:27Z</time>
      </trkpt>
      <trkpt lat="45.96107" lon="6.54829">
        <ele>2209</ele>
        <time>2022-03-06T12:35:31Z</time>
      </trkpt>
      <trkpt lat="45.96105" lon="6.54829">
        <ele>2210</ele>
        <time>2022-03-06T12:35:35Z</time>
      </trkpt>
      <trkpt lat="45.96103" lon="6.54828">
        <ele>2211</ele>
        <time>2022-03-06T12:35:40Z</time>
      </trkpt>
      <trkpt lat="45.96101" lon="6.54827">
        <ele>2211</ele>
        <time>2022-03-06T12:35:44Z</time>
      </trkpt>
      <trkpt lat="45.96099" lon="6.54827">
        <ele>2212</ele>
        <time>2022-03-06T12:35:49Z</time>
      </trkpt>
      <trkpt lat="45.96097" lon="6.54826">
        <ele>2213</ele>
        <time>2022-03-06T12:35:52Z</time>
      </trkpt>
      <trkpt lat="45.96095" lon="6.54826">
        <ele>2214</ele>
        <time>2022-03-06T12:35:56Z</time>
      </trkpt>
      <trkpt lat="45.96093" lon="6.54826">
        <ele>2215</ele>
        <time>2022-03-06T12:36:00Z</time>
      </trkpt>
      <trkpt lat="45.9609" lon="6.54826">
        <ele>2216</ele>
        <time>2022-03-06T12:36:04Z</time>
      </trkpt>
      <trkpt lat="45.96088" lon="6.54825">
        <ele>2217</ele>
        <time>2022-03-06T12:36:09Z</time>
      </trkpt>
      <trkpt lat="45.96086" lon="6.54825">
        <ele>2218</ele>
        <time>2022-03-06T12:36:13Z</time>
      </trkpt>
      <trkpt lat="45.96085" lon="6.54825">
        <ele>2218</ele>
        <time>2022-03-06T12:36:18Z</time>
      </trkpt>
      <trkpt lat="45.96082" lon="6.54825">
        <ele>2219</ele>
        <time>2022-03-06T12:36:25Z</time>
      </trkpt>
      <trkpt lat="45.96081" lon="6.54828">
        <ele>2220</ele>
        <time>2022-03-06T12:36:44Z</time>
      </trkpt>
      <trkpt lat="45.96082" lon="6.5483">
        <ele>2221</ele>
        <time>2022-03-06T12:36:48Z</time>
      </trkpt>
      <trkpt lat="45.96083" lon="6.54833">
        <ele>2222</ele>
        <time>2022-03-06T12:36:53Z</time>
      </trkpt>
      <trkpt lat="45.96085" lon="6.54835">
        <ele>2221</ele>
        <time>2022-03-06T12:37:02Z</time>
      </trkpt>
      <trkpt lat="45.96085" lon="6.54837">
        <ele>2221</ele>
        <time>2022-03-06T12:37:14Z</time>
      </trkpt>
      <trkpt lat="45.96086" lon="6.5484">
        <ele>2221</ele>
        <time>2022-03-06T12:37:20Z</time>
      </trkpt>
      <trkpt lat="45.96085" lon="6.54843">
        <ele>2222</ele>
        <time>2022-03-06T12:37:28Z</time>
      </trkpt>
      <trkpt lat="45.96085" lon="6.54845">
        <ele>2223</ele>
        <time>2022-03-06T12:37:34Z</time>
      </trkpt>
      <trkpt lat="45.96083" lon="6.54845">
        <ele>2223</ele>
        <time>2022-03-06T12:37:40Z</time>
      </trkpt>
      <trkpt lat="45.9608" lon="6.54845">
        <ele>2224</ele>
        <time>2022-03-06T12:37:44Z</time>
      </trkpt>
      <trkpt lat="45.96078" lon="6.54845">
        <ele>2224</ele>
        <time>2022-03-06T12:37:48Z</time>
      </trkpt>
      <trkpt lat="45.96076" lon="6.54846">
        <ele>2224</ele>
        <time>2022-03-06T12:37:52Z</time>
      </trkpt>
      <trkpt lat="45.96075" lon="6.54848">
        <ele>2225</ele>
        <time>2022-03-06T12:37:56Z</time>
      </trkpt>
      <trkpt lat="45.96075" lon="6.54851">
        <ele>2225</ele>
        <time>2022-03-06T12:38:01Z</time>
      </trkpt>
      <trkpt lat="45.96075" lon="6.54854">
        <ele>2226</ele>
        <time>2022-03-06T12:38:05Z</time>
      </trkpt>
      <trkpt lat="45.96076" lon="6.54857">
        <ele>2226</ele>
        <time>2022-03-06T12:38:08Z</time>
      </trkpt>
      <trkpt lat="45.96076" lon="6.54859">
        <ele>2226</ele>
        <time>2022-03-06T12:38:12Z</time>
      </trkpt>
      <trkpt lat="45.96077" lon="6.54862">
        <ele>2227</ele>
        <time>2022-03-06T12:38:16Z</time>
      </trkpt>
      <trkpt lat="45.96077" lon="6.54865">
        <ele>2227</ele>
        <time>2022-03-06T12:38:35Z</time>
      </trkpt>
      <trkpt lat="45.96077" lon="6.54868">
        <ele>2228</ele>
        <time>2022-03-06T12:38:39Z</time>
      </trkpt>
      <trkpt lat="45.96079" lon="6.54871">
        <ele>2228</ele>
        <time>2022-03-06T12:38:43Z</time>
      </trkpt>
      <trkpt lat="45.9608" lon="6.54874">
        <ele>2228</ele>
        <time>2022-03-06T12:38:46Z</time>
      </trkpt>
      <trkpt lat="45.96081" lon="6.54876">
        <ele>2229</ele>
        <time>2022-03-06T12:38:50Z</time>
      </trkpt>
      <trkpt lat="45.96082" lon="6.5488">
        <ele>2229</ele>
        <time>2022-03-06T12:38:54Z</time>
      </trkpt>
      <trkpt lat="45.96082" lon="6.54883">
        <ele>2230</ele>
        <time>2022-03-06T12:38:58Z</time>
      </trkpt>
      <trkpt lat="45.96082" lon="6.54886">
        <ele>2230</ele>
        <time>2022-03-06T12:39:02Z</time>
      </trkpt>
      <trkpt lat="45.96081" lon="6.54889">
        <ele>2231</ele>
        <time>2022-03-06T12:39:06Z</time>
      </trkpt>
      <trkpt lat="45.96081" lon="6.54892">
        <ele>2231</ele>
        <time>2022-03-06T12:39:10Z</time>
      </trkpt>
      <trkpt lat="45.96081" lon="6.54895">
        <ele>2231</ele>
        <time>2022-03-06T12:39:13Z</time>
      </trkpt>
      <trkpt lat="45.96081" lon="6.54898">
        <ele>2232</ele>
        <time>2022-03-06T12:39:18Z</time>
      </trkpt>
      <trkpt lat="45.96081" lon="6.54901">
        <ele>2232</ele>
        <time>2022-03-06T12:39:21Z</time>
      </trkpt>
      <trkpt lat="45.9608" lon="6.54904">
        <ele>2233</ele>
        <time>2022-03-06T12:39:24Z</time>
      </trkpt>
      <trkpt lat="45.96079" lon="6.54907">
        <ele>2233</ele>
        <time>2022-03-06T12:39:27Z</time>
      </trkpt>
      <trkpt lat="45.9608" lon="6.5491">
        <ele>2234</ele>
        <time>2022-03-06T12:39:30Z</time>
      </trkpt>
      <trkpt lat="45.96079" lon="6.54913">
        <ele>2234</ele>
        <time>2022-03-06T12:39:33Z</time>
      </trkpt>
      <trkpt lat="45.9608" lon="6.54916">
        <ele>2235</ele>
        <time>2022-03-06T12:39:37Z</time>
      </trkpt>
      <trkpt lat="45.9608" lon="6.54919">
        <ele>2235</ele>
        <time>2022-03-06T12:39:41Z</time>
      </trkpt>
      <trkpt lat="45.96081" lon="6.54922">
        <ele>2236</ele>
        <time>2022-03-06T12:39:45Z</time>
      </trkpt>
      <trkpt lat="45.96082" lon="6.54925">
        <ele>2236</ele>
        <time>2022-03-06T12:39:49Z</time>
      </trkpt>
      <trkpt lat="45.96083" lon="6.54928">
        <ele>2237</ele>
        <time>2022-03-06T12:39:53Z</time>
      </trkpt>
      <trkpt lat="45.96083" lon="6.54931">
        <ele>2237</ele>
        <time>2022-03-06T12:39:57Z</time>
      </trkpt>
      <trkpt lat="45.96084" lon="6.54934">
        <ele>2238</ele>
        <time>2022-03-06T12:40:00Z</time>
      </trkpt>
      <trkpt lat="45.96084" lon="6.54936">
        <ele>2238</ele>
        <time>2022-03-06T12:40:03Z</time>
      </trkpt>
      <trkpt lat="45.96085" lon="6.54939">
        <ele>2238</ele>
        <time>2022-03-06T12:40:06Z</time>
      </trkpt>
      <trkpt lat="45.96085" lon="6.54942">
        <ele>2239</ele>
        <time>2022-03-06T12:40:09Z</time>
      </trkpt>
      <trkpt lat="45.96086" lon="6.54944">
        <ele>2239</ele>
        <time>2022-03-06T12:40:12Z</time>
      </trkpt>
      <trkpt lat="45.96087" lon="6.54948">
        <ele>2240</ele>
        <time>2022-03-06T12:40:16Z</time>
      </trkpt>
      <trkpt lat="45.96088" lon="6.5495">
        <ele>2240</ele>
        <time>2022-03-06T12:40:19Z</time>
      </trkpt>
      <trkpt lat="45.96088" lon="6.54953">
        <ele>2241</ele>
        <time>2022-03-06T12:40:22Z</time>
      </trkpt>
      <trkpt lat="45.96089" lon="6.54955">
        <ele>2242</ele>
        <time>2022-03-06T12:40:25Z</time>
      </trkpt>
      <trkpt lat="45.9609" lon="6.54958">
        <ele>2242</ele>
        <time>2022-03-06T12:40:28Z</time>
      </trkpt>
      <trkpt lat="45.9609" lon="6.5496">
        <ele>2243</ele>
        <time>2022-03-06T12:40:31Z</time>
      </trkpt>
      <trkpt lat="45.96091" lon="6.54963">
        <ele>2243</ele>
        <time>2022-03-06T12:40:34Z</time>
      </trkpt>
      <trkpt lat="45.96092" lon="6.54966">
        <ele>2244</ele>
        <time>2022-03-06T12:40:38Z</time>
      </trkpt>
      <trkpt lat="45.96093" lon="6.54968">
        <ele>2245</ele>
        <time>2022-03-06T12:40:42Z</time>
      </trkpt>
      <trkpt lat="45.96094" lon="6.54971">
        <ele>2245</ele>
        <time>2022-03-06T12:40:46Z</time>
      </trkpt>
      <trkpt lat="45.96094" lon="6.54974">
        <ele>2246</ele>
        <time>2022-03-06T12:40:50Z</time>
      </trkpt>
      <trkpt lat="45.96095" lon="6.54976">
        <ele>2247</ele>
        <time>2022-03-06T12:40:56Z</time>
      </trkpt>
      <trkpt lat="45.96096" lon="6.54979">
        <ele>2247</ele>
        <time>2022-03-06T12:41:00Z</time>
      </trkpt>
      <trkpt lat="45.96097" lon="6.54981">
        <ele>2248</ele>
        <time>2022-03-06T12:41:04Z</time>
      </trkpt>
      <trkpt lat="45.96098" lon="6.54984">
        <ele>2249</ele>
        <time>2022-03-06T12:41:08Z</time>
      </trkpt>
      <trkpt lat="45.96098" lon="6.54987">
        <ele>2250</ele>
        <time>2022-03-06T12:41:12Z</time>
      </trkpt>
      <trkpt lat="45.96099" lon="6.5499">
        <ele>2251</ele>
        <time>2022-03-06T12:41:16Z</time>
      </trkpt>
      <trkpt lat="45.96099" lon="6.54993">
        <ele>2252</ele>
        <time>2022-03-06T12:41:21Z</time>
      </trkpt>
      <trkpt lat="45.961" lon="6.54996">
        <ele>2252</ele>
        <time>2022-03-06T12:41:25Z</time>
      </trkpt>
      <trkpt lat="45.96102" lon="6.54998">
        <ele>2253</ele>
        <time>2022-03-06T12:41:28Z</time>
      </trkpt>
      <trkpt lat="45.96103" lon="6.55001">
        <ele>2254</ele>
        <time>2022-03-06T12:41:31Z</time>
      </trkpt>
      <trkpt lat="45.96105" lon="6.55003">
        <ele>2254</ele>
        <time>2022-03-06T12:41:34Z</time>
      </trkpt>
      <trkpt lat="45.96106" lon="6.55005">
        <ele>2255</ele>
        <time>2022-03-06T12:41:38Z</time>
      </trkpt>
      <trkpt lat="45.96107" lon="6.55008">
        <ele>2255</ele>
        <time>2022-03-06T12:41:42Z</time>
      </trkpt>
      <trkpt lat="45.96108" lon="6.55008">
        <ele>2255</ele>
        <time>2022-03-06T12:42:16Z</time>
      </trkpt>
      <trkpt lat="45.9611" lon="6.55006">
        <ele>2255</ele>
        <time>2022-03-06T12:43:06Z</time>
      </trkpt>
      <trkpt lat="45.9611" lon="6.55009">
        <ele>2256</ele>
        <time>2022-03-06T12:44:02Z</time>
      </trkpt>
      <trkpt lat="45.96111" lon="6.55012">
        <ele>2257</ele>
        <time>2022-03-06T12:44:05Z</time>
      </trkpt>
      <trkpt lat="45.96111" lon="6.55015">
        <ele>2257</ele>
        <time>2022-03-06T12:44:08Z</time>
      </trkpt>
      <trkpt lat="45.96112" lon="6.55017">
        <ele>2258</ele>
        <time>2022-03-06T12:44:11Z</time>
      </trkpt>
      <trkpt lat="45.96112" lon="6.5502">
        <ele>2259</ele>
        <time>2022-03-06T12:44:14Z</time>
      </trkpt>
      <trkpt lat="45.96113" lon="6.55022">
        <ele>2259</ele>
        <time>2022-03-06T12:44:17Z</time>
      </trkpt>
      <trkpt lat="45.96113" lon="6.55026">
        <ele>2260</ele>
        <time>2022-03-06T12:44:28Z</time>
      </trkpt>
      <trkpt lat="45.96114" lon="6.55029">
        <ele>2260</ele>
        <time>2022-03-06T12:44:31Z</time>
      </trkpt>
      <trkpt lat="45.96114" lon="6.55031">
        <ele>2261</ele>
        <time>2022-03-06T12:44:34Z</time>
      </trkpt>
      <trkpt lat="45.96115" lon="6.55034">
        <ele>2261</ele>
        <time>2022-03-06T12:44:37Z</time>
      </trkpt>
      <trkpt lat="45.96115" lon="6.55037">
        <ele>2262</ele>
        <time>2022-03-06T12:44:40Z</time>
      </trkpt>
      <trkpt lat="45.96114" lon="6.5504">
        <ele>2263</ele>
        <time>2022-03-06T12:44:43Z</time>
      </trkpt>
      <trkpt lat="45.96113" lon="6.55042">
        <ele>2263</ele>
        <time>2022-03-06T12:44:46Z</time>
      </trkpt>
      <trkpt lat="45.96112" lon="6.55045">
        <ele>2264</ele>
        <time>2022-03-06T12:44:49Z</time>
      </trkpt>
      <trkpt lat="45.96112" lon="6.55048">
        <ele>2264</ele>
        <time>2022-03-06T12:44:53Z</time>
      </trkpt>
      <trkpt lat="45.96111" lon="6.55051">
        <ele>2265</ele>
        <time>2022-03-06T12:44:57Z</time>
      </trkpt>
      <trkpt lat="45.9611" lon="6.55054">
        <ele>2265</ele>
        <time>2022-03-06T12:45:01Z</time>
      </trkpt>
      <trkpt lat="45.96109" lon="6.55057">
        <ele>2266</ele>
        <time>2022-03-06T12:45:04Z</time>
      </trkpt>
      <trkpt lat="45.96109" lon="6.55059">
        <ele>2266</ele>
        <time>2022-03-06T12:45:08Z</time>
      </trkpt>
      <trkpt lat="45.96108" lon="6.55062">
        <ele>2267</ele>
        <time>2022-03-06T12:45:12Z</time>
      </trkpt>
      <trkpt lat="45.96108" lon="6.55065">
        <ele>2267</ele>
        <time>2022-03-06T12:45:16Z</time>
      </trkpt>
      <trkpt lat="45.96108" lon="6.55069">
        <ele>2268</ele>
        <time>2022-03-06T12:45:20Z</time>
      </trkpt>
      <trkpt lat="45.96109" lon="6.55072">
        <ele>2269</ele>
        <time>2022-03-06T12:45:24Z</time>
      </trkpt>
      <trkpt lat="45.96109" lon="6.55075">
        <ele>2269</ele>
        <time>2022-03-06T12:45:28Z</time>
      </trkpt>
      <trkpt lat="45.9611" lon="6.55077">
        <ele>2269</ele>
        <time>2022-03-06T12:45:32Z</time>
      </trkpt>
      <trkpt lat="45.96111" lon="6.5508">
        <ele>2270</ele>
        <time>2022-03-06T12:45:35Z</time>
      </trkpt>
      <trkpt lat="45.96113" lon="6.55082">
        <ele>2270</ele>
        <time>2022-03-06T12:45:39Z</time>
      </trkpt>
      <trkpt lat="45.96113" lon="6.55085">
        <ele>2271</ele>
        <time>2022-03-06T12:45:43Z</time>
      </trkpt>
      <trkpt lat="45.96113" lon="6.55088">
        <ele>2271</ele>
        <time>2022-03-06T12:45:47Z</time>
      </trkpt>
      <trkpt lat="45.96112" lon="6.55091">
        <ele>2272</ele>
        <time>2022-03-06T12:45:52Z</time>
      </trkpt>
      <trkpt lat="45.96112" lon="6.55093">
        <ele>2273</ele>
        <time>2022-03-06T12:45:56Z</time>
      </trkpt>
      <trkpt lat="45.96111" lon="6.55096">
        <ele>2273</ele>
        <time>2022-03-06T12:46:00Z</time>
      </trkpt>
      <trkpt lat="45.9611" lon="6.55099">
        <ele>2274</ele>
        <time>2022-03-06T12:46:03Z</time>
      </trkpt>
      <trkpt lat="45.9611" lon="6.55102">
        <ele>2275</ele>
        <time>2022-03-06T12:46:07Z</time>
      </trkpt>
      <trkpt lat="45.9611" lon="6.55105">
        <ele>2275</ele>
        <time>2022-03-06T12:46:11Z</time>
      </trkpt>
      <trkpt lat="45.9611" lon="6.55109">
        <ele>2276</ele>
        <time>2022-03-06T12:46:15Z</time>
      </trkpt>
      <trkpt lat="45.96109" lon="6.55112">
        <ele>2277</ele>
        <time>2022-03-06T12:46:19Z</time>
      </trkpt>
      <trkpt lat="45.9611" lon="6.55115">
        <ele>2278</ele>
        <time>2022-03-06T12:46:23Z</time>
      </trkpt>
      <trkpt lat="45.9611" lon="6.55119">
        <ele>2278</ele>
        <time>2022-03-06T12:46:27Z</time>
      </trkpt>
      <trkpt lat="45.96109" lon="6.55121">
        <ele>2279</ele>
        <time>2022-03-06T12:46:30Z</time>
      </trkpt>
      <trkpt lat="45.96109" lon="6.55125">
        <ele>2280</ele>
        <time>2022-03-06T12:46:34Z</time>
      </trkpt>
      <trkpt lat="45.9611" lon="6.55128">
        <ele>2280</ele>
        <time>2022-03-06T12:46:37Z</time>
      </trkpt>
      <trkpt lat="45.9611" lon="6.5513">
        <ele>2281</ele>
        <time>2022-03-06T12:46:40Z</time>
      </trkpt>
      <trkpt lat="45.9611" lon="6.55133">
        <ele>2281</ele>
        <time>2022-03-06T12:46:44Z</time>
      </trkpt>
      <trkpt lat="45.96111" lon="6.55136">
        <ele>2282</ele>
        <time>2022-03-06T12:46:48Z</time>
      </trkpt>
      <trkpt lat="45.96112" lon="6.55139">
        <ele>2282</ele>
        <time>2022-03-06T12:46:52Z</time>
      </trkpt>
      <trkpt lat="45.96113" lon="6.55141">
        <ele>2283</ele>
        <time>2022-03-06T12:46:56Z</time>
      </trkpt>
      <trkpt lat="45.96114" lon="6.55144">
        <ele>2283</ele>
        <time>2022-03-06T12:47:00Z</time>
      </trkpt>
      <trkpt lat="45.96115" lon="6.55147">
        <ele>2283</ele>
        <time>2022-03-06T12:47:04Z</time>
      </trkpt>
      <trkpt lat="45.96116" lon="6.5515">
        <ele>2284</ele>
        <time>2022-03-06T12:47:08Z</time>
      </trkpt>
      <trkpt lat="45.96116" lon="6.55153">
        <ele>2284</ele>
        <time>2022-03-06T12:47:11Z</time>
      </trkpt>
      <trkpt lat="45.96117" lon="6.55155">
        <ele>2284</ele>
        <time>2022-03-06T12:47:16Z</time>
      </trkpt>
      <trkpt lat="45.96115" lon="6.55157">
        <ele>2285</ele>
        <time>2022-03-06T12:47:22Z</time>
      </trkpt>
      <trkpt lat="45.96113" lon="6.55159">
        <ele>2285</ele>
        <time>2022-03-06T12:47:27Z</time>
      </trkpt>
      <trkpt lat="45.96111" lon="6.5516">
        <ele>2286</ele>
        <time>2022-03-06T12:47:30Z</time>
      </trkpt>
      <trkpt lat="45.96109" lon="6.55162">
        <ele>2286</ele>
        <time>2022-03-06T12:47:34Z</time>
      </trkpt>
      <trkpt lat="45.96109" lon="6.55164">
        <ele>2286</ele>
        <time>2022-03-06T12:47:37Z</time>
      </trkpt>
      <trkpt lat="45.96109" lon="6.55167">
        <ele>2287</ele>
        <time>2022-03-06T12:47:40Z</time>
      </trkpt>
      <trkpt lat="45.96109" lon="6.5517">
        <ele>2287</ele>
        <time>2022-03-06T12:47:44Z</time>
      </trkpt>
      <trkpt lat="45.96109" lon="6.55173">
        <ele>2288</ele>
        <time>2022-03-06T12:47:48Z</time>
      </trkpt>
      <trkpt lat="45.96109" lon="6.55176">
        <ele>2289</ele>
        <time>2022-03-06T12:47:52Z</time>
      </trkpt>
      <trkpt lat="45.96108" lon="6.55179">
        <ele>2289</ele>
        <time>2022-03-06T12:47:56Z</time>
      </trkpt>
      <trkpt lat="45.96107" lon="6.55181">
        <ele>2290</ele>
        <time>2022-03-06T12:48:00Z</time>
      </trkpt>
      <trkpt lat="45.96106" lon="6.55183">
        <ele>2290</ele>
        <time>2022-03-06T12:48:02Z</time>
      </trkpt>
      <trkpt lat="45.96105" lon="6.5518">
        <ele>2290</ele>
        <time>2022-03-06T12:48:21Z</time>
      </trkpt>
      <trkpt lat="45.96104" lon="6.55178">
        <ele>2289</ele>
        <time>2022-03-06T12:48:37Z</time>
      </trkpt>
      <trkpt lat="45.96103" lon="6.5518">
        <ele>2290</ele>
        <time>2022-03-06T12:49:46Z</time>
      </trkpt>
      <trkpt lat="45.96103" lon="6.55183">
        <ele>2291</ele>
        <time>2022-03-06T12:49:48Z</time>
      </trkpt>
      <trkpt lat="45.96103" lon="6.55187">
        <ele>2291</ele>
        <time>2022-03-06T12:49:51Z</time>
      </trkpt>
      <trkpt lat="45.96103" lon="6.55189">
        <ele>2292</ele>
        <time>2022-03-06T12:49:53Z</time>
      </trkpt>
      <trkpt lat="45.96102" lon="6.55192">
        <ele>2293</ele>
        <time>2022-03-06T12:49:55Z</time>
      </trkpt>
      <trkpt lat="45.96102" lon="6.55195">
        <ele>2293</ele>
        <time>2022-03-06T12:49:58Z</time>
      </trkpt>
      <trkpt lat="45.96101" lon="6.55198">
        <ele>2294</ele>
        <time>2022-03-06T12:50:01Z</time>
      </trkpt>
      <trkpt lat="45.96101" lon="6.55201">
        <ele>2295</ele>
        <time>2022-03-06T12:50:04Z</time>
      </trkpt>
      <trkpt lat="45.96102" lon="6.55204">
        <ele>2295</ele>
        <time>2022-03-06T12:50:07Z</time>
      </trkpt>
      <trkpt lat="45.96102" lon="6.55207">
        <ele>2296</ele>
        <time>2022-03-06T12:50:10Z</time>
      </trkpt>
      <trkpt lat="45.96103" lon="6.5521">
        <ele>2296</ele>
        <time>2022-03-06T12:50:13Z</time>
      </trkpt>
      <trkpt lat="45.96104" lon="6.55213">
        <ele>2297</ele>
        <time>2022-03-06T12:50:16Z</time>
      </trkpt>
      <trkpt lat="45.96105" lon="6.55216">
        <ele>2297</ele>
        <time>2022-03-06T12:50:20Z</time>
      </trkpt>
      <trkpt lat="45.96105" lon="6.55219">
        <ele>2298</ele>
        <time>2022-03-06T12:50:24Z</time>
      </trkpt>
      <trkpt lat="45.96105" lon="6.55222">
        <ele>2298</ele>
        <time>2022-03-06T12:50:28Z</time>
      </trkpt>
      <trkpt lat="45.96106" lon="6.55226">
        <ele>2299</ele>
        <time>2022-03-06T12:50:32Z</time>
      </trkpt>
      <trkpt lat="45.96105" lon="6.55228">
        <ele>2300</ele>
        <time>2022-03-06T12:50:35Z</time>
      </trkpt>
      <trkpt lat="45.96105" lon="6.55232">
        <ele>2300</ele>
        <time>2022-03-06T12:50:39Z</time>
      </trkpt>
      <trkpt lat="45.96104" lon="6.55234">
        <ele>2301</ele>
        <time>2022-03-06T12:50:43Z</time>
      </trkpt>
      <trkpt lat="45.96104" lon="6.55237">
        <ele>2302</ele>
        <time>2022-03-06T12:50:47Z</time>
      </trkpt>
      <trkpt lat="45.96104" lon="6.5524">
        <ele>2302</ele>
        <time>2022-03-06T12:51:08Z</time>
      </trkpt>
      <trkpt lat="45.96104" lon="6.55243">
        <ele>2303</ele>
        <time>2022-03-06T12:51:11Z</time>
      </trkpt>
      <trkpt lat="45.96104" lon="6.55246">
        <ele>2303</ele>
        <time>2022-03-06T12:51:14Z</time>
      </trkpt>
      <trkpt lat="45.96104" lon="6.5525">
        <ele>2304</ele>
        <time>2022-03-06T12:51:17Z</time>
      </trkpt>
      <trkpt lat="45.96104" lon="6.55253">
        <ele>2305</ele>
        <time>2022-03-06T12:51:20Z</time>
      </trkpt>
      <trkpt lat="45.96103" lon="6.55256">
        <ele>2305</ele>
        <time>2022-03-06T12:51:23Z</time>
      </trkpt>
      <trkpt lat="45.96103" lon="6.55259">
        <ele>2306</ele>
        <time>2022-03-06T12:51:26Z</time>
      </trkpt>
      <trkpt lat="45.96103" lon="6.55262">
        <ele>2306</ele>
        <time>2022-03-06T12:51:29Z</time>
      </trkpt>
      <trkpt lat="45.96103" lon="6.55265">
        <ele>2307</ele>
        <time>2022-03-06T12:51:32Z</time>
      </trkpt>
      <trkpt lat="45.96102" lon="6.55268">
        <ele>2307</ele>
        <time>2022-03-06T12:51:36Z</time>
      </trkpt>
      <trkpt lat="45.96101" lon="6.55271">
        <ele>2308</ele>
        <time>2022-03-06T12:51:40Z</time>
      </trkpt>
      <trkpt lat="45.961" lon="6.55274">
        <ele>2309</ele>
        <time>2022-03-06T12:51:43Z</time>
      </trkpt>
      <trkpt lat="45.96099" lon="6.55277">
        <ele>2309</ele>
        <time>2022-03-06T12:51:48Z</time>
      </trkpt>
      <trkpt lat="45.96098" lon="6.55279">
        <ele>2310</ele>
        <time>2022-03-06T12:51:50Z</time>
      </trkpt>
      <trkpt lat="45.96097" lon="6.55281">
        <ele>2311</ele>
        <time>2022-03-06T12:51:52Z</time>
      </trkpt>
      <trkpt lat="45.96096" lon="6.55284">
        <ele>2311</ele>
        <time>2022-03-06T12:51:54Z</time>
      </trkpt>
      <trkpt lat="45.96096" lon="6.55287">
        <ele>2312</ele>
        <time>2022-03-06T12:51:57Z</time>
      </trkpt>
      <trkpt lat="45.96097" lon="6.5529">
        <ele>2313</ele>
        <time>2022-03-06T12:52:00Z</time>
      </trkpt>
      <trkpt lat="45.96097" lon="6.55293">
        <ele>2313</ele>
        <time>2022-03-06T12:52:03Z</time>
      </trkpt>
      <trkpt lat="45.961" lon="6.55295">
        <ele>2313</ele>
        <time>2022-03-06T12:52:06Z</time>
      </trkpt>
      <trkpt lat="45.96101" lon="6.55297">
        <ele>2314</ele>
        <time>2022-03-06T12:52:09Z</time>
      </trkpt>
      <trkpt lat="45.96103" lon="6.55299">
        <ele>2314</ele>
        <time>2022-03-06T12:52:12Z</time>
      </trkpt>
      <trkpt lat="45.96104" lon="6.55302">
        <ele>2314</ele>
        <time>2022-03-06T12:52:16Z</time>
      </trkpt>
      <trkpt lat="45.96106" lon="6.55304">
        <ele>2315</ele>
        <time>2022-03-06T12:52:20Z</time>
      </trkpt>
      <trkpt lat="45.96107" lon="6.55306">
        <ele>2315</ele>
        <time>2022-03-06T12:52:23Z</time>
      </trkpt>
      <trkpt lat="45.96108" lon="6.55309">
        <ele>2315</ele>
        <time>2022-03-06T12:52:26Z</time>
      </trkpt>
      <trkpt lat="45.96109" lon="6.55311">
        <ele>2316</ele>
        <time>2022-03-06T12:52:29Z</time>
      </trkpt>
      <trkpt lat="45.9611" lon="6.55313">
        <ele>2316</ele>
        <time>2022-03-06T12:52:32Z</time>
      </trkpt>
      <trkpt lat="45.96112" lon="6.55314">
        <ele>2316</ele>
        <time>2022-03-06T12:52:35Z</time>
      </trkpt>
      <trkpt lat="45.96114" lon="6.55316">
        <ele>2316</ele>
        <time>2022-03-06T12:52:38Z</time>
      </trkpt>
      <trkpt lat="45.96115" lon="6.55318">
        <ele>2316</ele>
        <time>2022-03-06T12:52:41Z</time>
      </trkpt>
      <trkpt lat="45.96116" lon="6.5532">
        <ele>2316</ele>
        <time>2022-03-06T12:52:45Z</time>
      </trkpt>
      <trkpt lat="45.96118" lon="6.55323">
        <ele>2316</ele>
        <time>2022-03-06T12:52:49Z</time>
      </trkpt>
      <trkpt lat="45.96119" lon="6.55325">
        <ele>2316</ele>
        <time>2022-03-06T12:52:53Z</time>
      </trkpt>
      <trkpt lat="45.96121" lon="6.55326">
        <ele>2316</ele>
        <time>2022-03-06T12:52:56Z</time>
      </trkpt>
      <trkpt lat="45.96122" lon="6.55328">
        <ele>2316</ele>
        <time>2022-03-06T12:52:59Z</time>
      </trkpt>
      <trkpt lat="45.96124" lon="6.5533">
        <ele>2317</ele>
        <time>2022-03-06T12:53:02Z</time>
      </trkpt>
      <trkpt lat="45.96126" lon="6.55332">
        <ele>2317</ele>
        <time>2022-03-06T12:53:05Z</time>
      </trkpt>
      <trkpt lat="45.96127" lon="6.55334">
        <ele>2317</ele>
        <time>2022-03-06T12:53:09Z</time>
      </trkpt>
      <trkpt lat="45.96129" lon="6.55336">
        <ele>2317</ele>
        <time>2022-03-06T12:53:13Z</time>
      </trkpt>
      <trkpt lat="45.9613" lon="6.55338">
        <ele>2317</ele>
        <time>2022-03-06T12:53:16Z</time>
      </trkpt>
      <trkpt lat="45.96132" lon="6.55338">
        <ele>2317</ele>
        <time>2022-03-06T12:53:53Z</time>
      </trkpt>
      <trkpt lat="45.96134" lon="6.5534">
        <ele>2317</ele>
        <time>2022-03-06T12:53:57Z</time>
      </trkpt>
      <trkpt lat="45.96135" lon="6.55342">
        <ele>2317</ele>
        <time>2022-03-06T12:54:00Z</time>
      </trkpt>
      <trkpt lat="45.96137" lon="6.55345">
        <ele>2317</ele>
        <time>2022-03-06T12:54:03Z</time>
      </trkpt>
      <trkpt lat="45.96139" lon="6.55346">
        <ele>2317</ele>
        <time>2022-03-06T12:54:05Z</time>
      </trkpt>
      <trkpt lat="45.9614" lon="6.55348">
        <ele>2317</ele>
        <time>2022-03-06T12:54:08Z</time>
      </trkpt>
      <trkpt lat="45.96142" lon="6.55351">
        <ele>2317</ele>
        <time>2022-03-06T12:54:12Z</time>
      </trkpt>
      <trkpt lat="45.96143" lon="6.55353">
        <ele>2318</ele>
        <time>2022-03-06T12:54:15Z</time>
      </trkpt>
      <trkpt lat="45.96144" lon="6.55355">
        <ele>2318</ele>
        <time>2022-03-06T12:54:18Z</time>
      </trkpt>
      <trkpt lat="45.96145" lon="6.55357">
        <ele>2318</ele>
        <time>2022-03-06T12:54:20Z</time>
      </trkpt>
      <trkpt lat="45.96146" lon="6.5536">
        <ele>2319</ele>
        <time>2022-03-06T12:54:24Z</time>
      </trkpt>
      <trkpt lat="45.96147" lon="6.55363">
        <ele>2319</ele>
        <time>2022-03-06T12:54:30Z</time>
      </trkpt>
      <trkpt lat="45.9615" lon="6.55364">
        <ele>2319</ele>
        <time>2022-03-06T12:54:33Z</time>
      </trkpt>
      <trkpt lat="45.96152" lon="6.55365">
        <ele>2319</ele>
        <time>2022-03-06T12:54:36Z</time>
      </trkpt>
      <trkpt lat="45.96154" lon="6.55367">
        <ele>2319</ele>
        <time>2022-03-06T12:54:39Z</time>
      </trkpt>
      <trkpt lat="45.96156" lon="6.55369">
        <ele>2320</ele>
        <time>2022-03-06T12:54:42Z</time>
      </trkpt>
      <trkpt lat="45.96157" lon="6.5537">
        <ele>2320</ele>
        <time>2022-03-06T12:54:45Z</time>
      </trkpt>
      <trkpt lat="45.96159" lon="6.55372">
        <ele>2320</ele>
        <time>2022-03-06T12:54:48Z</time>
      </trkpt>
      <trkpt lat="45.96161" lon="6.55374">
        <ele>2320</ele>
        <time>2022-03-06T12:54:52Z</time>
      </trkpt>
      <trkpt lat="45.96163" lon="6.55376">
        <ele>2321</ele>
        <time>2022-03-06T12:54:55Z</time>
      </trkpt>
      <trkpt lat="45.96164" lon="6.55378">
        <ele>2321</ele>
        <time>2022-03-06T12:54:58Z</time>
      </trkpt>
      <trkpt lat="45.96166" lon="6.5538">
        <ele>2321</ele>
        <time>2022-03-06T12:55:01Z</time>
      </trkpt>
      <trkpt lat="45.96167" lon="6.55381">
        <ele>2321</ele>
        <time>2022-03-06T12:55:04Z</time>
      </trkpt>
      <trkpt lat="45.96169" lon="6.55383">
        <ele>2322</ele>
        <time>2022-03-06T12:55:07Z</time>
      </trkpt>
      <trkpt lat="45.96171" lon="6.55384">
        <ele>2322</ele>
        <time>2022-03-06T12:55:09Z</time>
      </trkpt>
      <trkpt lat="45.96173" lon="6.55385">
        <ele>2322</ele>
        <time>2022-03-06T12:55:12Z</time>
      </trkpt>
      <trkpt lat="45.96176" lon="6.55387">
        <ele>2322</ele>
        <time>2022-03-06T12:55:15Z</time>
      </trkpt>
      <trkpt lat="45.96177" lon="6.55389">
        <ele>2322</ele>
        <time>2022-03-06T12:55:19Z</time>
      </trkpt>
      <trkpt lat="45.96179" lon="6.55391">
        <ele>2323</ele>
        <time>2022-03-06T12:55:22Z</time>
      </trkpt>
      <trkpt lat="45.96181" lon="6.55392">
        <ele>2323</ele>
        <time>2022-03-06T12:55:25Z</time>
      </trkpt>
      <trkpt lat="45.96183" lon="6.55394">
        <ele>2323</ele>
        <time>2022-03-06T12:55:28Z</time>
      </trkpt>
      <trkpt lat="45.96185" lon="6.55395">
        <ele>2323</ele>
        <time>2022-03-06T12:55:31Z</time>
      </trkpt>
      <trkpt lat="45.96187" lon="6.55398">
        <ele>2324</ele>
        <time>2022-03-06T12:55:35Z</time>
      </trkpt>
      <trkpt lat="45.96188" lon="6.554">
        <ele>2324</ele>
        <time>2022-03-06T12:55:38Z</time>
      </trkpt>
      <trkpt lat="45.9619" lon="6.55402">
        <ele>2325</ele>
        <time>2022-03-06T12:55:41Z</time>
      </trkpt>
      <trkpt lat="45.96192" lon="6.55403">
        <ele>2325</ele>
        <time>2022-03-06T12:55:44Z</time>
      </trkpt>
      <trkpt lat="45.96193" lon="6.55405">
        <ele>2325</ele>
        <time>2022-03-06T12:55:47Z</time>
      </trkpt>
      <trkpt lat="45.96194" lon="6.55408">
        <ele>2326</ele>
        <time>2022-03-06T12:55:51Z</time>
      </trkpt>
      <trkpt lat="45.96194" lon="6.55411">
        <ele>2327</ele>
        <time>2022-03-06T12:55:55Z</time>
      </trkpt>
      <trkpt lat="45.96196" lon="6.55413">
        <ele>2327</ele>
        <time>2022-03-06T12:55:59Z</time>
      </trkpt>
      <trkpt lat="45.96197" lon="6.55415">
        <ele>2328</ele>
        <time>2022-03-06T12:56:02Z</time>
      </trkpt>
      <trkpt lat="45.96198" lon="6.55417">
        <ele>2328</ele>
        <time>2022-03-06T12:56:05Z</time>
      </trkpt>
      <trkpt lat="45.96199" lon="6.5542">
        <ele>2329</ele>
        <time>2022-03-06T12:56:09Z</time>
      </trkpt>
      <trkpt lat="45.962" lon="6.55423">
        <ele>2329</ele>
        <time>2022-03-06T12:56:13Z</time>
      </trkpt>
      <trkpt lat="45.96201" lon="6.55425">
        <ele>2330</ele>
        <time>2022-03-06T12:56:16Z</time>
      </trkpt>
      <trkpt lat="45.96202" lon="6.55427">
        <ele>2330</ele>
        <time>2022-03-06T12:56:40Z</time>
      </trkpt>
      <trkpt lat="45.96203" lon="6.5543">
        <ele>2331</ele>
        <time>2022-03-06T12:57:11Z</time>
      </trkpt>
      <trkpt lat="45.96203" lon="6.55432">
        <ele>2332</ele>
        <time>2022-03-06T12:57:19Z</time>
      </trkpt>
      <trkpt lat="45.96204" lon="6.55435">
        <ele>2332</ele>
        <time>2022-03-06T12:57:23Z</time>
      </trkpt>
      <trkpt lat="45.96205" lon="6.55437">
        <ele>2332</ele>
        <time>2022-03-06T12:57:34Z</time>
      </trkpt>
      <trkpt lat="45.96205" lon="6.5544">
        <ele>2333</ele>
        <time>2022-03-06T12:57:51Z</time>
      </trkpt>
      <trkpt lat="45.96205" lon="6.55443">
        <ele>2334</ele>
        <time>2022-03-06T12:57:59Z</time>
      </trkpt>
      <trkpt lat="45.96206" lon="6.55446">
        <ele>2334</ele>
        <time>2022-03-06T12:58:04Z</time>
      </trkpt>
      <trkpt lat="45.96206" lon="6.55448">
        <ele>2335</ele>
        <time>2022-03-06T12:58:08Z</time>
      </trkpt>
      <trkpt lat="45.96206" lon="6.55451">
        <ele>2335</ele>
        <time>2022-03-06T12:58:11Z</time>
      </trkpt>
      <trkpt lat="45.96207" lon="6.55454">
        <ele>2336</ele>
        <time>2022-03-06T12:58:13Z</time>
      </trkpt>
      <trkpt lat="45.96208" lon="6.55457">
        <ele>2336</ele>
        <time>2022-03-06T12:58:15Z</time>
      </trkpt>
      <trkpt lat="45.96209" lon="6.5546">
        <ele>2336</ele>
        <time>2022-03-06T12:58:19Z</time>
      </trkpt>
      <trkpt lat="45.96209" lon="6.55463">
        <ele>2337</ele>
        <time>2022-03-06T12:58:23Z</time>
      </trkpt>
      <trkpt lat="45.9621" lon="6.55465">
        <ele>2337</ele>
        <time>2022-03-06T12:58:28Z</time>
      </trkpt>
      <trkpt lat="45.96212" lon="6.55467">
        <ele>2337</ele>
        <time>2022-03-06T12:58:39Z</time>
      </trkpt>
      <trkpt lat="45.96213" lon="6.5547">
        <ele>2337</ele>
        <time>2022-03-06T12:58:42Z</time>
      </trkpt>
      <trkpt lat="45.96215" lon="6.55472">
        <ele>2337</ele>
        <time>2022-03-06T12:58:45Z</time>
      </trkpt>
      <trkpt lat="45.96215" lon="6.55475">
        <ele>2338</ele>
        <time>2022-03-06T12:58:48Z</time>
      </trkpt>
      <trkpt lat="45.96216" lon="6.55478">
        <ele>2338</ele>
        <time>2022-03-06T12:58:52Z</time>
      </trkpt>
      <trkpt lat="45.96216" lon="6.55481">
        <ele>2339</ele>
        <time>2022-03-06T12:58:55Z</time>
      </trkpt>
      <trkpt lat="45.96215" lon="6.55484">
        <ele>2339</ele>
        <time>2022-03-06T12:58:59Z</time>
      </trkpt>
      <trkpt lat="45.96215" lon="6.55487">
        <ele>2339</ele>
        <time>2022-03-06T12:59:02Z</time>
      </trkpt>
      <trkpt lat="45.96215" lon="6.55489">
        <ele>2340</ele>
        <time>2022-03-06T12:59:05Z</time>
      </trkpt>
      <trkpt lat="45.96216" lon="6.55492">
        <ele>2340</ele>
        <time>2022-03-06T12:59:09Z</time>
      </trkpt>
      <trkpt lat="45.96216" lon="6.55496">
        <ele>2341</ele>
        <time>2022-03-06T12:59:13Z</time>
      </trkpt>
      <trkpt lat="45.96216" lon="6.55499">
        <ele>2341</ele>
        <time>2022-03-06T12:59:16Z</time>
      </trkpt>
      <trkpt lat="45.96215" lon="6.55502">
        <ele>2342</ele>
        <time>2022-03-06T12:59:20Z</time>
      </trkpt>
      <trkpt lat="45.96215" lon="6.55504">
        <ele>2342</ele>
        <time>2022-03-06T13:00:18Z</time>
      </trkpt>
      <trkpt lat="45.96213" lon="6.55507">
        <ele>2343</ele>
        <time>2022-03-06T13:00:22Z</time>
      </trkpt>
      <trkpt lat="45.96212" lon="6.55509">
        <ele>2343</ele>
        <time>2022-03-06T13:00:24Z</time>
      </trkpt>
      <trkpt lat="45.9621" lon="6.55511">
        <ele>2344</ele>
        <time>2022-03-06T13:00:27Z</time>
      </trkpt>
      <trkpt lat="45.96209" lon="6.55514">
        <ele>2344</ele>
        <time>2022-03-06T13:00:31Z</time>
      </trkpt>
      <trkpt lat="45.96208" lon="6.55516">
        <ele>2345</ele>
        <time>2022-03-06T13:00:35Z</time>
      </trkpt>
      <trkpt lat="45.96206" lon="6.55519">
        <ele>2346</ele>
        <time>2022-03-06T13:00:39Z</time>
      </trkpt>
      <trkpt lat="45.96205" lon="6.55521">
        <ele>2346</ele>
        <time>2022-03-06T13:00:43Z</time>
      </trkpt>
      <trkpt lat="45.96203" lon="6.55523">
        <ele>2347</ele>
        <time>2022-03-06T13:00:47Z</time>
      </trkpt>
      <trkpt lat="45.96202" lon="6.55525">
        <ele>2348</ele>
        <time>2022-03-06T13:00:50Z</time>
      </trkpt>
      <trkpt lat="45.96202" lon="6.55528">
        <ele>2348</ele>
        <time>2022-03-06T13:00:55Z</time>
      </trkpt>
      <trkpt lat="45.96201" lon="6.55531">
        <ele>2349</ele>
        <time>2022-03-06T13:00:59Z</time>
      </trkpt>
      <trkpt lat="45.96201" lon="6.55534">
        <ele>2350</ele>
        <time>2022-03-06T13:01:03Z</time>
      </trkpt>
      <trkpt lat="45.962" lon="6.55537">
        <ele>2350</ele>
        <time>2022-03-06T13:01:06Z</time>
      </trkpt>
      <trkpt lat="45.96199" lon="6.55539">
        <ele>2351</ele>
        <time>2022-03-06T13:01:09Z</time>
      </trkpt>
      <trkpt lat="45.96198" lon="6.55542">
        <ele>2352</ele>
        <time>2022-03-06T13:01:12Z</time>
      </trkpt>
      <trkpt lat="45.96198" lon="6.55545">
        <ele>2353</ele>
        <time>2022-03-06T13:01:15Z</time>
      </trkpt>
      <trkpt lat="45.96197" lon="6.55547">
        <ele>2353</ele>
        <time>2022-03-06T13:01:19Z</time>
      </trkpt>
      <trkpt lat="45.96195" lon="6.55549">
        <ele>2354</ele>
        <time>2022-03-06T13:01:22Z</time>
      </trkpt>
      <trkpt lat="45.96193" lon="6.55549">
        <ele>2354</ele>
        <time>2022-03-06T13:01:25Z</time>
      </trkpt>
      <trkpt lat="45.96192" lon="6.55552">
        <ele>2355</ele>
        <time>2022-03-06T13:01:29Z</time>
      </trkpt>
      <trkpt lat="45.96191" lon="6.55554">
        <ele>2356</ele>
        <time>2022-03-06T13:01:32Z</time>
      </trkpt>
      <trkpt lat="45.9619" lon="6.55557">
        <ele>2357</ele>
        <time>2022-03-06T13:01:35Z</time>
      </trkpt>
      <trkpt lat="45.9619" lon="6.55559">
        <ele>2357</ele>
        <time>2022-03-06T13:01:39Z</time>
      </trkpt>
      <trkpt lat="45.96189" lon="6.55562">
        <ele>2358</ele>
        <time>2022-03-06T13:01:44Z</time>
      </trkpt>
      <trkpt lat="45.96187" lon="6.55563">
        <ele>2359</ele>
        <time>2022-03-06T13:01:56Z</time>
      </trkpt>
      <trkpt lat="45.96186" lon="6.55565">
        <ele>2360</ele>
        <time>2022-03-06T13:01:59Z</time>
      </trkpt>
      <trkpt lat="45.96184" lon="6.55568">
        <ele>2360</ele>
        <time>2022-03-06T13:02:02Z</time>
      </trkpt>
      <trkpt lat="45.96184" lon="6.55571">
        <ele>2361</ele>
        <time>2022-03-06T13:02:07Z</time>
      </trkpt>
      <trkpt lat="45.96184" lon="6.55574">
        <ele>2362</ele>
        <time>2022-03-06T13:02:10Z</time>
      </trkpt>
      <trkpt lat="45.96184" lon="6.55576">
        <ele>2362</ele>
        <time>2022-03-06T13:02:13Z</time>
      </trkpt>
      <trkpt lat="45.96183" lon="6.55579">
        <ele>2363</ele>
        <time>2022-03-06T13:02:19Z</time>
      </trkpt>
      <trkpt lat="45.96182" lon="6.55582">
        <ele>2364</ele>
        <time>2022-03-06T13:02:25Z</time>
      </trkpt>
      <trkpt lat="45.96182" lon="6.55585">
        <ele>2365</ele>
        <time>2022-03-06T13:02:30Z</time>
      </trkpt>
      <trkpt lat="45.96181" lon="6.55588">
        <ele>2365</ele>
        <time>2022-03-06T13:02:34Z</time>
      </trkpt>
      <trkpt lat="45.96181" lon="6.55591">
        <ele>2366</ele>
        <time>2022-03-06T13:02:39Z</time>
      </trkpt>
      <trkpt lat="45.96179" lon="6.55593">
        <ele>2367</ele>
        <time>2022-03-06T13:02:53Z</time>
      </trkpt>
      <trkpt lat="45.96178" lon="6.55596">
        <ele>2367</ele>
        <time>2022-03-06T13:02:57Z</time>
      </trkpt>
      <trkpt lat="45.96178" lon="6.55599">
        <ele>2368</ele>
        <time>2022-03-06T13:03:06Z</time>
      </trkpt>
      <trkpt lat="45.96178" lon="6.55602">
        <ele>2368</ele>
        <time>2022-03-06T13:03:10Z</time>
      </trkpt>
      <trkpt lat="45.96177" lon="6.55605">
        <ele>2369</ele>
        <time>2022-03-06T13:03:14Z</time>
      </trkpt>
      <trkpt lat="45.96176" lon="6.55607">
        <ele>2370</ele>
        <time>2022-03-06T13:03:18Z</time>
      </trkpt>
      <trkpt lat="45.96175" lon="6.5561">
        <ele>2371</ele>
        <time>2022-03-06T13:03:22Z</time>
      </trkpt>
      <trkpt lat="45.96175" lon="6.55613">
        <ele>2372</ele>
        <time>2022-03-06T13:03:26Z</time>
      </trkpt>
      <trkpt lat="45.96174" lon="6.55615">
        <ele>2372</ele>
        <time>2022-03-06T13:03:30Z</time>
      </trkpt>
      <trkpt lat="45.96172" lon="6.55618">
        <ele>2373</ele>
        <time>2022-03-06T13:03:35Z</time>
      </trkpt>
      <trkpt lat="45.96171" lon="6.55621">
        <ele>2374</ele>
        <time>2022-03-06T13:03:39Z</time>
      </trkpt>
      <trkpt lat="45.96171" lon="6.55624">
        <ele>2375</ele>
        <time>2022-03-06T13:03:44Z</time>
      </trkpt>
      <trkpt lat="45.96171" lon="6.55627">
        <ele>2376</ele>
        <time>2022-03-06T13:03:48Z</time>
      </trkpt>
      <trkpt lat="45.9617" lon="6.55629">
        <ele>2377</ele>
        <time>2022-03-06T13:03:51Z</time>
      </trkpt>
      <trkpt lat="45.96168" lon="6.55631">
        <ele>2378</ele>
        <time>2022-03-06T13:03:56Z</time>
      </trkpt>
      <trkpt lat="45.96166" lon="6.55631">
        <ele>2378</ele>
        <time>2022-03-06T13:04:00Z</time>
      </trkpt>
      <trkpt lat="45.96164" lon="6.55631">
        <ele>2379</ele>
        <time>2022-03-06T13:04:05Z</time>
      </trkpt>
      <trkpt lat="45.96163" lon="6.5563">
        <ele>2379</ele>
        <time>2022-03-06T13:04:08Z</time>
      </trkpt>
      <trkpt lat="45.96164" lon="6.55627">
        <ele>2378</ele>
        <time>2022-03-06T13:04:12Z</time>
      </trkpt>
      <trkpt lat="45.96165" lon="6.55626">
        <ele>2377</ele>
        <time>2022-03-06T13:04:15Z</time>
      </trkpt>
      <trkpt lat="45.96167" lon="6.55623">
        <ele>2376</ele>
        <time>2022-03-06T13:04:19Z</time>
      </trkpt>
      <trkpt lat="45.96168" lon="6.55622">
        <ele>2375</ele>
        <time>2022-03-06T13:04:21Z</time>
      </trkpt>
      <trkpt lat="45.9617" lon="6.5562">
        <ele>2374</ele>
        <time>2022-03-06T13:04:23Z</time>
      </trkpt>
      <trkpt lat="45.96171" lon="6.55617">
        <ele>2373</ele>
        <time>2022-03-06T13:04:26Z</time>
      </trkpt>
      <trkpt lat="45.96171" lon="6.55614">
        <ele>2373</ele>
        <time>2022-03-06T13:04:30Z</time>
      </trkpt>
      <trkpt lat="45.96169" lon="6.55613">
        <ele>2373</ele>
        <time>2022-03-06T13:04:34Z</time>
      </trkpt>
      <trkpt lat="45.96167" lon="6.55612">
        <ele>2374</ele>
        <time>2022-03-06T13:04:37Z</time>
      </trkpt>
      <trkpt lat="45.96165" lon="6.55611">
        <ele>2374</ele>
        <time>2022-03-06T13:04:40Z</time>
      </trkpt>
      <trkpt lat="45.96163" lon="6.55611">
        <ele>2375</ele>
        <time>2022-03-06T13:04:44Z</time>
      </trkpt>
      <trkpt lat="45.96161" lon="6.55612">
        <ele>2376</ele>
        <time>2022-03-06T13:04:49Z</time>
      </trkpt>
      <trkpt lat="45.96158" lon="6.55614">
        <ele>2377</ele>
        <time>2022-03-06T13:04:53Z</time>
      </trkpt>
      <trkpt lat="45.96157" lon="6.55615">
        <ele>2378</ele>
        <time>2022-03-06T13:04:55Z</time>
      </trkpt>
      <trkpt lat="45.96155" lon="6.55617">
        <ele>2379</ele>
        <time>2022-03-06T13:04:57Z</time>
      </trkpt>
      <trkpt lat="45.96154" lon="6.5562">
        <ele>2380</ele>
        <time>2022-03-06T13:04:59Z</time>
      </trkpt>
      <trkpt lat="45.96152" lon="6.55623">
        <ele>2381</ele>
        <time>2022-03-06T13:05:04Z</time>
      </trkpt>
      <trkpt lat="45.9615" lon="6.55624">
        <ele>2382</ele>
        <time>2022-03-06T13:05:14Z</time>
      </trkpt>
      <trkpt lat="45.96149" lon="6.55626">
        <ele>2383</ele>
        <time>2022-03-06T13:05:17Z</time>
      </trkpt>
      <trkpt lat="45.96148" lon="6.55629">
        <ele>2384</ele>
        <time>2022-03-06T13:05:31Z</time>
      </trkpt>
      <trkpt lat="45.96147" lon="6.55631">
        <ele>2385</ele>
        <time>2022-03-06T13:05:35Z</time>
      </trkpt>
      <trkpt lat="45.96146" lon="6.55634">
        <ele>2386</ele>
        <time>2022-03-06T13:05:39Z</time>
      </trkpt>
      <trkpt lat="45.96146" lon="6.55637">
        <ele>2387</ele>
        <time>2022-03-06T13:05:43Z</time>
      </trkpt>
      <trkpt lat="45.96145" lon="6.5564">
        <ele>2387</ele>
        <time>2022-03-06T13:05:47Z</time>
      </trkpt>
      <trkpt lat="45.96144" lon="6.55643">
        <ele>2388</ele>
        <time>2022-03-06T13:05:50Z</time>
      </trkpt>
      <trkpt lat="45.96143" lon="6.55645">
        <ele>2389</ele>
        <time>2022-03-06T13:05:53Z</time>
      </trkpt>
      <trkpt lat="45.96142" lon="6.55647">
        <ele>2390</ele>
        <time>2022-03-06T13:05:56Z</time>
      </trkpt>
      <trkpt lat="45.96141" lon="6.55649">
        <ele>2391</ele>
        <time>2022-03-06T13:06:00Z</time>
      </trkpt>
      <trkpt lat="45.9614" lon="6.55652">
        <ele>2392</ele>
        <time>2022-03-06T13:06:04Z</time>
      </trkpt>
      <trkpt lat="45.9614" lon="6.55655">
        <ele>2393</ele>
        <time>2022-03-06T13:06:08Z</time>
      </trkpt>
      <trkpt lat="45.96138" lon="6.55657">
        <ele>2394</ele>
        <time>2022-03-06T13:06:14Z</time>
      </trkpt>
      <trkpt lat="45.96136" lon="6.55658">
        <ele>2395</ele>
        <time>2022-03-06T13:06:20Z</time>
      </trkpt>
      <trkpt lat="45.96135" lon="6.5566">
        <ele>2396</ele>
        <time>2022-03-06T13:06:24Z</time>
      </trkpt>
      <trkpt lat="45.96134" lon="6.55663">
        <ele>2397</ele>
        <time>2022-03-06T13:06:28Z</time>
      </trkpt>
      <trkpt lat="45.96133" lon="6.55666">
        <ele>2398</ele>
        <time>2022-03-06T13:06:30Z</time>
      </trkpt>
      <trkpt lat="45.96133" lon="6.55668">
        <ele>2399</ele>
        <time>2022-03-06T13:06:33Z</time>
      </trkpt>
      <trkpt lat="45.96133" lon="6.55671">
        <ele>2399</ele>
        <time>2022-03-06T13:06:37Z</time>
      </trkpt>
      <trkpt lat="45.96133" lon="6.55674">
        <ele>2399</ele>
        <time>2022-03-06T13:06:41Z</time>
      </trkpt>
      <trkpt lat="45.96132" lon="6.55676">
        <ele>2400</ele>
        <time>2022-03-06T13:06:59Z</time>
      </trkpt>
      <trkpt lat="45.96133" lon="6.55674">
        <ele>2399</ele>
        <time>2022-03-06T13:07:13Z</time>
      </trkpt>
      <trkpt lat="45.96134" lon="6.55677">
        <ele>2399</ele>
        <time>2022-03-06T13:07:24Z</time>
      </trkpt>
      <trkpt lat="45.96134" lon="6.5568">
        <ele>2399</ele>
        <time>2022-03-06T13:07:27Z</time>
      </trkpt>
      <trkpt lat="45.96134" lon="6.55684">
        <ele>2399</ele>
        <time>2022-03-06T13:07:31Z</time>
      </trkpt>
      <trkpt lat="45.96134" lon="6.55687">
        <ele>2400</ele>
        <time>2022-03-06T13:07:35Z</time>
      </trkpt>
      <trkpt lat="45.96132" lon="6.5569">
        <ele>2401</ele>
        <time>2022-03-06T13:07:38Z</time>
      </trkpt>
      <trkpt lat="45.96132" lon="6.55693">
        <ele>2401</ele>
        <time>2022-03-06T13:07:41Z</time>
      </trkpt>
      <trkpt lat="45.96132" lon="6.55696">
        <ele>2402</ele>
        <time>2022-03-06T13:07:45Z</time>
      </trkpt>
      <trkpt lat="45.96131" lon="6.55699">
        <ele>2402</ele>
        <time>2022-03-06T13:07:49Z</time>
      </trkpt>
      <trkpt lat="45.96131" lon="6.55702">
        <ele>2403</ele>
        <time>2022-03-06T13:07:53Z</time>
      </trkpt>
      <trkpt lat="45.9613" lon="6.55705">
        <ele>2404</ele>
        <time>2022-03-06T13:07:56Z</time>
      </trkpt>
      <trkpt lat="45.96129" lon="6.55708">
        <ele>2405</ele>
        <time>2022-03-06T13:08:00Z</time>
      </trkpt>
      <trkpt lat="45.96128" lon="6.5571">
        <ele>2406</ele>
        <time>2022-03-06T13:08:04Z</time>
      </trkpt>
      <trkpt lat="45.96126" lon="6.55712">
        <ele>2407</ele>
        <time>2022-03-06T13:08:08Z</time>
      </trkpt>
      <trkpt lat="45.96126" lon="6.55715">
        <ele>2408</ele>
        <time>2022-03-06T13:08:13Z</time>
      </trkpt>
      <trkpt lat="45.96125" lon="6.55718">
        <ele>2408</ele>
        <time>2022-03-06T13:08:17Z</time>
      </trkpt>
      <trkpt lat="45.96124" lon="6.55721">
        <ele>2409</ele>
        <time>2022-03-06T13:08:20Z</time>
      </trkpt>
      <trkpt lat="45.96124" lon="6.55723">
        <ele>2410</ele>
        <time>2022-03-06T13:08:24Z</time>
      </trkpt>
      <trkpt lat="45.96123" lon="6.55726">
        <ele>2411</ele>
        <time>2022-03-06T13:08:28Z</time>
      </trkpt>
      <trkpt lat="45.96122" lon="6.55729">
        <ele>2412</ele>
        <time>2022-03-06T13:08:32Z</time>
      </trkpt>
      <trkpt lat="45.96122" lon="6.55731">
        <ele>2413</ele>
        <time>2022-03-06T13:08:35Z</time>
      </trkpt>
      <trkpt lat="45.96122" lon="6.55734">
        <ele>2414</ele>
        <time>2022-03-06T13:08:38Z</time>
      </trkpt>
      <trkpt lat="45.96122" lon="6.55738">
        <ele>2415</ele>
        <time>2022-03-06T13:08:42Z</time>
      </trkpt>
      <trkpt lat="45.96121" lon="6.55741">
        <ele>2417</ele>
        <time>2022-03-06T13:08:45Z</time>
      </trkpt>
      <trkpt lat="45.96121" lon="6.55744">
        <ele>2417</ele>
        <time>2022-03-06T13:08:48Z</time>
      </trkpt>
      <trkpt lat="45.96122" lon="6.55747">
        <ele>2418</ele>
        <time>2022-03-06T13:08:52Z</time>
      </trkpt>
      <trkpt lat="45.96123" lon="6.55749">
        <ele>2418</ele>
        <time>2022-03-06T13:08:55Z</time>
      </trkpt>
      <trkpt lat="45.96124" lon="6.55751">
        <ele>2418</ele>
        <time>2022-03-06T13:08:59Z</time>
      </trkpt>
      <trkpt lat="45.96126" lon="6.55751">
        <ele>2417</ele>
        <time>2022-03-06T13:09:24Z</time>
      </trkpt>
      <trkpt lat="45.96127" lon="6.5575">
        <ele>2416</ele>
        <time>2022-03-06T13:09:53Z</time>
      </trkpt>
      <trkpt lat="45.96128" lon="6.55752">
        <ele>2416</ele>
        <time>2022-03-06T13:10:21Z</time>
      </trkpt>
      <trkpt lat="45.96129" lon="6.55755">
        <ele>2416</ele>
        <time>2022-03-06T13:10:24Z</time>
      </trkpt>
      <trkpt lat="45.96128" lon="6.55758">
        <ele>2417</ele>
        <time>2022-03-06T13:10:27Z</time>
      </trkpt>
      <trkpt lat="45.96128" lon="6.55761">
        <ele>2418</ele>
        <time>2022-03-06T13:10:30Z</time>
      </trkpt>
      <trkpt lat="45.96128" lon="6.55763">
        <ele>2419</ele>
        <time>2022-03-06T13:10:34Z</time>
      </trkpt>
      <trkpt lat="45.96128" lon="6.55766">
        <ele>2420</ele>
        <time>2022-03-06T13:10:41Z</time>
      </trkpt>
      <trkpt lat="45.96126" lon="6.55767">
        <ele>2421</ele>
        <time>2022-03-06T13:10:49Z</time>
      </trkpt>
      <trkpt lat="45.96124" lon="6.55767">
        <ele>2422</ele>
        <time>2022-03-06T13:10:54Z</time>
      </trkpt>
      <trkpt lat="45.96122" lon="6.55767">
        <ele>2423</ele>
        <time>2022-03-06T13:11:02Z</time>
      </trkpt>
      <trkpt lat="45.96121" lon="6.55769">
        <ele>2424</ele>
        <time>2022-03-06T13:11:05Z</time>
      </trkpt>
      <trkpt lat="45.9612" lon="6.55771">
        <ele>2425</ele>
        <time>2022-03-06T13:11:08Z</time>
      </trkpt>
      <trkpt lat="45.96119" lon="6.55774">
        <ele>2427</ele>
        <time>2022-03-06T13:11:13Z</time>
      </trkpt>
      <trkpt lat="45.96118" lon="6.55777">
        <ele>2428</ele>
        <time>2022-03-06T13:11:16Z</time>
      </trkpt>
      <trkpt lat="45.96118" lon="6.55779">
        <ele>2429</ele>
        <time>2022-03-06T13:11:20Z</time>
      </trkpt>
      <trkpt lat="45.96117" lon="6.55782">
        <ele>2430</ele>
        <time>2022-03-06T13:11:28Z</time>
      </trkpt>
      <trkpt lat="45.96115" lon="6.55784">
        <ele>2431</ele>
        <time>2022-03-06T13:11:33Z</time>
      </trkpt>
      <trkpt lat="45.96114" lon="6.55783">
        <ele>2432</ele>
        <time>2022-03-06T13:11:46Z</time>
      </trkpt>
      <trkpt lat="45.96112" lon="6.55781">
        <ele>2432</ele>
        <time>2022-03-06T13:11:58Z</time>
      </trkpt>
      <trkpt lat="45.96111" lon="6.55779">
        <ele>2432</ele>
        <time>2022-03-06T13:12:06Z</time>
      </trkpt>
      <trkpt lat="45.96109" lon="6.5578">
        <ele>2432</ele>
        <time>2022-03-06T13:12:20Z</time>
      </trkpt>
      <trkpt lat="45.96107" lon="6.55782">
        <ele>2433</ele>
        <time>2022-03-06T13:12:23Z</time>
      </trkpt>
      <trkpt lat="45.96107" lon="6.55785">
        <ele>2434</ele>
        <time>2022-03-06T13:12:27Z</time>
      </trkpt>
      <trkpt lat="45.96107" lon="6.55788">
        <ele>2434</ele>
        <time>2022-03-06T13:12:36Z</time>
      </trkpt>
      <trkpt lat="45.96105" lon="6.55786">
        <ele>2434</ele>
        <time>2022-03-06T13:12:46Z</time>
      </trkpt>
      <trkpt lat="45.96103" lon="6.55786">
        <ele>2434</ele>
        <time>2022-03-06T13:12:50Z</time>
      </trkpt>
      <trkpt lat="45.96101" lon="6.55785">
        <ele>2434</ele>
        <time>2022-03-06T13:12:54Z</time>
      </trkpt>
      <trkpt lat="45.96099" lon="6.55785">
        <ele>2434</ele>
        <time>2022-03-06T13:12:58Z</time>
      </trkpt>
      <trkpt lat="45.96098" lon="6.55786">
        <ele>2435</ele>
        <time>2022-03-06T13:13:11Z</time>
      </trkpt>
      <trkpt lat="45.96096" lon="6.55784">
        <ele>2434</ele>
        <time>2022-03-06T13:13:28Z</time>
      </trkpt>
      <trkpt lat="45.96094" lon="6.55784">
        <ele>2435</ele>
        <time>2022-03-06T13:13:32Z</time>
      </trkpt>
      <trkpt lat="45.96093" lon="6.55786">
        <ele>2435</ele>
        <time>2022-03-06T13:13:36Z</time>
      </trkpt>
      <trkpt lat="45.96094" lon="6.55789">
        <ele>2436</ele>
        <time>2022-03-06T13:13:39Z</time>
      </trkpt>
      <trkpt lat="45.96095" lon="6.55792">
        <ele>2436</ele>
        <time>2022-03-06T13:13:42Z</time>
      </trkpt>
      <trkpt lat="45.96095" lon="6.55795">
        <ele>2437</ele>
        <time>2022-03-06T13:13:47Z</time>
      </trkpt>
      <trkpt lat="45.96096" lon="6.55792">
        <ele>2436</ele>
        <time>2022-03-06T13:13:55Z</time>
      </trkpt>
      <trkpt lat="45.96094" lon="6.55791">
        <ele>2436</ele>
        <time>2022-03-06T13:14:01Z</time>
      </trkpt>
      <trkpt lat="45.96092" lon="6.55789">
        <ele>2436</ele>
        <time>2022-03-06T13:14:07Z</time>
      </trkpt>
      <trkpt lat="45.9609" lon="6.55789">
        <ele>2436</ele>
        <time>2022-03-06T13:14:13Z</time>
      </trkpt>
      <trkpt lat="45.96088" lon="6.55789">
        <ele>2436</ele>
        <time>2022-03-06T13:14:37Z</time>
      </trkpt>
      <trkpt lat="45.96086" lon="6.5579">
        <ele>2436</ele>
        <time>2022-03-06T13:14:46Z</time>
      </trkpt>
      <trkpt lat="45.96084" lon="6.55791">
        <ele>2437</ele>
        <time>2022-03-06T13:14:51Z</time>
      </trkpt>
      <trkpt lat="45.96082" lon="6.55792">
        <ele>2437</ele>
        <time>2022-03-06T13:14:54Z</time>
      </trkpt>
      <trkpt lat="45.9608" lon="6.55792">
        <ele>2436</ele>
        <time>2022-03-06T13:14:58Z</time>
      </trkpt>
      <trkpt lat="45.96078" lon="6.55792">
        <ele>2435</ele>
        <time>2022-03-06T13:15:01Z</time>
      </trkpt>
      <trkpt lat="45.96076" lon="6.55792">
        <ele>2434</ele>
        <time>2022-03-06T13:15:04Z</time>
      </trkpt>
      <trkpt lat="45.96073" lon="6.55793">
        <ele>2434</ele>
        <time>2022-03-06T13:15:07Z</time>
      </trkpt>
      <trkpt lat="45.96072" lon="6.55795">
        <ele>2433</ele>
        <time>2022-03-06T13:15:10Z</time>
      </trkpt>
      <trkpt lat="45.9607" lon="6.55797">
        <ele>2433</ele>
        <time>2022-03-06T13:15:13Z</time>
      </trkpt>
      <trkpt lat="45.9607" lon="6.55799">
        <ele>2433</ele>
        <time>2022-03-06T13:15:20Z</time>
      </trkpt>
      <trkpt lat="45.96071" lon="6.55802">
        <ele>2434</ele>
        <time>2022-03-06T13:15:34Z</time>
      </trkpt>
      <trkpt lat="45.96069" lon="6.55804">
        <ele>2434</ele>
        <time>2022-03-06T13:15:49Z</time>
      </trkpt>
      <trkpt lat="45.96068" lon="6.55805">
        <ele>2433</ele>
        <time>2022-03-06T13:15:55Z</time>
      </trkpt>
      <trkpt lat="45.9607" lon="6.55804">
        <ele>2434</ele>
        <time>2022-03-06T13:16:15Z</time>
      </trkpt>
      <trkpt lat="45.96072" lon="6.55804">
        <ele>2435</ele>
        <time>2022-03-06T13:16:18Z</time>
      </trkpt>
      <trkpt lat="45.96074" lon="6.55805">
        <ele>2436</ele>
        <time>2022-03-06T13:16:52Z</time>
      </trkpt>
      <trkpt lat="45.96072" lon="6.55805">
        <ele>2435</ele>
        <time>2022-03-06T13:20:07Z</time>
      </trkpt>
      <trkpt lat="45.96074" lon="6.55805">
        <ele>2436</ele>
        <time>2022-03-06T13:20:52Z</time>
      </trkpt>
      <trkpt lat="45.96076" lon="6.55805">
        <ele>2437</ele>
        <time>2022-03-06T13:21:17Z</time>
      </trkpt>
      <trkpt lat="45.96078" lon="6.55805">
        <ele>2437</ele>
        <time>2022-03-06T13:21:19Z</time>
      </trkpt>
      <trkpt lat="45.9608" lon="6.55804">
        <ele>2438</ele>
        <time>2022-03-06T13:21:21Z</time>
      </trkpt>
      <trkpt lat="45.96082" lon="6.55804">
        <ele>2439</ele>
        <time>2022-03-06T13:21:23Z</time>
      </trkpt>
      <trkpt lat="45.96084" lon="6.55803">
        <ele>2439</ele>
        <time>2022-03-06T13:21:25Z</time>
      </trkpt>
      <trkpt lat="45.96086" lon="6.55803">
        <ele>2439</ele>
        <time>2022-03-06T13:21:27Z</time>
      </trkpt>
      <trkpt lat="45.96088" lon="6.55804">
        <ele>2439</ele>
        <time>2022-03-06T13:21:30Z</time>
      </trkpt>
      <trkpt lat="45.9609" lon="6.55804">
        <ele>2439</ele>
        <time>2022-03-06T13:21:33Z</time>
      </trkpt>
      <trkpt lat="45.96093" lon="6.55806">
        <ele>2439</ele>
        <time>2022-03-06T13:21:36Z</time>
      </trkpt>
      <trkpt lat="45.96095" lon="6.55807">
        <ele>2439</ele>
        <time>2022-03-06T13:21:39Z</time>
      </trkpt>
      <trkpt lat="45.96097" lon="6.55808">
        <ele>2439</ele>
        <time>2022-03-06T13:21:42Z</time>
      </trkpt>
      <trkpt lat="45.96098" lon="6.5581">
        <ele>2439</ele>
        <time>2022-03-06T13:21:44Z</time>
      </trkpt>
      <trkpt lat="45.961" lon="6.55812">
        <ele>2440</ele>
        <time>2022-03-06T13:21:47Z</time>
      </trkpt>
      <trkpt lat="45.96102" lon="6.55813">
        <ele>2440</ele>
        <time>2022-03-06T13:21:50Z</time>
      </trkpt>
      <trkpt lat="45.96104" lon="6.55814">
        <ele>2440</ele>
        <time>2022-03-06T13:21:52Z</time>
      </trkpt>
      <trkpt lat="45.96106" lon="6.55817">
        <ele>2440</ele>
        <time>2022-03-06T13:21:55Z</time>
      </trkpt>
      <trkpt lat="45.96107" lon="6.55819">
        <ele>2440</ele>
        <time>2022-03-06T13:22:00Z</time>
      </trkpt>
      <trkpt lat="45.96108" lon="6.55822">
        <ele>2440</ele>
        <time>2022-03-06T13:22:04Z</time>
      </trkpt>
      <trkpt lat="45.96109" lon="6.55824">
        <ele>2441</ele>
        <time>2022-03-06T13:22:08Z</time>
      </trkpt>
      <trkpt lat="45.9611" lon="6.55826">
        <ele>2441</ele>
        <time>2022-03-06T13:22:12Z</time>
      </trkpt>
      <trkpt lat="45.96111" lon="6.55829">
        <ele>2441</ele>
        <time>2022-03-06T13:22:16Z</time>
      </trkpt>
      <trkpt lat="45.96113" lon="6.55831">
        <ele>2441</ele>
        <time>2022-03-06T13:22:20Z</time>
      </trkpt>
      <trkpt lat="45.96114" lon="6.55835">
        <ele>2442</ele>
        <time>2022-03-06T13:22:23Z</time>
      </trkpt>
      <trkpt lat="45.96115" lon="6.55838">
        <ele>2443</ele>
        <time>2022-03-06T13:22:26Z</time>
      </trkpt>
      <trkpt lat="45.96116" lon="6.55841">
        <ele>2444</ele>
        <time>2022-03-06T13:22:29Z</time>
      </trkpt>
      <trkpt lat="45.96117" lon="6.55844">
        <ele>2444</ele>
        <time>2022-03-06T13:22:32Z</time>
      </trkpt>
      <trkpt lat="45.96118" lon="6.55846">
        <ele>2445</ele>
        <time>2022-03-06T13:22:35Z</time>
      </trkpt>
      <trkpt lat="45.96119" lon="6.55849">
        <ele>2446</ele>
        <time>2022-03-06T13:22:38Z</time>
      </trkpt>
      <trkpt lat="45.96121" lon="6.55852">
        <ele>2447</ele>
        <time>2022-03-06T13:22:41Z</time>
      </trkpt>
      <trkpt lat="45.96122" lon="6.55854">
        <ele>2447</ele>
        <time>2022-03-06T13:22:44Z</time>
      </trkpt>
      <trkpt lat="45.96124" lon="6.55855">
        <ele>2448</ele>
        <time>2022-03-06T13:22:46Z</time>
      </trkpt>
      <trkpt lat="45.96125" lon="6.55858">
        <ele>2448</ele>
        <time>2022-03-06T13:22:49Z</time>
      </trkpt>
      <trkpt lat="45.96126" lon="6.5586">
        <ele>2449</ele>
        <time>2022-03-06T13:22:54Z</time>
      </trkpt>
      <trkpt lat="45.96128" lon="6.55861">
        <ele>2449</ele>
        <time>2022-03-06T13:22:58Z</time>
      </trkpt>
      <trkpt lat="45.9613" lon="6.55862">
        <ele>2449</ele>
        <time>2022-03-06T13:23:01Z</time>
      </trkpt>
      <trkpt lat="45.96132" lon="6.55863">
        <ele>2449</ele>
        <time>2022-03-06T13:23:07Z</time>
      </trkpt>
      <trkpt lat="45.96134" lon="6.55864">
        <ele>2449</ele>
        <time>2022-03-06T13:23:09Z</time>
      </trkpt>
      <trkpt lat="45.96135" lon="6.55864">
        <ele>2449</ele>
        <time>2022-03-06T13:23:11Z</time>
      </trkpt>
      <trkpt lat="45.96138" lon="6.55866">
        <ele>2449</ele>
        <time>2022-03-06T13:23:14Z</time>
      </trkpt>
      <trkpt lat="45.96141" lon="6.55867">
        <ele>2448</ele>
        <time>2022-03-06T13:23:17Z</time>
      </trkpt>
      <trkpt lat="45.96142" lon="6.55867">
        <ele>2447</ele>
        <time>2022-03-06T13:23:19Z</time>
      </trkpt>
      <trkpt lat="45.96144" lon="6.55868">
        <ele>2446</ele>
        <time>2022-03-06T13:23:22Z</time>
      </trkpt>
      <trkpt lat="45.96146" lon="6.55869">
        <ele>2445</ele>
        <time>2022-03-06T13:23:24Z</time>
      </trkpt>
      <trkpt lat="45.96148" lon="6.5587">
        <ele>2444</ele>
        <time>2022-03-06T13:23:27Z</time>
      </trkpt>
      <trkpt lat="45.9615" lon="6.55872">
        <ele>2444</ele>
        <time>2022-03-06T13:23:30Z</time>
      </trkpt>
      <trkpt lat="45.96152" lon="6.55873">
        <ele>2443</ele>
        <time>2022-03-06T13:23:33Z</time>
      </trkpt>
      <trkpt lat="45.96154" lon="6.55874">
        <ele>2442</ele>
        <time>2022-03-06T13:23:38Z</time>
      </trkpt>
      <trkpt lat="45.96156" lon="6.55875">
        <ele>2441</ele>
        <time>2022-03-06T13:23:41Z</time>
      </trkpt>
      <trkpt lat="45.96158" lon="6.55877">
        <ele>2440</ele>
        <time>2022-03-06T13:23:45Z</time>
      </trkpt>
      <trkpt lat="45.96158" lon="6.5588">
        <ele>2439</ele>
        <time>2022-03-06T13:23:50Z</time>
      </trkpt>
      <trkpt lat="45.96159" lon="6.55882">
        <ele>2439</ele>
        <time>2022-03-06T13:23:58Z</time>
      </trkpt>
      <trkpt lat="45.9616" lon="6.55884">
        <ele>2438</ele>
        <time>2022-03-06T13:24:01Z</time>
      </trkpt>
      <trkpt lat="45.96161" lon="6.55886">
        <ele>2437</ele>
        <time>2022-03-06T13:24:04Z</time>
      </trkpt>
      <trkpt lat="45.96162" lon="6.55889">
        <ele>2437</ele>
        <time>2022-03-06T13:24:08Z</time>
      </trkpt>
      <trkpt lat="45.96162" lon="6.55892">
        <ele>2436</ele>
        <time>2022-03-06T13:24:14Z</time>
      </trkpt>
      <trkpt lat="45.96161" lon="6.55895">
        <ele>2435</ele>
        <time>2022-03-06T13:24:20Z</time>
      </trkpt>
      <trkpt lat="45.96161" lon="6.55898">
        <ele>2434</ele>
        <time>2022-03-06T13:24:27Z</time>
      </trkpt>
      <trkpt lat="45.9616" lon="6.559">
        <ele>2433</ele>
        <time>2022-03-06T13:24:33Z</time>
      </trkpt>
      <trkpt lat="45.96159" lon="6.55902">
        <ele>2433</ele>
        <time>2022-03-06T13:24:40Z</time>
      </trkpt>
      <trkpt lat="45.96157" lon="6.55904">
        <ele>2433</ele>
        <time>2022-03-06T13:24:45Z</time>
      </trkpt>
      <trkpt lat="45.96156" lon="6.55906">
        <ele>2433</ele>
        <time>2022-03-06T13:24:54Z</time>
      </trkpt>
      <trkpt lat="45.96154" lon="6.55907">
        <ele>2433</ele>
        <time>2022-03-06T13:25:07Z</time>
      </trkpt>
      <trkpt lat="45.96152" lon="6.55908">
        <ele>2434</ele>
        <time>2022-03-06T13:25:11Z</time>
      </trkpt>
      <trkpt lat="45.96151" lon="6.55906">
        <ele>2435</ele>
        <time>2022-03-06T13:25:19Z</time>
      </trkpt>
      <trkpt lat="45.96149" lon="6.55906">
        <ele>2436</ele>
        <time>2022-03-06T13:25:27Z</time>
      </trkpt>
      <trkpt lat="45.96148" lon="6.55908">
        <ele>2436</ele>
        <time>2022-03-06T13:25:33Z</time>
      </trkpt>
      <trkpt lat="45.96146" lon="6.5591">
        <ele>2436</ele>
        <time>2022-03-06T13:25:38Z</time>
      </trkpt>
      <trkpt lat="45.96144" lon="6.5591">
        <ele>2437</ele>
        <time>2022-03-06T13:25:45Z</time>
      </trkpt>
      <trkpt lat="45.96144" lon="6.55907">
        <ele>2438</ele>
        <time>2022-03-06T13:31:51Z</time>
      </trkpt>
      <trkpt lat="45.96145" lon="6.55909">
        <ele>2437</ele>
        <time>2022-03-06T13:31:57Z</time>
      </trkpt>
      <trkpt lat="45.96146" lon="6.55907">
        <ele>2437</ele>
        <time>2022-03-06T13:32:06Z</time>
      </trkpt>
      <trkpt lat="45.96147" lon="6.55904">
        <ele>2438</ele>
        <time>2022-03-06T13:32:11Z</time>
      </trkpt>
      <trkpt lat="45.96148" lon="6.55903">
        <ele>2438</ele>
        <time>2022-03-06T13:32:20Z</time>
      </trkpt>
      <trkpt lat="45.96148" lon="6.559">
        <ele>2439</ele>
        <time>2022-03-06T13:32:27Z</time>
      </trkpt>
      <trkpt lat="45.96146" lon="6.55899">
        <ele>2441</ele>
        <time>2022-03-06T13:32:38Z</time>
      </trkpt>
      <trkpt lat="45.96144" lon="6.55896">
        <ele>2443</ele>
        <time>2022-03-06T13:32:45Z</time>
      </trkpt>
      <trkpt lat="45.96145" lon="6.55894">
        <ele>2443</ele>
        <time>2022-03-06T13:32:56Z</time>
      </trkpt>
      <trkpt lat="45.96147" lon="6.55892">
        <ele>2443</ele>
        <time>2022-03-06T13:32:59Z</time>
      </trkpt>
      <trkpt lat="45.96147" lon="6.55889">
        <ele>2444</ele>
        <time>2022-03-06T13:33:02Z</time>
      </trkpt>
      <trkpt lat="45.96147" lon="6.55886">
        <ele>2445</ele>
        <time>2022-03-06T13:33:05Z</time>
      </trkpt>
      <trkpt lat="45.96146" lon="6.55883">
        <ele>2445</ele>
        <time>2022-03-06T13:33:08Z</time>
      </trkpt>
      <trkpt lat="45.96144" lon="6.55881">
        <ele>2446</ele>
        <time>2022-03-06T13:33:10Z</time>
      </trkpt>
      <trkpt lat="45.96142" lon="6.55879">
        <ele>2447</ele>
        <time>2022-03-06T13:33:13Z</time>
      </trkpt>
      <trkpt lat="45.96141" lon="6.55876">
        <ele>2448</ele>
        <time>2022-03-06T13:33:16Z</time>
      </trkpt>
      <trkpt lat="45.96139" lon="6.55873">
        <ele>2449</ele>
        <time>2022-03-06T13:33:19Z</time>
      </trkpt>
      <trkpt lat="45.96137" lon="6.55874">
        <ele>2449</ele>
        <time>2022-03-06T13:33:22Z</time>
      </trkpt>
      <trkpt lat="45.96135" lon="6.55873">
        <ele>2449</ele>
        <time>2022-03-06T13:33:26Z</time>
      </trkpt>
      <trkpt lat="45.96132" lon="6.55873">
        <ele>2449</ele>
        <time>2022-03-06T13:33:29Z</time>
      </trkpt>
      <trkpt lat="45.9613" lon="6.55873">
        <ele>2449</ele>
        <time>2022-03-06T13:33:31Z</time>
      </trkpt>
      <trkpt lat="45.96129" lon="6.55873">
        <ele>2450</ele>
        <time>2022-03-06T13:33:34Z</time>
      </trkpt>
      <trkpt lat="45.96127" lon="6.55872">
        <ele>2450</ele>
        <time>2022-03-06T13:33:36Z</time>
      </trkpt>
      <trkpt lat="45.96125" lon="6.5587">
        <ele>2450</ele>
        <time>2022-03-06T13:33:39Z</time>
      </trkpt>
      <trkpt lat="45.96124" lon="6.55868">
        <ele>2450</ele>
        <time>2022-03-06T13:33:43Z</time>
      </trkpt>
      <trkpt lat="45.96126" lon="6.55867">
        <ele>2450</ele>
        <time>2022-03-06T13:33:47Z</time>
      </trkpt>
      <trkpt lat="45.96127" lon="6.55864">
        <ele>2449</ele>
        <time>2022-03-06T13:33:53Z</time>
      </trkpt>
      <trkpt lat="45.96126" lon="6.55861">
        <ele>2449</ele>
        <time>2022-03-06T13:34:04Z</time>
      </trkpt>
      <trkpt lat="45.96125" lon="6.55859">
        <ele>2449</ele>
        <time>2022-03-06T13:34:07Z</time>
      </trkpt>
      <trkpt lat="45.96123" lon="6.55858">
        <ele>2449</ele>
        <time>2022-03-06T13:34:09Z</time>
      </trkpt>
      <trkpt lat="45.96121" lon="6.55857">
        <ele>2449</ele>
        <time>2022-03-06T13:34:11Z</time>
      </trkpt>
      <trkpt lat="45.96119" lon="6.55856">
        <ele>2448</ele>
        <time>2022-03-06T13:34:13Z</time>
      </trkpt>
      <trkpt lat="45.96118" lon="6.55855">
        <ele>2448</ele>
        <time>2022-03-06T13:34:15Z</time>
      </trkpt>
      <trkpt lat="45.96116" lon="6.55854">
        <ele>2448</ele>
        <time>2022-03-06T13:34:18Z</time>
      </trkpt>
      <trkpt lat="45.96114" lon="6.55852">
        <ele>2447</ele>
        <time>2022-03-06T13:34:21Z</time>
      </trkpt>
      <trkpt lat="45.96112" lon="6.5585">
        <ele>2447</ele>
        <time>2022-03-06T13:34:24Z</time>
      </trkpt>
      <trkpt lat="45.96111" lon="6.55847">
        <ele>2446</ele>
        <time>2022-03-06T13:34:27Z</time>
      </trkpt>
      <trkpt lat="45.96109" lon="6.55845">
        <ele>2445</ele>
        <time>2022-03-06T13:34:31Z</time>
      </trkpt>
      <trkpt lat="45.96106" lon="6.55843">
        <ele>2444</ele>
        <time>2022-03-06T13:34:34Z</time>
      </trkpt>
      <trkpt lat="45.96105" lon="6.55843">
        <ele>2444</ele>
        <time>2022-03-06T13:34:37Z</time>
      </trkpt>
      <trkpt lat="45.96103" lon="6.55844">
        <ele>2444</ele>
        <time>2022-03-06T13:34:42Z</time>
      </trkpt>
      <trkpt lat="45.96101" lon="6.55843">
        <ele>2444</ele>
        <time>2022-03-06T13:34:48Z</time>
      </trkpt>
      <trkpt lat="45.96099" lon="6.55844">
        <ele>2444</ele>
        <time>2022-03-06T13:34:53Z</time>
      </trkpt>
      <trkpt lat="45.961" lon="6.55846">
        <ele>2444</ele>
        <time>2022-03-06T13:35:15Z</time>
      </trkpt>
      <trkpt lat="45.96102" lon="6.55846">
        <ele>2445</ele>
        <time>2022-03-06T13:35:19Z</time>
      </trkpt>
      <trkpt lat="45.96104" lon="6.55846">
        <ele>2445</ele>
        <time>2022-03-06T13:35:22Z</time>
      </trkpt>
      <trkpt lat="45.96106" lon="6.55845">
        <ele>2445</ele>
        <time>2022-03-06T13:35:25Z</time>
      </trkpt>
      <trkpt lat="45.96107" lon="6.55843">
        <ele>2444</ele>
        <time>2022-03-06T13:35:29Z</time>
      </trkpt>
      <trkpt lat="45.9611" lon="6.55842">
        <ele>2444</ele>
        <time>2022-03-06T13:35:33Z</time>
      </trkpt>
      <trkpt lat="45.96111" lon="6.55841">
        <ele>2444</ele>
        <time>2022-03-06T13:35:35Z</time>
      </trkpt>
      <trkpt lat="45.96113" lon="6.55839">
        <ele>2443</ele>
        <time>2022-03-06T13:35:38Z</time>
      </trkpt>
      <trkpt lat="45.96115" lon="6.55836">
        <ele>2442</ele>
        <time>2022-03-06T13:35:41Z</time>
      </trkpt>
      <trkpt lat="45.96116" lon="6.55833">
        <ele>2441</ele>
        <time>2022-03-06T13:35:44Z</time>
      </trkpt>
      <trkpt lat="45.96115" lon="6.5583">
        <ele>2441</ele>
        <time>2022-03-06T13:35:47Z</time>
      </trkpt>
      <trkpt lat="45.96113" lon="6.55827">
        <ele>2441</ele>
        <time>2022-03-06T13:35:50Z</time>
      </trkpt>
      <trkpt lat="45.96111" lon="6.55825">
        <ele>2441</ele>
        <time>2022-03-06T13:35:53Z</time>
      </trkpt>
      <trkpt lat="45.9611" lon="6.55822">
        <ele>2440</ele>
        <time>2022-03-06T13:35:56Z</time>
      </trkpt>
      <trkpt lat="45.96109" lon="6.55819">
        <ele>2440</ele>
        <time>2022-03-06T13:35:59Z</time>
      </trkpt>
      <trkpt lat="45.96107" lon="6.55817">
        <ele>2440</ele>
        <time>2022-03-06T13:36:02Z</time>
      </trkpt>
      <trkpt lat="45.96106" lon="6.55814">
        <ele>2440</ele>
        <time>2022-03-06T13:36:05Z</time>
      </trkpt>
      <trkpt lat="45.96104" lon="6.55811">
        <ele>2439</ele>
        <time>2022-03-06T13:36:07Z</time>
      </trkpt>
      <trkpt lat="45.96103" lon="6.5581">
        <ele>2439</ele>
        <time>2022-03-06T13:36:09Z</time>
      </trkpt>
      <trkpt lat="45.96101" lon="6.55808">
        <ele>2439</ele>
        <time>2022-03-06T13:36:12Z</time>
      </trkpt>
      <trkpt lat="45.96099" lon="6.55806">
        <ele>2439</ele>
        <time>2022-03-06T13:36:15Z</time>
      </trkpt>
      <trkpt lat="45.96097" lon="6.55804">
        <ele>2439</ele>
        <time>2022-03-06T13:36:17Z</time>
      </trkpt>
      <trkpt lat="45.96095" lon="6.55803">
        <ele>2438</ele>
        <time>2022-03-06T13:36:19Z</time>
      </trkpt>
      <trkpt lat="45.96094" lon="6.55801">
        <ele>2438</ele>
        <time>2022-03-06T13:36:21Z</time>
      </trkpt>
      <trkpt lat="45.96092" lon="6.55799">
        <ele>2438</ele>
        <time>2022-03-06T13:36:24Z</time>
      </trkpt>
      <trkpt lat="45.9609" lon="6.55798">
        <ele>2438</ele>
        <time>2022-03-06T13:36:26Z</time>
      </trkpt>
      <trkpt lat="45.96088" lon="6.55798">
        <ele>2438</ele>
        <time>2022-03-06T13:36:28Z</time>
      </trkpt>
      <trkpt lat="45.96086" lon="6.55797">
        <ele>2438</ele>
        <time>2022-03-06T13:36:30Z</time>
      </trkpt>
      <trkpt lat="45.96084" lon="6.55796">
        <ele>2438</ele>
        <time>2022-03-06T13:36:32Z</time>
      </trkpt>
      <trkpt lat="45.96082" lon="6.55794">
        <ele>2437</ele>
        <time>2022-03-06T13:36:34Z</time>
      </trkpt>
      <trkpt lat="45.9608" lon="6.55795">
        <ele>2436</ele>
        <time>2022-03-06T13:36:36Z</time>
      </trkpt>
      <trkpt lat="45.96078" lon="6.55795">
        <ele>2436</ele>
        <time>2022-03-06T13:36:39Z</time>
      </trkpt>
      <trkpt lat="45.96076" lon="6.55795">
        <ele>2435</ele>
        <time>2022-03-06T13:36:42Z</time>
      </trkpt>
      <trkpt lat="45.96073" lon="6.55795">
        <ele>2434</ele>
        <time>2022-03-06T13:36:45Z</time>
      </trkpt>
      <trkpt lat="45.96071" lon="6.55797">
        <ele>2433</ele>
        <time>2022-03-06T13:36:48Z</time>
      </trkpt>
      <trkpt lat="45.9607" lon="6.558">
        <ele>2433</ele>
        <time>2022-03-06T13:36:50Z</time>
      </trkpt>
      <trkpt lat="45.9607" lon="6.55802">
        <ele>2434</ele>
        <time>2022-03-06T13:36:58Z</time>
      </trkpt>
      <trkpt lat="45.96069" lon="6.55804">
        <ele>2434</ele>
        <time>2022-03-06T13:37:10Z</time>
      </trkpt>
      <trkpt lat="45.96071" lon="6.55805">
        <ele>2435</ele>
        <time>2022-03-06T13:38:06Z</time>
      </trkpt>
      <trkpt lat="45.96073" lon="6.55806">
        <ele>2436</ele>
        <time>2022-03-06T13:38:09Z</time>
      </trkpt>
      <trkpt lat="45.96074" lon="6.55809">
        <ele>2436</ele>
        <time>2022-03-06T13:38:15Z</time>
      </trkpt>
      <trkpt lat="45.96076" lon="6.55809">
        <ele>2437</ele>
        <time>2022-03-06T13:38:22Z</time>
      </trkpt>
      <trkpt lat="45.96075" lon="6.55806">
        <ele>2436</ele>
        <time>2022-03-06T13:50:30Z</time>
      </trkpt>
      <trkpt lat="45.96075" lon="6.55802">
        <ele>2436</ele>
        <time>2022-03-06T13:50:34Z</time>
      </trkpt>
      <trkpt lat="45.96073" lon="6.558">
        <ele>2435</ele>
        <time>2022-03-06T13:50:36Z</time>
      </trkpt>
      <trkpt lat="45.96074" lon="6.55803">
        <ele>2435</ele>
        <time>2022-03-06T13:50:41Z</time>
      </trkpt>
      <trkpt lat="45.96075" lon="6.55804">
        <ele>2436</ele>
        <time>2022-03-06T13:50:45Z</time>
      </trkpt>
      <trkpt lat="45.96074" lon="6.55806">
        <ele>2436</ele>
        <time>2022-03-06T13:51:08Z</time>
      </trkpt>
      <trkpt lat="45.96072" lon="6.55806">
        <ele>2435</ele>
        <time>2022-03-06T13:51:22Z</time>
      </trkpt>
      <trkpt lat="45.9607" lon="6.55806">
        <ele>2434</ele>
        <time>2022-03-06T13:52:16Z</time>
      </trkpt>
      <trkpt lat="45.96072" lon="6.55807">
        <ele>2435</ele>
        <time>2022-03-06T13:52:45Z</time>
      </trkpt>
      <trkpt lat="45.96074" lon="6.55807">
        <ele>2436</ele>
        <time>2022-03-06T13:52:48Z</time>
      </trkpt>
      <trkpt lat="45.96076" lon="6.55807">
        <ele>2437</ele>
        <time>2022-03-06T13:53:08Z</time>
      </trkpt>
      <trkpt lat="45.96074" lon="6.55805">
        <ele>2436</ele>
        <time>2022-03-06T13:53:20Z</time>
      </trkpt>
      <trkpt lat="45.96072" lon="6.55806">
        <ele>2435</ele>
        <time>2022-03-06T13:53:52Z</time>
      </trkpt>
      <trkpt lat="45.96074" lon="6.55804">
        <ele>2436</ele>
        <time>2022-03-06T13:54:55Z</time>
      </trkpt>
      <trkpt lat="45.96076" lon="6.55805">
        <ele>2436</ele>
        <time>2022-03-06T13:56:20Z</time>
      </trkpt>
      <trkpt lat="45.96074" lon="6.55804">
        <ele>2436</ele>
        <time>2022-03-06T13:56:43Z</time>
      </trkpt>
      <trkpt lat="45.96072" lon="6.55806">
        <ele>2435</ele>
        <time>2022-03-06T13:57:43Z</time>
      </trkpt>
      <trkpt lat="45.96075" lon="6.55805">
        <ele>2436</ele>
        <time>2022-03-06T13:57:54Z</time>
      </trkpt>
      <trkpt lat="45.96077" lon="6.55805">
        <ele>2437</ele>
        <time>2022-03-06T13:58:08Z</time>
      </trkpt>
      <trkpt lat="45.96075" lon="6.55804">
        <ele>2436</ele>
        <time>2022-03-06T13:58:19Z</time>
      </trkpt>
      <trkpt lat="45.96072" lon="6.55804">
        <ele>2435</ele>
        <time>2022-03-06T13:58:22Z</time>
      </trkpt>
      <trkpt lat="45.96074" lon="6.55802">
        <ele>2435</ele>
        <time>2022-03-06T13:58:46Z</time>
      </trkpt>
      <trkpt lat="45.96075" lon="6.55805">
        <ele>2436</ele>
        <time>2022-03-06T13:59:07Z</time>
      </trkpt>
      <trkpt lat="45.96076" lon="6.55807">
        <ele>2437</ele>
        <time>2022-03-06T13:59:14Z</time>
      </trkpt>
      <trkpt lat="45.96075" lon="6.55804">
        <ele>2436</ele>
        <time>2022-03-06T13:59:31Z</time>
      </trkpt>
      <trkpt lat="45.96073" lon="6.55805">
        <ele>2435</ele>
        <time>2022-03-06T13:59:37Z</time>
      </trkpt>
      <trkpt lat="45.96074" lon="6.55802">
        <ele>2435</ele>
        <time>2022-03-06T14:01:06Z</time>
      </trkpt>
      <trkpt lat="45.96072" lon="6.55803">
        <ele>2435</ele>
        <time>2022-03-06T14:01:24Z</time>
      </trkpt>
      <trkpt lat="45.96074" lon="6.55803">
        <ele>2436</ele>
        <time>2022-03-06T14:02:22Z</time>
      </trkpt>
      <trkpt lat="45.96076" lon="6.55802">
        <ele>2436</ele>
        <time>2022-03-06T14:02:36Z</time>
      </trkpt>
      <trkpt lat="45.96078" lon="6.558">
        <ele>2437</ele>
        <time>2022-03-06T14:03:14Z</time>
      </trkpt>
      <trkpt lat="45.96081" lon="6.55798">
        <ele>2437</ele>
        <time>2022-03-06T14:03:16Z</time>
      </trkpt>
      <trkpt lat="45.96084" lon="6.55797">
        <ele>2438</ele>
        <time>2022-03-06T14:03:18Z</time>
      </trkpt>
      <trkpt lat="45.96085" lon="6.55796">
        <ele>2438</ele>
        <time>2022-03-06T14:03:20Z</time>
      </trkpt>
      <trkpt lat="45.96088" lon="6.55794">
        <ele>2437</ele>
        <time>2022-03-06T14:03:22Z</time>
      </trkpt>
      <trkpt lat="45.9609" lon="6.55792">
        <ele>2437</ele>
        <time>2022-03-06T14:03:24Z</time>
      </trkpt>
      <trkpt lat="45.9609" lon="6.55786">
        <ele>2435</ele>
        <time>2022-03-06T14:03:25Z</time>
      </trkpt>
      <trkpt lat="45.9609" lon="6.55784">
        <ele>2435</ele>
        <time>2022-03-06T14:03:27Z</time>
      </trkpt>
      <trkpt lat="45.96091" lon="6.5578">
        <ele>2434</ele>
        <time>2022-03-06T14:03:28Z</time>
      </trkpt>
      <trkpt lat="45.96093" lon="6.55778">
        <ele>2433</ele>
        <time>2022-03-06T14:03:29Z</time>
      </trkpt>
      <trkpt lat="45.96095" lon="6.55775">
        <ele>2433</ele>
        <time>2022-03-06T14:03:30Z</time>
      </trkpt>
      <trkpt lat="45.96097" lon="6.55775">
        <ele>2432</ele>
        <time>2022-03-06T14:03:32Z</time>
      </trkpt>
      <trkpt lat="45.96101" lon="6.55774">
        <ele>2432</ele>
        <time>2022-03-06T14:03:34Z</time>
      </trkpt>
      <trkpt lat="45.96104" lon="6.55775">
        <ele>2432</ele>
        <time>2022-03-06T14:03:35Z</time>
      </trkpt>
      <trkpt lat="45.96107" lon="6.55775">
        <ele>2431</ele>
        <time>2022-03-06T14:03:36Z</time>
      </trkpt>
      <trkpt lat="45.96109" lon="6.55775">
        <ele>2431</ele>
        <time>2022-03-06T14:03:37Z</time>
      </trkpt>
      <trkpt lat="45.96112" lon="6.55776">
        <ele>2430</ele>
        <time>2022-03-06T14:03:39Z</time>
      </trkpt>
      <trkpt lat="45.96116" lon="6.55777">
        <ele>2429</ele>
        <time>2022-03-06T14:03:41Z</time>
      </trkpt>
      <trkpt lat="45.96119" lon="6.55777">
        <ele>2428</ele>
        <time>2022-03-06T14:03:42Z</time>
      </trkpt>
      <trkpt lat="45.96121" lon="6.55776">
        <ele>2426</ele>
        <time>2022-03-06T14:03:43Z</time>
      </trkpt>
      <trkpt lat="45.96124" lon="6.55771">
        <ele>2423</ele>
        <time>2022-03-06T14:03:44Z</time>
      </trkpt>
      <trkpt lat="45.96127" lon="6.55767">
        <ele>2420</ele>
        <time>2022-03-06T14:03:45Z</time>
      </trkpt>
      <trkpt lat="45.9613" lon="6.55766">
        <ele>2419</ele>
        <time>2022-03-06T14:03:46Z</time>
      </trkpt>
      <trkpt lat="45.96133" lon="6.55764">
        <ele>2417</ele>
        <time>2022-03-06T14:03:47Z</time>
      </trkpt>
      <trkpt lat="45.96135" lon="6.55763">
        <ele>2415</ele>
        <time>2022-03-06T14:03:48Z</time>
      </trkpt>
      <trkpt lat="45.96138" lon="6.55762">
        <ele>2413</ele>
        <time>2022-03-06T14:03:49Z</time>
      </trkpt>
      <trkpt lat="45.9614" lon="6.55762">
        <ele>2413</ele>
        <time>2022-03-06T14:03:50Z</time>
      </trkpt>
      <trkpt lat="45.96143" lon="6.55756">
        <ele>2410</ele>
        <time>2022-03-06T14:04:03Z</time>
      </trkpt>
      <trkpt lat="45.96146" lon="6.55752">
        <ele>2408</ele>
        <time>2022-03-06T14:04:04Z</time>
      </trkpt>
      <trkpt lat="45.96149" lon="6.55748">
        <ele>2406</ele>
        <time>2022-03-06T14:04:05Z</time>
      </trkpt>
      <trkpt lat="45.96153" lon="6.55741">
        <ele>2404</ele>
        <time>2022-03-06T14:04:06Z</time>
      </trkpt>
      <trkpt lat="45.96155" lon="6.55733">
        <ele>2402</ele>
        <time>2022-03-06T14:04:07Z</time>
      </trkpt>
      <trkpt lat="45.96156" lon="6.55726">
        <ele>2400</ele>
        <time>2022-03-06T14:04:08Z</time>
      </trkpt>
      <trkpt lat="45.96158" lon="6.55719">
        <ele>2398</ele>
        <time>2022-03-06T14:04:09Z</time>
      </trkpt>
      <trkpt lat="45.96156" lon="6.55712">
        <ele>2397</ele>
        <time>2022-03-06T14:04:10Z</time>
      </trkpt>
      <trkpt lat="45.96157" lon="6.55706">
        <ele>2395</ele>
        <time>2022-03-06T14:04:11Z</time>
      </trkpt>
      <trkpt lat="45.96158" lon="6.557">
        <ele>2394</ele>
        <time>2022-03-06T14:04:12Z</time>
      </trkpt>
      <trkpt lat="45.96159" lon="6.55685">
        <ele>2391</ele>
        <time>2022-03-06T14:04:14Z</time>
      </trkpt>
      <trkpt lat="45.9616" lon="6.55671">
        <ele>2388</ele>
        <time>2022-03-06T14:04:16Z</time>
      </trkpt>
      <trkpt lat="45.96161" lon="6.55666">
        <ele>2387</ele>
        <time>2022-03-06T14:04:17Z</time>
      </trkpt>
      <trkpt lat="45.96162" lon="6.55664">
        <ele>2386</ele>
        <time>2022-03-06T14:04:18Z</time>
      </trkpt>
      <trkpt lat="45.96167" lon="6.55665">
        <ele>2384</ele>
        <time>2022-03-06T14:04:20Z</time>
      </trkpt>
      <trkpt lat="45.96168" lon="6.55668">
        <ele>2385</ele>
        <time>2022-03-06T14:04:31Z</time>
      </trkpt>
      <trkpt lat="45.96169" lon="6.55666">
        <ele>2384</ele>
        <time>2022-03-06T14:04:47Z</time>
      </trkpt>
      <trkpt lat="45.96168" lon="6.55663">
        <ele>2384</ele>
        <time>2022-03-06T14:04:49Z</time>
      </trkpt>
      <trkpt lat="45.96167" lon="6.5566">
        <ele>2383</ele>
        <time>2022-03-06T14:04:50Z</time>
      </trkpt>
      <trkpt lat="45.96165" lon="6.55657">
        <ele>2383</ele>
        <time>2022-03-06T14:04:51Z</time>
      </trkpt>
      <trkpt lat="45.96165" lon="6.55653">
        <ele>2382</ele>
        <time>2022-03-06T14:04:55Z</time>
      </trkpt>
      <trkpt lat="45.96166" lon="6.55648">
        <ele>2382</ele>
        <time>2022-03-06T14:04:57Z</time>
      </trkpt>
      <trkpt lat="45.96166" lon="6.55646">
        <ele>2381</ele>
        <time>2022-03-06T14:04:58Z</time>
      </trkpt>
      <trkpt lat="45.96165" lon="6.55643">
        <ele>2381</ele>
        <time>2022-03-06T14:04:59Z</time>
      </trkpt>
      <trkpt lat="45.96164" lon="6.55638">
        <ele>2380</ele>
        <time>2022-03-06T14:05:00Z</time>
      </trkpt>
      <trkpt lat="45.96165" lon="6.55631">
        <ele>2378</ele>
        <time>2022-03-06T14:05:01Z</time>
      </trkpt>
      <trkpt lat="45.9617" lon="6.55619">
        <ele>2374</ele>
        <time>2022-03-06T14:05:03Z</time>
      </trkpt>
      <trkpt lat="45.96174" lon="6.55615">
        <ele>2372</ele>
        <time>2022-03-06T14:05:04Z</time>
      </trkpt>
      <trkpt lat="45.96177" lon="6.5561">
        <ele>2370</ele>
        <time>2022-03-06T14:05:05Z</time>
      </trkpt>
      <trkpt lat="45.96182" lon="6.55606">
        <ele>2368</ele>
        <time>2022-03-06T14:05:06Z</time>
      </trkpt>
      <trkpt lat="45.96186" lon="6.55601">
        <ele>2366</ele>
        <time>2022-03-06T14:05:07Z</time>
      </trkpt>
      <trkpt lat="45.96193" lon="6.55595">
        <ele>2363</ele>
        <time>2022-03-06T14:05:09Z</time>
      </trkpt>
      <trkpt lat="45.96195" lon="6.55594">
        <ele>2362</ele>
        <time>2022-03-06T14:05:10Z</time>
      </trkpt>
      <trkpt lat="45.96197" lon="6.55593">
        <ele>2362</ele>
        <time>2022-03-06T14:05:11Z</time>
      </trkpt>
      <trkpt lat="45.962" lon="6.55593">
        <ele>2361</ele>
        <time>2022-03-06T14:05:12Z</time>
      </trkpt>
      <trkpt lat="45.96202" lon="6.55592">
        <ele>2360</ele>
        <time>2022-03-06T14:05:14Z</time>
      </trkpt>
      <trkpt lat="45.962" lon="6.55594">
        <ele>2361</ele>
        <time>2022-03-06T14:06:05Z</time>
      </trkpt>
      <trkpt lat="45.96199" lon="6.55595">
        <ele>2362</ele>
        <time>2022-03-06T14:06:07Z</time>
      </trkpt>
      <trkpt lat="45.96198" lon="6.55592">
        <ele>2361</ele>
        <time>2022-03-06T14:06:12Z</time>
      </trkpt>
      <trkpt lat="45.96199" lon="6.55585">
        <ele>2360</ele>
        <time>2022-03-06T14:06:13Z</time>
      </trkpt>
      <trkpt lat="45.962" lon="6.55577">
        <ele>2358</ele>
        <time>2022-03-06T14:06:14Z</time>
      </trkpt>
      <trkpt lat="45.96201" lon="6.55568">
        <ele>2356</ele>
        <time>2022-03-06T14:06:15Z</time>
      </trkpt>
      <trkpt lat="45.96202" lon="6.55559">
        <ele>2354</ele>
        <time>2022-03-06T14:06:16Z</time>
      </trkpt>
      <trkpt lat="45.96203" lon="6.55548">
        <ele>2352</ele>
        <time>2022-03-06T14:06:17Z</time>
      </trkpt>
      <trkpt lat="45.96203" lon="6.55538">
        <ele>2350</ele>
        <time>2022-03-06T14:06:18Z</time>
      </trkpt>
      <trkpt lat="45.96203" lon="6.55528">
        <ele>2348</ele>
        <time>2022-03-06T14:06:19Z</time>
      </trkpt>
      <trkpt lat="45.96203" lon="6.55518">
        <ele>2346</ele>
        <time>2022-03-06T14:06:20Z</time>
      </trkpt>
      <trkpt lat="45.96202" lon="6.5551">
        <ele>2345</ele>
        <time>2022-03-06T14:06:21Z</time>
      </trkpt>
      <trkpt lat="45.96203" lon="6.55505">
        <ele>2344</ele>
        <time>2022-03-06T14:06:22Z</time>
      </trkpt>
      <trkpt lat="45.96204" lon="6.55501">
        <ele>2343</ele>
        <time>2022-03-06T14:06:23Z</time>
      </trkpt>
      <trkpt lat="45.96208" lon="6.555">
        <ele>2342</ele>
        <time>2022-03-06T14:06:24Z</time>
      </trkpt>
      <trkpt lat="45.96216" lon="6.55485">
        <ele>2339</ele>
        <time>2022-03-06T14:06:26Z</time>
      </trkpt>
      <trkpt lat="45.9622" lon="6.55477">
        <ele>2337</ele>
        <time>2022-03-06T14:06:27Z</time>
      </trkpt>
      <trkpt lat="45.96228" lon="6.55465">
        <ele>2336</ele>
        <time>2022-03-06T14:06:29Z</time>
      </trkpt>
      <trkpt lat="45.96235" lon="6.55448">
        <ele>2334</ele>
        <time>2022-03-06T14:06:31Z</time>
      </trkpt>
      <trkpt lat="45.96238" lon="6.55437">
        <ele>2333</ele>
        <time>2022-03-06T14:06:32Z</time>
      </trkpt>
      <trkpt lat="45.9624" lon="6.55426">
        <ele>2331</ele>
        <time>2022-03-06T14:06:33Z</time>
      </trkpt>
      <trkpt lat="45.96241" lon="6.55402">
        <ele>2327</ele>
        <time>2022-03-06T14:06:35Z</time>
      </trkpt>
      <trkpt lat="45.96242" lon="6.55396">
        <ele>2326</ele>
        <time>2022-03-06T14:06:37Z</time>
      </trkpt>
      <trkpt lat="45.96243" lon="6.55389">
        <ele>2325</ele>
        <time>2022-03-06T14:06:38Z</time>
      </trkpt>
      <trkpt lat="45.96244" lon="6.55383">
        <ele>2324</ele>
        <time>2022-03-06T14:06:39Z</time>
      </trkpt>
      <trkpt lat="45.96244" lon="6.55378">
        <ele>2323</ele>
        <time>2022-03-06T14:06:40Z</time>
      </trkpt>
      <trkpt lat="45.96243" lon="6.55374">
        <ele>2322</ele>
        <time>2022-03-06T14:06:41Z</time>
      </trkpt>
      <trkpt lat="45.96242" lon="6.55371">
        <ele>2322</ele>
        <time>2022-03-06T14:06:42Z</time>
      </trkpt>
      <trkpt lat="45.96241" lon="6.55368">
        <ele>2321</ele>
        <time>2022-03-06T14:06:43Z</time>
      </trkpt>
      <trkpt lat="45.96241" lon="6.55364">
        <ele>2320</ele>
        <time>2022-03-06T14:06:44Z</time>
      </trkpt>
      <trkpt lat="45.96241" lon="6.55361">
        <ele>2320</ele>
        <time>2022-03-06T14:06:45Z</time>
      </trkpt>
      <trkpt lat="45.96242" lon="6.55355">
        <ele>2319</ele>
        <time>2022-03-06T14:06:47Z</time>
      </trkpt>
      <trkpt lat="45.96242" lon="6.55352">
        <ele>2319</ele>
        <time>2022-03-06T14:06:48Z</time>
      </trkpt>
      <trkpt lat="45.96244" lon="6.55351">
        <ele>2319</ele>
        <time>2022-03-06T14:06:49Z</time>
      </trkpt>
      <trkpt lat="45.96244" lon="6.55347">
        <ele>2319</ele>
        <time>2022-03-06T14:06:50Z</time>
      </trkpt>
      <trkpt lat="45.96245" lon="6.55344">
        <ele>2319</ele>
        <time>2022-03-06T14:06:51Z</time>
      </trkpt>
      <trkpt lat="45.96246" lon="6.5534">
        <ele>2318</ele>
        <time>2022-03-06T14:06:52Z</time>
      </trkpt>
      <trkpt lat="45.96248" lon="6.55339">
        <ele>2319</ele>
        <time>2022-03-06T14:06:53Z</time>
      </trkpt>
      <trkpt lat="45.9625" lon="6.55337">
        <ele>2319</ele>
        <time>2022-03-06T14:06:54Z</time>
      </trkpt>
      <trkpt lat="45.96252" lon="6.55332">
        <ele>2319</ele>
        <time>2022-03-06T14:06:55Z</time>
      </trkpt>
      <trkpt lat="45.96253" lon="6.55326">
        <ele>2318</ele>
        <time>2022-03-06T14:06:56Z</time>
      </trkpt>
      <trkpt lat="45.96254" lon="6.55318">
        <ele>2317</ele>
        <time>2022-03-06T14:06:57Z</time>
      </trkpt>
      <trkpt lat="45.96255" lon="6.55311">
        <ele>2316</ele>
        <time>2022-03-06T14:06:58Z</time>
      </trkpt>
      <trkpt lat="45.96255" lon="6.55305">
        <ele>2316</ele>
        <time>2022-03-06T14:06:59Z</time>
      </trkpt>
      <trkpt lat="45.96255" lon="6.55301">
        <ele>2315</ele>
        <time>2022-03-06T14:07:00Z</time>
      </trkpt>
      <trkpt lat="45.96256" lon="6.55296">
        <ele>2314</ele>
        <time>2022-03-06T14:07:01Z</time>
      </trkpt>
      <trkpt lat="45.96257" lon="6.55291">
        <ele>2313</ele>
        <time>2022-03-06T14:07:02Z</time>
      </trkpt>
      <trkpt lat="45.96256" lon="6.55287">
        <ele>2313</ele>
        <time>2022-03-06T14:07:03Z</time>
      </trkpt>
      <trkpt lat="45.96254" lon="6.55284">
        <ele>2312</ele>
        <time>2022-03-06T14:07:04Z</time>
      </trkpt>
      <trkpt lat="45.96251" lon="6.55283">
        <ele>2312</ele>
        <time>2022-03-06T14:07:05Z</time>
      </trkpt>
      <trkpt lat="45.96248" lon="6.55284">
        <ele>2311</ele>
        <time>2022-03-06T14:07:06Z</time>
      </trkpt>
      <trkpt lat="45.96244" lon="6.55282">
        <ele>2310</ele>
        <time>2022-03-06T14:07:07Z</time>
      </trkpt>
      <trkpt lat="45.96241" lon="6.55277">
        <ele>2309</ele>
        <time>2022-03-06T14:07:08Z</time>
      </trkpt>
      <trkpt lat="45.9624" lon="6.55272">
        <ele>2308</ele>
        <time>2022-03-06T14:07:09Z</time>
      </trkpt>
      <trkpt lat="45.96241" lon="6.55267">
        <ele>2308</ele>
        <time>2022-03-06T14:07:10Z</time>
      </trkpt>
      <trkpt lat="45.96242" lon="6.55262">
        <ele>2307</ele>
        <time>2022-03-06T14:07:11Z</time>
      </trkpt>
      <trkpt lat="45.96244" lon="6.55258">
        <ele>2307</ele>
        <time>2022-03-06T14:07:12Z</time>
      </trkpt>
      <trkpt lat="45.96244" lon="6.55252">
        <ele>2306</ele>
        <time>2022-03-06T14:07:13Z</time>
      </trkpt>
      <trkpt lat="45.96244" lon="6.55246">
        <ele>2306</ele>
        <time>2022-03-06T14:07:14Z</time>
      </trkpt>
      <trkpt lat="45.96245" lon="6.5524">
        <ele>2305</ele>
        <time>2022-03-06T14:07:15Z</time>
      </trkpt>
      <trkpt lat="45.96247" lon="6.55235">
        <ele>2304</ele>
        <time>2022-03-06T14:07:16Z</time>
      </trkpt>
      <trkpt lat="45.96248" lon="6.55228">
        <ele>2303</ele>
        <time>2022-03-06T14:07:17Z</time>
      </trkpt>
      <trkpt lat="45.96249" lon="6.55223">
        <ele>2303</ele>
        <time>2022-03-06T14:07:18Z</time>
      </trkpt>
      <trkpt lat="45.96252" lon="6.55221">
        <ele>2302</ele>
        <time>2022-03-06T14:07:20Z</time>
      </trkpt>
      <trkpt lat="45.96255" lon="6.5522">
        <ele>2301</ele>
        <time>2022-03-06T14:07:21Z</time>
      </trkpt>
      <trkpt lat="45.96257" lon="6.55217">
        <ele>2300</ele>
        <time>2022-03-06T14:07:22Z</time>
      </trkpt>
      <trkpt lat="45.96261" lon="6.55215">
        <ele>2299</ele>
        <time>2022-03-06T14:07:23Z</time>
      </trkpt>
      <trkpt lat="45.96264" lon="6.55215">
        <ele>2299</ele>
        <time>2022-03-06T14:07:24Z</time>
      </trkpt>
      <trkpt lat="45.96267" lon="6.55216">
        <ele>2298</ele>
        <time>2022-03-06T14:07:25Z</time>
      </trkpt>
      <trkpt lat="45.96269" lon="6.55216">
        <ele>2298</ele>
        <time>2022-03-06T14:07:31Z</time>
      </trkpt>
      <trkpt lat="45.96269" lon="6.55211">
        <ele>2297</ele>
        <time>2022-03-06T14:07:41Z</time>
      </trkpt>
      <trkpt lat="45.96267" lon="6.55208">
        <ele>2296</ele>
        <time>2022-03-06T14:07:42Z</time>
      </trkpt>
      <trkpt lat="45.96265" lon="6.55204">
        <ele>2296</ele>
        <time>2022-03-06T14:07:43Z</time>
      </trkpt>
      <trkpt lat="45.96262" lon="6.55201">
        <ele>2295</ele>
        <time>2022-03-06T14:07:44Z</time>
      </trkpt>
      <trkpt lat="45.96259" lon="6.55196">
        <ele>2294</ele>
        <time>2022-03-06T14:07:45Z</time>
      </trkpt>
      <trkpt lat="45.96259" lon="6.5519">
        <ele>2293</ele>
        <time>2022-03-06T14:07:46Z</time>
      </trkpt>
      <trkpt lat="45.96258" lon="6.55185">
        <ele>2291</ele>
        <time>2022-03-06T14:07:47Z</time>
      </trkpt>
      <trkpt lat="45.96256" lon="6.5518">
        <ele>2290</ele>
        <time>2022-03-06T14:07:48Z</time>
      </trkpt>
      <trkpt lat="45.96254" lon="6.55173">
        <ele>2289</ele>
        <time>2022-03-06T14:07:49Z</time>
      </trkpt>
      <trkpt lat="45.96254" lon="6.55168">
        <ele>2287</ele>
        <time>2022-03-06T14:07:50Z</time>
      </trkpt>
      <trkpt lat="45.96254" lon="6.55156">
        <ele>2283</ele>
        <time>2022-03-06T14:07:51Z</time>
      </trkpt>
      <trkpt lat="45.96253" lon="6.5515">
        <ele>2281</ele>
        <time>2022-03-06T14:07:53Z</time>
      </trkpt>
      <trkpt lat="45.96252" lon="6.55145">
        <ele>2279</ele>
        <time>2022-03-06T14:07:54Z</time>
      </trkpt>
      <trkpt lat="45.9625" lon="6.55139">
        <ele>2277</ele>
        <time>2022-03-06T14:07:55Z</time>
      </trkpt>
      <trkpt lat="45.96252" lon="6.55136">
        <ele>2276</ele>
        <time>2022-03-06T14:07:56Z</time>
      </trkpt>
      <trkpt lat="45.96254" lon="6.55132">
        <ele>2274</ele>
        <time>2022-03-06T14:07:57Z</time>
      </trkpt>
      <trkpt lat="45.96257" lon="6.55131">
        <ele>2273</ele>
        <time>2022-03-06T14:07:58Z</time>
      </trkpt>
      <trkpt lat="45.96261" lon="6.55132">
        <ele>2272</ele>
        <time>2022-03-06T14:07:59Z</time>
      </trkpt>
      <trkpt lat="45.96265" lon="6.55134">
        <ele>2272</ele>
        <time>2022-03-06T14:08:00Z</time>
      </trkpt>
      <trkpt lat="45.96269" lon="6.55134">
        <ele>2271</ele>
        <time>2022-03-06T14:08:01Z</time>
      </trkpt>
      <trkpt lat="45.96272" lon="6.55134">
        <ele>2271</ele>
        <time>2022-03-06T14:08:02Z</time>
      </trkpt>
      <trkpt lat="45.96274" lon="6.55133">
        <ele>2270</ele>
        <time>2022-03-06T14:08:03Z</time>
      </trkpt>
      <trkpt lat="45.96276" lon="6.5513">
        <ele>2268</ele>
        <time>2022-03-06T14:08:04Z</time>
      </trkpt>
      <trkpt lat="45.96277" lon="6.55127">
        <ele>2267</ele>
        <time>2022-03-06T14:08:05Z</time>
      </trkpt>
      <trkpt lat="45.96278" lon="6.55124">
        <ele>2265</ele>
        <time>2022-03-06T14:08:06Z</time>
      </trkpt>
      <trkpt lat="45.9628" lon="6.5512">
        <ele>2263</ele>
        <time>2022-03-06T14:08:08Z</time>
      </trkpt>
      <trkpt lat="45.9628" lon="6.55117">
        <ele>2262</ele>
        <time>2022-03-06T14:08:10Z</time>
      </trkpt>
      <trkpt lat="45.96278" lon="6.55115">
        <ele>2261</ele>
        <time>2022-03-06T14:08:11Z</time>
      </trkpt>
      <trkpt lat="45.96276" lon="6.55111">
        <ele>2260</ele>
        <time>2022-03-06T14:08:12Z</time>
      </trkpt>
      <trkpt lat="45.96275" lon="6.55106">
        <ele>2258</ele>
        <time>2022-03-06T14:08:13Z</time>
      </trkpt>
      <trkpt lat="45.96274" lon="6.55101">
        <ele>2257</ele>
        <time>2022-03-06T14:08:14Z</time>
      </trkpt>
      <trkpt lat="45.96272" lon="6.55095">
        <ele>2255</ele>
        <time>2022-03-06T14:08:15Z</time>
      </trkpt>
      <trkpt lat="45.96272" lon="6.55087">
        <ele>2252</ele>
        <time>2022-03-06T14:08:16Z</time>
      </trkpt>
      <trkpt lat="45.96274" lon="6.55081">
        <ele>2250</ele>
        <time>2022-03-06T14:08:17Z</time>
      </trkpt>
      <trkpt lat="45.96276" lon="6.55076">
        <ele>2248</ele>
        <time>2022-03-06T14:08:18Z</time>
      </trkpt>
      <trkpt lat="45.96278" lon="6.5507">
        <ele>2245</ele>
        <time>2022-03-06T14:08:19Z</time>
      </trkpt>
      <trkpt lat="45.9628" lon="6.55064">
        <ele>2243</ele>
        <time>2022-03-06T14:08:20Z</time>
      </trkpt>
      <trkpt lat="45.96283" lon="6.55058">
        <ele>2240</ele>
        <time>2022-03-06T14:08:21Z</time>
      </trkpt>
      <trkpt lat="45.96289" lon="6.55047">
        <ele>2236</ele>
        <time>2022-03-06T14:08:23Z</time>
      </trkpt>
      <trkpt lat="45.96294" lon="6.55034">
        <ele>2231</ele>
        <time>2022-03-06T14:08:25Z</time>
      </trkpt>
      <trkpt lat="45.96303" lon="6.55028">
        <ele>2228</ele>
        <time>2022-03-06T14:08:28Z</time>
      </trkpt>
      <trkpt lat="45.96311" lon="6.55034">
        <ele>2228</ele>
        <time>2022-03-06T14:08:29Z</time>
      </trkpt>
      <trkpt lat="45.96321" lon="6.55036">
        <ele>2228</ele>
        <time>2022-03-06T14:08:31Z</time>
      </trkpt>
      <trkpt lat="45.96324" lon="6.55035">
        <ele>2227</ele>
        <time>2022-03-06T14:08:32Z</time>
      </trkpt>
      <trkpt lat="45.9633" lon="6.55032">
        <ele>2225</ele>
        <time>2022-03-06T14:08:35Z</time>
      </trkpt>
      <trkpt lat="45.96328" lon="6.55033">
        <ele>2226</ele>
        <time>2022-03-06T14:08:46Z</time>
      </trkpt>
      <trkpt lat="45.96326" lon="6.55033">
        <ele>2226</ele>
        <time>2022-03-06T14:08:50Z</time>
      </trkpt>
      <trkpt lat="45.96326" lon="6.55035">
        <ele>2227</ele>
        <time>2022-03-06T14:09:05Z</time>
      </trkpt>
      <trkpt lat="45.96326" lon="6.55038">
        <ele>2228</ele>
        <time>2022-03-06T14:11:59Z</time>
      </trkpt>
      <trkpt lat="45.96327" lon="6.55035">
        <ele>2227</ele>
        <time>2022-03-06T14:16:26Z</time>
      </trkpt>
      <trkpt lat="45.96327" lon="6.55033">
        <ele>2226</ele>
        <time>2022-03-06T14:16:27Z</time>
      </trkpt>
      <trkpt lat="45.96328" lon="6.55028">
        <ele>2224</ele>
        <time>2022-03-06T14:16:28Z</time>
      </trkpt>
      <trkpt lat="45.9633" lon="6.55026">
        <ele>2222</ele>
        <time>2022-03-06T14:16:29Z</time>
      </trkpt>
      <trkpt lat="45.96332" lon="6.55024">
        <ele>2221</ele>
        <time>2022-03-06T14:16:31Z</time>
      </trkpt>
      <trkpt lat="45.96332" lon="6.55021">
        <ele>2221</ele>
        <time>2022-03-06T14:16:40Z</time>
      </trkpt>
      <trkpt lat="45.96331" lon="6.55018">
        <ele>2220</ele>
        <time>2022-03-06T14:16:43Z</time>
      </trkpt>
      <trkpt lat="45.96331" lon="6.55015">
        <ele>2218</ele>
        <time>2022-03-06T14:16:47Z</time>
      </trkpt>
      <trkpt lat="45.96329" lon="6.55013">
        <ele>2218</ele>
        <time>2022-03-06T14:18:14Z</time>
      </trkpt>
      <trkpt lat="45.96327" lon="6.55013">
        <ele>2218</ele>
        <time>2022-03-06T14:18:17Z</time>
      </trkpt>
      <trkpt lat="45.96325" lon="6.55011">
        <ele>2218</ele>
        <time>2022-03-06T14:18:20Z</time>
      </trkpt>
      <trkpt lat="45.96323" lon="6.55009">
        <ele>2218</ele>
        <time>2022-03-06T14:18:26Z</time>
      </trkpt>
      <trkpt lat="45.96323" lon="6.55006">
        <ele>2217</ele>
        <time>2022-03-06T14:19:03Z</time>
      </trkpt>
      <trkpt lat="45.9632" lon="6.55003">
        <ele>2216</ele>
        <time>2022-03-06T14:19:05Z</time>
      </trkpt>
      <trkpt lat="45.96313" lon="6.54998">
        <ele>2214</ele>
        <time>2022-03-06T14:19:07Z</time>
      </trkpt>
      <trkpt lat="45.9631" lon="6.54996">
        <ele>2214</ele>
        <time>2022-03-06T14:19:08Z</time>
      </trkpt>
      <trkpt lat="45.96307" lon="6.54994">
        <ele>2213</ele>
        <time>2022-03-06T14:19:09Z</time>
      </trkpt>
      <trkpt lat="45.96304" lon="6.54992">
        <ele>2212</ele>
        <time>2022-03-06T14:19:10Z</time>
      </trkpt>
      <trkpt lat="45.963" lon="6.5499">
        <ele>2212</ele>
        <time>2022-03-06T14:19:11Z</time>
      </trkpt>
      <trkpt lat="45.96297" lon="6.54988">
        <ele>2211</ele>
        <time>2022-03-06T14:19:12Z</time>
      </trkpt>
      <trkpt lat="45.96292" lon="6.54986">
        <ele>2211</ele>
        <time>2022-03-06T14:19:13Z</time>
      </trkpt>
      <trkpt lat="45.96288" lon="6.54983">
        <ele>2210</ele>
        <time>2022-03-06T14:19:14Z</time>
      </trkpt>
      <trkpt lat="45.96283" lon="6.5498">
        <ele>2209</ele>
        <time>2022-03-06T14:19:15Z</time>
      </trkpt>
      <trkpt lat="45.96279" lon="6.54976">
        <ele>2207</ele>
        <time>2022-03-06T14:19:16Z</time>
      </trkpt>
      <trkpt lat="45.96274" lon="6.54973">
        <ele>2206</ele>
        <time>2022-03-06T14:19:17Z</time>
      </trkpt>
      <trkpt lat="45.9627" lon="6.54969">
        <ele>2205</ele>
        <time>2022-03-06T14:19:18Z</time>
      </trkpt>
      <trkpt lat="45.96265" lon="6.54965">
        <ele>2204</ele>
        <time>2022-03-06T14:19:19Z</time>
      </trkpt>
      <trkpt lat="45.96261" lon="6.5496">
        <ele>2202</ele>
        <time>2022-03-06T14:19:20Z</time>
      </trkpt>
      <trkpt lat="45.96258" lon="6.54957">
        <ele>2201</ele>
        <time>2022-03-06T14:19:21Z</time>
      </trkpt>
      <trkpt lat="45.96255" lon="6.54953">
        <ele>2199</ele>
        <time>2022-03-06T14:19:22Z</time>
      </trkpt>
      <trkpt lat="45.96252" lon="6.5495">
        <ele>2198</ele>
        <time>2022-03-06T14:19:23Z</time>
      </trkpt>
      <trkpt lat="45.9625" lon="6.54947">
        <ele>2197</ele>
        <time>2022-03-06T14:19:24Z</time>
      </trkpt>
      <trkpt lat="45.96248" lon="6.54945">
        <ele>2197</ele>
        <time>2022-03-06T14:19:25Z</time>
      </trkpt>
      <trkpt lat="45.96246" lon="6.54943">
        <ele>2196</ele>
        <time>2022-03-06T14:19:26Z</time>
      </trkpt>
      <trkpt lat="45.96244" lon="6.54941">
        <ele>2196</ele>
        <time>2022-03-06T14:19:27Z</time>
      </trkpt>
      <trkpt lat="45.96242" lon="6.54939">
        <ele>2196</ele>
        <time>2022-03-06T14:19:28Z</time>
      </trkpt>
      <trkpt lat="45.96241" lon="6.54936">
        <ele>2196</ele>
        <time>2022-03-06T14:19:29Z</time>
      </trkpt>
      <trkpt lat="45.96239" lon="6.54933">
        <ele>2195</ele>
        <time>2022-03-06T14:19:30Z</time>
      </trkpt>
      <trkpt lat="45.9624" lon="6.5493">
        <ele>2194</ele>
        <time>2022-03-06T14:19:31Z</time>
      </trkpt>
      <trkpt lat="45.9624" lon="6.54926">
        <ele>2192</ele>
        <time>2022-03-06T14:19:34Z</time>
      </trkpt>
      <trkpt lat="45.9624" lon="6.54919">
        <ele>2190</ele>
        <time>2022-03-06T14:19:36Z</time>
      </trkpt>
      <trkpt lat="45.96239" lon="6.54904">
        <ele>2186</ele>
        <time>2022-03-06T14:19:38Z</time>
      </trkpt>
      <trkpt lat="45.96237" lon="6.54888">
        <ele>2182</ele>
        <time>2022-03-06T14:19:40Z</time>
      </trkpt>
      <trkpt lat="45.96237" lon="6.54884">
        <ele>2181</ele>
        <time>2022-03-06T14:19:48Z</time>
      </trkpt>
      <trkpt lat="45.96238" lon="6.54882">
        <ele>2180</ele>
        <time>2022-03-06T14:19:49Z</time>
      </trkpt>
      <trkpt lat="45.96241" lon="6.5488">
        <ele>2179</ele>
        <time>2022-03-06T14:19:50Z</time>
      </trkpt>
      <trkpt lat="45.96243" lon="6.54877">
        <ele>2178</ele>
        <time>2022-03-06T14:19:51Z</time>
      </trkpt>
      <trkpt lat="45.96245" lon="6.54875">
        <ele>2177</ele>
        <time>2022-03-06T14:19:52Z</time>
      </trkpt>
      <trkpt lat="45.96247" lon="6.54873">
        <ele>2176</ele>
        <time>2022-03-06T14:19:53Z</time>
      </trkpt>
      <trkpt lat="45.96248" lon="6.54871">
        <ele>2176</ele>
        <time>2022-03-06T14:19:54Z</time>
      </trkpt>
      <trkpt lat="45.96252" lon="6.54871">
        <ele>2175</ele>
        <time>2022-03-06T14:19:55Z</time>
      </trkpt>
      <trkpt lat="45.96253" lon="6.54869">
        <ele>2174</ele>
        <time>2022-03-06T14:19:56Z</time>
      </trkpt>
      <trkpt lat="45.96253" lon="6.54865">
        <ele>2174</ele>
        <time>2022-03-06T14:19:57Z</time>
      </trkpt>
      <trkpt lat="45.96252" lon="6.54862">
        <ele>2173</ele>
        <time>2022-03-06T14:19:58Z</time>
      </trkpt>
      <trkpt lat="45.9625" lon="6.54858">
        <ele>2173</ele>
        <time>2022-03-06T14:19:59Z</time>
      </trkpt>
      <trkpt lat="45.96249" lon="6.54855">
        <ele>2172</ele>
        <time>2022-03-06T14:20:00Z</time>
      </trkpt>
      <trkpt lat="45.96252" lon="6.54853">
        <ele>2171</ele>
        <time>2022-03-06T14:20:02Z</time>
      </trkpt>
      <trkpt lat="45.96254" lon="6.54855">
        <ele>2171</ele>
        <time>2022-03-06T14:20:03Z</time>
      </trkpt>
      <trkpt lat="45.96256" lon="6.54858">
        <ele>2171</ele>
        <time>2022-03-06T14:20:11Z</time>
      </trkpt>
      <trkpt lat="45.96259" lon="6.54858">
        <ele>2170</ele>
        <time>2022-03-06T14:20:25Z</time>
      </trkpt>
      <trkpt lat="45.96262" lon="6.54858">
        <ele>2169</ele>
        <time>2022-03-06T14:20:27Z</time>
      </trkpt>
      <trkpt lat="45.96265" lon="6.54858">
        <ele>2168</ele>
        <time>2022-03-06T14:20:28Z</time>
      </trkpt>
      <trkpt lat="45.96267" lon="6.54858">
        <ele>2168</ele>
        <time>2022-03-06T14:20:29Z</time>
      </trkpt>
      <trkpt lat="45.96269" lon="6.54857">
        <ele>2167</ele>
        <time>2022-03-06T14:20:30Z</time>
      </trkpt>
      <trkpt lat="45.96271" lon="6.54857">
        <ele>2166</ele>
        <time>2022-03-06T14:20:31Z</time>
      </trkpt>
      <trkpt lat="45.96274" lon="6.54857">
        <ele>2166</ele>
        <time>2022-03-06T14:20:32Z</time>
      </trkpt>
      <trkpt lat="45.96277" lon="6.54857">
        <ele>2165</ele>
        <time>2022-03-06T14:20:33Z</time>
      </trkpt>
      <trkpt lat="45.96279" lon="6.54858">
        <ele>2164</ele>
        <time>2022-03-06T14:20:34Z</time>
      </trkpt>
      <trkpt lat="45.96282" lon="6.54859">
        <ele>2162</ele>
        <time>2022-03-06T14:20:35Z</time>
      </trkpt>
      <trkpt lat="45.96284" lon="6.54859">
        <ele>2161</ele>
        <time>2022-03-06T14:20:36Z</time>
      </trkpt>
      <trkpt lat="45.96286" lon="6.5486">
        <ele>2159</ele>
        <time>2022-03-06T14:20:37Z</time>
      </trkpt>
      <trkpt lat="45.9629" lon="6.54859">
        <ele>2157</ele>
        <time>2022-03-06T14:20:39Z</time>
      </trkpt>
      <trkpt lat="45.96292" lon="6.54859">
        <ele>2156</ele>
        <time>2022-03-06T14:20:40Z</time>
      </trkpt>
      <trkpt lat="45.96294" lon="6.54858">
        <ele>2155</ele>
        <time>2022-03-06T14:20:42Z</time>
      </trkpt>
      <trkpt lat="45.96293" lon="6.54855">
        <ele>2154</ele>
        <time>2022-03-06T14:20:45Z</time>
      </trkpt>
      <trkpt lat="45.96291" lon="6.5485">
        <ele>2154</ele>
        <time>2022-03-06T14:20:47Z</time>
      </trkpt>
      <trkpt lat="45.9629" lon="6.54846">
        <ele>2155</ele>
        <time>2022-03-06T14:20:48Z</time>
      </trkpt>
      <trkpt lat="45.9629" lon="6.54842">
        <ele>2154</ele>
        <time>2022-03-06T14:20:49Z</time>
      </trkpt>
      <trkpt lat="45.9629" lon="6.54839">
        <ele>2153</ele>
        <time>2022-03-06T14:20:50Z</time>
      </trkpt>
      <trkpt lat="45.96291" lon="6.54836">
        <ele>2152</ele>
        <time>2022-03-06T14:20:51Z</time>
      </trkpt>
      <trkpt lat="45.96291" lon="6.54833">
        <ele>2151</ele>
        <time>2022-03-06T14:20:52Z</time>
      </trkpt>
      <trkpt lat="45.96291" lon="6.54827">
        <ele>2149</ele>
        <time>2022-03-06T14:20:53Z</time>
      </trkpt>
      <trkpt lat="45.96293" lon="6.54825">
        <ele>2146</ele>
        <time>2022-03-06T14:20:54Z</time>
      </trkpt>
      <trkpt lat="45.96295" lon="6.54822">
        <ele>2144</ele>
        <time>2022-03-06T14:20:55Z</time>
      </trkpt>
      <trkpt lat="45.96295" lon="6.54816">
        <ele>2141</ele>
        <time>2022-03-06T14:20:56Z</time>
      </trkpt>
      <trkpt lat="45.96297" lon="6.54807">
        <ele>2136</ele>
        <time>2022-03-06T14:20:57Z</time>
      </trkpt>
      <trkpt lat="45.96298" lon="6.548">
        <ele>2133</ele>
        <time>2022-03-06T14:20:58Z</time>
      </trkpt>
      <trkpt lat="45.96298" lon="6.54777">
        <ele>2129</ele>
        <time>2022-03-06T14:21:00Z</time>
      </trkpt>
      <trkpt lat="45.96298" lon="6.5477">
        <ele>2127</ele>
        <time>2022-03-06T14:21:01Z</time>
      </trkpt>
      <trkpt lat="45.96298" lon="6.54766">
        <ele>2125</ele>
        <time>2022-03-06T14:21:02Z</time>
      </trkpt>
      <trkpt lat="45.96298" lon="6.54762">
        <ele>2123</ele>
        <time>2022-03-06T14:21:03Z</time>
      </trkpt>
      <trkpt lat="45.96298" lon="6.54756">
        <ele>2121</ele>
        <time>2022-03-06T14:21:04Z</time>
      </trkpt>
      <trkpt lat="45.96298" lon="6.5475">
        <ele>2119</ele>
        <time>2022-03-06T14:21:05Z</time>
      </trkpt>
      <trkpt lat="45.96298" lon="6.54745">
        <ele>2118</ele>
        <time>2022-03-06T14:21:06Z</time>
      </trkpt>
      <trkpt lat="45.96298" lon="6.5474">
        <ele>2117</ele>
        <time>2022-03-06T14:21:07Z</time>
      </trkpt>
      <trkpt lat="45.96298" lon="6.54736">
        <ele>2115</ele>
        <time>2022-03-06T14:21:08Z</time>
      </trkpt>
      <trkpt lat="45.96301" lon="6.54724">
        <ele>2110</ele>
        <time>2022-03-06T14:21:12Z</time>
      </trkpt>
      <trkpt lat="45.96304" lon="6.54724">
        <ele>2108</ele>
        <time>2022-03-06T14:21:13Z</time>
      </trkpt>
      <trkpt lat="45.96307" lon="6.54721">
        <ele>2106</ele>
        <time>2022-03-06T14:21:14Z</time>
      </trkpt>
      <trkpt lat="45.96313" lon="6.54706">
        <ele>2100</ele>
        <time>2022-03-06T14:21:19Z</time>
      </trkpt>
      <trkpt lat="45.96315" lon="6.54692">
        <ele>2096</ele>
        <time>2022-03-06T14:21:21Z</time>
      </trkpt>
      <trkpt lat="45.96317" lon="6.54685">
        <ele>2093</ele>
        <time>2022-03-06T14:21:22Z</time>
      </trkpt>
      <trkpt lat="45.96319" lon="6.54678">
        <ele>2091</ele>
        <time>2022-03-06T14:21:23Z</time>
      </trkpt>
      <trkpt lat="45.96323" lon="6.54666">
        <ele>2087</ele>
        <time>2022-03-06T14:21:25Z</time>
      </trkpt>
      <trkpt lat="45.96333" lon="6.54662">
        <ele>2083</ele>
        <time>2022-03-06T14:21:27Z</time>
      </trkpt>
      <trkpt lat="45.96344" lon="6.54656">
        <ele>2079</ele>
        <time>2022-03-06T14:21:29Z</time>
      </trkpt>
      <trkpt lat="45.96355" lon="6.54643">
        <ele>2074</ele>
        <time>2022-03-06T14:21:31Z</time>
      </trkpt>
      <trkpt lat="45.96362" lon="6.54623">
        <ele>2067</ele>
        <time>2022-03-06T14:21:33Z</time>
      </trkpt>
      <trkpt lat="45.96361" lon="6.54607">
        <ele>2064</ele>
        <time>2022-03-06T14:21:35Z</time>
      </trkpt>
      <trkpt lat="45.96367" lon="6.54619">
        <ele>2064</ele>
        <time>2022-03-06T14:21:38Z</time>
      </trkpt>
      <trkpt lat="45.96373" lon="6.54628">
        <ele>2064</ele>
        <time>2022-03-06T14:21:42Z</time>
      </trkpt>
      <trkpt lat="45.9638" lon="6.54621">
        <ele>2060</ele>
        <time>2022-03-06T14:21:47Z</time>
      </trkpt>
      <trkpt lat="45.96378" lon="6.54621">
        <ele>2061</ele>
        <time>2022-03-06T14:21:51Z</time>
      </trkpt>
      <trkpt lat="45.96376" lon="6.54622">
        <ele>2062</ele>
        <time>2022-03-06T14:22:11Z</time>
      </trkpt>
      <trkpt lat="45.96374" lon="6.54624">
        <ele>2063</ele>
        <time>2022-03-06T14:22:34Z</time>
      </trkpt>
      <trkpt lat="45.96376" lon="6.54623">
        <ele>2062</ele>
        <time>2022-03-06T14:22:59Z</time>
      </trkpt>
      <trkpt lat="45.96379" lon="6.54621">
        <ele>2060</ele>
        <time>2022-03-06T14:23:01Z</time>
      </trkpt>
      <trkpt lat="45.96381" lon="6.54616">
        <ele>2058</ele>
        <time>2022-03-06T14:23:02Z</time>
      </trkpt>
      <trkpt lat="45.96384" lon="6.54613">
        <ele>2057</ele>
        <time>2022-03-06T14:23:03Z</time>
      </trkpt>
      <trkpt lat="45.96387" lon="6.5461">
        <ele>2055</ele>
        <time>2022-03-06T14:23:04Z</time>
      </trkpt>
      <trkpt lat="45.9639" lon="6.54606">
        <ele>2054</ele>
        <time>2022-03-06T14:23:05Z</time>
      </trkpt>
      <trkpt lat="45.96392" lon="6.546">
        <ele>2053</ele>
        <time>2022-03-06T14:23:06Z</time>
      </trkpt>
      <trkpt lat="45.96394" lon="6.54594">
        <ele>2052</ele>
        <time>2022-03-06T14:23:07Z</time>
      </trkpt>
      <trkpt lat="45.96395" lon="6.54588">
        <ele>2051</ele>
        <time>2022-03-06T14:23:08Z</time>
      </trkpt>
      <trkpt lat="45.96396" lon="6.54581">
        <ele>2050</ele>
        <time>2022-03-06T14:23:09Z</time>
      </trkpt>
      <trkpt lat="45.96396" lon="6.54574">
        <ele>2048</ele>
        <time>2022-03-06T14:23:10Z</time>
      </trkpt>
      <trkpt lat="45.96398" lon="6.54567">
        <ele>2047</ele>
        <time>2022-03-06T14:23:11Z</time>
      </trkpt>
      <trkpt lat="45.964" lon="6.54554">
        <ele>2044</ele>
        <time>2022-03-06T14:23:13Z</time>
      </trkpt>
      <trkpt lat="45.96401" lon="6.54547">
        <ele>2041</ele>
        <time>2022-03-06T14:23:14Z</time>
      </trkpt>
      <trkpt lat="45.96402" lon="6.54538">
        <ele>2039</ele>
        <time>2022-03-06T14:23:15Z</time>
      </trkpt>
      <trkpt lat="45.96402" lon="6.5453">
        <ele>2036</ele>
        <time>2022-03-06T14:23:16Z</time>
      </trkpt>
      <trkpt lat="45.96402" lon="6.54521">
        <ele>2033</ele>
        <time>2022-03-06T14:23:17Z</time>
      </trkpt>
      <trkpt lat="45.96401" lon="6.5451">
        <ele>2029</ele>
        <time>2022-03-06T14:23:21Z</time>
      </trkpt>
      <trkpt lat="45.96399" lon="6.54507">
        <ele>2029</ele>
        <time>2022-03-06T14:23:22Z</time>
      </trkpt>
      <trkpt lat="45.96398" lon="6.54503">
        <ele>2028</ele>
        <time>2022-03-06T14:23:23Z</time>
      </trkpt>
      <trkpt lat="45.96398" lon="6.54501">
        <ele>2027</ele>
        <time>2022-03-06T14:23:24Z</time>
      </trkpt>
      <trkpt lat="45.96398" lon="6.54498">
        <ele>2026</ele>
        <time>2022-03-06T14:23:26Z</time>
      </trkpt>
      <trkpt lat="45.96406" lon="6.54496">
        <ele>2023</ele>
        <time>2022-03-06T14:23:33Z</time>
      </trkpt>
      <trkpt lat="45.96409" lon="6.54496">
        <ele>2022</ele>
        <time>2022-03-06T14:23:34Z</time>
      </trkpt>
      <trkpt lat="45.96414" lon="6.54499">
        <ele>2022</ele>
        <time>2022-03-06T14:23:36Z</time>
      </trkpt>
      <trkpt lat="45.96417" lon="6.54499">
        <ele>2021</ele>
        <time>2022-03-06T14:23:38Z</time>
      </trkpt>
      <trkpt lat="45.96419" lon="6.54499">
        <ele>2020</ele>
        <time>2022-03-06T14:23:39Z</time>
      </trkpt>
      <trkpt lat="45.96422" lon="6.54497">
        <ele>2018</ele>
        <time>2022-03-06T14:23:41Z</time>
      </trkpt>
      <trkpt lat="45.96423" lon="6.54496">
        <ele>2016</ele>
        <time>2022-03-06T14:23:43Z</time>
      </trkpt>
      <trkpt lat="45.96423" lon="6.54492">
        <ele>2015</ele>
        <time>2022-03-06T14:23:46Z</time>
      </trkpt>
      <trkpt lat="45.96423" lon="6.54489">
        <ele>2013</ele>
        <time>2022-03-06T14:23:50Z</time>
      </trkpt>
      <trkpt lat="45.96423" lon="6.54486">
        <ele>2012</ele>
        <time>2022-03-06T14:23:52Z</time>
      </trkpt>
      <trkpt lat="45.96421" lon="6.54484">
        <ele>2012</ele>
        <time>2022-03-06T14:23:53Z</time>
      </trkpt>
      <trkpt lat="45.9642" lon="6.54482">
        <ele>2011</ele>
        <time>2022-03-06T14:23:54Z</time>
      </trkpt>
      <trkpt lat="45.96418" lon="6.54479">
        <ele>2011</ele>
        <time>2022-03-06T14:23:55Z</time>
      </trkpt>
      <trkpt lat="45.96417" lon="6.54477">
        <ele>2010</ele>
        <time>2022-03-06T14:23:56Z</time>
      </trkpt>
      <trkpt lat="45.96416" lon="6.54474">
        <ele>2009</ele>
        <time>2022-03-06T14:23:57Z</time>
      </trkpt>
      <trkpt lat="45.96418" lon="6.54469">
        <ele>2007</ele>
        <time>2022-03-06T14:23:59Z</time>
      </trkpt>
      <trkpt lat="45.96421" lon="6.54469">
        <ele>2005</ele>
        <time>2022-03-06T14:24:00Z</time>
      </trkpt>
      <trkpt lat="45.96425" lon="6.54469">
        <ele>2004</ele>
        <time>2022-03-06T14:24:01Z</time>
      </trkpt>
      <trkpt lat="45.96428" lon="6.54467">
        <ele>2002</ele>
        <time>2022-03-06T14:24:02Z</time>
      </trkpt>
      <trkpt lat="45.9643" lon="6.54463">
        <ele>2000</ele>
        <time>2022-03-06T14:24:03Z</time>
      </trkpt>
      <trkpt lat="45.96429" lon="6.54459">
        <ele>1998</ele>
        <time>2022-03-06T14:24:04Z</time>
      </trkpt>
      <trkpt lat="45.96428" lon="6.54454">
        <ele>1997</ele>
        <time>2022-03-06T14:24:05Z</time>
      </trkpt>
      <trkpt lat="45.96432" lon="6.54443">
        <ele>1992</ele>
        <time>2022-03-06T14:24:07Z</time>
      </trkpt>
      <trkpt lat="45.96434" lon="6.54438">
        <ele>1990</ele>
        <time>2022-03-06T14:24:08Z</time>
      </trkpt>
      <trkpt lat="45.96432" lon="6.54433">
        <ele>1990</ele>
        <time>2022-03-06T14:24:09Z</time>
      </trkpt>
      <trkpt lat="45.96425" lon="6.54421">
        <ele>1988</ele>
        <time>2022-03-06T14:24:11Z</time>
      </trkpt>
      <trkpt lat="45.96418" lon="6.54407">
        <ele>1986</ele>
        <time>2022-03-06T14:24:14Z</time>
      </trkpt>
      <trkpt lat="45.96412" lon="6.54395">
        <ele>1985</ele>
        <time>2022-03-06T14:24:18Z</time>
      </trkpt>
      <trkpt lat="45.96404" lon="6.54387">
        <ele>1986</ele>
        <time>2022-03-06T14:24:23Z</time>
      </trkpt>
      <trkpt lat="45.9641" lon="6.54393">
        <ele>1985</ele>
        <time>2022-03-06T14:24:36Z</time>
      </trkpt>
      <trkpt lat="45.96409" lon="6.54398">
        <ele>1987</ele>
        <time>2022-03-06T14:24:43Z</time>
      </trkpt>
      <trkpt lat="45.96408" lon="6.54395">
        <ele>1987</ele>
        <time>2022-03-06T14:24:48Z</time>
      </trkpt>
      <trkpt lat="45.96403" lon="6.54384">
        <ele>1986</ele>
        <time>2022-03-06T14:24:57Z</time>
      </trkpt>
      <trkpt lat="45.96403" lon="6.5437">
        <ele>1981</ele>
        <time>2022-03-06T14:25:04Z</time>
      </trkpt>
      <trkpt lat="45.96408" lon="6.54357">
        <ele>1974</ele>
        <time>2022-03-06T14:25:06Z</time>
      </trkpt>
      <trkpt lat="45.96415" lon="6.54342">
        <ele>1964</ele>
        <time>2022-03-06T14:25:08Z</time>
      </trkpt>
      <trkpt lat="45.96427" lon="6.54332">
        <ele>1960</ele>
        <time>2022-03-06T14:25:10Z</time>
      </trkpt>
      <trkpt lat="45.9644" lon="6.54324">
        <ele>1958</ele>
        <time>2022-03-06T14:25:12Z</time>
      </trkpt>
      <trkpt lat="45.96449" lon="6.54312">
        <ele>1952</ele>
        <time>2022-03-06T14:25:14Z</time>
      </trkpt>
      <trkpt lat="45.96458" lon="6.54303">
        <ele>1945</ele>
        <time>2022-03-06T14:25:16Z</time>
      </trkpt>
      <trkpt lat="45.96465" lon="6.54292">
        <ele>1937</ele>
        <time>2022-03-06T14:25:18Z</time>
      </trkpt>
      <trkpt lat="45.96477" lon="6.54286">
        <ele>1929</ele>
        <time>2022-03-06T14:25:20Z</time>
      </trkpt>
      <trkpt lat="45.96468" lon="6.54285">
        <ele>1933</ele>
        <time>2022-03-06T14:25:52Z</time>
      </trkpt>
      <trkpt lat="45.96469" lon="6.54271">
        <ele>1926</ele>
        <time>2022-03-06T14:26:22Z</time>
      </trkpt>
      <trkpt lat="45.96471" lon="6.54258">
        <ele>1919</ele>
        <time>2022-03-06T14:26:25Z</time>
      </trkpt>
      <trkpt lat="45.96477" lon="6.54253">
        <ele>1915</ele>
        <time>2022-03-06T14:26:27Z</time>
      </trkpt>
      <trkpt lat="45.96481" lon="6.54252">
        <ele>1914</ele>
        <time>2022-03-06T14:26:28Z</time>
      </trkpt>
      <trkpt lat="45.96489" lon="6.54239">
        <ele>1907</ele>
        <time>2022-03-06T14:26:31Z</time>
      </trkpt>
      <trkpt lat="45.96496" lon="6.5423">
        <ele>1901</ele>
        <time>2022-03-06T14:26:37Z</time>
      </trkpt>
      <trkpt lat="45.96504" lon="6.54236">
        <ele>1901</ele>
        <time>2022-03-06T14:26:48Z</time>
      </trkpt>
      <trkpt lat="45.96515" lon="6.54239">
        <ele>1900</ele>
        <time>2022-03-06T14:26:52Z</time>
      </trkpt>
      <trkpt lat="45.96523" lon="6.54228">
        <ele>1895</ele>
        <time>2022-03-06T14:26:55Z</time>
      </trkpt>
      <trkpt lat="45.96524" lon="6.54212">
        <ele>1892</ele>
        <time>2022-03-06T14:26:58Z</time>
      </trkpt>
      <trkpt lat="45.96526" lon="6.54196">
        <ele>1889</ele>
        <time>2022-03-06T14:27:03Z</time>
      </trkpt>
      <trkpt lat="45.96534" lon="6.54181">
        <ele>1884</ele>
        <time>2022-03-06T14:27:07Z</time>
      </trkpt>
      <trkpt lat="45.96541" lon="6.54169">
        <ele>1880</ele>
        <time>2022-03-06T14:27:09Z</time>
      </trkpt>
      <trkpt lat="45.96545" lon="6.54155">
        <ele>1872</ele>
        <time>2022-03-06T14:27:11Z</time>
      </trkpt>
      <trkpt lat="45.96556" lon="6.54162">
        <ele>1875</ele>
        <time>2022-03-06T14:27:50Z</time>
      </trkpt>
      <trkpt lat="45.96557" lon="6.54143">
        <ele>1862</ele>
        <time>2022-03-06T14:27:56Z</time>
      </trkpt>
      <trkpt lat="45.9656" lon="6.54131">
        <ele>1854</ele>
        <time>2022-03-06T14:27:58Z</time>
      </trkpt>
      <trkpt lat="45.96565" lon="6.5412">
        <ele>1845</ele>
        <time>2022-03-06T14:28:00Z</time>
      </trkpt>
      <trkpt lat="45.96571" lon="6.54107">
        <ele>1837</ele>
        <time>2022-03-06T14:28:03Z</time>
      </trkpt>
      <trkpt lat="45.96582" lon="6.54101">
        <ele>1831</ele>
        <time>2022-03-06T14:28:06Z</time>
      </trkpt>
      <trkpt lat="45.96592" lon="6.54091">
        <ele>1825</ele>
        <time>2022-03-06T14:28:08Z</time>
      </trkpt>
      <trkpt lat="45.96599" lon="6.54081">
        <ele>1820</ele>
        <time>2022-03-06T14:28:10Z</time>
      </trkpt>
      <trkpt lat="45.9661" lon="6.54077">
        <ele>1816</ele>
        <time>2022-03-06T14:28:12Z</time>
      </trkpt>
      <trkpt lat="45.96615" lon="6.54064">
        <ele>1811</ele>
        <time>2022-03-06T14:28:14Z</time>
      </trkpt>
      <trkpt lat="45.96626" lon="6.5406">
        <ele>1806</ele>
        <time>2022-03-06T14:28:16Z</time>
      </trkpt>
      <trkpt lat="45.96635" lon="6.54051">
        <ele>1799</ele>
        <time>2022-03-06T14:28:18Z</time>
      </trkpt>
      <trkpt lat="45.96647" lon="6.54041">
        <ele>1789</ele>
        <time>2022-03-06T14:28:20Z</time>
      </trkpt>
      <trkpt lat="45.96655" lon="6.54029">
        <ele>1782</ele>
        <time>2022-03-06T14:28:22Z</time>
      </trkpt>
      <trkpt lat="45.96665" lon="6.54014">
        <ele>1776</ele>
        <time>2022-03-06T14:28:24Z</time>
      </trkpt>
      <trkpt lat="45.96675" lon="6.53998">
        <ele>1769</ele>
        <time>2022-03-06T14:28:26Z</time>
      </trkpt>
      <trkpt lat="45.96683" lon="6.53982">
        <ele>1763</ele>
        <time>2022-03-06T14:28:28Z</time>
      </trkpt>
      <trkpt lat="45.96698" lon="6.53976">
        <ele>1757</ele>
        <time>2022-03-06T14:28:30Z</time>
      </trkpt>
      <trkpt lat="45.96695" lon="6.53988">
        <ele>1762</ele>
        <time>2022-03-06T14:28:43Z</time>
      </trkpt>
      <trkpt lat="45.96699" lon="6.53976">
        <ele>1757</ele>
        <time>2022-03-06T14:28:52Z</time>
      </trkpt>
      <trkpt lat="45.96687" lon="6.5398">
        <ele>1761</ele>
        <time>2022-03-06T14:28:56Z</time>
      </trkpt>
      <trkpt lat="45.96678" lon="6.53982">
        <ele>1764</ele>
        <time>2022-03-06T14:29:01Z</time>
      </trkpt>
      <trkpt lat="45.96669" lon="6.53979">
        <ele>1765</ele>
        <time>2022-03-06T14:29:25Z</time>
      </trkpt>
      <trkpt lat="45.96666" lon="6.53973">
        <ele>1764</ele>
        <time>2022-03-06T14:30:24Z</time>
      </trkpt>
      <trkpt lat="45.96676" lon="6.53977">
        <ele>1763</ele>
        <time>2022-03-06T14:30:33Z</time>
      </trkpt>
      <trkpt lat="45.96685" lon="6.53968">
        <ele>1758</ele>
        <time>2022-03-06T14:30:37Z</time>
      </trkpt>
      <trkpt lat="45.96691" lon="6.53954">
        <ele>1752</ele>
        <time>2022-03-06T14:30:39Z</time>
      </trkpt>
      <trkpt lat="45.96699" lon="6.53942">
        <ele>1745</ele>
        <time>2022-03-06T14:30:41Z</time>
      </trkpt>
      <trkpt lat="45.96709" lon="6.53935">
        <ele>1739</ele>
        <time>2022-03-06T14:30:43Z</time>
      </trkpt>
      <trkpt lat="45.96718" lon="6.53926">
        <ele>1734</ele>
        <time>2022-03-06T14:30:45Z</time>
      </trkpt>
      <trkpt lat="45.96729" lon="6.53916">
        <ele>1727</ele>
        <time>2022-03-06T14:30:47Z</time>
      </trkpt>
      <trkpt lat="45.96741" lon="6.53909">
        <ele>1720</ele>
        <time>2022-03-06T14:30:49Z</time>
      </trkpt>
      <trkpt lat="45.96751" lon="6.53909">
        <ele>1717</ele>
        <time>2022-03-06T14:30:50Z</time>
      </trkpt>
      <trkpt lat="45.96764" lon="6.53906">
        <ele>1712</ele>
        <time>2022-03-06T14:30:52Z</time>
      </trkpt>
      <trkpt lat="45.96764" lon="6.53892">
        <ele>1707</ele>
        <time>2022-03-06T14:30:55Z</time>
      </trkpt>
      <trkpt lat="45.96777" lon="6.53882">
        <ele>1702</ele>
        <time>2022-03-06T14:30:58Z</time>
      </trkpt>
      <trkpt lat="45.96786" lon="6.5387">
        <ele>1698</ele>
        <time>2022-03-06T14:31:00Z</time>
      </trkpt>
      <trkpt lat="45.96796" lon="6.53865">
        <ele>1696</ele>
        <time>2022-03-06T14:31:02Z</time>
      </trkpt>
      <trkpt lat="45.96811" lon="6.53863">
        <ele>1693</ele>
        <time>2022-03-06T14:31:05Z</time>
      </trkpt>
      <trkpt lat="45.96822" lon="6.53869">
        <ele>1691</ele>
        <time>2022-03-06T14:31:07Z</time>
      </trkpt>
      <trkpt lat="45.96832" lon="6.53875">
        <ele>1689</ele>
        <time>2022-03-06T14:31:09Z</time>
      </trkpt>
      <trkpt lat="45.96839" lon="6.53884">
        <ele>1688</ele>
        <time>2022-03-06T14:31:14Z</time>
      </trkpt>
      <trkpt lat="45.96836" lon="6.5388">
        <ele>1688</ele>
        <time>2022-03-06T14:31:18Z</time>
      </trkpt>
      <trkpt lat="45.96833" lon="6.5388">
        <ele>1689</ele>
        <time>2022-03-06T14:31:38Z</time>
      </trkpt>
      <trkpt lat="45.96833" lon="6.53877">
        <ele>1689</ele>
        <time>2022-03-06T14:31:41Z</time>
      </trkpt>
      <trkpt lat="45.96831" lon="6.53876">
        <ele>1689</ele>
        <time>2022-03-06T14:31:52Z</time>
      </trkpt>
      <trkpt lat="45.96835" lon="6.5388">
        <ele>1688</ele>
        <time>2022-03-06T14:32:15Z</time>
      </trkpt>
      <trkpt lat="45.96836" lon="6.53877">
        <ele>1688</ele>
        <time>2022-03-06T14:32:29Z</time>
      </trkpt>
      <trkpt lat="45.96833" lon="6.53873">
        <ele>1688</ele>
        <time>2022-03-06T14:33:14Z</time>
      </trkpt>
      <trkpt lat="45.96832" lon="6.5387">
        <ele>1688</ele>
        <time>2022-03-06T14:33:18Z</time>
      </trkpt>
      <trkpt lat="45.96834" lon="6.53874">
        <ele>1688</ele>
        <time>2022-03-06T14:33:22Z</time>
      </trkpt>
      <trkpt lat="45.96836" lon="6.53875">
        <ele>1688</ele>
        <time>2022-03-06T14:33:23Z</time>
      </trkpt>
      <trkpt lat="45.96839" lon="6.53876">
        <ele>1687</ele>
        <time>2022-03-06T14:33:24Z</time>
      </trkpt>
      <trkpt lat="45.96842" lon="6.53876">
        <ele>1686</ele>
        <time>2022-03-06T14:33:25Z</time>
      </trkpt>
      <trkpt lat="45.9685" lon="6.53877">
        <ele>1684</ele>
        <time>2022-03-06T14:33:28Z</time>
      </trkpt>
      <trkpt lat="45.96853" lon="6.53877">
        <ele>1683</ele>
        <time>2022-03-06T14:33:29Z</time>
      </trkpt>
      <trkpt lat="45.96857" lon="6.53878">
        <ele>1682</ele>
        <time>2022-03-06T14:33:30Z</time>
      </trkpt>
      <trkpt lat="45.96861" lon="6.53879">
        <ele>1681</ele>
        <time>2022-03-06T14:33:31Z</time>
      </trkpt>
      <trkpt lat="45.96864" lon="6.53879">
        <ele>1679</ele>
        <time>2022-03-06T14:33:32Z</time>
      </trkpt>
      <trkpt lat="45.96867" lon="6.53879">
        <ele>1678</ele>
        <time>2022-03-06T14:33:33Z</time>
      </trkpt>
      <trkpt lat="45.96871" lon="6.53879">
        <ele>1676</ele>
        <time>2022-03-06T14:33:34Z</time>
      </trkpt>
      <trkpt lat="45.96874" lon="6.5388">
        <ele>1674</ele>
        <time>2022-03-06T14:33:35Z</time>
      </trkpt>
      <trkpt lat="45.96876" lon="6.53881">
        <ele>1673</ele>
        <time>2022-03-06T14:33:36Z</time>
      </trkpt>
      <trkpt lat="45.96879" lon="6.53881">
        <ele>1672</ele>
        <time>2022-03-06T14:33:37Z</time>
      </trkpt>
      <trkpt lat="45.96882" lon="6.53882">
        <ele>1671</ele>
        <time>2022-03-06T14:33:38Z</time>
      </trkpt>
      <trkpt lat="45.96884" lon="6.53883">
        <ele>1670</ele>
        <time>2022-03-06T14:33:39Z</time>
      </trkpt>
      <trkpt lat="45.96886" lon="6.53884">
        <ele>1669</ele>
        <time>2022-03-06T14:33:40Z</time>
      </trkpt>
      <trkpt lat="45.96888" lon="6.53886">
        <ele>1669</ele>
        <time>2022-03-06T14:33:42Z</time>
      </trkpt>
      <trkpt lat="45.9689" lon="6.53888">
        <ele>1668</ele>
        <time>2022-03-06T14:33:44Z</time>
      </trkpt>
      <trkpt lat="45.96893" lon="6.53888">
        <ele>1666</ele>
        <time>2022-03-06T14:33:46Z</time>
      </trkpt>
      <trkpt lat="45.96895" lon="6.53889">
        <ele>1665</ele>
        <time>2022-03-06T14:33:47Z</time>
      </trkpt>
      <trkpt lat="45.96897" lon="6.53892">
        <ele>1665</ele>
        <time>2022-03-06T14:33:49Z</time>
      </trkpt>
      <trkpt lat="45.969" lon="6.53894">
        <ele>1664</ele>
        <time>2022-03-06T14:33:51Z</time>
      </trkpt>
      <trkpt lat="45.96903" lon="6.53896">
        <ele>1663</ele>
        <time>2022-03-06T14:33:53Z</time>
      </trkpt>
      <trkpt lat="45.96906" lon="6.53897">
        <ele>1662</ele>
        <time>2022-03-06T14:33:55Z</time>
      </trkpt>
      <trkpt lat="45.96909" lon="6.53898">
        <ele>1661</ele>
        <time>2022-03-06T14:33:57Z</time>
      </trkpt>
      <trkpt lat="45.9691" lon="6.53901">
        <ele>1661</ele>
        <time>2022-03-06T14:34:05Z</time>
      </trkpt>
      <trkpt lat="45.96912" lon="6.539">
        <ele>1660</ele>
        <time>2022-03-06T14:34:20Z</time>
      </trkpt>
      <trkpt lat="45.9691" lon="6.53902">
        <ele>1662</ele>
        <time>2022-03-06T14:34:29Z</time>
      </trkpt>
      <trkpt lat="45.96912" lon="6.53903">
        <ele>1661</ele>
        <time>2022-03-06T14:34:45Z</time>
      </trkpt>
      <trkpt lat="45.96915" lon="6.53906">
        <ele>1661</ele>
        <time>2022-03-06T14:34:47Z</time>
      </trkpt>
      <trkpt lat="45.96917" lon="6.53907">
        <ele>1661</ele>
        <time>2022-03-06T14:34:48Z</time>
      </trkpt>
      <trkpt lat="45.96918" lon="6.53908">
        <ele>1660</ele>
        <time>2022-03-06T14:34:50Z</time>
      </trkpt>
      <trkpt lat="45.96921" lon="6.53909">
        <ele>1659</ele>
        <time>2022-03-06T14:34:52Z</time>
      </trkpt>
      <trkpt lat="45.96923" lon="6.53909">
        <ele>1657</ele>
        <time>2022-03-06T14:34:55Z</time>
      </trkpt>
      <trkpt lat="45.96925" lon="6.53906">
        <ele>1655</ele>
        <time>2022-03-06T14:34:57Z</time>
      </trkpt>
      <trkpt lat="45.96928" lon="6.53904">
        <ele>1652</ele>
        <time>2022-03-06T14:34:59Z</time>
      </trkpt>
      <trkpt lat="45.96931" lon="6.53903">
        <ele>1650</ele>
        <time>2022-03-06T14:35:01Z</time>
      </trkpt>
      <trkpt lat="45.96934" lon="6.53905">
        <ele>1649</ele>
        <time>2022-03-06T14:35:02Z</time>
      </trkpt>
      <trkpt lat="45.96937" lon="6.53908">
        <ele>1648</ele>
        <time>2022-03-06T14:35:03Z</time>
      </trkpt>
      <trkpt lat="45.96939" lon="6.5391">
        <ele>1647</ele>
        <time>2022-03-06T14:35:04Z</time>
      </trkpt>
      <trkpt lat="45.96942" lon="6.53912">
        <ele>1645</ele>
        <time>2022-03-06T14:35:05Z</time>
      </trkpt>
      <trkpt lat="45.96951" lon="6.53917">
        <ele>1642</ele>
        <time>2022-03-06T14:35:08Z</time>
      </trkpt>
      <trkpt lat="45.96954" lon="6.53917">
        <ele>1640</ele>
        <time>2022-03-06T14:35:09Z</time>
      </trkpt>
      <trkpt lat="45.96966" lon="6.53916">
        <ele>1632</ele>
        <time>2022-03-06T14:35:13Z</time>
      </trkpt>
      <trkpt lat="45.96974" lon="6.53915">
        <ele>1627</ele>
        <time>2022-03-06T14:35:17Z</time>
      </trkpt>
      <trkpt lat="45.96977" lon="6.53917">
        <ele>1626</ele>
        <time>2022-03-06T14:35:19Z</time>
      </trkpt>
      <trkpt lat="45.96979" lon="6.53917">
        <ele>1625</ele>
        <time>2022-03-06T14:35:20Z</time>
      </trkpt>
      <trkpt lat="45.96981" lon="6.53918">
        <ele>1625</ele>
        <time>2022-03-06T14:35:21Z</time>
      </trkpt>
      <trkpt lat="45.96984" lon="6.5392">
        <ele>1624</ele>
        <time>2022-03-06T14:35:23Z</time>
      </trkpt>
      <trkpt lat="45.96982" lon="6.53919">
        <ele>1625</ele>
        <time>2022-03-06T14:35:28Z</time>
      </trkpt>
      <trkpt lat="45.96984" lon="6.53922">
        <ele>1625</ele>
        <time>2022-03-06T14:35:40Z</time>
      </trkpt>
      <trkpt lat="45.96985" lon="6.53924">
        <ele>1625</ele>
        <time>2022-03-06T14:35:41Z</time>
      </trkpt>
      <trkpt lat="45.96988" lon="6.53926">
        <ele>1625</ele>
        <time>2022-03-06T14:35:42Z</time>
      </trkpt>
      <trkpt lat="45.96991" lon="6.53928">
        <ele>1624</ele>
        <time>2022-03-06T14:35:43Z</time>
      </trkpt>
      <trkpt lat="45.96993" lon="6.53928">
        <ele>1623</ele>
        <time>2022-03-06T14:35:44Z</time>
      </trkpt>
      <trkpt lat="45.97" lon="6.53925">
        <ele>1619</ele>
        <time>2022-03-06T14:35:45Z</time>
      </trkpt>
      <trkpt lat="45.97006" lon="6.53925">
        <ele>1615</ele>
        <time>2022-03-06T14:35:46Z</time>
      </trkpt>
      <trkpt lat="45.97011" lon="6.53922">
        <ele>1612</ele>
        <time>2022-03-06T14:35:47Z</time>
      </trkpt>
      <trkpt lat="45.97017" lon="6.53919">
        <ele>1608</ele>
        <time>2022-03-06T14:35:48Z</time>
      </trkpt>
      <trkpt lat="45.97019" lon="6.53918">
        <ele>1606</ele>
        <time>2022-03-06T14:35:49Z</time>
      </trkpt>
      <trkpt lat="45.97022" lon="6.53918">
        <ele>1605</ele>
        <time>2022-03-06T14:35:51Z</time>
      </trkpt>
      <trkpt lat="45.97025" lon="6.53912">
        <ele>1602</ele>
        <time>2022-03-06T14:35:54Z</time>
      </trkpt>
      <trkpt lat="45.97028" lon="6.53912">
        <ele>1601</ele>
        <time>2022-03-06T14:35:56Z</time>
      </trkpt>
      <trkpt lat="45.97031" lon="6.53913">
        <ele>1600</ele>
        <time>2022-03-06T14:35:57Z</time>
      </trkpt>
      <trkpt lat="45.97034" lon="6.53912">
        <ele>1599</ele>
        <time>2022-03-06T14:35:58Z</time>
      </trkpt>
      <trkpt lat="45.97036" lon="6.53909">
        <ele>1598</ele>
        <time>2022-03-06T14:35:59Z</time>
      </trkpt>
      <trkpt lat="45.97046" lon="6.53909">
        <ele>1595</ele>
        <time>2022-03-06T14:36:02Z</time>
      </trkpt>
      <trkpt lat="45.97049" lon="6.53911">
        <ele>1595</ele>
        <time>2022-03-06T14:36:03Z</time>
      </trkpt>
      <trkpt lat="45.97051" lon="6.53911">
        <ele>1594</ele>
        <time>2022-03-06T14:36:04Z</time>
      </trkpt>
      <trkpt lat="45.97051" lon="6.53909">
        <ele>1593</ele>
        <time>2022-03-06T14:36:07Z</time>
      </trkpt>
      <trkpt lat="45.9705" lon="6.53905">
        <ele>1593</ele>
        <time>2022-03-06T14:36:15Z</time>
      </trkpt>
      <trkpt lat="45.97052" lon="6.53904">
        <ele>1592</ele>
        <time>2022-03-06T14:36:26Z</time>
      </trkpt>
      <trkpt lat="45.97054" lon="6.53904">
        <ele>1592</ele>
        <time>2022-03-06T14:36:28Z</time>
      </trkpt>
      <trkpt lat="45.97056" lon="6.53899">
        <ele>1590</ele>
        <time>2022-03-06T14:36:31Z</time>
      </trkpt>
      <trkpt lat="45.97058" lon="6.53896">
        <ele>1589</ele>
        <time>2022-03-06T14:36:32Z</time>
      </trkpt>
      <trkpt lat="45.9706" lon="6.53894">
        <ele>1588</ele>
        <time>2022-03-06T14:36:33Z</time>
      </trkpt>
      <trkpt lat="45.97062" lon="6.5389">
        <ele>1586</ele>
        <time>2022-03-06T14:36:34Z</time>
      </trkpt>
      <trkpt lat="45.97064" lon="6.53887">
        <ele>1584</ele>
        <time>2022-03-06T14:36:35Z</time>
      </trkpt>
      <trkpt lat="45.97066" lon="6.53886">
        <ele>1583</ele>
        <time>2022-03-06T14:36:36Z</time>
      </trkpt>
      <trkpt lat="45.97067" lon="6.53883">
        <ele>1582</ele>
        <time>2022-03-06T14:36:37Z</time>
      </trkpt>
      <trkpt lat="45.97072" lon="6.53879">
        <ele>1578</ele>
        <time>2022-03-06T14:36:38Z</time>
      </trkpt>
      <trkpt lat="45.97076" lon="6.53877">
        <ele>1575</ele>
        <time>2022-03-06T14:36:39Z</time>
      </trkpt>
      <trkpt lat="45.97078" lon="6.53874">
        <ele>1573</ele>
        <time>2022-03-06T14:36:43Z</time>
      </trkpt>
      <trkpt lat="45.97081" lon="6.53872">
        <ele>1571</ele>
        <time>2022-03-06T14:36:44Z</time>
      </trkpt>
      <trkpt lat="45.97084" lon="6.53873">
        <ele>1570</ele>
        <time>2022-03-06T14:36:45Z</time>
      </trkpt>
      <trkpt lat="45.97085" lon="6.53875">
        <ele>1570</ele>
        <time>2022-03-06T14:36:47Z</time>
      </trkpt>
      <trkpt lat="45.97089" lon="6.53865">
        <ele>1565</ele>
        <time>2022-03-06T14:36:52Z</time>
      </trkpt>
      <trkpt lat="45.97091" lon="6.53862">
        <ele>1563</ele>
        <time>2022-03-06T14:36:54Z</time>
      </trkpt>
      <trkpt lat="45.97093" lon="6.53858">
        <ele>1561</ele>
        <time>2022-03-06T14:36:55Z</time>
      </trkpt>
      <trkpt lat="45.97095" lon="6.53854">
        <ele>1559</ele>
        <time>2022-03-06T14:36:56Z</time>
      </trkpt>
      <trkpt lat="45.97095" lon="6.5384">
        <ele>1554</ele>
        <time>2022-03-06T14:37:00Z</time>
      </trkpt>
      <trkpt lat="45.97088" lon="6.53829">
        <ele>1553</ele>
        <time>2022-03-06T14:37:05Z</time>
      </trkpt>
      <trkpt lat="45.97098" lon="6.53828">
        <ele>1549</ele>
        <time>2022-03-06T14:37:10Z</time>
      </trkpt>
      <trkpt lat="45.97103" lon="6.53826">
        <ele>1546</ele>
        <time>2022-03-06T14:37:16Z</time>
      </trkpt>
      <trkpt lat="45.97101" lon="6.53825">
        <ele>1547</ele>
        <time>2022-03-06T14:37:25Z</time>
      </trkpt>
      <trkpt lat="45.97105" lon="6.53827">
        <ele>1545</ele>
        <time>2022-03-06T14:37:37Z</time>
      </trkpt>
      <trkpt lat="45.97107" lon="6.53829">
        <ele>1545</ele>
        <time>2022-03-06T14:37:38Z</time>
      </trkpt>
      <trkpt lat="45.9711" lon="6.53832">
        <ele>1545</ele>
        <time>2022-03-06T14:37:39Z</time>
      </trkpt>
      <trkpt lat="45.97113" lon="6.53834">
        <ele>1544</ele>
        <time>2022-03-06T14:37:40Z</time>
      </trkpt>
      <trkpt lat="45.97115" lon="6.53836">
        <ele>1544</ele>
        <time>2022-03-06T14:37:41Z</time>
      </trkpt>
      <trkpt lat="45.97117" lon="6.53839">
        <ele>1545</ele>
        <time>2022-03-06T14:37:42Z</time>
      </trkpt>
      <trkpt lat="45.97119" lon="6.53842">
        <ele>1545</ele>
        <time>2022-03-06T14:37:43Z</time>
      </trkpt>
      <trkpt lat="45.97121" lon="6.53844">
        <ele>1545</ele>
        <time>2022-03-06T14:37:44Z</time>
      </trkpt>
      <trkpt lat="45.97123" lon="6.53846">
        <ele>1545</ele>
        <time>2022-03-06T14:37:45Z</time>
      </trkpt>
      <trkpt lat="45.97125" lon="6.53848">
        <ele>1545</ele>
        <time>2022-03-06T14:37:46Z</time>
      </trkpt>
      <trkpt lat="45.97127" lon="6.53849">
        <ele>1545</ele>
        <time>2022-03-06T14:37:47Z</time>
      </trkpt>
      <trkpt lat="45.9713" lon="6.53845">
        <ele>1543</ele>
        <time>2022-03-06T14:37:48Z</time>
      </trkpt>
      <trkpt lat="45.97133" lon="6.5384">
        <ele>1540</ele>
        <time>2022-03-06T14:37:49Z</time>
      </trkpt>
      <trkpt lat="45.97138" lon="6.53835">
        <ele>1537</ele>
        <time>2022-03-06T14:37:50Z</time>
      </trkpt>
      <trkpt lat="45.97141" lon="6.53832">
        <ele>1535</ele>
        <time>2022-03-06T14:37:51Z</time>
      </trkpt>
      <trkpt lat="45.97144" lon="6.5383">
        <ele>1533</ele>
        <time>2022-03-06T14:37:52Z</time>
      </trkpt>
      <trkpt lat="45.97146" lon="6.53811">
        <ele>1528</ele>
        <time>2022-03-06T14:37:55Z</time>
      </trkpt>
      <trkpt lat="45.97156" lon="6.53804">
        <ele>1525</ele>
        <time>2022-03-06T14:37:59Z</time>
      </trkpt>
      <trkpt lat="45.97166" lon="6.53805">
        <ele>1524</ele>
        <time>2022-03-06T14:38:02Z</time>
      </trkpt>
      <trkpt lat="45.97175" lon="6.53809">
        <ele>1523</ele>
        <time>2022-03-06T14:38:06Z</time>
      </trkpt>
      <trkpt lat="45.97179" lon="6.53798">
        <ele>1521</ele>
        <time>2022-03-06T14:38:18Z</time>
      </trkpt>
      <trkpt lat="45.97184" lon="6.53785">
        <ele>1518</ele>
        <time>2022-03-06T14:38:23Z</time>
      </trkpt>
      <trkpt lat="45.97184" lon="6.53782">
        <ele>1517</ele>
        <time>2022-03-06T14:38:25Z</time>
      </trkpt>
      <trkpt lat="45.97185" lon="6.53775">
        <ele>1516</ele>
        <time>2022-03-06T14:38:28Z</time>
      </trkpt>
      <trkpt lat="45.97185" lon="6.53771">
        <ele>1515</ele>
        <time>2022-03-06T14:38:29Z</time>
      </trkpt>
      <trkpt lat="45.97185" lon="6.53768">
        <ele>1515</ele>
        <time>2022-03-06T14:38:31Z</time>
      </trkpt>
      <trkpt lat="45.97175" lon="6.53765">
        <ele>1516</ele>
        <time>2022-03-06T14:38:35Z</time>
      </trkpt>
      <trkpt lat="45.97173" lon="6.53766">
        <ele>1516</ele>
        <time>2022-03-06T14:38:36Z</time>
      </trkpt>
      <trkpt lat="45.97171" lon="6.53766">
        <ele>1517</ele>
        <time>2022-03-06T14:38:39Z</time>
      </trkpt>
      <trkpt lat="45.97169" lon="6.53762">
        <ele>1516</ele>
        <time>2022-03-06T14:38:41Z</time>
      </trkpt>
      <trkpt lat="45.97169" lon="6.53765">
        <ele>1517</ele>
        <time>2022-03-06T14:38:44Z</time>
      </trkpt>
      <trkpt lat="45.97171" lon="6.53768">
        <ele>1517</ele>
        <time>2022-03-06T14:38:49Z</time>
      </trkpt>
      <trkpt lat="45.97172" lon="6.53767">
        <ele>1517</ele>
        <time>2022-03-06T14:38:55Z</time>
      </trkpt>
      <trkpt lat="45.97175" lon="6.53763">
        <ele>1516</ele>
        <time>2022-03-06T14:38:57Z</time>
      </trkpt>
      <trkpt lat="45.97172" lon="6.53765">
        <ele>1516</ele>
        <time>2022-03-06T14:39:02Z</time>
      </trkpt>
      <trkpt lat="45.9717" lon="6.53765">
        <ele>1517</ele>
        <time>2022-03-06T14:39:05Z</time>
      </trkpt>
      <trkpt lat="45.97169" lon="6.53761">
        <ele>1516</ele>
        <time>2022-03-06T14:39:07Z</time>
      </trkpt>
      <trkpt lat="45.97167" lon="6.53756">
        <ele>1516</ele>
        <time>2022-03-06T14:39:10Z</time>
      </trkpt>
      <trkpt lat="45.97168" lon="6.53752">
        <ele>1516</ele>
        <time>2022-03-06T14:39:13Z</time>
      </trkpt>
      <trkpt lat="45.97169" lon="6.5375">
        <ele>1515</ele>
        <time>2022-03-06T14:39:25Z</time>
      </trkpt>
      <trkpt lat="45.97172" lon="6.53749">
        <ele>1515</ele>
        <time>2022-03-06T14:39:29Z</time>
      </trkpt>
      <trkpt lat="45.97174" lon="6.53748">
        <ele>1514</ele>
        <time>2022-03-06T14:39:33Z</time>
      </trkpt>
      <trkpt lat="45.97183" lon="6.53743">
        <ele>1512</ele>
        <time>2022-03-06T14:39:41Z</time>
      </trkpt>
      <trkpt lat="45.9719" lon="6.53733">
        <ele>1509</ele>
        <time>2022-03-06T14:39:53Z</time>
      </trkpt>
      <trkpt lat="45.97191" lon="6.53729">
        <ele>1508</ele>
        <time>2022-03-06T14:39:56Z</time>
      </trkpt>
      <trkpt lat="45.97191" lon="6.53726">
        <ele>1507</ele>
        <time>2022-03-06T14:39:58Z</time>
      </trkpt>
      <trkpt lat="45.97193" lon="6.53726">
        <ele>1507</ele>
        <time>2022-03-06T14:40:05Z</time>
      </trkpt>
      <trkpt lat="45.97191" lon="6.53727">
        <ele>1507</ele>
        <time>2022-03-06T14:40:09Z</time>
      </trkpt>
      <trkpt lat="45.97189" lon="6.53726">
        <ele>1508</ele>
        <time>2022-03-06T14:40:23Z</time>
      </trkpt>
      <trkpt lat="45.97188" lon="6.53724">
        <ele>1508</ele>
        <time>2022-03-06T14:40:29Z</time>
      </trkpt>
      <trkpt lat="45.97189" lon="6.53725">
        <ele>1507</ele>
        <time>2022-03-06T14:40:46Z</time>
      </trkpt>
      <trkpt lat="45.97193" lon="6.53713">
        <ele>1507</ele>
        <time>2022-03-06T14:40:55Z</time>
      </trkpt>
      <trkpt lat="45.97204" lon="6.53711">
        <ele>1504</ele>
        <time>2022-03-06T14:41:03Z</time>
      </trkpt>
      <trkpt lat="45.97208" lon="6.53725">
        <ele>1504</ele>
        <time>2022-03-06T14:41:08Z</time>
      </trkpt>
      <trkpt lat="45.97211" lon="6.53723">
        <ele>1503</ele>
        <time>2022-03-06T14:41:11Z</time>
      </trkpt>
      <trkpt lat="45.97213" lon="6.53721">
        <ele>1502</ele>
        <time>2022-03-06T14:41:14Z</time>
      </trkpt>
      <trkpt lat="45.97217" lon="6.53707">
        <ele>1499</ele>
        <time>2022-03-06T14:41:21Z</time>
      </trkpt>
      <trkpt lat="45.97223" lon="6.53697">
        <ele>1495</ele>
        <time>2022-03-06T14:41:24Z</time>
      </trkpt>
      <trkpt lat="45.97232" lon="6.53689">
        <ele>1492</ele>
        <time>2022-03-06T14:41:27Z</time>
      </trkpt>
      <trkpt lat="45.97244" lon="6.53685">
        <ele>1489</ele>
        <time>2022-03-06T14:41:31Z</time>
      </trkpt>
      <trkpt lat="45.97256" lon="6.53681">
        <ele>1486</ele>
        <time>2022-03-06T14:41:34Z</time>
      </trkpt>
      <trkpt lat="45.97266" lon="6.53677">
        <ele>1484</ele>
        <time>2022-03-06T14:41:36Z</time>
      </trkpt>
      <trkpt lat="45.97278" lon="6.53667">
        <ele>1482</ele>
        <time>2022-03-06T14:41:39Z</time>
      </trkpt>
      <trkpt lat="45.97287" lon="6.53661">
        <ele>1481</ele>
        <time>2022-03-06T14:41:41Z</time>
      </trkpt>
      <trkpt lat="45.97295" lon="6.53655">
        <ele>1479</ele>
        <time>2022-03-06T14:41:43Z</time>
      </trkpt>
      <trkpt lat="45.97305" lon="6.53657">
        <ele>1475</ele>
        <time>2022-03-06T14:41:46Z</time>
      </trkpt>
      <trkpt lat="45.97317" lon="6.53652">
        <ele>1473</ele>
        <time>2022-03-06T14:41:49Z</time>
      </trkpt>
      <trkpt lat="45.97326" lon="6.53653">
        <ele>1469</ele>
        <time>2022-03-06T14:41:51Z</time>
      </trkpt>
      <trkpt lat="45.97337" lon="6.53655">
        <ele>1465</ele>
        <time>2022-03-06T14:41:54Z</time>
      </trkpt>
      <trkpt lat="45.97349" lon="6.53652">
        <ele>1463</ele>
        <time>2022-03-06T14:41:57Z</time>
      </trkpt>
      <trkpt lat="45.9736" lon="6.53653">
        <ele>1459</ele>
        <time>2022-03-06T14:42:00Z</time>
      </trkpt>
      <trkpt lat="45.97371" lon="6.53656">
        <ele>1455</ele>
        <time>2022-03-06T14:42:04Z</time>
      </trkpt>
      <trkpt lat="45.9738" lon="6.5365">
        <ele>1455</ele>
        <time>2022-03-06T14:42:08Z</time>
      </trkpt>
      <trkpt lat="45.97382" lon="6.53649">
        <ele>1456</ele>
        <time>2022-03-06T14:42:10Z</time>
      </trkpt>
      <trkpt lat="45.97391" lon="6.53653">
        <ele>1452</ele>
        <time>2022-03-06T14:42:14Z</time>
      </trkpt>
      <trkpt lat="45.97393" lon="6.53655">
        <ele>1450</ele>
        <time>2022-03-06T14:42:15Z</time>
      </trkpt>
      <trkpt lat="45.97395" lon="6.53659">
        <ele>1448</ele>
        <time>2022-03-06T14:42:16Z</time>
      </trkpt>
      <trkpt lat="45.97398" lon="6.53664">
        <ele>1447</ele>
        <time>2022-03-06T14:42:17Z</time>
      </trkpt>
      <trkpt lat="45.97401" lon="6.53668">
        <ele>1445</ele>
        <time>2022-03-06T14:42:18Z</time>
      </trkpt>
      <trkpt lat="45.97405" lon="6.53671">
        <ele>1445</ele>
        <time>2022-03-06T14:42:19Z</time>
      </trkpt>
      <trkpt lat="45.97409" lon="6.53672">
        <ele>1444</ele>
        <time>2022-03-06T14:42:20Z</time>
      </trkpt>
      <trkpt lat="45.97413" lon="6.53671">
        <ele>1444</ele>
        <time>2022-03-06T14:42:21Z</time>
      </trkpt>
      <trkpt lat="45.97416" lon="6.53668">
        <ele>1444</ele>
        <time>2022-03-06T14:42:22Z</time>
      </trkpt>
      <trkpt lat="45.9742" lon="6.53666">
        <ele>1443</ele>
        <time>2022-03-06T14:42:23Z</time>
      </trkpt>
      <trkpt lat="45.97423" lon="6.53664">
        <ele>1444</ele>
        <time>2022-03-06T14:42:24Z</time>
      </trkpt>
      <trkpt lat="45.97426" lon="6.53662">
        <ele>1444</ele>
        <time>2022-03-06T14:42:25Z</time>
      </trkpt>
      <trkpt lat="45.97429" lon="6.53661">
        <ele>1444</ele>
        <time>2022-03-06T14:42:26Z</time>
      </trkpt>
      <trkpt lat="45.97431" lon="6.53658">
        <ele>1444</ele>
        <time>2022-03-06T14:42:27Z</time>
      </trkpt>
      <trkpt lat="45.97432" lon="6.53656">
        <ele>1444</ele>
        <time>2022-03-06T14:42:29Z</time>
      </trkpt>
      <trkpt lat="45.97433" lon="6.53658">
        <ele>1444</ele>
        <time>2022-03-06T14:42:40Z</time>
      </trkpt>
      <trkpt lat="45.97434" lon="6.53662">
        <ele>1443</ele>
        <time>2022-03-06T14:42:43Z</time>
      </trkpt>
      <trkpt lat="45.97436" lon="6.53663">
        <ele>1443</ele>
        <time>2022-03-06T14:42:49Z</time>
      </trkpt>
      <trkpt lat="45.97439" lon="6.53662">
        <ele>1443</ele>
        <time>2022-03-06T14:42:54Z</time>
      </trkpt>
      <trkpt lat="45.97442" lon="6.53663">
        <ele>1442</ele>
        <time>2022-03-06T14:42:58Z</time>
      </trkpt>
      <trkpt lat="45.97443" lon="6.53664">
        <ele>1442</ele>
        <time>2022-03-06T14:43:01Z</time>
      </trkpt>
      <trkpt lat="45.97446" lon="6.53664">
        <ele>1442</ele>
        <time>2022-03-06T14:43:03Z</time>
      </trkpt>
      <trkpt lat="45.97448" lon="6.53663">
        <ele>1442</ele>
        <time>2022-03-06T14:43:05Z</time>
      </trkpt>
      <trkpt lat="45.97451" lon="6.53662">
        <ele>1443</ele>
        <time>2022-03-06T14:43:07Z</time>
      </trkpt>
      <trkpt lat="45.97452" lon="6.5366">
        <ele>1443</ele>
        <time>2022-03-06T14:43:08Z</time>
      </trkpt>
      <trkpt lat="45.97454" lon="6.53658">
        <ele>1443</ele>
        <time>2022-03-06T14:43:09Z</time>
      </trkpt>
      <trkpt lat="45.97458" lon="6.53658">
        <ele>1443</ele>
        <time>2022-03-06T14:43:11Z</time>
      </trkpt>
      <trkpt lat="45.97464" lon="6.53657">
        <ele>1444</ele>
        <time>2022-03-06T14:43:15Z</time>
      </trkpt>
      <trkpt lat="45.97466" lon="6.53655">
        <ele>1445</ele>
        <time>2022-03-06T14:43:17Z</time>
      </trkpt>
      <trkpt lat="45.97468" lon="6.53653">
        <ele>1445</ele>
        <time>2022-03-06T14:43:19Z</time>
      </trkpt>
      <trkpt lat="45.97469" lon="6.5365">
        <ele>1446</ele>
        <time>2022-03-06T14:43:21Z</time>
      </trkpt>
      <trkpt lat="45.97471" lon="6.53647">
        <ele>1447</ele>
        <time>2022-03-06T14:43:24Z</time>
      </trkpt>
      <trkpt lat="45.97473" lon="6.53647">
        <ele>1447</ele>
        <time>2022-03-06T14:43:26Z</time>
      </trkpt>
      <trkpt lat="45.97475" lon="6.53647">
        <ele>1447</ele>
        <time>2022-03-06T14:43:29Z</time>
      </trkpt>
      <trkpt lat="45.97476" lon="6.53643">
        <ele>1448</ele>
        <time>2022-03-06T14:43:32Z</time>
      </trkpt>
      <trkpt lat="45.97475" lon="6.53639">
        <ele>1449</ele>
        <time>2022-03-06T14:43:34Z</time>
      </trkpt>
      <trkpt lat="45.97473" lon="6.53639">
        <ele>1449</ele>
        <time>2022-03-06T14:43:38Z</time>
      </trkpt>
      <trkpt lat="45.97471" lon="6.53641">
        <ele>1448</ele>
        <time>2022-03-06T14:43:44Z</time>
      </trkpt>
      <trkpt lat="45.97471" lon="6.53638">
        <ele>1449</ele>
        <time>2022-03-06T14:43:50Z</time>
      </trkpt>
      <trkpt lat="45.97473" lon="6.53638">
        <ele>1449</ele>
        <time>2022-03-06T14:44:05Z</time>
      </trkpt>
      <trkpt lat="45.97474" lon="6.53641">
        <ele>1448</ele>
        <time>2022-03-06T14:44:09Z</time>
      </trkpt>
      <trkpt lat="45.97475" lon="6.53639">
        <ele>1449</ele>
        <time>2022-03-06T14:44:13Z</time>
      </trkpt>
      <trkpt lat="45.97477" lon="6.53641">
        <ele>1449</ele>
        <time>2022-03-06T14:44:18Z</time>
      </trkpt>
      <trkpt lat="45.97478" lon="6.53643">
        <ele>1449</ele>
        <time>2022-03-06T14:44:20Z</time>
      </trkpt>
      <trkpt lat="45.97478" lon="6.5364">
        <ele>1450</ele>
        <time>2022-03-06T14:44:28Z</time>
      </trkpt>
      <trkpt lat="45.9748" lon="6.5364">
        <ele>1450</ele>
        <time>2022-03-06T14:44:30Z</time>
      </trkpt>
      <trkpt lat="45.97483" lon="6.5364">
        <ele>1451</ele>
        <time>2022-03-06T14:44:32Z</time>
      </trkpt>
      <trkpt lat="45.97485" lon="6.53641">
        <ele>1451</ele>
        <time>2022-03-06T14:44:34Z</time>
      </trkpt>
      <trkpt lat="45.97486" lon="6.53642">
        <ele>1451</ele>
        <time>2022-03-06T14:44:38Z</time>
      </trkpt>
      <trkpt lat="45.97487" lon="6.53645">
        <ele>1450</ele>
        <time>2022-03-06T14:44:41Z</time>
      </trkpt>
      <trkpt lat="45.97488" lon="6.53649">
        <ele>1450</ele>
        <time>2022-03-06T14:44:44Z</time>
      </trkpt>
      <trkpt lat="45.97489" lon="6.53651">
        <ele>1450</ele>
        <time>2022-03-06T14:44:46Z</time>
      </trkpt>
      <trkpt lat="45.9749" lon="6.53654">
        <ele>1449</ele>
        <time>2022-03-06T14:44:48Z</time>
      </trkpt>
      <trkpt lat="45.97491" lon="6.53657">
        <ele>1449</ele>
        <time>2022-03-06T14:44:50Z</time>
      </trkpt>
      <trkpt lat="45.97493" lon="6.5366">
        <ele>1449</ele>
        <time>2022-03-06T14:44:52Z</time>
      </trkpt>
      <trkpt lat="45.97494" lon="6.53662">
        <ele>1449</ele>
        <time>2022-03-06T14:44:54Z</time>
      </trkpt>
      <trkpt lat="45.97496" lon="6.53664">
        <ele>1449</ele>
        <time>2022-03-06T14:44:56Z</time>
      </trkpt>
      <trkpt lat="45.97497" lon="6.53666">
        <ele>1449</ele>
        <time>2022-03-06T14:44:58Z</time>
      </trkpt>
      <trkpt lat="45.97498" lon="6.53669">
        <ele>1448</ele>
        <time>2022-03-06T14:45:01Z</time>
      </trkpt>
      <trkpt lat="45.975" lon="6.53671">
        <ele>1448</ele>
        <time>2022-03-06T14:45:04Z</time>
      </trkpt>
      <trkpt lat="45.97501" lon="6.53673">
        <ele>1448</ele>
        <time>2022-03-06T14:45:09Z</time>
      </trkpt>
      <trkpt lat="45.97501" lon="6.53676">
        <ele>1447</ele>
        <time>2022-03-06T14:45:17Z</time>
      </trkpt>
      <trkpt lat="45.97501" lon="6.5368">
        <ele>1446</ele>
        <time>2022-03-06T14:45:25Z</time>
      </trkpt>
      <trkpt lat="45.97502" lon="6.53674">
        <ele>1448</ele>
        <time>2022-03-06T14:45:41Z</time>
      </trkpt>
      <trkpt lat="45.975" lon="6.53672">
        <ele>1448</ele>
        <time>2022-03-06T14:45:44Z</time>
      </trkpt>
      <trkpt lat="45.97498" lon="6.53671">
        <ele>1448</ele>
        <time>2022-03-06T14:45:47Z</time>
      </trkpt>
      <trkpt lat="45.97499" lon="6.53668">
        <ele>1449</ele>
        <time>2022-03-06T14:46:02Z</time>
      </trkpt>
      <trkpt lat="45.97501" lon="6.53669">
        <ele>1449</ele>
        <time>2022-03-06T14:46:29Z</time>
      </trkpt>
      <trkpt lat="45.975" lon="6.53672">
        <ele>1448</ele>
        <time>2022-03-06T14:46:40Z</time>
      </trkpt>
      <trkpt lat="45.97501" lon="6.53676">
        <ele>1447</ele>
        <time>2022-03-06T14:46:42Z</time>
      </trkpt>
      <trkpt lat="45.97502" lon="6.53679">
        <ele>1447</ele>
        <time>2022-03-06T14:46:43Z</time>
      </trkpt>
      <trkpt lat="45.97502" lon="6.53682">
        <ele>1446</ele>
        <time>2022-03-06T14:46:44Z</time>
      </trkpt>
      <trkpt lat="45.97503" lon="6.53686">
        <ele>1446</ele>
        <time>2022-03-06T14:46:45Z</time>
      </trkpt>
      <trkpt lat="45.97504" lon="6.53689">
        <ele>1445</ele>
        <time>2022-03-06T14:46:46Z</time>
      </trkpt>
      <trkpt lat="45.97506" lon="6.53693">
        <ele>1445</ele>
        <time>2022-03-06T14:46:47Z</time>
      </trkpt>
      <trkpt lat="45.97507" lon="6.53697">
        <ele>1444</ele>
        <time>2022-03-06T14:46:48Z</time>
      </trkpt>
      <trkpt lat="45.97508" lon="6.53701">
        <ele>1445</ele>
        <time>2022-03-06T14:46:49Z</time>
      </trkpt>
      <trkpt lat="45.9751" lon="6.53705">
        <ele>1445</ele>
        <time>2022-03-06T14:46:50Z</time>
      </trkpt>
      <trkpt lat="45.97513" lon="6.53708">
        <ele>1445</ele>
        <time>2022-03-06T14:46:51Z</time>
      </trkpt>
      <trkpt lat="45.97516" lon="6.53711">
        <ele>1445</ele>
        <time>2022-03-06T14:46:52Z</time>
      </trkpt>
      <trkpt lat="45.97519" lon="6.53715">
        <ele>1445</ele>
        <time>2022-03-06T14:46:53Z</time>
      </trkpt>
      <trkpt lat="45.97522" lon="6.53719">
        <ele>1445</ele>
        <time>2022-03-06T14:46:54Z</time>
      </trkpt>
      <trkpt lat="45.97525" lon="6.53723">
        <ele>1445</ele>
        <time>2022-03-06T14:46:55Z</time>
      </trkpt>
      <trkpt lat="45.9753" lon="6.53729">
        <ele>1445</ele>
        <time>2022-03-06T14:46:57Z</time>
      </trkpt>
      <trkpt lat="45.97533" lon="6.53731">
        <ele>1445</ele>
        <time>2022-03-06T14:46:58Z</time>
      </trkpt>
      <trkpt lat="45.97543" lon="6.53733">
        <ele>1445</ele>
        <time>2022-03-06T14:47:09Z</time>
      </trkpt>
      <trkpt lat="45.97552" lon="6.53736">
        <ele>1445</ele>
        <time>2022-03-06T14:47:12Z</time>
      </trkpt>
      <trkpt lat="45.97564" lon="6.5374">
        <ele>1443</ele>
        <time>2022-03-06T14:47:15Z</time>
      </trkpt>
      <trkpt lat="45.97574" lon="6.53745">
        <ele>1440</ele>
        <time>2022-03-06T14:47:19Z</time>
      </trkpt>
      <trkpt lat="45.9758" lon="6.53747">
        <ele>1439</ele>
        <time>2022-03-06T14:47:21Z</time>
      </trkpt>
      <trkpt lat="45.97583" lon="6.53748">
        <ele>1438</ele>
        <time>2022-03-06T14:47:22Z</time>
      </trkpt>
      <trkpt lat="45.97586" lon="6.53749">
        <ele>1437</ele>
        <time>2022-03-06T14:47:23Z</time>
      </trkpt>
      <trkpt lat="45.97588" lon="6.5375">
        <ele>1437</ele>
        <time>2022-03-06T14:47:24Z</time>
      </trkpt>
      <trkpt lat="45.9759" lon="6.53752">
        <ele>1437</ele>
        <time>2022-03-06T14:47:25Z</time>
      </trkpt>
      <trkpt lat="45.97592" lon="6.53754">
        <ele>1436</ele>
        <time>2022-03-06T14:47:26Z</time>
      </trkpt>
      <trkpt lat="45.97594" lon="6.53757">
        <ele>1435</ele>
        <time>2022-03-06T14:47:27Z</time>
      </trkpt>
      <trkpt lat="45.97596" lon="6.53759">
        <ele>1435</ele>
        <time>2022-03-06T14:47:28Z</time>
      </trkpt>
      <trkpt lat="45.97595" lon="6.53757">
        <ele>1435</ele>
        <time>2022-03-06T14:47:35Z</time>
      </trkpt>
      <trkpt lat="45.97597" lon="6.53756">
        <ele>1435</ele>
        <time>2022-03-06T14:47:55Z</time>
      </trkpt>
      <trkpt lat="45.97599" lon="6.53757">
        <ele>1435</ele>
        <time>2022-03-06T14:47:56Z</time>
      </trkpt>
      <trkpt lat="45.97609" lon="6.53763">
        <ele>1433</ele>
        <time>2022-03-06T14:47:59Z</time>
      </trkpt>
      <trkpt lat="45.97613" lon="6.53765">
        <ele>1432</ele>
        <time>2022-03-06T14:48:00Z</time>
      </trkpt>
      <trkpt lat="45.97616" lon="6.53767">
        <ele>1432</ele>
        <time>2022-03-06T14:48:01Z</time>
      </trkpt>
      <trkpt lat="45.9762" lon="6.53769">
        <ele>1432</ele>
        <time>2022-03-06T14:48:02Z</time>
      </trkpt>
      <trkpt lat="45.97624" lon="6.5377">
        <ele>1431</ele>
        <time>2022-03-06T14:48:03Z</time>
      </trkpt>
      <trkpt lat="45.97628" lon="6.53772">
        <ele>1431</ele>
        <time>2022-03-06T14:48:04Z</time>
      </trkpt>
      <trkpt lat="45.97632" lon="6.53774">
        <ele>1430</ele>
        <time>2022-03-06T14:48:05Z</time>
      </trkpt>
      <trkpt lat="45.97637" lon="6.53776">
        <ele>1430</ele>
        <time>2022-03-06T14:48:06Z</time>
      </trkpt>
      <trkpt lat="45.97642" lon="6.53779">
        <ele>1430</ele>
        <time>2022-03-06T14:48:07Z</time>
      </trkpt>
      <trkpt lat="45.97647" lon="6.53783">
        <ele>1429</ele>
        <time>2022-03-06T14:48:08Z</time>
      </trkpt>
      <trkpt lat="45.97651" lon="6.53788">
        <ele>1429</ele>
        <time>2022-03-06T14:48:09Z</time>
      </trkpt>
      <trkpt lat="45.97654" lon="6.53793">
        <ele>1429</ele>
        <time>2022-03-06T14:48:10Z</time>
      </trkpt>
      <trkpt lat="45.97657" lon="6.53796">
        <ele>1428</ele>
        <time>2022-03-06T14:48:11Z</time>
      </trkpt>
      <trkpt lat="45.9766" lon="6.53801">
        <ele>1428</ele>
        <time>2022-03-06T14:48:12Z</time>
      </trkpt>
      <trkpt lat="45.97664" lon="6.53807">
        <ele>1427</ele>
        <time>2022-03-06T14:48:13Z</time>
      </trkpt>
      <trkpt lat="45.97669" lon="6.53812">
        <ele>1426</ele>
        <time>2022-03-06T14:48:14Z</time>
      </trkpt>
      <trkpt lat="45.97674" lon="6.53817">
        <ele>1425</ele>
        <time>2022-03-06T14:48:15Z</time>
      </trkpt>
      <trkpt lat="45.97679" lon="6.53822">
        <ele>1424</ele>
        <time>2022-03-06T14:48:16Z</time>
      </trkpt>
      <trkpt lat="45.97684" lon="6.53824">
        <ele>1424</ele>
        <time>2022-03-06T14:48:17Z</time>
      </trkpt>
      <trkpt lat="45.97689" lon="6.53827">
        <ele>1423</ele>
        <time>2022-03-06T14:48:18Z</time>
      </trkpt>
      <trkpt lat="45.97695" lon="6.5383">
        <ele>1422</ele>
        <time>2022-03-06T14:48:19Z</time>
      </trkpt>
      <trkpt lat="45.977" lon="6.53833">
        <ele>1422</ele>
        <time>2022-03-06T14:48:20Z</time>
      </trkpt>
      <trkpt lat="45.97704" lon="6.53837">
        <ele>1421</ele>
        <time>2022-03-06T14:48:21Z</time>
      </trkpt>
      <trkpt lat="45.97709" lon="6.5384">
        <ele>1420</ele>
        <time>2022-03-06T14:48:22Z</time>
      </trkpt>
      <trkpt lat="45.97713" lon="6.53844">
        <ele>1419</ele>
        <time>2022-03-06T14:48:23Z</time>
      </trkpt>
      <trkpt lat="45.97718" lon="6.53847">
        <ele>1418</ele>
        <time>2022-03-06T14:48:24Z</time>
      </trkpt>
      <trkpt lat="45.97722" lon="6.53851">
        <ele>1417</ele>
        <time>2022-03-06T14:48:25Z</time>
      </trkpt>
      <trkpt lat="45.97725" lon="6.53855">
        <ele>1416</ele>
        <time>2022-03-06T14:48:26Z</time>
      </trkpt>
      <trkpt lat="45.97729" lon="6.5386">
        <ele>1415</ele>
        <time>2022-03-06T14:48:27Z</time>
      </trkpt>
      <trkpt lat="45.97733" lon="6.53864">
        <ele>1414</ele>
        <time>2022-03-06T14:48:28Z</time>
      </trkpt>
      <trkpt lat="45.97737" lon="6.53868">
        <ele>1414</ele>
        <time>2022-03-06T14:48:29Z</time>
      </trkpt>
      <trkpt lat="45.97741" lon="6.53872">
        <ele>1413</ele>
        <time>2022-03-06T14:48:30Z</time>
      </trkpt>
      <trkpt lat="45.97745" lon="6.53876">
        <ele>1413</ele>
        <time>2022-03-06T14:48:31Z</time>
      </trkpt>
      <trkpt lat="45.97749" lon="6.5388">
        <ele>1413</ele>
        <time>2022-03-06T14:48:32Z</time>
      </trkpt>
      <trkpt lat="45.97753" lon="6.53884">
        <ele>1413</ele>
        <time>2022-03-06T14:48:33Z</time>
      </trkpt>
      <trkpt lat="45.97757" lon="6.53888">
        <ele>1413</ele>
        <time>2022-03-06T14:48:34Z</time>
      </trkpt>
      <trkpt lat="45.9776" lon="6.53893">
        <ele>1413</ele>
        <time>2022-03-06T14:48:35Z</time>
      </trkpt>
      <trkpt lat="45.97764" lon="6.53897">
        <ele>1414</ele>
        <time>2022-03-06T14:48:36Z</time>
      </trkpt>
      <trkpt lat="45.97768" lon="6.539">
        <ele>1414</ele>
        <time>2022-03-06T14:48:37Z</time>
      </trkpt>
      <trkpt lat="45.97771" lon="6.53903">
        <ele>1415</ele>
        <time>2022-03-06T14:48:38Z</time>
      </trkpt>
      <trkpt lat="45.97774" lon="6.53906">
        <ele>1415</ele>
        <time>2022-03-06T14:48:39Z</time>
      </trkpt>
      <trkpt lat="45.97776" lon="6.53909">
        <ele>1415</ele>
        <time>2022-03-06T14:48:40Z</time>
      </trkpt>
      <trkpt lat="45.97779" lon="6.53912">
        <ele>1416</ele>
        <time>2022-03-06T14:48:41Z</time>
      </trkpt>
      <trkpt lat="45.97781" lon="6.53915">
        <ele>1415</ele>
        <time>2022-03-06T14:48:42Z</time>
      </trkpt>
      <trkpt lat="45.97783" lon="6.53917">
        <ele>1415</ele>
        <time>2022-03-06T14:48:43Z</time>
      </trkpt>
      <trkpt lat="45.97786" lon="6.5392">
        <ele>1414</ele>
        <time>2022-03-06T14:48:44Z</time>
      </trkpt>
      <trkpt lat="45.97789" lon="6.53922">
        <ele>1413</ele>
        <time>2022-03-06T14:48:45Z</time>
      </trkpt>
      <trkpt lat="45.97792" lon="6.53924">
        <ele>1413</ele>
        <time>2022-03-06T14:48:46Z</time>
      </trkpt>
      <trkpt lat="45.97795" lon="6.53927">
        <ele>1412</ele>
        <time>2022-03-06T14:48:47Z</time>
      </trkpt>
      <trkpt lat="45.97798" lon="6.5393">
        <ele>1411</ele>
        <time>2022-03-06T14:48:48Z</time>
      </trkpt>
      <trkpt lat="45.97801" lon="6.53933">
        <ele>1410</ele>
        <time>2022-03-06T14:48:49Z</time>
      </trkpt>
      <trkpt lat="45.97804" lon="6.53936">
        <ele>1409</ele>
        <time>2022-03-06T14:48:50Z</time>
      </trkpt>
      <trkpt lat="45.9781" lon="6.53942">
        <ele>1408</ele>
        <time>2022-03-06T14:48:52Z</time>
      </trkpt>
      <trkpt lat="45.97813" lon="6.53944">
        <ele>1407</ele>
        <time>2022-03-06T14:48:53Z</time>
      </trkpt>
      <trkpt lat="45.97816" lon="6.53946">
        <ele>1406</ele>
        <time>2022-03-06T14:48:54Z</time>
      </trkpt>
      <trkpt lat="45.9782" lon="6.53949">
        <ele>1405</ele>
        <time>2022-03-06T14:48:55Z</time>
      </trkpt>
      <trkpt lat="45.97824" lon="6.53951">
        <ele>1404</ele>
        <time>2022-03-06T14:48:56Z</time>
      </trkpt>
      <trkpt lat="45.97828" lon="6.53954">
        <ele>1404</ele>
        <time>2022-03-06T14:48:57Z</time>
      </trkpt>
      <trkpt lat="45.97832" lon="6.53957">
        <ele>1403</ele>
        <time>2022-03-06T14:48:58Z</time>
      </trkpt>
      <trkpt lat="45.97836" lon="6.53959">
        <ele>1402</ele>
        <time>2022-03-06T14:48:59Z</time>
      </trkpt>
      <trkpt lat="45.97839" lon="6.53962">
        <ele>1402</ele>
        <time>2022-03-06T14:49:00Z</time>
      </trkpt>
      <trkpt lat="45.97846" lon="6.53966">
        <ele>1402</ele>
        <time>2022-03-06T14:49:02Z</time>
      </trkpt>
      <trkpt lat="45.97848" lon="6.53967">
        <ele>1402</ele>
        <time>2022-03-06T14:49:03Z</time>
      </trkpt>
      <trkpt lat="45.97851" lon="6.53969">
        <ele>1402</ele>
        <time>2022-03-06T14:49:04Z</time>
      </trkpt>
      <trkpt lat="45.97854" lon="6.53971">
        <ele>1402</ele>
        <time>2022-03-06T14:49:05Z</time>
      </trkpt>
      <trkpt lat="45.97858" lon="6.53974">
        <ele>1402</ele>
        <time>2022-03-06T14:49:06Z</time>
      </trkpt>
      <trkpt lat="45.97863" lon="6.53976">
        <ele>1401</ele>
        <time>2022-03-06T14:49:07Z</time>
      </trkpt>
      <trkpt lat="45.97867" lon="6.53979">
        <ele>1398</ele>
        <time>2022-03-06T14:49:08Z</time>
      </trkpt>
      <trkpt lat="45.97872" lon="6.53981">
        <ele>1396</ele>
        <time>2022-03-06T14:49:09Z</time>
      </trkpt>
      <trkpt lat="45.97877" lon="6.53982">
        <ele>1394</ele>
        <time>2022-03-06T14:49:10Z</time>
      </trkpt>
      <trkpt lat="45.97882" lon="6.53984">
        <ele>1392</ele>
        <time>2022-03-06T14:49:11Z</time>
      </trkpt>
      <trkpt lat="45.97887" lon="6.53985">
        <ele>1391</ele>
        <time>2022-03-06T14:49:12Z</time>
      </trkpt>
      <trkpt lat="45.97892" lon="6.53987">
        <ele>1390</ele>
        <time>2022-03-06T14:49:13Z</time>
      </trkpt>
      <trkpt lat="45.97897" lon="6.53988">
        <ele>1389</ele>
        <time>2022-03-06T14:49:14Z</time>
      </trkpt>
      <trkpt lat="45.97901" lon="6.5399">
        <ele>1389</ele>
        <time>2022-03-06T14:49:15Z</time>
      </trkpt>
      <trkpt lat="45.97905" lon="6.53991">
        <ele>1388</ele>
        <time>2022-03-06T14:49:16Z</time>
      </trkpt>
      <trkpt lat="45.97909" lon="6.53993">
        <ele>1388</ele>
        <time>2022-03-06T14:49:17Z</time>
      </trkpt>
      <trkpt lat="45.97913" lon="6.53994">
        <ele>1387</ele>
        <time>2022-03-06T14:49:18Z</time>
      </trkpt>
      <trkpt lat="45.97917" lon="6.53996">
        <ele>1387</ele>
        <time>2022-03-06T14:49:19Z</time>
      </trkpt>
      <trkpt lat="45.97921" lon="6.53998">
        <ele>1387</ele>
        <time>2022-03-06T14:49:20Z</time>
      </trkpt>
      <trkpt lat="45.97925" lon="6.53998">
        <ele>1388</ele>
        <time>2022-03-06T14:49:21Z</time>
      </trkpt>
      <trkpt lat="45.97929" lon="6.53999">
        <ele>1388</ele>
        <time>2022-03-06T14:49:22Z</time>
      </trkpt>
      <trkpt lat="45.97933" lon="6.53999">
        <ele>1389</ele>
        <time>2022-03-06T14:49:23Z</time>
      </trkpt>
      <trkpt lat="45.97936" lon="6.53999">
        <ele>1389</ele>
        <time>2022-03-06T14:49:24Z</time>
      </trkpt>
      <trkpt lat="45.9794" lon="6.54">
        <ele>1390</ele>
        <time>2022-03-06T14:49:25Z</time>
      </trkpt>
      <trkpt lat="45.97943" lon="6.54">
        <ele>1390</ele>
        <time>2022-03-06T14:49:26Z</time>
      </trkpt>
      <trkpt lat="45.97948" lon="6.54001">
        <ele>1391</ele>
        <time>2022-03-06T14:49:27Z</time>
      </trkpt>
      <trkpt lat="45.97952" lon="6.54002">
        <ele>1391</ele>
        <time>2022-03-06T14:49:28Z</time>
      </trkpt>
      <trkpt lat="45.97956" lon="6.54004">
        <ele>1392</ele>
        <time>2022-03-06T14:49:29Z</time>
      </trkpt>
      <trkpt lat="45.9796" lon="6.54005">
        <ele>1392</ele>
        <time>2022-03-06T14:49:30Z</time>
      </trkpt>
      <trkpt lat="45.97964" lon="6.54007">
        <ele>1392</ele>
        <time>2022-03-06T14:49:31Z</time>
      </trkpt>
      <trkpt lat="45.97968" lon="6.54009">
        <ele>1392</ele>
        <time>2022-03-06T14:49:32Z</time>
      </trkpt>
      <trkpt lat="45.97971" lon="6.54011">
        <ele>1391</ele>
        <time>2022-03-06T14:49:33Z</time>
      </trkpt>
      <trkpt lat="45.97975" lon="6.54013">
        <ele>1391</ele>
        <time>2022-03-06T14:49:34Z</time>
      </trkpt>
      <trkpt lat="45.97979" lon="6.54015">
        <ele>1390</ele>
        <time>2022-03-06T14:49:35Z</time>
      </trkpt>
      <trkpt lat="45.97983" lon="6.54016">
        <ele>1390</ele>
        <time>2022-03-06T14:49:36Z</time>
      </trkpt>
      <trkpt lat="45.97986" lon="6.54017">
        <ele>1390</ele>
        <time>2022-03-06T14:49:37Z</time>
      </trkpt>
      <trkpt lat="45.97988" lon="6.54018">
        <ele>1389</ele>
        <time>2022-03-06T14:49:38Z</time>
      </trkpt>
      <trkpt lat="45.9799" lon="6.5402">
        <ele>1389</ele>
        <time>2022-03-06T14:49:39Z</time>
      </trkpt>
      <trkpt lat="45.97991" lon="6.54022">
        <ele>1388</ele>
        <time>2022-03-06T14:49:40Z</time>
      </trkpt>
      <trkpt lat="45.97991" lon="6.54025">
        <ele>1387</ele>
        <time>2022-03-06T14:49:41Z</time>
      </trkpt>
      <trkpt lat="45.97991" lon="6.54028">
        <ele>1386</ele>
        <time>2022-03-06T14:49:43Z</time>
      </trkpt>
      <trkpt lat="45.97991" lon="6.54043">
        <ele>1381</ele>
        <time>2022-03-06T14:49:50Z</time>
      </trkpt>
      <trkpt lat="45.97987" lon="6.54054">
        <ele>1377</ele>
        <time>2022-03-06T14:50:02Z</time>
      </trkpt>
      <trkpt lat="45.97988" lon="6.54067">
        <ele>1373</ele>
        <time>2022-03-06T14:50:32Z</time>
      </trkpt>
      <trkpt lat="45.97991" lon="6.5408">
        <ele>1370</ele>
        <time>2022-03-06T14:50:36Z</time>
      </trkpt>
      <trkpt lat="45.98001" lon="6.54085">
        <ele>1370</ele>
        <time>2022-03-06T14:50:41Z</time>
      </trkpt>
      <trkpt lat="45.98008" lon="6.54096">
        <ele>1367</ele>
        <time>2022-03-06T14:50:45Z</time>
      </trkpt>
      <trkpt lat="45.98016" lon="6.54102">
        <ele>1365</ele>
        <time>2022-03-06T14:50:50Z</time>
      </trkpt>
      <trkpt lat="45.98027" lon="6.541">
        <ele>1366</ele>
        <time>2022-03-06T14:50:54Z</time>
      </trkpt>
      <trkpt lat="45.98041" lon="6.54097">
        <ele>1368</ele>
        <time>2022-03-06T14:50:57Z</time>
      </trkpt>
      <trkpt lat="45.98053" lon="6.54107">
        <ele>1364</ele>
        <time>2022-03-06T14:50:59Z</time>
      </trkpt>
      <trkpt lat="45.9806" lon="6.54125">
        <ele>1358</ele>
        <time>2022-03-06T14:51:01Z</time>
      </trkpt>
      <trkpt lat="45.98068" lon="6.54139">
        <ele>1353</ele>
        <time>2022-03-06T14:51:03Z</time>
      </trkpt>
      <trkpt lat="45.98076" lon="6.5415">
        <ele>1351</ele>
        <time>2022-03-06T14:51:05Z</time>
      </trkpt>
      <trkpt lat="45.98083" lon="6.54159">
        <ele>1348</ele>
        <time>2022-03-06T14:51:07Z</time>
      </trkpt>
      <trkpt lat="45.98092" lon="6.54167">
        <ele>1346</ele>
        <time>2022-03-06T14:51:10Z</time>
      </trkpt>
      <trkpt lat="45.98102" lon="6.54176">
        <ele>1344</ele>
        <time>2022-03-06T14:51:13Z</time>
      </trkpt>
      <trkpt lat="45.98111" lon="6.54182">
        <ele>1344</ele>
        <time>2022-03-06T14:51:15Z</time>
      </trkpt>
      <trkpt lat="45.98123" lon="6.54186">
        <ele>1344</ele>
        <time>2022-03-06T14:51:17Z</time>
      </trkpt>
      <trkpt lat="45.98131" lon="6.54192">
        <ele>1344</ele>
        <time>2022-03-06T14:51:19Z</time>
      </trkpt>
      <trkpt lat="45.9814" lon="6.54202">
        <ele>1343</ele>
        <time>2022-03-06T14:51:22Z</time>
      </trkpt>
      <trkpt lat="45.98147" lon="6.54209">
        <ele>1343</ele>
        <time>2022-03-06T14:51:25Z</time>
      </trkpt>
      <trkpt lat="45.98157" lon="6.54215">
        <ele>1342</ele>
        <time>2022-03-06T14:51:27Z</time>
      </trkpt>
      <trkpt lat="45.98167" lon="6.54221">
        <ele>1341</ele>
        <time>2022-03-06T14:51:29Z</time>
      </trkpt>
      <trkpt lat="45.98177" lon="6.54225">
        <ele>1339</ele>
        <time>2022-03-06T14:51:31Z</time>
      </trkpt>
      <trkpt lat="45.98187" lon="6.54229">
        <ele>1338</ele>
        <time>2022-03-06T14:51:33Z</time>
      </trkpt>
      <trkpt lat="45.98198" lon="6.54234">
        <ele>1337</ele>
        <time>2022-03-06T14:51:35Z</time>
      </trkpt>
      <trkpt lat="45.98208" lon="6.54236">
        <ele>1336</ele>
        <time>2022-03-06T14:51:37Z</time>
      </trkpt>
      <trkpt lat="45.98219" lon="6.54238">
        <ele>1335</ele>
        <time>2022-03-06T14:51:39Z</time>
      </trkpt>
      <trkpt lat="45.98229" lon="6.54243">
        <ele>1336</ele>
        <time>2022-03-06T14:51:41Z</time>
      </trkpt>
      <trkpt lat="45.98238" lon="6.54247">
        <ele>1336</ele>
        <time>2022-03-06T14:51:43Z</time>
      </trkpt>
      <trkpt lat="45.98248" lon="6.54253">
        <ele>1337</ele>
        <time>2022-03-06T14:51:46Z</time>
      </trkpt>
      <trkpt lat="45.98258" lon="6.54259">
        <ele>1336</ele>
        <time>2022-03-06T14:51:49Z</time>
      </trkpt>
      <trkpt lat="45.98271" lon="6.54264">
        <ele>1335</ele>
        <time>2022-03-06T14:51:52Z</time>
      </trkpt>
      <trkpt lat="45.9828" lon="6.54267">
        <ele>1334</ele>
        <time>2022-03-06T14:51:54Z</time>
      </trkpt>
      <trkpt lat="45.98291" lon="6.54271">
        <ele>1332</ele>
        <time>2022-03-06T14:51:56Z</time>
      </trkpt>
      <trkpt lat="45.983" lon="6.54274">
        <ele>1331</ele>
        <time>2022-03-06T14:51:58Z</time>
      </trkpt>
      <trkpt lat="45.98309" lon="6.54276">
        <ele>1330</ele>
        <time>2022-03-06T14:52:00Z</time>
      </trkpt>
      <trkpt lat="45.98322" lon="6.54278">
        <ele>1330</ele>
        <time>2022-03-06T14:52:03Z</time>
      </trkpt>
      <trkpt lat="45.98336" lon="6.54281">
        <ele>1329</ele>
        <time>2022-03-06T14:52:06Z</time>
      </trkpt>
      <trkpt lat="45.98346" lon="6.54282">
        <ele>1327</ele>
        <time>2022-03-06T14:52:08Z</time>
      </trkpt>
      <trkpt lat="45.98358" lon="6.54282">
        <ele>1326</ele>
        <time>2022-03-06T14:52:10Z</time>
      </trkpt>
      <trkpt lat="45.98369" lon="6.54281">
        <ele>1325</ele>
        <time>2022-03-06T14:52:12Z</time>
      </trkpt>
      <trkpt lat="45.98379" lon="6.54281">
        <ele>1323</ele>
        <time>2022-03-06T14:52:14Z</time>
      </trkpt>
      <trkpt lat="45.9839" lon="6.54279">
        <ele>1322</ele>
        <time>2022-03-06T14:52:16Z</time>
      </trkpt>
      <trkpt lat="45.98399" lon="6.54281">
        <ele>1321</ele>
        <time>2022-03-06T14:52:18Z</time>
      </trkpt>
      <trkpt lat="45.9841" lon="6.54283">
        <ele>1320</ele>
        <time>2022-03-06T14:52:29Z</time>
      </trkpt>
      <trkpt lat="45.9842" lon="6.54285">
        <ele>1319</ele>
        <time>2022-03-06T14:52:34Z</time>
      </trkpt>
      <trkpt lat="45.98428" lon="6.54291">
        <ele>1318</ele>
        <time>2022-03-06T14:52:37Z</time>
      </trkpt>
      <trkpt lat="45.9844" lon="6.54297">
        <ele>1316</ele>
        <time>2022-03-06T14:52:39Z</time>
      </trkpt>
      <trkpt lat="45.98454" lon="6.54306">
        <ele>1314</ele>
        <time>2022-03-06T14:52:41Z</time>
      </trkpt>
      <trkpt lat="45.98468" lon="6.54316">
        <ele>1314</ele>
        <time>2022-03-06T14:52:43Z</time>
      </trkpt>
      <trkpt lat="45.98476" lon="6.54325">
        <ele>1314</ele>
        <time>2022-03-06T14:52:45Z</time>
      </trkpt>
      <trkpt lat="45.98486" lon="6.5432">
        <ele>1317</ele>
        <time>2022-03-06T14:52:55Z</time>
      </trkpt>
      <trkpt lat="45.98478" lon="6.54326">
        <ele>1314</ele>
        <time>2022-03-06T14:53:07Z</time>
      </trkpt>
      <trkpt lat="45.98484" lon="6.54337">
        <ele>1313</ele>
        <time>2022-03-06T14:53:21Z</time>
      </trkpt>
      <trkpt lat="45.98489" lon="6.54348">
        <ele>1313</ele>
        <time>2022-03-06T14:53:29Z</time>
      </trkpt>
      <trkpt lat="45.98494" lon="6.54359">
        <ele>1313</ele>
        <time>2022-03-06T14:53:38Z</time>
      </trkpt>
      <trkpt lat="45.98503" lon="6.54361">
        <ele>1314</ele>
        <time>2022-03-06T14:53:47Z</time>
      </trkpt>
      <trkpt lat="45.98512" lon="6.54362">
        <ele>1316</ele>
        <time>2022-03-06T14:53:55Z</time>
      </trkpt>
      <trkpt lat="45.98521" lon="6.54365">
        <ele>1317</ele>
        <time>2022-03-06T14:54:03Z</time>
      </trkpt>
      <trkpt lat="45.9853" lon="6.54367">
        <ele>1318</ele>
        <time>2022-03-06T14:54:15Z</time>
      </trkpt>
      <trkpt lat="45.9854" lon="6.54366">
        <ele>1318</ele>
        <time>2022-03-06T14:54:22Z</time>
      </trkpt>
      <trkpt lat="45.98549" lon="6.54372">
        <ele>1318</ele>
        <time>2022-03-06T14:54:31Z</time>
      </trkpt>
      <trkpt lat="45.98559" lon="6.54373">
        <ele>1318</ele>
        <time>2022-03-06T14:54:39Z</time>
      </trkpt>
      <trkpt lat="45.98568" lon="6.54376">
        <ele>1317</ele>
        <time>2022-03-06T14:54:48Z</time>
      </trkpt>
      <trkpt lat="45.98577" lon="6.54381">
        <ele>1315</ele>
        <time>2022-03-06T14:54:59Z</time>
      </trkpt>
      <trkpt lat="45.98586" lon="6.54388">
        <ele>1314</ele>
        <time>2022-03-06T14:55:05Z</time>
      </trkpt>
      <trkpt lat="45.98594" lon="6.54396">
        <ele>1313</ele>
        <time>2022-03-06T14:55:11Z</time>
      </trkpt>
      <trkpt lat="45.98603" lon="6.54391">
        <ele>1314</ele>
        <time>2022-03-06T14:55:21Z</time>
      </trkpt>
      <trkpt lat="45.98605" lon="6.54378">
        <ele>1317</ele>
        <time>2022-03-06T14:55:36Z</time>
      </trkpt>
      <trkpt lat="45.98613" lon="6.54387">
        <ele>1315</ele>
        <time>2022-03-06T14:56:05Z</time>
      </trkpt>
      <trkpt lat="45.98623" lon="6.54387">
        <ele>1316</ele>
        <time>2022-03-06T14:56:16Z</time>
      </trkpt>
      <trkpt lat="45.98632" lon="6.54381">
        <ele>1318</ele>
        <time>2022-03-06T14:56:19Z</time>
      </trkpt>
      <trkpt lat="45.98644" lon="6.54381">
        <ele>1318</ele>
        <time>2022-03-06T14:56:22Z</time>
      </trkpt>
      <trkpt lat="45.98656" lon="6.54377">
        <ele>1319</ele>
        <time>2022-03-06T14:56:25Z</time>
      </trkpt>
      <trkpt lat="45.98666" lon="6.5438">
        <ele>1317</ele>
        <time>2022-03-06T14:56:28Z</time>
      </trkpt>
      <trkpt lat="45.98676" lon="6.54388">
        <ele>1314</ele>
        <time>2022-03-06T14:56:31Z</time>
      </trkpt>
      <trkpt lat="45.98686" lon="6.54391">
        <ele>1312</ele>
        <time>2022-03-06T14:56:35Z</time>
      </trkpt>
      <trkpt lat="45.98696" lon="6.54392">
        <ele>1312</ele>
        <time>2022-03-06T14:56:39Z</time>
      </trkpt>
      <trkpt lat="45.98707" lon="6.54394">
        <ele>1311</ele>
        <time>2022-03-06T14:56:43Z</time>
      </trkpt>
      <trkpt lat="45.98715" lon="6.54399">
        <ele>1310</ele>
        <time>2022-03-06T14:56:47Z</time>
      </trkpt>
      <trkpt lat="45.98725" lon="6.54399">
        <ele>1310</ele>
        <time>2022-03-06T14:56:50Z</time>
      </trkpt>
      <trkpt lat="45.98737" lon="6.54399">
        <ele>1309</ele>
        <time>2022-03-06T14:56:53Z</time>
      </trkpt>
      <trkpt lat="45.98747" lon="6.54401">
        <ele>1308</ele>
        <time>2022-03-06T14:56:57Z</time>
      </trkpt>
      <trkpt lat="45.98758" lon="6.54404">
        <ele>1307</ele>
        <time>2022-03-06T14:57:00Z</time>
      </trkpt>
      <trkpt lat="45.98765" lon="6.54412">
        <ele>1304</ele>
        <time>2022-03-06T14:57:03Z</time>
      </trkpt>
      <trkpt lat="45.98774" lon="6.54416">
        <ele>1302</ele>
        <time>2022-03-06T14:57:06Z</time>
      </trkpt>
      <trkpt lat="45.98784" lon="6.54422">
        <ele>1301</ele>
        <time>2022-03-06T14:57:10Z</time>
      </trkpt>
      <trkpt lat="45.98792" lon="6.54429">
        <ele>1299</ele>
        <time>2022-03-06T14:57:16Z</time>
      </trkpt>
      <trkpt lat="45.98801" lon="6.54431">
        <ele>1298</ele>
        <time>2022-03-06T14:57:20Z</time>
      </trkpt>
      <trkpt lat="45.98811" lon="6.54427">
        <ele>1299</ele>
        <time>2022-03-06T14:57:24Z</time>
      </trkpt>
      <trkpt lat="45.98823" lon="6.54429">
        <ele>1299</ele>
        <time>2022-03-06T14:57:29Z</time>
      </trkpt>
      <trkpt lat="45.98835" lon="6.54429">
        <ele>1299</ele>
        <time>2022-03-06T14:57:33Z</time>
      </trkpt>
      <trkpt lat="45.98846" lon="6.54431">
        <ele>1298</ele>
        <time>2022-03-06T14:57:37Z</time>
      </trkpt>
      <trkpt lat="45.98855" lon="6.54437">
        <ele>1296</ele>
        <time>2022-03-06T14:57:40Z</time>
      </trkpt>
      <trkpt lat="45.98867" lon="6.54441">
        <ele>1294</ele>
        <time>2022-03-06T14:57:46Z</time>
      </trkpt>
      <trkpt lat="45.98876" lon="6.54435">
        <ele>1293</ele>
        <time>2022-03-06T14:57:48Z</time>
      </trkpt>
      <trkpt lat="45.98886" lon="6.54434">
        <ele>1291</ele>
        <time>2022-03-06T14:57:51Z</time>
      </trkpt>
      <trkpt lat="45.98897" lon="6.54431">
        <ele>1290</ele>
        <time>2022-03-06T14:57:54Z</time>
      </trkpt>
      <trkpt lat="45.98906" lon="6.54427">
        <ele>1289</ele>
        <time>2022-03-06T14:58:00Z</time>
      </trkpt>
      <trkpt lat="45.98917" lon="6.54429">
        <ele>1287</ele>
        <time>2022-03-06T14:58:06Z</time>
      </trkpt>
      <trkpt lat="45.98927" lon="6.54428">
        <ele>1287</ele>
        <time>2022-03-06T14:58:09Z</time>
      </trkpt>
      <trkpt lat="45.98939" lon="6.54424">
        <ele>1287</ele>
        <time>2022-03-06T14:58:13Z</time>
      </trkpt>
      <trkpt lat="45.98948" lon="6.54415">
        <ele>1287</ele>
        <time>2022-03-06T14:58:16Z</time>
      </trkpt>
      <trkpt lat="45.98957" lon="6.5442">
        <ele>1284</ele>
        <time>2022-03-06T14:58:21Z</time>
      </trkpt>
      <trkpt lat="45.98966" lon="6.54419">
        <ele>1281</ele>
        <time>2022-03-06T14:58:28Z</time>
      </trkpt>
      <trkpt lat="45.98975" lon="6.54415">
        <ele>1279</ele>
        <time>2022-03-06T14:58:32Z</time>
      </trkpt>
      <trkpt lat="45.98982" lon="6.54405">
        <ele>1279</ele>
        <time>2022-03-06T14:58:36Z</time>
      </trkpt>
      <trkpt lat="45.9899" lon="6.54397">
        <ele>1277</ele>
        <time>2022-03-06T14:58:40Z</time>
      </trkpt>
      <trkpt lat="45.99" lon="6.54394">
        <ele>1273</ele>
        <time>2022-03-06T14:58:44Z</time>
      </trkpt>
      <trkpt lat="45.9901" lon="6.54392">
        <ele>1271</ele>
        <time>2022-03-06T14:58:49Z</time>
      </trkpt>
      <trkpt lat="45.9902" lon="6.54389">
        <ele>1268</ele>
        <time>2022-03-06T14:58:54Z</time>
      </trkpt>
      <trkpt lat="45.99032" lon="6.54389">
        <ele>1264</ele>
        <time>2022-03-06T14:58:57Z</time>
      </trkpt>
      <trkpt lat="45.99042" lon="6.54385">
        <ele>1260</ele>
        <time>2022-03-06T14:59:01Z</time>
      </trkpt>
      <trkpt lat="45.99051" lon="6.54379">
        <ele>1256</ele>
        <time>2022-03-06T14:59:06Z</time>
      </trkpt>
      <trkpt lat="45.99062" lon="6.54375">
        <ele>1251</ele>
        <time>2022-03-06T14:59:10Z</time>
      </trkpt>
      <trkpt lat="45.99071" lon="6.54363">
        <ele>1247</ele>
        <time>2022-03-06T14:59:14Z</time>
      </trkpt>
      <trkpt lat="45.99081" lon="6.54353">
        <ele>1243</ele>
        <time>2022-03-06T14:59:18Z</time>
      </trkpt>
      <trkpt lat="45.99089" lon="6.54341">
        <ele>1239</ele>
        <time>2022-03-06T14:59:22Z</time>
      </trkpt>
      <trkpt lat="45.99094" lon="6.5433">
        <ele>1237</ele>
        <time>2022-03-06T14:59:27Z</time>
      </trkpt>
      <trkpt lat="45.99101" lon="6.54318">
        <ele>1235</ele>
        <time>2022-03-06T14:59:31Z</time>
      </trkpt>
      <trkpt lat="45.99106" lon="6.54308">
        <ele>1232</ele>
        <time>2022-03-06T14:59:35Z</time>
      </trkpt>
      <trkpt lat="45.99107" lon="6.54294">
        <ele>1237</ele>
        <time>2022-03-06T14:59:40Z</time>
      </trkpt>
      <trkpt lat="45.99115" lon="6.54287">
        <ele>1232</ele>
        <time>2022-03-06T14:59:44Z</time>
      </trkpt>
      <trkpt lat="45.99119" lon="6.54274">
        <ele>1232</ele>
        <time>2022-03-06T14:59:54Z</time>
      </trkpt>
      <trkpt lat="45.99126" lon="6.54264">
        <ele>1228</ele>
        <time>2022-03-06T14:59:59Z</time>
      </trkpt>
      <trkpt lat="45.99132" lon="6.54251">
        <ele>1224</ele>
        <time>2022-03-06T15:00:03Z</time>
      </trkpt>
      <trkpt lat="45.99136" lon="6.54237">
        <ele>1222</ele>
        <time>2022-03-06T15:00:14Z</time>
      </trkpt>
      <trkpt lat="45.99142" lon="6.54225">
        <ele>1220</ele>
        <time>2022-03-06T15:00:18Z</time>
      </trkpt>
      <trkpt lat="45.99147" lon="6.54214">
        <ele>1218</ele>
        <time>2022-03-06T15:00:21Z</time>
      </trkpt>
      <trkpt lat="45.99154" lon="6.54204">
        <ele>1213</ele>
        <time>2022-03-06T15:00:27Z</time>
      </trkpt>
      <trkpt lat="45.99155" lon="6.54189">
        <ele>1214</ele>
        <time>2022-03-06T15:00:31Z</time>
      </trkpt>
      <trkpt lat="45.99157" lon="6.54176">
        <ele>1213</ele>
        <time>2022-03-06T15:00:33Z</time>
      </trkpt>
      <trkpt lat="45.99161" lon="6.54162">
        <ele>1212</ele>
        <time>2022-03-06T15:00:35Z</time>
      </trkpt>
      <trkpt lat="45.99169" lon="6.5415">
        <ele>1207</ele>
        <time>2022-03-06T15:00:38Z</time>
      </trkpt>
      <trkpt lat="45.99178" lon="6.54145">
        <ele>1204</ele>
        <time>2022-03-06T15:00:44Z</time>
      </trkpt>
      <trkpt lat="45.99183" lon="6.54134">
        <ele>1204</ele>
        <time>2022-03-06T15:00:48Z</time>
      </trkpt>
      <trkpt lat="45.9919" lon="6.54124">
        <ele>1203</ele>
        <time>2022-03-06T15:00:52Z</time>
      </trkpt>
      <trkpt lat="45.99193" lon="6.54137">
        <ele>1199</ele>
        <time>2022-03-06T15:01:01Z</time>
      </trkpt>
      <trkpt lat="45.99203" lon="6.54131">
        <ele>1195</ele>
        <time>2022-03-06T15:01:17Z</time>
      </trkpt>
      <trkpt lat="45.99209" lon="6.54121">
        <ele>1194</ele>
        <time>2022-03-06T15:01:31Z</time>
      </trkpt>
      <trkpt lat="45.9922" lon="6.54118">
        <ele>1189</ele>
        <time>2022-03-06T15:01:37Z</time>
      </trkpt>
      <trkpt lat="45.99229" lon="6.54109">
        <ele>1185</ele>
        <time>2022-03-06T15:01:41Z</time>
      </trkpt>
      <trkpt lat="45.99237" lon="6.54102">
        <ele>1181</ele>
        <time>2022-03-06T15:01:46Z</time>
      </trkpt>
      <trkpt lat="45.99245" lon="6.54094">
        <ele>1177</ele>
        <time>2022-03-06T15:01:55Z</time>
      </trkpt>
      <trkpt lat="45.99247" lon="6.5408">
        <ele>1177</ele>
        <time>2022-03-06T15:02:03Z</time>
      </trkpt>
      <trkpt lat="45.99255" lon="6.54073">
        <ele>1174</ele>
        <time>2022-03-06T15:02:16Z</time>
      </trkpt>
      <trkpt lat="45.99263" lon="6.54067">
        <ele>1172</ele>
        <time>2022-03-06T15:02:23Z</time>
      </trkpt>
      <trkpt lat="45.99269" lon="6.54057">
        <ele>1172</ele>
        <time>2022-03-06T15:02:28Z</time>
      </trkpt>
      <trkpt lat="45.99276" lon="6.54046">
        <ele>1172</ele>
        <time>2022-03-06T15:02:36Z</time>
      </trkpt>
      <trkpt lat="45.99285" lon="6.54047">
        <ele>1169</ele>
        <time>2022-03-06T15:03:04Z</time>
      </trkpt>
      <trkpt lat="45.99293" lon="6.5404">
        <ele>1168</ele>
        <time>2022-03-06T15:03:08Z</time>
      </trkpt>
      <trkpt lat="45.99299" lon="6.54028">
        <ele>1169</ele>
        <time>2022-03-06T15:03:12Z</time>
      </trkpt>
      <trkpt lat="45.99306" lon="6.54018">
        <ele>1167</ele>
        <time>2022-03-06T15:03:22Z</time>
      </trkpt>
      <trkpt lat="45.99312" lon="6.54007">
        <ele>1165</ele>
        <time>2022-03-06T15:03:29Z</time>
      </trkpt>
      <trkpt lat="45.99322" lon="6.54">
        <ele>1162</ele>
        <time>2022-03-06T15:03:35Z</time>
      </trkpt>
      <trkpt lat="45.99331" lon="6.53993">
        <ele>1159</ele>
        <time>2022-03-06T15:03:42Z</time>
      </trkpt>
      <trkpt lat="45.99338" lon="6.53984">
        <ele>1156</ele>
        <time>2022-03-06T15:03:49Z</time>
      </trkpt>
      <trkpt lat="45.99329" lon="6.53983">
        <ele>1160</ele>
        <time>2022-03-06T15:03:53Z</time>
      </trkpt>
      <trkpt lat="45.99336" lon="6.53974">
        <ele>1157</ele>
        <time>2022-03-06T15:04:07Z</time>
      </trkpt>
      <trkpt lat="45.99346" lon="6.53974">
        <ele>1154</ele>
        <time>2022-03-06T15:04:19Z</time>
      </trkpt>
      <trkpt lat="45.99356" lon="6.53973">
        <ele>1151</ele>
        <time>2022-03-06T15:04:57Z</time>
      </trkpt>
      <trkpt lat="45.99362" lon="6.53983">
        <ele>1147</ele>
        <time>2022-03-06T15:05:03Z</time>
      </trkpt>
      <trkpt lat="45.99365" lon="6.53997">
        <ele>1143</ele>
        <time>2022-03-06T15:05:12Z</time>
      </trkpt>
      <trkpt lat="45.99368" lon="6.54">
        <ele>1140</ele>
        <time>2022-03-06T15:05:17Z</time>
      </trkpt>
      <trkpt lat="45.99371" lon="6.54001">
        <ele>1139</ele>
        <time>2022-03-06T15:05:20Z</time>
      </trkpt>
      <trkpt lat="45.9938" lon="6.54004">
        <ele>1134</ele>
        <time>2022-03-06T15:05:28Z</time>
      </trkpt>
      <trkpt lat="45.99389" lon="6.5401">
        <ele>1129</ele>
        <time>2022-03-06T15:05:36Z</time>
      </trkpt>
      <trkpt lat="45.99397" lon="6.54015">
        <ele>1127</ele>
        <time>2022-03-06T15:05:44Z</time>
      </trkpt>
      <trkpt lat="45.99406" lon="6.54013">
        <ele>1126</ele>
        <time>2022-03-06T15:05:48Z</time>
      </trkpt>
      <trkpt lat="45.99411" lon="6.54012">
        <ele>1125</ele>
        <time>2022-03-06T15:05:53Z</time>
      </trkpt>
      <trkpt lat="45.99413" lon="6.54014">
        <ele>1124</ele>
        <time>2022-03-06T15:05:55Z</time>
      </trkpt>
      <trkpt lat="45.99415" lon="6.54015">
        <ele>1123</ele>
        <time>2022-03-06T15:05:57Z</time>
      </trkpt>
      <trkpt lat="45.99422" lon="6.54025">
        <ele>1121</ele>
        <time>2022-03-06T15:06:09Z</time>
      </trkpt>
      <trkpt lat="45.99425" lon="6.54039">
        <ele>1120</ele>
        <time>2022-03-06T15:06:17Z</time>
      </trkpt>
      <trkpt lat="45.99434" lon="6.5404">
        <ele>1120</ele>
        <time>2022-03-06T15:06:28Z</time>
      </trkpt>
      <trkpt lat="45.99434" lon="6.54054">
        <ele>1119</ele>
        <time>2022-03-06T15:06:49Z</time>
      </trkpt>
      <trkpt lat="45.99437" lon="6.54066">
        <ele>1119</ele>
        <time>2022-03-06T15:07:01Z</time>
      </trkpt>
      <trkpt lat="45.99445" lon="6.54059">
        <ele>1117</ele>
        <time>2022-03-06T15:07:21Z</time>
      </trkpt>
      <trkpt lat="45.99455" lon="6.54052">
        <ele>1116</ele>
        <time>2022-03-06T15:07:35Z</time>
      </trkpt>
      <trkpt lat="45.99461" lon="6.54063">
        <ele>1115</ele>
        <time>2022-03-06T15:07:54Z</time>
      </trkpt>
      <trkpt lat="45.99469" lon="6.54068">
        <ele>1114</ele>
        <time>2022-03-06T15:07:58Z</time>
      </trkpt>
      <trkpt lat="45.99478" lon="6.5408">
        <ele>1113</ele>
        <time>2022-03-06T15:08:02Z</time>
      </trkpt>
      <trkpt lat="45.99487" lon="6.54081">
        <ele>1112</ele>
        <time>2022-03-06T15:08:05Z</time>
      </trkpt>
      <trkpt lat="45.99496" lon="6.54079">
        <ele>1112</ele>
        <time>2022-03-06T15:08:07Z</time>
      </trkpt>
      <trkpt lat="45.99507" lon="6.5408">
        <ele>1111</ele>
        <time>2022-03-06T15:08:10Z</time>
      </trkpt>
      <trkpt lat="45.99518" lon="6.54078">
        <ele>1110</ele>
        <time>2022-03-06T15:08:13Z</time>
      </trkpt>
      <trkpt lat="45.99531" lon="6.54067">
        <ele>1109</ele>
        <time>2022-03-06T15:08:16Z</time>
      </trkpt>
      <trkpt lat="45.99539" lon="6.54062">
        <ele>1109</ele>
        <time>2022-03-06T15:08:18Z</time>
      </trkpt>
      <trkpt lat="45.99549" lon="6.54066">
        <ele>1109</ele>
        <time>2022-03-06T15:08:21Z</time>
      </trkpt>
      <trkpt lat="45.9956" lon="6.54067">
        <ele>1108</ele>
        <time>2022-03-06T15:08:28Z</time>
      </trkpt>
      <trkpt lat="45.9957" lon="6.54068">
        <ele>1107</ele>
        <time>2022-03-06T15:08:33Z</time>
      </trkpt>
      <trkpt lat="45.9958" lon="6.54066">
        <ele>1106</ele>
        <time>2022-03-06T15:08:37Z</time>
      </trkpt>
      <trkpt lat="45.9959" lon="6.54069">
        <ele>1105</ele>
        <time>2022-03-06T15:08:43Z</time>
      </trkpt>
      <trkpt lat="45.996" lon="6.54071">
        <ele>1103</ele>
        <time>2022-03-06T15:08:47Z</time>
      </trkpt>
      <trkpt lat="45.9961" lon="6.54076">
        <ele>1102</ele>
        <time>2022-03-06T15:08:53Z</time>
      </trkpt>
      <trkpt lat="45.99618" lon="6.54084">
        <ele>1102</ele>
        <time>2022-03-06T15:08:57Z</time>
      </trkpt>
      <trkpt lat="45.99625" lon="6.54095">
        <ele>1103</ele>
        <time>2022-03-06T15:09:03Z</time>
      </trkpt>
      <trkpt lat="45.99633" lon="6.54102">
        <ele>1104</ele>
        <time>2022-03-06T15:09:08Z</time>
      </trkpt>
      <trkpt lat="45.99644" lon="6.54112">
        <ele>1103</ele>
        <time>2022-03-06T15:09:12Z</time>
      </trkpt>
      <trkpt lat="45.99653" lon="6.54116">
        <ele>1100</ele>
        <time>2022-03-06T15:09:15Z</time>
      </trkpt>
      <trkpt lat="45.99661" lon="6.54124">
        <ele>1099</ele>
        <time>2022-03-06T15:09:18Z</time>
      </trkpt>
      <trkpt lat="45.99668" lon="6.54132">
        <ele>1098</ele>
        <time>2022-03-06T15:09:21Z</time>
      </trkpt>
      <trkpt lat="45.99679" lon="6.54138">
        <ele>1097</ele>
        <time>2022-03-06T15:09:24Z</time>
      </trkpt>
      <trkpt lat="45.99687" lon="6.54145">
        <ele>1098</ele>
        <time>2022-03-06T15:09:27Z</time>
      </trkpt>
      <trkpt lat="45.99698" lon="6.5414">
        <ele>1094</ele>
        <time>2022-03-06T15:09:31Z</time>
      </trkpt>
      <trkpt lat="45.99711" lon="6.54139">
        <ele>1093</ele>
        <time>2022-03-06T15:09:34Z</time>
      </trkpt>
      <trkpt lat="45.99721" lon="6.54134">
        <ele>1091</ele>
        <time>2022-03-06T15:09:38Z</time>
      </trkpt>
      <trkpt lat="45.99732" lon="6.54126">
        <ele>1089</ele>
        <time>2022-03-06T15:09:42Z</time>
      </trkpt>
      <trkpt lat="45.99741" lon="6.54121">
        <ele>1088</ele>
        <time>2022-03-06T15:09:46Z</time>
      </trkpt>
      <trkpt lat="45.99752" lon="6.54119">
        <ele>1086</ele>
        <time>2022-03-06T15:09:56Z</time>
      </trkpt>
      <trkpt lat="45.99761" lon="6.54116">
        <ele>1084</ele>
        <time>2022-03-06T15:10:09Z</time>
      </trkpt>
      <trkpt lat="45.99771" lon="6.54119">
        <ele>1082</ele>
        <time>2022-03-06T15:10:14Z</time>
      </trkpt>
      <trkpt lat="45.99781" lon="6.54116">
        <ele>1080</ele>
        <time>2022-03-06T15:10:17Z</time>
      </trkpt>
      <trkpt lat="45.9979" lon="6.54117">
        <ele>1080</ele>
        <time>2022-03-06T15:10:28Z</time>
      </trkpt>
      <trkpt lat="45.99799" lon="6.54122">
        <ele>1082</ele>
        <time>2022-03-06T15:10:34Z</time>
      </trkpt>
      <trkpt lat="45.99809" lon="6.54119">
        <ele>1080</ele>
        <time>2022-03-06T15:10:38Z</time>
      </trkpt>
      <trkpt lat="45.99818" lon="6.54116">
        <ele>1078</ele>
        <time>2022-03-06T15:10:42Z</time>
      </trkpt>
      <trkpt lat="45.99827" lon="6.54118">
        <ele>1077</ele>
        <time>2022-03-06T15:10:48Z</time>
      </trkpt>
      <trkpt lat="45.99831" lon="6.5413">
        <ele>1079</ele>
        <time>2022-03-06T15:10:58Z</time>
      </trkpt>
      <trkpt lat="45.9984" lon="6.54128">
        <ele>1077</ele>
        <time>2022-03-06T15:11:11Z</time>
      </trkpt>
      <trkpt lat="45.9985" lon="6.54132">
        <ele>1076</ele>
        <time>2022-03-06T15:11:30Z</time>
      </trkpt>
      <trkpt lat="45.99862" lon="6.5413">
        <ele>1073</ele>
        <time>2022-03-06T15:11:41Z</time>
      </trkpt>
      <trkpt lat="45.99871" lon="6.54128">
        <ele>1071</ele>
        <time>2022-03-06T15:11:47Z</time>
      </trkpt>
      <trkpt lat="45.99881" lon="6.54135">
        <ele>1070</ele>
        <time>2022-03-06T15:11:51Z</time>
      </trkpt>
      <trkpt lat="45.9989" lon="6.54138">
        <ele>1069</ele>
        <time>2022-03-06T15:11:55Z</time>
      </trkpt>
      <trkpt lat="45.999" lon="6.54141">
        <ele>1068</ele>
        <time>2022-03-06T15:11:58Z</time>
      </trkpt>
      <trkpt lat="45.99911" lon="6.54147">
        <ele>1067</ele>
        <time>2022-03-06T15:12:01Z</time>
      </trkpt>
      <trkpt lat="45.9992" lon="6.54155">
        <ele>1067</ele>
        <time>2022-03-06T15:12:04Z</time>
      </trkpt>
      <trkpt lat="45.9993" lon="6.54159">
        <ele>1067</ele>
        <time>2022-03-06T15:12:09Z</time>
      </trkpt>
      <trkpt lat="45.99923" lon="6.54168">
        <ele>1069</ele>
        <time>2022-03-06T15:12:15Z</time>
      </trkpt>
      <trkpt lat="45.99913" lon="6.54169">
        <ele>1070</ele>
        <time>2022-03-06T15:12:25Z</time>
      </trkpt>
      <trkpt lat="45.99918" lon="6.54158">
        <ele>1068</ele>
        <time>2022-03-06T15:12:40Z</time>
      </trkpt>
      <trkpt lat="45.99926" lon="6.54165">
        <ele>1068</ele>
        <time>2022-03-06T15:12:46Z</time>
      </trkpt>
      <trkpt lat="45.99931" lon="6.54177">
        <ele>1071</ele>
        <time>2022-03-06T15:12:55Z</time>
      </trkpt>
      <trkpt lat="45.9994" lon="6.54171">
        <ele>1069</ele>
        <time>2022-03-06T15:13:06Z</time>
      </trkpt>
      <trkpt lat="45.99941" lon="6.54157">
        <ele>1066</ele>
        <time>2022-03-06T15:13:11Z</time>
      </trkpt>
      <trkpt lat="45.9995" lon="6.54158">
        <ele>1067</ele>
        <time>2022-03-06T15:13:25Z</time>
      </trkpt>
      <trkpt lat="45.99959" lon="6.54157">
        <ele>1067</ele>
        <time>2022-03-06T15:13:32Z</time>
      </trkpt>
      <trkpt lat="45.99967" lon="6.54153">
        <ele>1067</ele>
        <time>2022-03-06T15:13:40Z</time>
      </trkpt>
      <trkpt lat="45.99976" lon="6.54147">
        <ele>1065</ele>
        <time>2022-03-06T15:13:52Z</time>
      </trkpt>
      <trkpt lat="45.99986" lon="6.54146">
        <ele>1065</ele>
        <time>2022-03-06T15:13:58Z</time>
      </trkpt>
      <trkpt lat="45.99995" lon="6.54149">
        <ele>1065</ele>
        <time>2022-03-06T15:14:06Z</time>
      </trkpt>
      <trkpt lat="46.00004" lon="6.54144">
        <ele>1064</ele>
        <time>2022-03-06T15:14:12Z</time>
      </trkpt>
      <trkpt lat="46.00011" lon="6.54137">
        <ele>1062</ele>
        <time>2022-03-06T15:14:21Z</time>
      </trkpt>
      <trkpt lat="46.00019" lon="6.54129">
        <ele>1060</ele>
        <time>2022-03-06T15:14:26Z</time>
      </trkpt>
      <trkpt lat="46.00028" lon="6.54124">
        <ele>1059</ele>
        <time>2022-03-06T15:14:33Z</time>
      </trkpt>
      <trkpt lat="46.00036" lon="6.54117">
        <ele>1056</ele>
        <time>2022-03-06T15:14:40Z</time>
      </trkpt>
      <trkpt lat="46.00046" lon="6.54119">
        <ele>1055</ele>
        <time>2022-03-06T15:14:48Z</time>
      </trkpt>
      <trkpt lat="46.00056" lon="6.54117">
        <ele>1054</ele>
        <time>2022-03-06T15:14:57Z</time>
      </trkpt>
      <trkpt lat="46.00063" lon="6.54109">
        <ele>1051</ele>
        <time>2022-03-06T15:15:02Z</time>
      </trkpt>
      <trkpt lat="46.00068" lon="6.54099">
        <ele>1050</ele>
        <time>2022-03-06T15:15:06Z</time>
      </trkpt>
      <trkpt lat="46.00078" lon="6.54099">
        <ele>1049</ele>
        <time>2022-03-06T15:15:19Z</time>
      </trkpt>
      <trkpt lat="46.00088" lon="6.54101">
        <ele>1049</ele>
        <time>2022-03-06T15:15:28Z</time>
      </trkpt>
      <trkpt lat="46.00094" lon="6.54101">
        <ele>1049</ele>
        <time>2022-03-06T15:15:33Z</time>
      </trkpt>
      <trkpt lat="46.00104" lon="6.54101">
        <ele>1050</ele>
        <time>2022-03-06T15:15:41Z</time>
      </trkpt>
      <trkpt lat="46.00113" lon="6.54102">
        <ele>1050</ele>
        <time>2022-03-06T15:15:50Z</time>
      </trkpt>
      <trkpt lat="46.00123" lon="6.54101">
        <ele>1049</ele>
        <time>2022-03-06T15:15:59Z</time>
      </trkpt>
      <trkpt lat="46.00133" lon="6.54101">
        <ele>1049</ele>
        <time>2022-03-06T15:16:07Z</time>
      </trkpt>
      <trkpt lat="46.00141" lon="6.54095">
        <ele>1048</ele>
        <time>2022-03-06T15:16:21Z</time>
      </trkpt>
      <trkpt lat="46.0014" lon="6.54092">
        <ele>1048</ele>
        <time>2022-03-06T15:16:26Z</time>
      </trkpt>
      <trkpt lat="46.0014" lon="6.54094">
        <ele>1048</ele>
        <time>2022-03-06T15:16:38Z</time>
      </trkpt>
      <trkpt lat="46.00142" lon="6.54092">
        <ele>1048</ele>
        <time>2022-03-06T15:16:46Z</time>
      </trkpt>
      <trkpt lat="46.00143" lon="6.54093">
        <ele>1048</ele>
        <time>2022-03-06T15:17:03Z</time>
      </trkpt>
    </trkseg>
  </trk>
</gpx>